GFSSW_sfc_wetblb_000.txt.gz
Wetbulb
59.29 59.40 59.67 59.99 60.33 60.79 61.07 61.21 61.10 61.42 61.84 61.99 61.56 61.85 61.85 62.08 61.15 56.52 53.24 58.78 60.12 62.58 61.00 57.20 56.01 55.38 56.07 54.83 54.61 53.64 43.87 42.66 45.58 44.47 44.95 46.76 44.83 46.83 45.44 43.72 45.49 48.20 45.32 45.36 48.74
58.06 58.10 58.53 58.95 59.29 59.87 60.38 60.55 60.58 60.83 61.31 61.63 61.49 61.57 61.82 61.47 57.82 55.37 61.65 62.94 63.07 62.91 57.50 54.48 53.43 54.29 51.62 52.86 52.09 48.21 45.24 46.03 46.93 46.53 44.95 46.63 46.23 46.25 43.47 43.91 44.64 45.49 47.11 46.86 46.69
57.11 57.07 57.35 57.69 58.31 59.03 59.55 59.85 60.32 60.57 60.88 61.13 61.22 61.38 61.40 60.12 55.47 55.17 63.54 63.28 62.76 61.29 57.42 55.59 54.73 53.92 50.86 52.13 50.63 48.99 44.87 48.28 47.38 48.34 47.74 46.63 45.93 47.47 44.82 43.50 46.15 45.70 47.02 44.79 44.44
56.87 56.62 56.58 56.65 57.24 58.11 58.70 59.00 59.55 60.08 60.30 60.68 60.96 61.16 60.76 59.90 46.75 56.89 61.56 61.41 61.66 59.29 55.63 54.26 53.22 50.60 48.64 48.75 51.53 45.18 49.25 49.65 50.04 48.29 46.61 44.95 46.74 45.75 45.85 46.42 47.95 46.31 46.92 45.41 44.76
57.21 56.61 56.28 56.33 56.67 57.33 57.78 58.15 58.77 59.31 59.78 60.16 60.51 61.03 59.35 53.03 52.55 56.63 59.91 60.09 57.14 55.33 53.34 52.38 50.97 50.83 48.48 49.23 48.93 46.58 47.60 49.29 49.20 47.87 46.56 47.99 45.68 45.15 45.57 47.93 49.39 49.32 47.27 45.52 44.94
57.53 56.91 56.42 56.12 56.45 56.93 57.11 57.51 58.23 58.77 59.24 59.66 60.00 60.08 55.48 46.93 55.70 56.65 54.15 54.60 55.06 53.74 52.17 52.07 50.64 51.20 48.88 48.07 46.50 47.43 47.43 47.36 48.13 47.85 47.73 45.34 44.59 45.10 46.21 48.73 48.45 48.73 45.95 45.51 45.85
57.49 56.83 56.26 56.05 56.18 56.46 56.63 57.05 57.73 58.50 58.78 59.42 59.85 59.39 53.43 50.15 55.62 54.72 53.96 53.54 53.27 53.13 51.78 52.85 52.25 50.45 50.64 47.80 48.32 46.80 42.67 45.40 46.54 46.86 45.49 45.31 41.96 42.93 47.25 47.16 46.31 46.71 46.91 46.43 46.28
57.05 56.43 56.08 56.16 56.29 56.22 56.63 57.22 57.73 58.23 58.73 58.99 59.86 57.67 49.63 55.90 54.69 53.63 53.87 52.25 52.92 52.95 52.86 52.28 51.73 50.80 48.73 48.68 46.65 42.20 42.37 38.32 44.90 46.40 44.79 43.92 37.74 45.39 47.65 46.55 46.18 45.08 44.84 45.99 46.63
56.47 55.96 55.83 56.06 56.16 56.23 56.76 56.82 57.02 58.22 58.65 58.57 56.83 55.09 48.71 55.67 53.10 53.74 53.20 51.62 51.66 51.98 51.37 51.79 51.79 48.25 47.01 41.85 39.89 41.88 36.83 39.37 42.95 46.56 43.75 41.77 38.74 45.09 44.42 43.80 44.02 44.06 44.81 45.75 46.35
56.28 55.71 55.51 55.60 55.97 56.17 56.69 57.09 58.15 56.77 57.50 58.89 55.84 50.25 50.44 49.62 52.66 52.89 51.25 52.36 50.65 50.07 49.35 48.68 47.09 43.18 42.22 40.50 34.29 37.10 37.44 40.40 39.57 42.94 42.60 39.66 39.55 43.62 45.20 44.47 44.27 45.68 46.05 45.96 46.28
56.23 55.83 55.87 55.91 56.26 57.00 55.02 54.29 51.14 51.91 52.54 49.27 50.03 49.63 49.98 51.76 53.26 50.32 50.97 49.78 49.84 47.80 42.57 45.85 40.50 38.53 41.41 43.49 43.86 42.57 40.57 39.26 42.71 44.43 41.39 40.33 41.15 43.06 44.48 44.87 44.58 45.50 46.22 45.63 45.07
56.65 56.27 56.34 56.42 56.73 56.84 54.30 50.00 49.39 49.08 42.77 48.60 49.20 49.77 50.98 52.23 47.99 49.61 50.09 45.39 45.18 41.24 43.71 41.63 38.45 43.88 44.64 43.87 41.53 40.16 38.36 38.65 42.11 43.64 40.16 39.28 39.49 42.68 43.14 44.26 45.57 45.45 45.67 45.20 43.42
56.87 56.41 56.23 56.31 56.45 54.96 52.01 50.03 52.89 52.63 43.52 45.20 47.86 47.30 47.59 49.20 45.67 46.66 46.99 46.08 43.24 41.43 42.19 39.90 42.21 45.19 43.37 41.09 40.51 39.56 37.24 37.97 38.33 40.84 38.81 36.07 35.04 38.16 41.67 44.30 44.66 45.02 45.86 43.78 43.55
57.01 56.40 56.04 55.83 53.04 53.13 50.03 51.53 52.92 52.10 37.66 41.57 43.96 46.82 47.22 47.22 41.84 45.62 47.30 45.56 43.57 40.75 41.77 41.09 44.71 43.40 41.35 40.12 40.83 36.51 41.22 40.16 39.58 35.56 30.87 36.67 30.99 36.52 38.78 40.86 41.53 43.23 44.38 41.60 42.65
56.62 56.34 56.23 55.54 51.30 50.18 50.31 51.83 52.45 48.93 28.09 43.72 41.74 48.71 46.82 43.15 42.31 41.77 43.86 42.55 39.85 39.90 39.97 38.93 38.92 38.46 38.50 40.05 41.87 37.95 38.31 36.76 36.37 34.13 32.32 33.05 30.35 34.23 39.55 37.99 39.94 42.19 44.55 43.14 43.97
56.38 56.11 55.58 54.23 53.41 53.11 52.94 51.76 49.73 36.59 27.20 40.48 42.97 41.34 41.58 42.17 41.29 41.44 41.66 42.68 41.75 39.07 39.47 39.41 40.53 39.46 39.99 38.58 38.93 38.84 36.33 35.52 33.50 31.88 26.16 32.80 33.03 31.07 35.65 38.67 39.64 41.63 43.01 43.04 41.80
56.30 55.97 54.46 55.41 50.94 52.88 51.77 48.73 36.01 29.61 42.02 40.02 39.88 41.40 40.59 40.13 40.20 38.49 37.07 35.06 34.59 31.50 32.72 37.16 37.86 38.27 39.77 36.71 36.70 36.16 33.57 25.41 24.35 23.16 27.34 35.04 31.10 36.83 39.02 40.13 41.19 41.32 41.99 41.94 41.92
56.43 56.00 54.63 54.68 52.66 52.20 48.52 41.63 29.83 40.25 39.66 42.51 40.73 40.97 38.42 40.76 40.10 38.75 37.39 34.51 37.34 36.28 34.20 32.77 32.36 37.16 38.67 38.70 37.08 33.74 35.23 27.40 20.19 24.95 29.96 28.36 27.74 35.07 41.72 43.26 42.53 42.73 42.10 42.26 41.00
56.51 55.25 53.60 54.28 51.88 51.36 43.69 31.79 35.97 42.84 45.70 43.96 43.48 37.22 37.51 39.27 39.57 38.71 36.30 37.34 39.42 38.79 34.30 33.28 34.28 36.10 37.88 38.29 39.77 34.82 30.89 36.78 28.77 23.23 24.21 32.28 35.27 39.42 41.26 41.37 40.93 40.36 39.94 39.74 40.04
54.22 52.94 51.82 54.66 51.79 48.12 37.92 34.66 38.49 47.33 46.89 44.51 38.02 39.85 36.66 38.44 36.38 36.71 37.00 39.34 39.27 40.92 42.01 37.22 33.28 37.44 34.44 34.83 35.11 34.21 36.23 28.75 29.48 18.68 17.10 29.76 30.67 34.70 38.99 41.13 39.55 38.16 38.53 39.37 39.91
52.88 48.35 52.01 52.47 50.95 43.45 33.10 34.87 41.45 46.72 47.39 43.41 41.84 38.93 38.28 37.28 39.29 37.78 37.40 40.23 40.63 40.62 41.74 37.20 36.18 33.59 33.18 30.78 32.93 29.80 30.19 32.02 33.07 30.73 23.07 24.47 31.25 36.49 37.81 38.83 39.18 39.00 39.42 40.18 40.60
50.89 43.14 49.75 51.49 40.52 40.12 36.43 39.53 43.29 43.40 46.80 43.19 40.33 39.04 36.99 37.25 36.06 37.01 36.92 40.69 42.37 41.13 37.29 39.58 36.31 30.19 34.08 37.57 35.00 35.90 34.67 35.37 29.91 28.04 27.15 30.55 31.75 40.69 38.71 39.13 39.26 39.44 41.21 41.26 41.65
46.43 46.51 49.16 49.81 38.51 37.79 39.98 40.55 42.37 42.19 42.50 42.75 42.16 42.00 42.76 39.38 35.13 36.52 38.11 42.23 42.56 40.92 35.82 38.28 32.19 27.24 28.87 35.01 32.96 31.31 34.07 35.99 35.80 33.60 30.31 26.84 30.58 41.37 42.48 41.62 39.73 38.70 39.25 40.71 41.41
44.99 39.77 42.30 43.67 43.88 41.05 39.55 38.16 38.24 43.45 42.38 43.14 42.20 43.03 40.38 37.63 39.57 37.05 37.30 40.60 42.55 41.52 42.02 40.97 34.11 31.16 27.45 31.45 35.53 31.38 32.12 32.73 33.86 29.55 29.98 30.49 32.74 37.91 40.20 40.93 42.18 42.66 42.67 39.98 40.20
42.93 39.98 41.97 35.80 37.66 39.80 40.66 39.09 37.67 37.42 42.53 43.75 40.34 40.67 39.47 35.84 36.86 36.41 37.97 38.83 39.96 41.50 39.63 39.11 31.02 31.73 33.67 35.21 34.32 32.95 33.36 34.18 32.58 32.71 28.74 32.55 33.42 37.38 39.88 40.69 41.76 42.97 41.54 41.53 40.81
37.89 39.36 40.55 39.79 40.98 39.56 38.74 36.60 36.94 39.06 39.99 39.03 38.73 40.39 40.00 37.13 38.17 36.78 37.60 38.60 37.87 37.77 37.83 38.80 32.28 32.00 29.94 32.55 32.44 30.30 33.16 33.84 33.36 33.99 34.45 34.69 33.41 39.96 41.10 41.86 41.46 41.60 42.17 41.66 41.79
42.15 42.02 37.35 34.77 35.78 35.57 35.83 36.51 37.00 39.19 39.93 41.13 40.98 39.74 38.66 40.38 42.77 43.33 43.67 43.15 41.88 39.19 35.93 33.70 32.14 30.31 27.24 31.85 30.84 27.27 31.52 33.17 34.27 36.30 35.41 31.23 36.73 41.22 40.36 40.81 41.61 42.52 43.09 43.06 42.38

GFSSW_sfc_wetblb_003.txt.gz
Wetbulb
58.71 58.69 58.93 59.23 59.55 60.06 60.56 60.82 60.78 60.79 60.92 61.09 61.16 61.54 61.71 61.57 61.06 54.92 50.81 57.09 57.84 62.91 59.76 54.15 52.70 51.80 51.14 50.14 50.34 48.41 39.17 36.65 40.20 41.02 41.61 43.48 42.56 43.66 44.13 42.33 43.90 46.79 44.31 44.60 45.67
57.82 57.76 57.94 58.21 58.49 59.05 59.58 59.89 60.09 60.37 60.64 60.95 60.94 60.98 61.39 60.81 55.85 52.59 60.05 65.65 64.15 62.96 55.07 51.18 49.56 50.18 46.64 48.26 48.11 44.48 39.26 41.61 44.39 42.59 41.97 43.60 43.36 43.87 41.66 41.64 42.12 43.38 42.69 44.79 44.00
57.59 57.40 57.42 57.49 57.84 58.35 58.75 58.96 59.17 59.72 60.18 60.53 60.75 60.82 60.88 59.49 52.52 51.99 63.49 64.91 64.30 61.26 54.92 52.60 51.23 50.41 45.97 47.05 46.20 44.25 40.51 44.69 45.23 45.56 44.32 43.94 42.37 44.62 42.61 40.84 42.70 43.38 44.05 43.09 41.36
57.53 57.18 57.00 57.04 57.32 57.89 58.25 58.30 58.52 59.06 59.74 60.04 60.32 60.64 60.44 56.17 38.51 54.31 61.83 62.66 62.50 56.24 53.19 50.61 49.08 46.24 44.16 43.93 48.21 42.88 46.28 46.83 47.73 47.00 44.78 42.87 44.38 43.56 43.45 46.15 46.85 46.08 45.56 43.14 40.85
57.90 57.05 56.59 56.52 56.82 57.38 57.70 57.88 58.05 58.44 59.04 59.56 59.87 60.20 55.88 48.09 49.01 55.61 60.23 59.92 55.75 53.85 50.58 49.16 47.23 46.47 43.60 45.07 45.36 43.79 44.53 46.75 47.15 46.33 45.39 45.46 44.16 43.07 43.50 45.33 46.05 46.53 45.87 43.16 42.73
57.94 57.17 56.51 56.17 56.45 56.93 57.18 57.40 57.60 57.79 58.34 58.91 59.49 59.16 49.38 42.66 53.00 54.35 52.97 53.45 52.65 50.53 49.02 49.08 47.70 48.33 45.37 44.67 42.87 43.76 44.81 44.42 45.23 45.89 45.38 44.46 42.20 43.57 44.38 45.73 45.56 46.17 44.97 42.93 43.60
57.30 56.79 56.45 56.37 56.23 56.46 56.60 57.01 57.39 57.44 57.76 58.49 59.40 58.07 49.79 46.47 52.60 51.91 52.40 50.54 50.18 50.14 48.67 49.20 48.98 46.68 45.57 44.18 45.79 44.15 41.71 42.14 44.78 44.16 43.57 44.20 41.07 41.28 47.19 44.48 44.69 44.58 44.82 44.24 43.59
57.02 56.31 56.19 56.27 56.26 56.31 56.47 57.15 57.51 57.86 57.67 58.76 59.11 54.24 44.27 53.13 49.93 51.31 50.89 49.12 49.67 50.05 50.31 49.84 49.19 47.91 45.74 45.54 43.72 39.27 37.80 35.59 41.52 42.80 43.44 43.38 37.85 43.15 45.04 42.96 43.30 44.58 42.94 43.10 43.74
57.10 56.24 56.19 56.36 56.21 56.40 56.81 57.03 57.03 57.42 58.30 58.26 53.01 49.58 44.30 54.77 49.78 50.99 50.41 48.85 49.08 49.14 48.51 50.86 49.23 45.04 43.64 38.57 35.88 35.70 32.48 34.62 39.50 43.75 41.81 40.15 37.90 42.58 44.14 42.57 43.05 41.68 41.85 44.04 45.48
57.21 56.27 56.24 56.52 56.50 56.61 56.98 57.22 56.61 56.27 55.79 57.53 55.42 45.26 47.38 46.83 50.67 50.21 48.36 50.19 48.06 47.66 46.98 46.07 43.62 39.24 38.46 35.70 31.13 32.09 32.75 36.14 36.23 39.54 39.12 37.35 39.17 43.10 42.92 41.29 41.31 41.38 41.44 41.70 44.27
57.42 56.68 56.54 56.75 56.91 57.23 54.89 49.60 44.57 44.93 48.68 43.48 44.52 44.77 47.11 48.97 50.74 48.08 48.73 48.00 47.67 45.02 39.94 42.74 37.13 35.39 39.66 39.35 38.92 36.66 35.04 34.20 39.79 42.24 40.17 40.36 39.98 42.46 43.84 41.37 40.76 41.74 43.67 45.11 44.26
57.69 57.03 56.80 56.81 57.06 56.86 52.15 46.78 46.10 45.72 39.34 45.68 45.47 47.30 49.18 49.35 45.32 47.21 48.63 43.96 42.89 39.10 40.48 38.67 35.93 41.32 41.22 40.97 39.11 37.67 35.82 35.26 39.45 40.35 38.86 38.39 39.02 41.49 40.50 42.49 43.96 43.91 44.16 45.23 43.00
57.56 56.90 56.55 56.47 56.53 52.93 48.37 46.49 49.86 48.89 39.80 42.56 44.84 43.59 44.71 47.94 44.04 44.13 46.22 43.41 40.47 37.87 38.84 38.45 39.86 43.41 41.75 39.60 37.86 38.21 35.92 36.92 36.14 38.73 37.48 35.27 33.76 36.90 40.00 40.94 43.41 44.57 44.95 45.25 42.60
57.38 56.85 56.20 55.71 51.44 49.17 45.44 48.56 49.89 48.06 31.80 37.66 40.96 44.28 45.25 44.47 39.76 43.23 44.99 43.71 40.63 38.99 38.52 38.11 42.58 40.94 38.03 37.56 39.29 36.19 39.16 38.92 36.41 33.27 31.68 33.97 30.08 34.68 37.18 38.48 39.97 42.36 43.92 41.53 39.55
56.78 56.59 56.13 54.91 47.86 47.24 48.87 49.41 48.56 43.98 23.17 39.65 40.34 47.09 44.54 40.26 39.64 39.98 41.42 40.04 37.13 37.34 37.43 37.20 36.35 36.46 37.09 39.32 39.44 37.97 37.88 35.96 33.69 31.69 29.82 31.35 28.64 31.68 36.60 35.87 39.41 42.33 43.91 43.23 39.85
56.56 56.33 55.66 52.96 49.71 49.57 49.82 48.24 45.64 31.88 22.58 37.42 40.17 38.75 38.43 39.48 38.87 39.29 39.11 40.27 39.04 36.14 36.70 36.34 37.48 38.09 38.18 37.09 38.48 37.71 34.25 33.40 31.30 29.37 26.18 30.22 30.90 31.67 32.98 36.96 38.10 41.76 43.19 43.89 40.36
56.59 56.12 54.39 54.14 49.29 50.33 49.75 47.65 34.26 26.57 37.67 36.95 36.83 38.39 36.97 36.75 37.23 35.86 34.34 32.35 31.95 28.89 29.09 33.59 35.37 36.31 38.77 34.95 35.05 34.52 31.67 23.82 22.19 20.40 25.62 32.52 28.05 35.50 37.09 38.79 40.16 41.73 42.51 43.17 40.11
56.80 56.29 54.61 54.54 51.46 51.72 49.96 40.80 30.52 37.54 35.98 40.98 39.37 37.23 35.53 37.91 37.66 35.79 33.31 30.84 33.92 33.36 30.77 29.90 31.21 34.86 37.50 37.97 34.48 32.15 33.57 25.30 18.28 22.50 29.37 25.93 25.81 34.07 39.73 41.85 41.14 42.22 43.26 39.93 38.92
56.26 54.90 53.51 54.21 52.07 50.51 44.38 33.60 35.47 37.51 43.88 43.33 44.41 40.32 34.29 36.49 36.38 34.93 31.92 31.84 35.54 36.86 32.54 30.17 32.15 34.74 35.79 35.88 38.12 32.45 30.16 36.23 27.22 16.33 21.12 31.55 33.38 37.75 39.50 39.81 39.78 40.38 36.32 38.85 38.70
53.83 52.40 51.51 53.58 51.99 48.11 39.50 38.72 37.76 42.66 45.29 44.03 39.38 41.05 37.24 38.12 36.94 35.57 33.11 35.89 36.77 38.19 41.19 37.02 31.76 36.20 33.55 34.33 34.50 34.18 34.72 27.64 27.36 19.43 17.28 29.24 26.68 33.51 37.46 40.52 41.40 38.51 37.27 37.74 37.78
52.55 47.62 50.29 52.14 51.14 43.94 35.90 37.33 40.46 44.47 44.41 42.16 40.71 40.54 39.55 39.14 39.93 38.45 36.23 39.59 38.10 38.49 39.33 36.67 35.25 33.87 31.87 31.04 32.10 31.49 30.71 31.73 31.72 28.51 26.57 24.68 30.58 36.73 34.64 38.20 39.83 38.13 37.16 37.26 38.30
49.03 42.43 50.29 51.78 41.20 40.99 39.00 39.49 43.07 42.63 44.33 43.69 42.44 41.35 40.30 41.07 39.59 39.35 37.99 39.88 44.10 41.10 37.67 37.31 34.45 28.79 30.66 34.63 34.41 34.93 33.13 33.67 29.46 26.49 26.42 29.07 31.22 40.75 36.51 36.87 37.37 37.85 38.87 37.32 38.90
44.93 43.74 49.35 49.52 37.71 38.67 40.04 41.24 42.73 41.56 42.05 41.99 41.19 42.10 42.84 39.38 35.76 38.33 39.00 43.42 44.95 41.99 38.36 38.67 32.31 27.27 28.48 32.71 31.93 32.38 33.01 34.12 34.34 30.14 27.80 24.95 29.03 42.12 42.10 40.55 37.48 36.61 37.71 38.41 39.29
42.57 37.69 42.26 43.57 43.97 40.98 39.11 39.10 39.11 43.24 41.67 42.23 41.14 42.31 40.22 38.63 40.57 38.14 38.64 41.81 43.55 42.78 42.89 42.27 34.39 31.03 28.16 31.86 33.89 29.17 30.17 31.82 33.60 28.30 30.28 29.89 32.05 37.30 39.48 40.16 41.73 42.22 43.21 43.60 40.65
38.86 34.83 39.14 34.93 37.31 39.59 39.73 38.49 37.13 37.22 41.89 42.59 39.67 39.64 38.61 35.24 36.42 36.89 39.67 40.09 41.24 41.59 39.91 39.32 32.57 33.40 34.02 35.20 34.69 33.43 32.74 33.97 31.66 33.17 29.20 32.39 32.88 36.11 38.85 40.10 41.32 42.78 42.87 40.75 38.04
34.23 34.10 36.82 37.48 39.43 38.52 37.59 35.83 35.78 37.04 37.70 36.55 36.30 38.17 39.32 36.67 37.61 35.78 37.27 38.37 37.58 37.43 38.45 39.31 32.84 35.13 32.46 34.56 33.64 31.70 34.56 34.78 34.48 34.24 33.88 34.22 33.67 40.68 42.41 43.20 42.19 42.74 43.15 42.09 41.81
37.27 37.86 37.15 32.12 30.81 31.70 33.07 34.84 35.33 37.58 38.74 39.40 35.96 33.98 34.10 36.95 36.91 37.57 37.48 38.34 39.02 37.72 36.68 36.06 33.55 32.23 29.11 33.81 32.97 28.95 32.90 34.20 34.56 35.92 34.85 30.25 35.67 40.48 39.88 40.77 41.94 42.76 43.33 42.94 42.78

GFSSW_sfc_wetblb_006.txt.gz
Wetbulb
58.54 58.53 58.77 58.93 59.00 59.40 59.75 60.00 60.09 60.32 60.62 61.00 61.09 61.02 61.18 61.45 60.71 53.62 49.27 54.83 57.35 63.72 60.08 53.11 51.65 50.59 49.61 48.53 48.82 46.09 37.33 34.80 37.71 39.07 40.94 41.90 41.25 42.71 42.51 41.44 42.64 45.62 43.01 43.49 44.26
58.26 58.16 58.22 58.31 58.44 58.82 59.14 59.34 59.28 59.51 60.06 60.49 60.76 60.87 60.88 61.08 53.99 50.61 58.79 65.31 64.88 64.01 53.24 50.14 48.33 48.80 45.40 46.57 46.80 43.22 36.66 38.53 42.36 42.02 40.94 42.36 42.41 41.99 40.37 41.14 41.19 42.95 43.07 43.43 43.43
58.06 57.88 57.81 57.81 57.91 58.32 58.64 58.72 58.71 58.91 59.39 59.85 60.24 60.38 60.50 59.21 49.66 50.21 63.59 65.73 64.60 62.54 53.41 51.56 49.93 48.83 44.26 45.03 44.99 43.17 39.50 42.76 44.85 44.61 43.82 42.90 41.12 43.45 41.17 40.76 42.17 43.03 43.99 42.33 40.99
58.02 57.53 57.33 57.29 57.39 57.81 58.17 58.24 58.33 58.47 58.76 59.17 59.71 60.06 60.04 54.62 38.32 51.72 62.81 64.33 63.88 54.99 52.17 49.37 47.70 44.90 43.13 42.56 46.22 40.79 44.52 44.66 46.35 46.26 43.42 42.35 42.72 41.93 41.82 46.51 45.73 44.99 43.39 41.85 40.91
58.14 57.25 56.80 56.78 56.98 57.37 57.71 57.84 57.96 58.18 58.36 58.59 59.10 59.88 53.94 45.75 47.33 55.46 61.40 61.15 56.11 53.34 49.57 48.21 46.38 45.40 42.24 43.06 43.58 42.60 43.48 45.54 45.98 45.48 43.78 43.94 43.37 42.66 42.86 44.78 44.93 45.06 43.98 42.04 42.65
57.57 57.17 56.88 56.63 56.65 56.93 57.15 57.33 57.63 58.02 58.17 58.24 58.60 58.47 47.67 39.80 50.82 54.49 53.05 53.37 51.97 49.64 48.26 48.27 46.85 47.09 44.09 43.51 42.49 42.00 43.72 43.68 44.00 44.72 44.16 43.54 42.33 43.18 46.37 43.96 44.49 44.79 44.47 42.28 42.59
57.58 57.03 56.78 56.97 56.74 56.75 56.86 57.03 57.29 57.65 57.68 58.20 58.56 57.26 48.71 44.47 51.02 51.44 51.59 50.07 49.79 49.02 47.31 47.71 47.97 46.60 43.68 42.35 44.77 42.62 40.91 40.97 43.07 42.59 42.26 42.22 39.88 40.04 47.11 42.73 43.84 43.63 43.24 43.40 42.71
57.73 57.11 56.77 56.93 57.14 57.29 57.44 57.58 57.61 57.70 57.51 58.13 58.93 53.13 42.61 51.41 48.93 49.61 49.33 48.15 48.47 48.48 48.36 48.26 47.80 45.99 43.87 44.49 42.02 37.74 37.08 34.52 39.99 40.87 41.84 41.93 37.43 42.72 45.05 42.43 43.58 43.29 42.33 42.33 43.83
57.52 57.15 56.81 56.94 56.98 57.07 57.37 57.39 57.32 57.34 57.75 58.63 52.24 47.41 42.92 53.83 48.11 49.82 49.19 47.47 47.52 47.99 47.52 50.38 47.43 43.02 42.05 37.79 34.77 33.18 31.27 32.31 37.16 41.86 40.67 39.29 37.74 42.74 42.39 41.36 41.69 42.61 41.47 42.44 44.03
57.60 57.26 56.93 56.96 57.02 57.13 57.33 57.43 56.12 55.41 56.36 57.17 54.42 43.65 46.31 45.73 49.19 48.46 47.03 48.64 46.16 46.32 45.40 44.97 41.97 38.38 37.27 35.00 30.29 31.59 30.35 33.19 34.52 38.17 37.82 36.69 38.05 43.17 43.21 40.67 40.17 41.12 39.95 39.76 41.50
57.80 57.52 57.23 57.09 57.33 57.63 54.83 48.98 43.88 42.26 46.45 42.15 43.28 43.18 45.39 48.30 49.22 47.13 47.84 47.23 46.79 42.93 38.13 40.32 36.05 34.39 39.23 37.96 39.65 33.62 32.69 32.75 36.21 40.18 37.54 37.34 38.83 41.56 44.64 41.27 38.93 41.16 43.38 44.76 45.32
57.87 57.65 57.38 57.21 57.30 57.18 50.15 46.36 45.02 44.96 39.16 44.98 44.73 45.34 47.36 48.00 43.89 46.17 48.10 43.58 42.39 37.93 38.86 36.48 33.83 40.02 40.85 38.38 37.73 36.85 35.37 35.20 38.54 39.82 36.19 37.57 37.51 41.18 41.44 43.34 44.01 43.70 43.96 43.91 44.87
57.62 57.20 56.87 56.75 56.67 51.25 46.39 45.09 48.64 47.58 38.41 40.97 43.48 42.37 43.40 47.08 42.88 43.26 45.86 42.27 38.83 36.72 37.79 37.65 38.82 41.65 39.44 37.19 35.80 35.92 34.62 35.81 35.31 36.32 35.23 33.77 34.83 35.49 39.30 41.45 43.43 41.68 43.95 45.40 46.08
57.53 57.01 56.43 55.97 51.39 48.01 45.14 47.80 48.51 46.58 30.14 35.89 39.73 42.05 43.92 44.17 39.12 42.30 42.99 41.80 38.44 37.35 36.60 36.08 40.89 39.72 37.14 36.20 38.35 35.28 38.11 37.59 34.86 31.43 30.45 33.04 29.71 33.42 36.74 38.41 40.08 40.95 42.50 42.98 44.18
57.10 56.88 56.19 55.07 48.43 47.00 48.77 49.29 47.52 41.73 24.01 38.15 39.37 45.94 43.70 39.06 38.41 38.58 40.16 40.12 35.32 35.78 36.29 35.28 35.87 35.87 35.12 38.30 38.29 37.54 36.62 35.35 32.57 29.50 28.58 28.28 27.21 32.59 35.93 34.88 38.40 42.17 41.95 43.59 44.88
56.79 56.52 55.68 52.52 49.13 49.74 49.70 47.40 44.06 32.80 25.03 35.66 38.61 37.56 37.26 38.53 37.80 37.92 37.92 39.50 37.58 34.95 34.92 35.91 36.27 36.86 37.20 36.82 37.14 36.37 34.25 32.55 29.56 28.48 26.14 30.63 29.71 31.38 31.64 35.76 37.14 40.71 42.45 43.07 44.47
56.96 56.51 54.30 53.29 49.00 50.56 49.14 47.27 39.82 30.06 38.09 35.77 34.99 36.95 35.75 34.89 36.01 35.17 33.91 32.87 32.59 29.00 28.22 31.84 33.65 34.35 37.55 34.04 34.19 35.26 32.42 23.93 21.31 19.59 23.90 31.37 26.31 35.92 36.46 39.26 38.94 40.97 42.43 43.08 43.87
55.52 56.61 54.46 54.16 51.42 51.20 49.85 44.06 33.99 38.54 36.59 40.35 40.05 36.42 35.42 36.86 36.87 34.91 31.85 30.27 33.03 32.06 28.95 28.03 30.29 34.04 36.15 36.18 33.22 32.45 33.42 28.12 18.33 22.09 29.62 25.09 25.56 33.61 38.60 40.37 40.72 40.46 41.16 41.31 39.61
55.49 55.07 53.70 54.47 51.74 51.72 46.16 36.67 37.86 38.80 42.63 41.71 41.93 38.64 35.32 35.07 37.22 34.35 31.42 31.10 34.18 35.21 32.36 29.66 31.31 34.70 35.25 35.35 37.09 30.08 28.75 35.66 27.67 14.65 18.72 30.28 32.78 37.52 36.03 38.81 38.25 38.98 39.31 39.35 38.55
52.63 52.38 51.88 54.11 52.36 49.58 41.74 39.29 40.19 42.50 43.32 43.72 37.97 39.66 35.02 35.46 37.54 34.90 33.58 35.00 35.15 36.24 37.96 34.09 30.32 35.45 32.22 33.90 33.36 34.17 35.37 27.38 26.69 21.31 17.95 26.64 26.44 32.87 35.86 36.90 36.98 37.85 39.51 39.19 37.26
50.63 47.16 50.82 52.01 51.58 44.64 36.46 38.63 41.84 43.81 44.80 41.64 40.12 39.59 38.15 38.21 39.42 37.45 37.50 37.16 38.70 36.07 38.61 36.59 33.82 32.49 31.03 30.42 32.33 30.47 30.99 31.25 31.42 29.48 26.78 25.10 29.53 34.42 35.17 34.03 35.89 38.57 40.13 36.66 37.18
47.76 40.38 50.58 51.88 41.35 41.61 38.62 40.64 43.04 42.55 44.52 43.30 42.41 41.01 39.87 39.83 38.90 39.86 39.33 41.00 42.85 40.31 37.25 38.08 34.92 30.68 33.23 35.99 33.57 33.32 34.06 35.22 29.67 27.05 26.65 27.71 29.40 41.52 41.58 40.83 41.47 40.40 41.19 38.25 37.70
43.44 42.38 49.98 49.78 37.19 38.84 40.43 40.34 42.23 41.15 41.29 41.57 40.73 41.57 42.14 39.21 36.11 39.35 39.75 43.54 44.27 42.79 39.85 40.10 34.66 29.60 30.44 34.33 35.15 29.90 32.94 34.24 33.73 31.75 29.75 26.26 28.69 42.10 42.26 40.96 42.11 40.30 41.72 39.17 38.57
40.29 35.99 42.75 44.39 44.13 40.10 38.17 38.71 38.28 42.66 41.97 42.51 40.97 41.54 38.95 37.01 39.29 37.07 37.59 40.54 42.36 42.13 43.72 42.16 36.57 32.81 27.79 31.72 33.97 30.33 31.02 31.10 32.68 28.72 29.73 29.73 32.10 37.19 39.36 40.43 42.26 42.38 42.96 39.68 41.60
37.12 33.67 38.68 33.76 37.65 39.01 39.14 38.43 35.95 35.77 39.90 41.04 38.51 38.59 37.50 34.42 35.23 34.78 37.86 37.59 39.40 41.37 41.43 39.65 33.23 34.70 35.25 36.55 36.45 35.69 34.91 35.36 32.93 33.95 29.58 32.70 33.23 36.91 39.66 40.88 42.17 43.85 44.31 41.36 39.14
32.76 32.59 35.37 34.98 35.75 37.00 36.99 34.80 35.00 36.09 36.57 35.47 35.71 37.72 37.22 33.70 34.01 32.63 33.55 33.08 33.20 35.87 34.51 36.71 32.29 34.67 32.49 34.75 33.48 32.08 34.78 35.23 34.65 34.67 34.45 34.57 33.86 41.11 42.49 43.05 42.12 42.95 43.60 43.18 42.89
34.65 36.01 35.59 30.43 29.15 27.18 30.73 32.29 33.73 34.79 36.57 37.66 36.08 32.15 31.73 33.06 34.07 34.01 35.06 34.85 34.48 32.47 31.32 31.98 31.10 30.17 27.44 31.42 30.18 26.77 32.92 33.42 34.39 35.88 35.54 31.01 35.96 37.50 36.10 37.63 40.41 41.20 37.05 35.79 37.17

GFSSW_sfc_wetblb_009.txt.gz
Wetbulb
58.84 58.82 58.91 58.99 59.04 59.36 59.68 59.80 59.72 59.67 59.92 60.32 60.66 60.70 60.70 61.02 60.43 52.70 48.12 54.20 55.95 63.71 58.65 51.59 50.70 49.29 48.39 47.10 47.23 43.52 36.19 33.40 35.96 37.25 40.42 40.66 39.97 41.69 41.56 41.57 41.47 44.21 42.17 42.52 42.91
58.49 58.32 58.39 58.48 58.49 58.75 59.09 59.25 59.14 59.26 59.48 59.77 60.11 60.32 60.32 60.49 53.32 49.17 57.40 63.88 64.94 63.92 51.90 49.81 47.48 47.77 44.64 45.17 45.67 42.24 34.57 36.67 39.73 40.10 40.26 40.89 41.15 41.55 41.51 40.21 39.91 42.13 42.34 42.28 42.23
58.18 57.94 57.93 58.06 58.10 58.35 58.54 58.66 58.64 58.78 59.08 59.16 59.41 59.76 59.88 58.40 47.49 46.57 62.24 65.23 65.61 61.29 52.51 50.03 48.66 47.68 42.92 43.39 43.92 41.92 38.75 41.07 43.54 44.20 42.89 41.86 40.41 42.38 39.58 40.01 41.35 42.57 44.09 41.66 40.73
57.97 57.61 57.52 57.63 57.83 57.91 58.08 58.14 58.20 58.34 58.73 58.92 59.02 59.28 58.98 53.45 38.01 48.16 63.23 65.33 64.53 54.87 51.13 48.65 46.26 43.72 41.80 41.80 44.61 39.45 43.41 42.94 44.44 44.74 42.81 41.47 42.23 41.01 41.29 46.13 44.81 44.56 43.45 41.40 40.38
57.93 57.59 57.30 57.29 57.54 57.80 57.82 57.77 57.83 57.91 58.13 58.51 58.75 59.33 51.84 43.34 45.87 54.40 62.67 62.69 55.96 51.71 49.13 47.09 44.94 44.32 41.30 41.50 42.09 41.02 42.35 44.64 44.71 44.23 43.39 43.27 42.37 41.55 41.91 46.04 43.99 44.15 43.06 41.80 41.41
57.80 57.41 57.37 57.42 57.47 57.71 57.75 57.78 57.78 57.81 57.72 58.02 58.47 58.43 45.92 38.63 48.63 54.79 53.68 53.60 50.58 49.16 47.03 46.80 45.36 46.00 42.24 42.38 42.11 41.25 42.38 43.00 42.77 43.11 43.29 42.92 44.47 41.56 44.86 43.88 44.15 43.09 42.85 41.58 41.22
58.12 57.67 57.44 57.61 57.85 57.96 57.98 58.07 57.86 58.03 57.66 57.90 58.09 56.35 46.56 43.76 49.62 52.04 51.64 49.97 49.77 48.16 45.50 45.93 45.78 44.36 42.23 40.40 42.98 41.42 39.87 39.80 40.65 40.77 41.58 41.48 39.32 38.46 45.67 41.80 43.39 42.22 42.43 42.50 41.77
58.09 57.55 57.47 57.53 57.68 57.88 58.05 58.18 58.16 58.22 57.90 57.92 57.97 51.79 41.11 49.84 48.79 49.22 48.65 47.02 47.63 47.58 47.10 46.99 46.98 44.87 42.19 43.01 41.09 36.76 36.05 33.18 38.71 39.30 39.77 40.59 35.89 43.79 43.61 41.49 42.67 42.67 41.86 41.60 42.63
57.84 57.38 57.55 57.58 57.42 57.47 57.82 57.98 57.76 57.21 57.39 58.47 51.80 45.55 41.58 52.49 47.31 48.77 48.15 47.03 47.00 46.92 46.33 50.12 46.18 42.38 40.46 36.52 33.97 31.84 30.03 31.21 35.39 40.68 39.66 38.75 36.08 42.33 42.18 40.46 41.07 41.16 41.49 42.21 42.97
57.67 57.50 57.55 57.60 57.43 57.51 57.69 57.54 56.18 55.58 56.75 56.66 53.38 41.34 42.52 44.26 48.22 47.79 46.54 47.85 45.21 44.93 43.87 43.49 40.36 37.36 35.20 33.75 29.31 30.53 28.26 31.37 31.83 38.06 36.01 35.44 36.23 40.84 43.62 40.06 40.69 41.85 42.47 43.84 44.70
57.77 57.70 57.73 57.61 57.71 57.95 54.20 47.51 43.79 41.94 45.53 42.08 42.98 40.88 43.50 46.56 48.48 45.59 47.34 46.82 45.11 41.57 37.15 38.96 35.12 33.23 38.08 37.03 38.78 32.63 31.60 30.96 34.90 39.06 34.59 36.33 37.70 39.95 42.93 42.90 43.32 40.01 42.60 44.21 44.51
57.97 57.78 57.70 57.54 57.65 56.93 48.07 44.83 42.87 43.72 37.80 44.14 44.21 44.54 46.07 46.59 42.75 44.69 46.80 42.69 40.97 37.34 37.50 35.20 32.87 39.24 38.80 37.18 35.69 34.48 33.83 33.80 37.89 39.68 34.33 36.07 36.23 38.96 39.89 41.26 43.32 44.06 44.03 44.37 44.89
58.01 57.41 57.16 57.09 56.66 50.51 45.01 44.04 47.80 46.62 37.03 40.00 42.46 41.56 42.53 45.64 42.21 42.43 45.09 41.38 38.38 35.89 36.49 36.61 37.32 40.18 37.83 35.83 34.48 33.95 32.47 34.87 34.44 35.22 34.26 33.12 34.44 36.74 37.74 38.90 42.15 43.37 44.23 44.49 44.14
58.04 57.43 56.80 56.36 51.85 47.65 45.13 47.43 48.01 45.45 31.51 35.26 38.36 40.26 42.48 43.09 38.50 41.23 41.23 40.48 37.28 36.35 35.46 35.36 39.22 38.41 35.37 34.07 36.23 33.86 36.63 36.19 34.11 30.12 29.31 31.98 28.55 31.87 37.49 39.02 39.90 40.98 42.44 42.16 43.05
57.31 57.42 56.74 55.16 48.95 47.34 47.96 48.51 47.23 40.67 28.45 38.80 38.13 44.47 42.36 37.74 37.24 37.71 39.59 39.11 35.43 35.72 34.84 33.93 34.18 33.55 33.69 36.52 36.57 35.36 35.80 34.05 30.72 28.09 27.42 27.75 25.16 29.94 34.62 35.27 37.19 39.30 40.68 42.25 42.77
57.19 56.80 56.20 52.79 49.49 49.52 48.35 47.55 42.72 34.93 30.25 36.01 37.61 36.47 36.48 37.21 36.66 36.91 36.93 38.37 36.95 33.85 33.67 35.06 35.17 36.52 36.39 35.73 36.39 35.61 32.73 31.24 28.27 27.59 23.63 29.46 28.81 30.27 31.42 35.17 35.38 38.09 40.45 40.99 41.15
55.61 56.82 54.43 53.22 50.12 50.95 48.55 47.57 39.47 32.98 39.31 35.64 33.98 35.56 33.96 33.62 34.84 34.20 33.43 32.51 32.23 28.03 27.67 30.10 32.49 33.47 36.62 32.75 32.79 33.22 30.02 22.86 20.62 18.98 23.02 29.19 26.09 35.68 37.37 39.94 37.98 40.48 39.11 40.19 40.07
53.67 55.62 54.88 53.73 52.01 50.92 50.50 44.52 33.04 38.56 37.37 39.90 38.05 34.93 35.61 36.09 37.60 34.93 30.82 30.16 32.58 30.32 27.63 27.39 30.61 33.08 35.34 35.14 32.46 30.92 31.30 24.16 16.58 20.58 28.19 24.98 24.63 35.55 38.20 38.94 36.93 38.35 38.65 38.28 38.47
53.09 55.01 54.11 54.68 52.06 53.04 47.88 36.48 36.19 39.74 41.16 40.54 40.76 36.01 35.16 34.88 36.47 33.19 30.37 30.51 34.65 34.69 31.77 27.58 28.87 32.22 34.05 34.59 36.76 30.06 27.83 33.48 26.85 18.58 19.84 29.82 31.87 37.71 36.06 37.13 35.42 36.99 36.02 37.99 40.22
47.85 52.25 51.71 54.28 53.03 50.76 43.04 38.14 38.98 43.08 42.68 42.58 37.01 39.54 34.12 32.75 37.46 34.88 33.79 33.81 33.99 35.49 36.09 34.58 29.02 33.97 31.67 32.86 32.88 33.28 34.09 26.34 25.07 19.17 19.32 25.44 29.14 31.64 35.31 39.08 39.00 37.31 38.16 39.11 39.23
48.46 45.28 48.88 51.93 52.20 45.22 36.54 38.37 40.83 44.32 44.41 41.75 40.13 38.90 37.57 37.11 38.19 38.49 38.78 38.29 36.80 35.40 36.94 36.61 33.71 32.49 33.36 30.29 34.17 28.56 28.85 29.57 30.12 28.29 25.20 23.94 27.81 39.85 37.83 35.64 36.06 37.32 38.23 38.99 38.85
46.26 39.14 49.72 52.03 41.74 42.02 38.27 40.33 42.76 41.80 43.67 43.55 42.35 41.50 39.55 39.49 38.34 38.55 37.91 40.21 43.70 41.42 37.78 39.63 35.57 30.91 32.68 33.97 34.46 32.68 32.20 31.61 26.41 26.17 28.92 29.57 30.34 42.00 42.18 41.31 39.55 39.78 42.59 40.82 38.74
39.96 39.53 50.14 49.53 36.72 37.86 40.26 40.58 42.21 40.73 40.71 41.13 40.45 41.44 41.34 38.60 34.92 37.55 38.66 43.08 43.69 42.40 39.24 38.60 34.09 29.54 29.86 31.41 31.83 32.39 34.91 35.09 34.87 32.53 27.04 24.49 28.82 41.60 42.27 42.09 42.45 39.70 37.59 39.04 39.87
38.54 32.48 41.64 44.26 42.74 39.50 37.16 37.39 37.65 42.36 41.23 42.27 40.70 40.97 38.70 36.83 38.80 35.96 36.40 39.14 40.33 40.82 42.59 41.38 36.05 33.11 28.39 30.38 33.78 31.49 32.13 33.83 33.14 28.78 28.90 29.44 31.51 36.54 39.17 40.22 42.02 42.22 40.07 40.01 37.61
36.53 32.60 36.74 29.15 36.11 37.27 37.84 36.19 33.94 35.00 40.86 41.74 38.56 38.81 37.48 34.16 34.54 34.08 36.26 35.96 36.65 38.42 37.40 38.15 31.69 33.31 33.88 34.88 35.02 34.11 33.33 33.74 32.78 33.04 28.16 31.03 32.47 36.62 39.28 39.58 37.38 37.96 36.26 34.94 33.90
32.85 30.90 34.39 31.72 33.93 33.72 35.05 33.48 33.46 34.21 36.52 35.10 34.77 36.36 36.47 34.12 35.23 32.17 31.35 32.27 31.92 33.37 32.21 34.49 27.43 30.27 28.45 30.64 30.69 29.88 32.89 32.44 31.98 30.63 30.02 31.08 31.13 35.29 29.58 29.26 30.30 29.56 29.45 29.40 30.48
33.18 34.39 34.58 29.54 28.43 27.92 28.93 31.30 32.52 32.63 35.26 36.44 34.08 33.35 32.97 34.13 32.57 32.07 32.11 32.37 32.54 30.12 27.45 28.71 27.70 25.19 20.96 26.26 25.18 21.29 26.40 28.91 30.85 33.27 29.81 25.85 24.13 27.26 25.53 25.65 28.44 27.31 28.05 28.74 30.39

GFSSW_sfc_wetblb_012.txt.gz
Wetbulb
58.85 58.73 58.86 59.05 59.04 59.18 59.46 59.58 59.55 59.49 59.59 59.78 60.03 60.19 60.29 60.44 59.86 51.46 46.45 53.40 54.81 63.69 58.16 50.98 49.78 47.94 47.52 46.21 45.75 41.98 35.92 32.18 34.98 35.36 38.49 40.13 39.45 42.74 42.41 41.15 40.33 43.66 42.20 42.30 41.97
58.39 58.30 58.45 58.63 58.70 58.75 58.90 58.94 58.92 59.01 59.29 59.50 59.59 59.75 59.98 60.02 52.40 48.30 56.46 62.42 64.84 63.01 50.66 49.06 46.92 46.91 43.93 43.91 44.54 41.56 34.04 35.99 38.33 37.93 39.31 39.99 40.45 41.39 42.05 40.26 39.96 41.40 42.88 41.55 41.97
58.16 58.07 58.14 58.28 58.47 58.57 58.44 58.26 58.22 58.39 58.75 58.99 59.29 59.36 59.51 57.60 44.99 44.67 62.20 63.71 65.61 60.79 51.14 48.76 47.78 46.84 42.03 42.99 43.17 40.51 38.40 39.33 41.56 42.17 41.97 41.27 39.97 41.25 39.48 39.92 41.04 42.10 43.67 41.71 40.69
57.93 57.85 57.87 57.99 58.21 58.51 58.52 58.31 58.17 58.06 58.23 58.38 58.76 59.00 59.05 51.56 37.55 46.35 63.74 65.15 64.85 52.35 49.92 47.48 45.48 42.72 40.91 40.84 43.40 39.62 42.41 42.18 42.90 43.35 41.81 41.48 41.58 40.16 41.22 46.45 44.90 44.35 43.85 40.98 40.63
58.11 58.03 57.87 57.85 58.09 58.37 58.50 58.49 58.57 58.22 58.02 58.06 58.30 58.84 50.27 40.85 44.29 54.09 63.04 62.95 53.93 50.48 48.18 45.99 43.76 42.56 39.73 40.12 40.54 39.59 41.07 43.51 43.72 42.73 43.13 42.37 42.73 41.25 40.50 45.32 44.23 43.48 42.59 41.94 41.04
58.27 58.06 57.97 58.15 58.29 58.43 58.49 58.53 58.53 58.48 58.08 57.89 57.99 58.08 44.94 38.27 47.35 55.39 55.54 52.61 50.45 48.46 46.27 45.92 44.43 44.99 41.37 40.80 40.90 39.64 40.88 41.38 41.58 42.33 42.43 42.07 43.96 42.35 42.91 42.49 43.62 42.22 42.24 41.37 40.72
58.47 58.14 57.95 58.16 58.56 58.62 58.66 58.68 58.55 58.54 58.23 58.15 57.66 55.50 44.51 43.59 48.85 52.03 52.11 49.32 48.96 48.15 45.34 45.40 45.36 43.52 41.69 38.84 40.84 40.39 38.87 38.67 38.72 39.33 39.81 40.37 38.88 37.59 44.67 40.19 42.52 41.70 41.29 41.21 41.35
58.36 57.88 57.74 57.99 58.23 58.38 58.47 58.63 58.62 58.39 58.10 58.05 57.77 50.35 39.97 48.09 48.41 48.89 48.43 46.17 46.70 46.50 46.17 46.37 46.37 44.28 41.16 41.07 39.48 34.96 34.61 32.50 36.58 37.63 38.44 39.56 33.97 42.43 41.86 38.25 41.03 41.46 41.49 41.42 42.30
57.81 57.45 57.69 57.96 57.95 57.93 58.18 58.21 57.29 58.57 58.05 57.89 50.47 43.89 40.04 51.36 46.33 47.48 47.31 46.00 46.25 45.71 45.21 49.13 45.08 41.11 39.24 35.01 33.04 31.15 29.60 30.20 34.21 39.14 37.95 37.13 34.32 40.94 39.74 39.13 40.28 40.96 41.64 42.06 44.74
57.64 57.48 57.70 57.90 57.84 57.85 57.83 56.42 55.95 55.63 56.37 56.38 51.97 40.66 42.63 41.84 46.53 46.26 45.62 46.89 44.40 44.06 43.29 42.28 39.28 36.57 34.10 33.17 28.71 30.00 27.57 29.73 30.60 37.11 34.48 34.40 35.42 39.71 41.92 39.82 39.56 42.36 43.65 44.33 44.49
57.86 57.76 57.89 57.87 57.99 58.09 52.04 45.67 42.42 40.71 44.36 42.18 42.42 39.87 41.27 45.34 47.27 44.93 46.49 46.26 44.10 40.76 37.11 37.80 34.16 32.61 37.09 35.90 35.23 30.91 30.16 30.11 32.90 37.33 33.17 37.18 37.36 38.91 40.53 40.16 41.74 42.68 42.52 43.29 43.51
58.40 58.13 57.90 57.75 57.84 56.12 46.99 43.39 42.17 42.82 38.74 43.17 42.90 44.03 45.12 45.45 41.89 43.33 45.83 42.32 40.26 36.40 36.15 34.21 31.28 37.81 36.57 35.15 34.45 32.95 32.37 32.94 36.00 38.11 33.33 34.48 35.21 38.98 40.43 41.25 42.11 42.50 43.15 43.49 44.05
58.50 57.93 57.60 57.32 56.54 50.31 45.00 43.44 47.42 46.15 36.48 40.28 41.83 41.09 42.03 44.82 41.07 41.67 43.78 40.01 37.25 34.95 35.02 34.70 36.21 38.61 36.38 33.84 33.91 31.70 30.31 33.57 32.59 33.74 32.95 31.32 31.87 33.31 37.48 38.05 41.25 42.15 42.98 41.71 42.50
58.34 57.95 57.39 56.57 51.95 47.61 45.07 46.96 47.56 44.46 34.50 36.89 37.34 39.43 41.37 41.40 37.04 40.38 41.11 39.63 36.49 35.83 34.45 33.93 37.07 36.94 33.35 33.33 34.99 32.80 35.49 34.90 32.89 29.47 26.11 31.60 26.87 31.55 35.62 37.10 37.15 39.60 38.72 39.49 40.79
57.55 57.52 57.40 55.22 49.11 48.23 47.75 47.81 46.27 40.08 28.87 38.82 36.86 43.19 41.13 37.32 36.16 36.82 38.98 38.17 34.00 34.15 33.15 33.62 32.83 32.60 32.41 34.72 35.07 33.90 34.67 32.89 29.65 27.81 26.27 25.63 24.46 29.76 32.38 34.06 36.47 38.03 39.01 39.13 38.86
56.31 57.07 56.44 53.43 50.37 50.39 48.78 47.95 42.98 36.60 29.89 36.77 36.60 35.63 35.49 36.39 35.80 36.15 36.58 37.73 35.86 33.08 32.60 33.69 33.73 35.01 35.66 35.21 35.68 34.62 31.65 30.16 27.00 26.49 22.54 27.79 27.44 29.14 30.23 33.66 34.55 38.80 38.77 40.22 39.32
53.70 55.08 54.60 53.48 50.76 50.02 48.88 47.60 39.19 33.53 39.92 35.97 33.52 34.63 33.47 33.42 34.21 33.84 33.04 31.88 31.25 28.13 27.04 28.92 31.68 33.04 35.02 31.69 32.14 32.42 28.68 22.16 19.95 18.54 22.27 26.44 24.75 33.29 35.91 37.99 37.68 38.58 38.70 39.13 38.69
52.11 54.02 55.09 54.14 51.33 51.37 51.48 45.19 32.27 36.57 37.12 39.39 37.06 35.58 34.58 35.44 36.18 33.96 31.35 29.74 31.89 29.69 27.22 27.32 31.16 32.73 33.90 34.57 32.56 29.96 30.32 23.97 18.41 18.77 27.80 23.33 24.99 34.60 36.79 38.03 38.22 37.65 37.95 36.89 36.54
51.75 52.44 53.76 54.33 53.32 53.04 48.10 37.48 36.24 35.91 39.70 39.41 40.37 36.35 34.68 34.56 36.76 32.14 30.31 29.83 33.60 33.92 33.04 27.67 28.67 31.27 33.14 32.95 34.42 28.94 27.32 31.98 27.76 23.05 20.52 29.62 31.45 37.54 36.84 35.16 34.82 35.99 36.42 37.01 37.31
45.62 48.96 49.46 54.05 52.88 50.72 43.35 38.75 40.11 42.23 41.99 41.96 37.54 39.42 33.05 33.48 32.79 31.90 31.97 32.98 33.61 34.66 35.83 34.49 30.77 34.47 33.31 32.53 32.35 32.07 32.90 26.29 25.89 20.86 17.59 24.89 26.71 30.52 36.09 37.32 38.74 38.91 38.39 37.13 40.16
46.35 42.73 47.12 51.50 52.44 45.55 37.14 37.89 40.94 44.09 44.37 41.36 39.73 38.93 39.06 37.52 38.07 37.93 38.53 38.43 35.66 34.65 35.69 37.11 33.59 31.70 33.60 30.08 31.68 30.72 29.78 29.24 29.74 28.67 24.24 23.09 27.65 38.83 37.84 37.73 35.60 35.71 37.33 39.35 42.25
44.33 36.05 49.07 52.06 41.14 41.65 37.49 39.99 42.17 41.75 43.37 41.53 42.04 40.37 38.26 38.71 37.17 36.63 36.81 40.29 42.42 39.50 36.55 39.23 36.11 30.91 32.46 35.00 34.63 32.72 35.00 33.12 27.37 25.04 25.51 27.77 27.94 39.69 40.14 40.76 41.65 37.74 37.09 33.95 34.65
38.76 37.75 48.75 49.54 34.25 35.79 39.48 39.84 41.22 40.40 40.49 40.37 39.48 40.53 41.05 37.89 34.75 37.84 37.77 42.06 41.77 40.77 39.12 38.81 34.57 28.92 29.76 29.84 32.46 31.79 34.39 35.45 34.87 33.16 28.74 25.11 27.04 39.94 40.85 40.50 31.68 33.60 32.78 32.62 32.79
37.68 29.34 40.39 43.18 40.84 37.79 35.12 35.14 35.85 41.05 40.49 40.80 39.91 40.50 38.15 36.32 37.80 35.32 36.57 38.72 38.73 39.16 40.95 39.82 33.52 31.11 26.87 29.38 32.82 31.42 33.16 34.35 33.22 28.65 28.60 29.07 30.81 35.50 36.23 35.31 30.49 30.32 29.44 29.86 30.28
32.97 29.68 33.56 31.62 32.57 35.73 36.38 35.83 32.87 32.71 37.56 39.69 37.25 36.89 35.98 33.68 34.60 34.77 36.58 36.48 35.81 37.62 36.24 36.57 30.82 32.49 33.68 34.52 32.13 29.95 28.80 29.22 28.12 30.04 26.61 28.53 28.67 30.01 27.15 26.50 28.45 28.01 28.56 28.00 28.42
28.94 29.82 31.88 30.75 31.29 32.03 30.89 31.38 32.02 32.96 34.19 33.12 33.03 34.08 34.40 32.73 33.25 31.56 33.26 32.17 31.25 32.42 31.67 33.37 26.52 27.78 24.16 27.07 27.15 25.82 28.75 28.52 28.11 27.87 27.75 28.85 26.66 25.73 26.53 27.49 26.73 27.74 26.74 26.64 27.46
31.14 32.84 33.27 27.78 27.45 26.39 25.53 28.42 29.48 29.88 33.00 33.13 30.77 31.24 30.44 32.39 32.19 32.07 31.99 31.03 30.99 28.30 28.16 28.45 26.87 23.21 19.16 23.99 22.25 18.10 23.24 25.67 27.03 29.02 25.31 21.36 21.38 22.84 22.57 24.39 25.55 26.45 28.48 26.84 27.25

GFSSW_sfc_wetblb_015.txt.gz
Wetbulb
58.80 58.86 59.16 59.35 59.33 59.34 59.50 59.40 59.30 59.31 59.53 59.82 60.00 59.93 60.00 60.20 59.63 52.91 46.17 52.93 54.49 64.12 58.08 51.39 50.73 49.55 49.73 48.41 47.71 45.07 38.72 35.26 38.01 37.09 40.37 43.24 42.51 44.13 44.71 44.71 44.47 45.92 46.18 47.84 45.96
58.58 58.62 58.84 59.03 59.10 59.15 59.10 58.87 58.66 58.79 59.01 59.23 59.46 59.71 59.73 59.70 52.26 48.06 56.14 62.12 64.91 62.21 50.60 49.16 47.58 47.86 45.63 46.15 46.54 43.33 37.10 37.93 40.18 39.75 41.49 43.10 42.98 44.23 44.06 44.30 42.93 44.46 45.91 45.56 45.27
58.33 58.34 58.50 58.70 58.86 59.09 59.17 59.03 58.83 58.65 58.59 58.63 58.89 59.27 59.31 57.08 44.29 44.02 62.17 63.03 65.23 59.21 50.53 49.11 48.24 47.51 44.44 45.20 44.90 42.36 40.07 40.80 41.93 41.58 42.96 43.14 42.00 44.02 42.85 42.95 44.14 44.45 46.36 45.17 44.22
58.38 58.29 58.35 58.46 58.74 59.09 59.16 59.14 59.38 59.01 58.67 58.50 58.50 58.79 59.19 51.12 37.68 44.76 63.23 64.68 64.60 51.62 49.97 47.89 46.88 44.43 42.71 42.17 44.34 40.72 42.80 42.47 44.16 44.06 43.05 42.83 43.12 42.32 42.72 47.72 47.95 45.97 46.65 45.43 44.01
58.58 58.49 58.54 58.45 58.68 59.07 59.18 59.18 59.49 59.39 58.79 58.54 58.35 58.49 50.52 40.33 43.91 55.34 63.63 63.84 52.57 50.38 48.47 46.50 44.98 43.64 41.33 41.20 41.80 40.89 41.74 43.77 43.84 43.32 43.34 43.24 43.47 42.96 42.33 45.81 46.04 45.33 44.04 44.38 43.84
58.54 58.37 58.38 58.48 58.72 59.05 59.12 59.15 59.22 59.30 58.78 58.64 58.32 58.04 43.15 38.48 47.87 57.35 56.40 52.27 50.36 48.78 46.74 46.54 45.25 45.16 42.03 41.23 41.64 41.01 41.86 41.62 41.82 42.69 42.40 42.62 43.91 42.25 44.00 44.71 44.67 43.20 44.47 43.21 43.04
58.60 58.31 58.13 58.30 58.87 59.10 59.08 59.17 58.94 58.81 58.59 58.73 58.17 54.86 42.06 42.86 49.03 52.79 52.51 49.60 49.40 48.02 45.44 45.64 45.98 44.86 43.31 40.05 41.69 40.84 39.30 39.57 39.25 40.34 40.33 40.89 39.49 38.45 44.98 42.18 43.24 43.85 42.87 42.58 42.86
58.27 57.84 57.76 58.06 58.45 58.74 58.89 58.99 58.69 58.25 58.21 58.16 57.88 50.11 39.29 47.45 48.79 49.25 47.49 46.14 47.17 46.95 46.76 46.58 46.31 44.99 42.90 42.55 40.10 36.80 35.93 33.85 38.50 38.60 39.18 40.86 36.05 42.37 42.66 40.05 41.89 42.62 43.79 43.33 45.29
57.78 57.46 57.72 58.09 58.14 58.17 58.50 58.15 56.99 58.93 58.21 58.10 48.96 41.76 39.68 51.05 45.92 46.70 46.70 45.48 45.69 45.59 46.11 48.07 45.77 41.59 40.42 36.56 33.81 33.37 30.97 31.23 34.57 39.28 38.43 38.17 35.83 40.46 41.05 40.45 41.21 43.15 44.48 45.23 45.53
57.68 57.55 57.80 58.07 58.04 58.08 57.71 55.19 55.79 55.11 55.90 55.87 50.98 40.02 42.81 42.01 46.24 45.89 45.40 46.43 44.26 44.16 43.58 42.83 39.07 36.88 34.62 34.20 29.73 30.87 29.00 30.18 31.67 37.95 35.70 35.58 35.63 40.32 41.91 41.68 42.38 43.41 43.77 44.08 44.66
58.04 57.99 58.12 58.04 58.18 58.15 50.71 44.73 44.44 41.89 43.26 41.34 42.23 40.54 40.89 44.38 46.78 44.70 46.14 45.77 43.89 41.22 36.87 38.12 34.58 32.74 36.63 35.97 35.04 32.58 30.96 30.02 33.22 37.10 34.36 37.30 37.23 38.76 40.84 40.72 41.17 42.63 43.75 43.78 44.04
58.80 58.52 58.34 57.96 57.96 56.09 46.89 43.07 41.56 42.11 38.58 43.91 42.66 43.34 43.92 44.49 41.32 42.69 45.72 41.91 40.13 36.46 36.35 34.25 31.75 37.51 36.80 35.65 34.86 33.32 31.96 32.16 35.10 37.36 33.70 34.47 35.74 39.53 40.99 41.62 42.43 42.69 43.25 42.46 43.02
58.62 58.34 58.10 57.65 56.97 50.37 44.97 43.63 47.28 45.66 36.50 41.16 41.51 40.75 41.47 44.23 40.56 41.19 43.44 40.09 37.42 34.42 34.64 33.99 35.90 38.15 36.31 34.15 33.61 31.49 30.95 33.22 31.97 33.39 33.94 31.72 31.99 33.90 39.32 38.48 40.01 41.94 41.93 41.69 41.34
58.33 58.10 58.04 56.85 52.38 47.66 45.41 46.26 47.07 43.52 34.81 37.80 37.03 38.99 40.62 40.58 36.33 40.29 41.06 39.29 35.79 35.22 34.18 33.57 36.68 36.17 33.46 33.51 34.14 31.55 35.05 34.07 32.01 30.07 27.17 32.99 26.37 31.62 36.99 38.52 37.88 39.13 39.63 39.73 40.41
57.21 57.51 57.38 55.57 49.30 48.21 46.98 46.96 46.21 40.55 29.35 38.53 36.24 42.42 40.39 36.75 35.89 37.08 38.97 37.58 33.54 33.86 33.84 33.74 32.89 32.27 32.33 34.49 34.78 33.36 33.75 32.04 31.07 28.69 27.13 27.26 25.47 30.61 33.37 34.51 37.48 39.40 40.54 41.38 41.54
54.80 56.68 55.84 53.30 51.39 49.72 47.46 47.10 43.15 39.36 31.06 37.03 35.99 34.99 34.73 35.35 35.07 35.96 36.64 37.73 35.61 32.96 32.56 33.43 34.38 34.82 35.14 34.34 35.14 34.71 31.99 30.38 28.06 27.65 23.02 28.43 28.05 29.00 31.56 34.80 35.72 40.34 40.30 40.37 40.14
52.57 53.93 55.04 53.39 50.55 49.02 47.99 48.18 37.23 33.77 40.69 36.15 33.90 33.86 32.36 32.06 33.38 33.51 33.43 31.37 31.95 28.22 28.04 30.71 32.05 33.06 34.65 31.67 32.96 33.56 30.59 24.04 22.34 20.20 23.58 27.18 25.09 31.87 35.18 37.01 38.55 39.57 40.17 38.83 38.73
51.29 53.11 54.61 54.28 50.88 48.90 50.33 45.31 33.19 36.58 36.98 39.21 37.31 34.40 34.34 35.03 34.87 32.46 32.31 30.48 31.88 30.49 28.39 28.44 31.49 32.25 34.69 34.96 33.38 31.48 32.12 28.18 21.17 20.87 28.34 23.96 26.50 33.94 36.69 37.87 38.43 36.71 37.50 38.32 39.85
50.70 50.81 52.16 52.77 51.35 52.49 47.91 35.16 36.16 37.32 39.32 38.22 39.90 35.67 32.78 34.14 36.41 32.55 30.29 30.33 33.02 33.80 32.43 27.61 29.08 31.64 32.49 33.22 36.25 30.15 28.86 33.64 27.88 25.99 22.12 29.38 32.01 39.13 36.90 37.05 36.72 37.36 36.48 34.80 34.58
44.46 46.78 47.33 52.86 51.61 51.02 43.02 35.97 38.07 40.94 41.77 41.23 36.31 37.96 32.84 34.68 34.77 34.09 32.71 33.52 32.19 34.27 34.99 33.94 30.75 34.79 32.74 32.15 32.32 33.04 34.23 27.65 26.77 21.54 20.79 26.29 26.30 30.68 33.85 34.45 34.98 32.11 31.85 33.10 33.54
44.68 40.91 45.58 52.00 52.49 45.65 35.03 36.01 38.98 42.88 43.73 41.26 39.48 38.29 38.02 37.18 37.94 36.94 37.32 39.58 37.31 35.86 35.70 36.74 33.42 31.99 34.38 30.23 30.81 29.27 28.82 29.71 30.57 29.61 24.14 23.47 27.30 34.91 33.74 31.76 31.18 32.13 32.49 31.44 31.61
42.40 32.85 47.25 53.00 40.89 41.01 36.75 39.15 41.13 40.04 42.63 41.10 41.15 39.48 38.10 37.80 36.18 35.64 35.64 38.57 40.83 38.15 34.92 38.06 36.19 30.77 32.42 35.28 33.06 34.00 33.48 32.61 29.09 27.41 28.15 28.70 28.45 40.10 33.51 33.18 31.87 29.29 29.93 30.23 30.70
37.42 36.68 45.92 49.60 34.94 35.53 38.86 38.39 40.82 38.74 39.67 39.75 38.13 38.83 38.07 36.51 33.19 36.33 35.92 40.10 40.87 40.38 38.94 39.37 34.42 28.51 28.46 30.57 32.34 32.94 34.03 34.92 34.31 31.96 28.01 24.99 27.67 39.29 37.03 30.90 30.68 27.49 27.91 28.82 29.75
34.54 27.71 35.81 43.58 39.30 36.06 32.96 33.81 34.53 38.25 38.68 39.45 38.08 38.37 35.95 34.50 36.70 34.65 35.02 37.93 38.11 38.22 41.10 39.47 34.07 31.72 26.42 29.93 33.25 31.08 32.15 33.46 32.95 28.36 27.98 28.52 29.71 33.41 30.82 27.11 27.68 27.42 27.96 28.38 28.87
31.74 28.82 32.76 25.31 30.66 34.81 34.99 32.72 30.48 30.94 35.73 36.23 34.15 35.09 34.26 32.43 31.09 31.26 35.12 35.43 36.82 37.59 34.43 35.95 29.91 31.47 32.56 33.77 28.94 28.42 27.92 27.91 25.90 27.43 23.98 26.44 26.60 30.99 27.34 25.13 26.57 28.72 28.51 27.84 27.34
28.19 26.61 30.04 30.09 31.84 29.93 33.04 29.19 29.65 31.05 32.18 30.52 30.09 31.61 31.86 30.45 31.63 30.63 31.85 30.46 31.36 32.83 31.97 33.69 27.32 26.14 22.53 27.61 27.89 25.04 25.91 26.19 26.15 26.51 27.07 27.10 26.55 25.48 25.66 26.29 25.43 25.90 27.92 27.26 26.12
29.83 31.65 31.38 26.23 26.54 24.88 24.82 27.67 27.15 28.59 31.46 29.83 28.53 27.85 26.42 30.89 31.89 32.44 32.41 31.53 31.16 29.31 28.12 28.09 25.24 24.15 20.05 23.80 21.09 16.01 21.36 24.19 25.05 26.62 25.00 21.11 20.60 21.91 21.15 24.06 24.82 24.61 26.94 26.67 25.56

GFSSW_sfc_wetblb_018.txt.gz
Wetbulb
59.17 59.27 59.45 59.53 59.64 59.69 59.67 59.45 59.22 59.21 59.37 59.71 59.99 60.15 60.23 60.22 59.70 56.92 50.59 56.35 57.67 63.39 59.80 56.17 55.96 54.97 55.37 53.79 52.98 51.78 47.45 44.62 44.86 44.42 46.16 49.46 48.36 49.33 50.57 50.26 50.13 51.70 52.51 54.67 52.78
58.72 58.81 59.03 59.21 59.33 59.50 59.57 59.51 59.33 59.19 59.13 59.15 59.31 59.58 59.96 59.76 56.20 52.80 59.84 61.63 64.20 62.03 55.33 54.30 52.83 53.63 52.64 52.04 52.95 50.79 47.06 45.95 48.23 48.30 47.27 49.03 48.75 49.94 49.10 50.28 50.87 50.62 53.31 53.21 51.85
58.41 58.49 58.68 58.88 59.12 59.41 59.55 59.53 59.42 59.28 59.08 59.03 59.01 59.16 59.33 59.17 51.33 49.61 62.80 63.20 65.23 60.45 56.16 54.69 54.53 53.02 50.29 51.53 51.42 50.11 46.85 49.45 48.39 48.44 48.15 48.31 48.69 49.78 49.19 48.46 51.17 50.94 52.40 54.10 52.47
58.47 58.54 58.65 58.77 59.04 59.48 59.61 59.63 59.76 59.62 59.20 58.95 58.88 58.90 59.16 56.52 44.10 50.98 62.76 65.02 63.90 56.94 54.79 53.49 52.75 50.53 49.48 48.52 50.57 46.69 49.56 49.55 49.65 49.05 48.41 47.92 49.65 48.39 49.46 50.46 52.70 53.27 53.73 53.13 52.49
58.70 58.64 58.71 58.75 58.93 59.45 59.71 59.73 60.06 59.99 59.42 59.02 58.75 58.61 55.46 48.24 49.49 60.07 63.91 64.51 57.50 54.78 53.57 52.49 50.91 50.43 47.78 48.48 47.98 46.93 48.79 49.57 50.22 48.94 48.83 49.70 48.36 48.83 49.27 51.93 53.01 52.91 51.78 51.09 51.96
58.69 58.51 58.46 58.61 59.02 59.35 59.54 59.59 59.67 59.72 59.12 59.01 58.69 58.06 51.23 43.56 53.38 61.41 61.35 56.03 55.30 54.49 52.93 52.80 51.34 51.82 48.68 47.70 47.26 47.85 47.54 48.01 48.41 48.13 48.43 46.46 47.96 47.04 49.00 51.47 50.53 50.59 50.73 51.50 51.08
58.67 58.33 58.11 58.34 58.96 59.34 59.33 59.50 59.20 58.83 58.70 58.77 58.85 56.16 48.63 48.35 54.90 59.07 56.20 55.04 54.38 54.12 51.35 51.83 52.07 50.69 49.69 46.83 48.22 46.79 44.31 46.72 47.26 46.79 46.05 47.05 44.45 44.77 49.86 50.12 48.78 49.55 50.56 50.82 51.13
58.25 57.89 57.84 58.19 58.61 58.98 59.21 59.15 58.03 59.04 58.53 58.23 58.61 54.89 48.05 51.27 55.74 54.44 53.36 51.65 53.26 52.93 52.14 52.07 52.27 50.49 48.62 48.68 46.11 43.92 43.29 40.91 46.23 44.14 45.14 46.12 41.70 47.33 49.79 47.52 47.68 48.98 50.02 50.47 51.12
57.85 57.61 57.87 58.29 58.34 58.40 58.74 57.76 57.97 58.80 58.67 58.13 54.42 49.79 46.91 53.24 49.83 51.07 52.62 50.32 50.90 51.07 51.71 50.84 51.44 48.29 47.24 44.22 42.25 42.98 39.23 40.35 41.68 45.30 43.70 44.28 42.23 46.93 48.47 47.37 46.76 48.05 48.85 49.44 50.19
57.88 57.81 58.10 58.33 58.28 58.34 57.45 54.88 56.98 57.01 57.20 56.76 53.11 46.74 48.60 46.69 50.02 49.65 50.71 50.84 49.07 49.76 48.82 48.77 47.89 45.08 44.08 42.52 37.31 40.70 39.82 40.21 39.30 44.20 43.86 42.25 41.76 44.44 46.24 45.94 45.76 46.99 48.00 49.05 49.63
58.40 58.41 58.61 58.43 58.47 58.59 54.62 52.90 53.85 51.09 50.70 50.31 50.94 47.48 47.31 49.25 50.91 48.44 49.81 49.11 48.90 47.50 43.86 45.61 42.70 40.59 43.74 44.25 44.15 41.79 40.29 39.38 42.20 44.47 41.71 41.55 42.07 43.89 45.77 46.00 45.81 46.47 47.31 48.54 49.29
59.12 59.03 59.02 58.53 58.32 56.15 53.71 50.48 48.14 47.89 46.47 49.56 47.80 46.99 47.40 49.29 46.19 46.82 49.90 46.40 45.27 42.56 42.36 41.59 39.51 44.53 45.06 42.40 40.92 40.78 39.10 39.04 42.43 43.69 39.84 41.35 40.63 43.43 45.14 45.61 46.82 47.18 47.38 47.90 48.38
58.64 58.39 58.41 58.43 57.48 55.63 51.14 48.75 51.18 49.96 44.47 47.02 46.12 45.20 45.98 48.25 45.61 45.09 47.44 45.91 43.67 40.59 40.81 41.15 43.69 43.70 41.16 41.28 39.41 40.54 38.23 39.50 39.55 41.76 41.67 39.23 40.20 41.27 45.69 46.59 46.93 46.39 47.30 46.69 46.61
58.37 58.01 57.95 57.14 55.35 53.47 51.20 50.09 51.13 49.05 43.06 43.94 42.72 43.95 45.18 46.01 42.12 44.59 45.91 45.31 43.05 41.15 41.25 40.97 42.71 40.14 39.73 38.97 41.02 37.36 42.99 40.19 38.28 36.75 34.96 39.54 33.72 41.57 44.34 44.73 45.78 46.00 46.56 46.77 47.27
57.36 57.65 57.43 56.37 56.99 54.61 51.88 50.82 50.87 47.41 33.66 44.10 41.51 47.62 45.34 42.53 42.23 41.77 44.80 44.80 41.26 41.17 40.86 40.68 38.96 37.77 37.83 39.62 40.52 39.60 39.85 37.88 36.74 36.35 34.86 37.10 33.52 41.26 41.02 40.74 43.84 45.25 45.64 45.25 45.64
55.55 57.14 55.60 54.97 54.94 52.64 51.47 50.68 49.47 42.43 32.78 42.20 41.76 41.06 40.73 41.22 40.55 41.67 42.50 44.35 42.51 40.05 39.97 41.07 40.52 40.62 41.33 39.97 40.10 39.95 39.01 37.89 36.55 36.08 31.11 38.34 36.14 38.83 41.03 41.21 43.01 44.26 42.67 42.88 42.36
52.80 55.26 56.07 54.82 53.12 51.95 51.68 52.76 41.62 34.90 43.89 41.13 39.55 39.65 38.74 38.33 39.09 39.29 39.32 39.05 39.03 36.43 38.10 38.89 38.33 39.95 40.04 37.83 38.42 38.41 36.78 33.15 32.34 32.53 32.05 35.24 34.01 37.51 42.68 42.14 42.04 40.65 40.10 40.45 41.13
51.40 54.25 55.17 55.64 52.92 52.29 54.55 47.26 33.80 39.30 41.21 43.58 42.37 40.02 41.00 41.04 40.51 38.52 38.01 39.66 39.27 37.42 37.03 36.18 35.37 38.01 40.20 40.71 41.26 37.10 37.79 34.30 26.60 28.97 33.01 36.03 32.10 38.93 45.19 42.23 41.34 40.21 39.75 39.55 39.12
51.12 53.14 53.53 54.69 53.38 54.80 50.16 35.45 35.98 40.41 43.64 42.02 43.34 40.03 40.40 40.46 40.46 39.46 38.54 40.19 40.65 39.65 37.14 37.07 36.52 38.73 37.64 39.05 40.48 36.57 33.67 39.46 33.19 33.77 30.03 34.18 38.42 42.72 43.11 39.57 39.83 39.19 39.00 37.55 37.54
49.26 50.04 49.58 54.26 54.20 52.97 43.63 36.23 38.46 43.53 43.90 43.92 38.03 41.08 36.84 39.22 38.99 38.09 38.82 38.87 38.02 38.85 39.93 37.51 32.54 40.10 39.83 38.50 38.47 37.31 40.57 33.16 32.31 24.72 24.36 30.29 32.98 35.35 37.17 36.68 37.47 37.10 36.10 35.51 36.03
47.83 42.37 47.71 53.95 54.42 46.33 36.08 36.98 39.82 44.29 45.32 42.04 40.04 38.94 39.46 38.00 39.16 37.51 38.20 41.56 42.58 41.24 39.83 40.27 36.40 36.70 38.89 36.45 36.60 35.94 32.97 33.60 33.21 31.21 26.61 25.57 31.37 39.96 37.08 36.52 35.36 34.04 33.12 33.34 33.92
45.71 35.65 48.87 53.52 42.44 42.71 37.57 39.31 41.35 41.36 43.95 42.50 42.42 40.99 38.86 39.11 36.94 36.90 36.18 39.83 44.21 42.56 37.87 41.44 36.76 31.85 34.58 41.11 39.99 37.47 36.16 36.64 30.07 28.45 31.19 30.21 30.95 38.20 36.28 35.51 33.59 31.40 31.71 32.72 33.23
41.26 40.52 48.14 50.41 34.89 37.26 39.97 39.39 41.11 40.06 40.47 40.01 39.23 40.82 40.86 37.21 33.29 36.71 37.77 42.16 43.11 41.82 39.16 39.75 34.27 29.99 31.46 35.85 36.46 35.27 37.32 36.56 36.44 34.33 29.67 27.39 29.94 35.92 33.42 32.22 31.26 30.07 30.50 31.11 31.97
39.18 32.76 39.52 44.17 43.40 38.04 36.00 35.72 35.88 40.08 39.95 41.03 39.55 40.55 38.02 35.44 37.35 34.18 35.12 39.20 41.00 40.74 41.32 39.79 34.71 31.29 25.97 30.77 34.69 32.43 34.58 35.21 33.08 29.17 29.20 29.75 31.79 35.57 37.91 36.51 31.12 30.14 30.49 30.74 30.07
36.95 32.24 35.94 34.17 36.26 38.17 37.51 35.15 32.74 32.83 37.65 38.82 36.00 36.99 34.09 31.20 32.23 32.57 35.51 35.62 38.26 37.99 37.83 36.94 30.69 32.02 32.47 33.69 33.47 32.84 31.19 31.50 29.46 29.82 24.78 27.56 28.01 32.25 35.12 33.23 29.97 29.54 30.50 29.83 28.83
32.94 32.93 34.94 33.03 33.69 34.28 34.99 33.09 31.74 32.61 33.95 32.52 32.35 34.01 33.25 30.12 31.72 30.00 32.02 32.24 31.09 34.90 33.88 35.03 28.30 30.07 27.65 31.07 30.81 28.51 29.84 30.23 29.79 29.70 28.64 28.67 28.23 34.63 29.50 29.29 28.59 28.73 28.90 29.67 29.20
35.64 36.54 34.45 29.96 29.93 30.40 30.64 32.16 30.09 32.61 32.43 32.20 30.94 29.93 28.68 31.21 32.92 32.25 33.14 32.32 32.11 29.85 29.48 29.46 27.75 25.34 21.07 27.35 26.39 21.52 25.37 27.59 28.92 31.00 29.68 24.84 28.44 26.30 24.34 26.67 27.99 28.62 28.95 29.13 29.49

GFSSW_sfc_wetblb_021.txt.gz
Wetbulb
59.17 59.30 59.53 59.64 59.64 59.79 59.90 59.85 59.64 59.56 59.51 59.66 59.79 59.87 60.02 60.24 59.91 59.74 53.49 58.28 59.67 63.33 61.28 57.36 56.84 56.47 56.91 55.28 55.54 55.11 48.00 45.82 46.98 46.42 47.11 50.86 49.28 51.92 53.27 51.24 52.47 53.48 53.32 55.21 56.05
58.57 58.74 58.96 59.19 59.39 59.60 59.71 59.77 59.71 59.58 59.45 59.44 59.53 59.57 59.66 59.62 57.63 54.87 60.34 61.44 64.93 62.26 57.02 55.51 54.13 54.98 53.92 53.73 54.31 51.30 48.25 47.60 50.23 49.72 48.46 49.76 49.88 50.60 50.41 50.46 50.85 52.38 55.06 56.14 56.17
58.30 58.51 58.80 59.03 59.27 59.66 59.90 59.84 59.87 59.73 59.62 59.48 59.36 59.43 59.36 59.43 54.41 51.47 62.17 63.57 65.11 61.64 57.65 57.00 55.50 54.22 51.79 53.30 52.96 51.84 47.46 50.15 50.67 51.30 50.95 49.57 49.43 51.28 49.52 48.35 50.73 50.88 52.44 54.16 55.03
58.45 58.60 58.77 58.96 59.21 59.68 59.96 60.07 60.24 60.14 59.86 59.55 59.37 59.26 59.31 58.53 45.89 54.71 63.10 64.89 64.30 59.30 56.52 54.57 53.60 51.26 50.03 49.48 52.19 48.42 50.49 50.91 51.44 51.78 50.07 49.08 50.81 49.35 50.19 50.41 52.91 53.34 53.89 53.90 53.71
58.79 58.73 58.75 58.85 59.10 59.58 59.89 60.07 60.23 60.30 59.75 59.57 59.38 59.05 58.28 50.56 50.73 61.37 63.45 64.15 58.55 56.47 54.38 53.25 51.72 51.41 48.39 49.16 50.31 48.68 49.47 50.32 51.26 51.17 50.90 50.86 49.03 49.01 49.51 52.23 53.48 53.56 53.21 52.93 53.33
58.95 58.70 58.59 58.69 59.14 59.51 59.71 59.90 59.84 59.67 59.12 59.17 59.25 58.41 54.77 47.18 55.35 61.80 62.45 60.38 56.63 55.38 54.28 54.21 52.02 52.83 50.04 48.92 48.12 49.69 49.14 49.15 49.73 49.46 49.69 47.90 48.45 49.33 49.84 52.17 51.68 51.68 51.60 52.27 52.79
58.78 58.47 58.25 58.53 59.21 59.46 59.59 59.47 59.10 58.39 58.99 59.09 59.18 57.71 51.36 52.07 56.86 60.37 59.63 57.37 56.77 55.91 53.72 55.07 54.29 51.50 51.21 48.46 50.87 48.71 45.14 47.48 48.32 49.05 48.18 48.57 45.31 46.38 50.83 51.54 50.14 50.41 51.03 51.70 52.20
58.43 58.10 58.04 58.38 58.89 59.23 59.36 59.23 57.59 59.02 58.27 58.10 59.12 56.43 49.98 52.69 57.08 56.47 56.24 54.43 55.96 55.78 54.74 54.46 54.44 52.11 50.07 51.08 48.27 45.37 46.23 42.00 47.51 47.09 47.47 46.87 41.98 47.94 50.23 49.15 48.58 49.64 50.51 51.30 51.74
58.19 57.97 58.16 58.55 58.64 58.69 58.96 57.30 58.03 58.80 58.49 58.39 56.81 54.00 49.02 53.25 51.11 53.00 54.50 51.50 53.56 53.29 53.25 52.40 53.00 49.95 49.67 45.17 43.55 45.50 40.58 42.81 44.64 48.44 46.13 45.23 42.75 47.73 49.68 48.84 48.11 49.06 49.43 49.95 50.71
58.29 58.27 58.54 58.77 58.65 58.64 58.00 54.87 58.41 57.20 58.11 57.51 54.42 48.85 49.51 48.68 51.42 51.48 52.91 52.89 50.58 51.26 49.78 49.68 48.97 45.86 45.84 44.00 38.15 42.34 42.80 43.63 42.93 46.63 46.73 45.05 44.47 47.31 49.10 48.63 48.33 48.94 49.81 50.38 50.51
58.81 58.93 59.19 58.98 58.90 58.94 57.24 56.66 55.77 53.48 53.56 52.45 53.42 51.48 54.33 51.34 52.24 50.26 51.42 50.56 50.97 49.36 44.92 47.71 43.88 41.70 45.47 46.89 45.83 44.42 42.57 41.82 44.28 47.24 45.37 44.08 43.79 45.50 47.59 47.83 47.93 49.02 50.02 50.32 50.22
59.26 59.45 59.37 59.06 58.73 57.82 57.31 54.33 50.23 49.97 48.07 54.87 53.64 51.70 50.72 50.98 48.01 48.64 51.25 47.40 46.46 43.59 45.79 43.43 40.88 46.04 47.32 46.29 43.22 42.91 41.22 41.11 44.35 46.34 44.57 43.32 42.11 44.53 46.58 47.60 49.04 49.05 49.12 49.18 49.11
59.21 59.00 58.83 58.84 58.21 58.63 55.62 51.98 53.48 52.38 47.58 51.02 50.31 49.15 49.11 50.09 49.17 49.84 49.68 48.08 45.40 44.11 43.49 42.31 45.65 46.96 44.25 43.51 42.04 42.57 41.14 41.24 41.03 43.58 43.59 41.99 40.78 45.15 47.15 49.76 49.73 49.17 48.66 47.99 47.06
58.68 58.52 58.51 57.90 55.50 58.41 54.75 53.12 53.86 52.53 44.75 46.59 45.69 46.01 46.62 47.98 45.04 46.83 48.71 47.79 45.92 43.86 46.03 44.19 46.25 42.93 42.41 41.04 42.73 38.62 44.30 41.72 40.11 38.60 36.45 42.43 33.76 42.29 46.04 47.28 46.76 47.05 46.53 46.02 45.00
58.14 58.05 58.25 55.06 59.10 56.69 53.97 53.90 53.85 51.21 34.27 45.72 43.31 49.51 47.13 44.07 43.73 43.56 47.27 46.48 43.35 43.85 43.25 42.28 41.40 40.32 40.50 41.99 43.31 41.00 42.11 40.66 39.86 38.15 38.74 39.80 36.56 41.42 45.92 43.85 43.87 43.81 44.34 43.87 43.79
56.91 57.34 55.94 57.65 58.72 56.03 54.79 53.59 53.11 43.03 33.68 43.80 43.76 42.82 42.45 43.07 42.53 43.94 44.68 46.65 44.83 42.36 43.44 42.84 43.82 42.35 43.10 43.44 42.94 42.55 40.30 40.65 40.63 38.91 33.38 39.86 38.47 39.72 41.70 42.08 42.73 43.09 43.11 43.29 43.23
53.88 56.00 55.96 57.32 54.95 55.95 54.98 54.78 42.60 35.67 45.60 42.61 41.41 42.04 41.64 41.02 41.51 41.73 41.67 41.21 41.04 38.42 39.87 43.22 41.71 42.97 42.49 40.09 41.83 39.88 38.07 33.43 32.53 33.56 33.00 40.59 37.20 40.29 44.43 44.03 43.71 42.04 41.61 42.00 42.35
52.04 55.35 55.57 57.44 56.70 55.35 56.26 47.47 34.54 40.09 42.59 45.69 44.29 43.52 42.19 44.60 43.92 41.93 42.37 41.58 44.82 41.19 39.38 37.26 35.29 41.06 42.34 41.22 40.65 41.10 39.88 33.81 26.40 29.06 33.56 39.17 34.77 40.16 45.65 43.17 43.05 42.46 41.69 41.19 40.61
52.37 53.87 53.63 55.68 56.09 56.91 50.67 38.32 37.41 41.57 44.91 43.76 44.14 41.05 41.75 44.17 42.48 43.20 43.01 42.19 43.74 44.29 37.53 36.85 36.98 44.86 42.29 42.77 41.06 40.30 35.57 41.14 33.77 34.00 31.00 34.95 39.83 44.87 45.37 41.41 41.60 40.92 40.29 38.88 39.29
50.95 50.17 49.85 55.14 55.62 54.35 44.66 38.32 40.94 44.03 44.21 44.13 38.77 41.87 38.30 40.76 40.18 40.74 40.45 41.98 40.85 41.28 42.62 40.17 34.23 42.01 41.19 41.84 41.64 38.81 39.88 34.00 34.91 25.88 24.64 31.63 34.42 36.41 40.71 40.61 39.85 38.30 36.98 36.96 37.84
49.29 43.12 49.67 55.28 55.62 47.49 37.85 38.71 40.82 44.41 45.32 42.43 40.34 39.37 39.79 38.62 39.83 38.22 38.93 42.53 44.17 42.59 42.09 41.13 37.25 37.11 40.27 38.02 36.83 37.48 35.12 36.49 36.13 33.63 27.10 25.57 31.11 39.43 38.94 39.67 37.18 35.30 35.13 34.95 35.11
46.34 37.87 51.16 54.50 41.44 42.44 38.05 39.76 41.32 41.80 44.23 42.38 42.20 40.66 39.60 39.61 38.02 37.92 37.34 40.55 45.06 43.60 38.38 41.16 37.02 31.87 34.22 40.62 42.33 40.18 36.69 37.03 30.32 28.63 31.61 30.02 30.33 41.42 38.67 36.75 35.73 33.99 34.39 34.59 34.82
41.36 42.07 49.99 50.92 36.34 38.10 40.06 39.63 41.49 40.67 41.04 40.94 40.28 42.07 42.14 38.52 34.66 37.49 38.39 42.94 43.31 40.93 38.93 40.34 34.38 27.82 30.44 35.49 37.61 35.93 38.05 38.10 36.95 34.73 29.90 27.76 29.84 38.25 36.37 34.47 33.49 32.56 33.68 33.70 33.15
40.98 34.38 42.05 44.25 44.76 39.39 37.86 37.61 37.43 42.51 40.96 41.67 39.95 41.08 39.19 36.96 38.87 35.29 35.83 39.72 41.87 40.76 41.24 40.90 34.63 31.14 25.52 29.76 34.60 31.52 33.62 35.57 33.99 28.28 28.95 29.87 30.93 33.68 36.82 35.24 33.81 33.94 33.72 33.32 32.49
40.03 35.82 39.48 34.23 37.45 38.57 38.69 36.68 34.81 34.94 39.31 40.03 37.41 37.77 36.11 32.18 33.57 33.49 36.43 37.53 39.09 39.10 38.46 37.00 29.45 31.88 32.69 33.45 33.03 31.54 30.66 31.81 30.31 31.80 27.03 30.08 30.70 33.82 36.12 36.35 33.36 33.73 32.93 32.46 31.84
35.63 35.13 37.49 37.59 39.09 37.43 36.71 35.07 34.47 34.98 35.08 33.94 33.96 35.77 36.67 32.85 33.60 30.66 33.31 33.74 32.74 35.69 34.20 35.25 27.37 29.44 25.33 29.70 29.51 27.47 30.50 31.16 31.42 31.34 30.56 30.94 29.87 37.36 34.90 32.51 31.86 31.43 31.30 30.61 31.15
38.60 38.93 37.22 33.79 33.99 34.15 35.25 35.69 34.13 36.33 35.56 35.56 35.53 33.63 31.81 33.91 36.04 34.79 34.91 34.92 34.22 31.48 30.34 29.94 27.91 24.94 19.88 25.93 25.20 20.35 25.30 27.94 29.52 31.65 30.81 25.63 29.23 27.90 28.17 28.66 29.33 29.57 29.93 29.92 30.59

GFSSW_sfc_wetblb_024.txt.gz
Wetbulb
59.13 59.31 59.51 59.74 59.78 59.98 60.12 60.11 60.16 59.92 59.78 59.84 60.07 60.14 60.13 60.22 60.09 59.09 54.69 59.13 59.61 64.07 62.49 56.82 55.69 55.42 56.17 54.63 54.51 52.84 43.29 41.17 43.53 43.19 43.73 47.58 44.91 47.65 48.67 46.56 47.72 49.46 48.44 50.23 53.59
58.64 58.95 59.23 59.48 59.75 60.08 60.35 60.30 60.30 60.17 60.07 60.04 59.96 59.97 60.05 59.83 57.15 54.74 59.76 64.50 64.38 63.86 56.50 54.23 53.06 54.03 51.06 52.50 52.10 47.36 43.42 44.41 47.15 46.40 45.27 47.08 46.16 46.39 45.88 46.10 46.51 47.27 50.33 51.81 51.96
58.60 58.79 59.12 59.42 59.61 59.97 60.38 60.47 60.72 60.55 60.36 60.35 59.92 60.03 59.93 58.64 54.70 53.43 62.55 63.89 63.89 62.29 57.74 56.29 54.90 53.57 49.82 50.95 50.13 48.66 43.90 47.62 47.56 49.09 48.59 47.20 46.29 47.31 45.02 43.87 46.61 46.24 48.63 49.75 48.99
58.73 58.78 59.02 59.21 59.42 59.81 60.21 60.68 60.82 60.78 60.24 60.05 59.89 59.95 59.53 57.91 45.23 57.19 62.89 64.56 64.18 58.85 55.95 54.30 52.43 49.71 47.78 46.86 50.68 45.21 48.65 48.62 49.33 49.44 47.89 45.77 48.08 45.98 46.23 46.60 49.87 49.41 49.79 49.33 48.94
59.14 59.01 59.01 59.05 59.22 59.76 60.13 60.29 60.62 60.51 60.19 59.76 59.68 59.73 57.85 51.47 51.15 60.69 63.34 64.08 59.44 56.60 53.50 52.20 49.90 49.37 46.06 47.03 47.42 45.70 47.52 48.99 49.00 48.22 47.47 48.43 46.11 45.71 46.54 48.95 49.70 50.06 49.70 48.58 48.46
59.13 58.79 58.68 58.77 59.34 59.79 60.06 60.11 59.97 59.83 59.19 59.14 59.23 58.92 55.06 46.97 56.26 61.59 60.79 59.59 56.04 54.43 52.75 52.49 50.78 50.76 47.94 46.62 45.11 46.93 46.81 46.53 47.16 47.04 47.23 45.81 45.12 45.02 46.70 48.54 48.22 48.38 47.81 47.64 47.88
58.93 58.56 58.34 58.58 59.32 59.82 59.88 59.80 59.31 58.66 59.37 59.37 59.27 57.49 52.44 50.67 57.27 60.10 59.65 56.98 55.93 54.68 52.18 53.57 53.02 50.13 49.09 46.12 47.75 46.94 42.31 44.44 45.75 46.15 45.31 46.06 41.95 42.77 46.96 46.59 46.44 46.71 46.54 47.24 47.71
58.59 58.24 58.17 58.53 59.10 59.49 59.69 59.65 57.84 59.27 58.80 57.98 59.27 56.22 48.92 53.78 56.10 56.71 56.24 54.60 55.75 55.60 53.86 53.23 53.18 50.36 48.05 48.95 46.19 42.78 41.65 37.18 44.67 44.77 44.17 43.66 37.22 44.79 46.93 45.61 45.51 47.00 46.65 47.05 47.81
58.30 58.08 58.30 58.76 59.01 59.09 59.31 58.62 57.29 58.72 58.46 58.68 56.75 54.44 48.34 54.40 51.52 52.97 53.81 51.98 53.37 52.93 52.24 52.17 52.00 47.48 46.88 41.19 38.56 40.17 34.95 38.13 41.40 46.16 43.38 41.28 38.08 44.87 46.79 45.70 45.55 46.71 45.87 46.17 46.33
58.37 58.36 58.69 59.12 59.03 59.01 59.05 57.57 58.15 57.05 57.60 57.65 55.47 48.54 49.12 48.88 51.30 51.98 52.05 52.74 50.61 50.22 48.94 48.41 46.16 41.88 41.24 38.64 32.28 36.35 37.38 39.59 38.85 43.42 43.56 40.94 39.88 43.77 45.55 45.59 45.47 45.03 44.90 45.48 44.84
58.74 58.98 59.47 59.37 59.22 59.50 57.71 55.66 53.54 52.17 52.48 51.27 52.61 50.38 53.63 50.87 52.40 50.42 51.76 50.10 50.18 47.76 42.12 44.99 39.65 37.16 41.05 42.53 42.91 39.39 38.75 37.75 40.73 44.18 41.41 40.73 40.48 42.17 44.80 44.82 44.40 44.43 44.26 44.33 43.97
59.08 59.53 59.78 59.53 59.25 59.18 56.51 53.94 50.60 50.54 46.75 54.00 53.88 53.92 52.70 50.86 47.84 48.33 50.55 45.72 45.25 41.39 43.98 40.77 37.19 43.58 45.15 44.22 41.93 40.17 37.37 36.78 40.58 43.51 40.69 39.49 38.61 42.02 43.70 44.12 44.81 43.78 43.52 43.03 42.61
59.59 59.78 59.43 59.10 58.53 57.70 55.81 52.20 54.24 52.93 45.68 50.63 51.44 50.00 49.33 50.27 48.62 47.25 48.29 46.59 43.38 41.73 41.83 39.29 43.01 46.13 43.74 40.97 39.92 39.15 37.51 37.52 37.34 39.94 39.96 36.94 35.67 39.40 44.45 44.61 44.40 44.31 43.27 42.34 41.34
59.39 59.57 59.30 58.48 55.25 58.08 54.34 53.65 54.24 53.03 42.19 45.21 45.43 45.75 47.30 48.34 44.75 47.25 48.61 45.93 44.99 41.76 43.02 41.53 44.09 42.54 40.63 39.68 40.56 36.00 41.44 39.88 37.89 33.77 30.11 38.19 29.04 35.51 41.44 41.94 41.77 41.55 39.91 39.58 40.05
58.55 58.71 58.52 55.88 57.62 55.38 53.82 54.50 54.18 50.36 32.06 45.63 42.75 50.09 47.41 44.31 43.42 43.23 46.37 44.82 41.08 42.28 39.83 39.63 38.62 37.77 38.23 39.96 41.35 38.47 39.50 37.59 35.97 33.10 31.31 33.74 29.88 34.74 40.74 38.11 38.04 38.75 39.24 38.96 38.98
57.67 57.69 57.14 56.63 58.02 55.89 55.23 53.59 52.08 40.92 32.74 41.43 43.77 43.11 42.07 42.72 42.42 43.73 43.98 44.66 43.19 40.16 41.00 39.96 40.53 39.59 40.20 40.71 40.50 40.18 36.75 36.87 35.30 32.65 25.96 34.40 33.09 32.80 35.84 37.02 37.21 38.88 39.12 39.24 38.57
56.36 56.91 55.38 57.14 53.48 55.86 54.81 52.50 41.45 35.07 45.37 41.24 40.78 42.11 41.56 40.52 40.81 40.72 40.21 37.81 36.95 33.53 34.52 38.81 39.02 39.97 40.38 36.30 38.04 36.26 32.82 26.68 25.38 24.09 25.33 35.15 31.62 34.93 38.75 39.85 39.65 38.61 37.47 37.46 37.38
53.78 56.20 55.50 56.15 54.41 54.10 53.12 47.12 34.46 40.38 41.81 45.10 42.80 42.90 41.62 43.59 42.30 40.55 39.52 37.04 41.78 38.46 35.11 33.24 31.96 37.93 39.19 37.50 35.84 36.36 35.71 27.77 19.15 20.54 25.69 32.15 27.57 34.70 39.98 39.94 40.00 39.10 37.61 37.28 36.34
52.90 52.60 52.97 55.40 55.48 55.19 50.60 38.32 37.55 40.60 44.17 43.29 43.62 39.35 39.89 42.33 41.86 40.70 39.58 39.40 40.66 40.34 35.17 32.72 32.59 38.51 39.16 39.09 38.60 35.08 32.07 36.66 29.00 24.25 22.41 29.13 33.93 39.80 39.24 37.44 37.30 36.57 35.53 34.75 35.65
50.72 49.02 49.39 54.86 54.64 53.02 43.51 38.91 40.87 44.50 43.97 43.73 38.27 40.65 36.12 38.75 38.47 38.59 37.58 38.85 38.51 40.10 41.81 38.66 31.98 39.45 37.91 38.73 36.94 35.38 36.87 29.51 30.87 24.41 18.28 26.04 26.81 30.70 35.21 35.54 36.35 34.02 33.01 33.73 34.34
48.22 42.99 49.67 54.49 53.92 45.37 36.30 38.53 41.79 44.64 45.32 41.22 39.16 38.08 38.55 37.53 38.70 36.69 36.65 40.24 41.69 38.60 40.51 39.17 36.03 33.85 37.10 34.73 33.39 32.94 32.36 33.54 33.59 29.53 22.03 21.59 25.57 35.48 34.64 35.55 32.20 32.24 32.81 32.47 32.76
45.59 37.53 50.30 54.10 41.21 41.93 38.08 40.29 41.72 41.46 43.70 42.28 41.47 39.66 38.14 38.50 36.70 36.66 36.78 39.66 43.55 41.60 37.05 39.08 35.39 27.13 31.64 37.51 38.46 36.41 34.50 34.46 27.38 24.50 28.06 28.23 27.57 37.29 35.28 34.21 33.82 33.18 34.22 33.78 33.70
40.79 41.89 50.26 50.62 35.04 36.45 40.01 39.74 41.27 39.89 40.46 40.28 39.10 40.66 40.60 37.27 33.87 36.67 37.41 41.23 41.77 39.62 37.84 38.27 31.23 22.10 23.45 29.60 36.26 34.10 35.66 35.19 34.08 32.53 28.56 25.39 26.16 35.77 34.58 32.57 33.17 34.52 34.15 34.70 33.75
41.07 34.14 42.26 44.48 43.23 38.64 36.93 36.89 36.63 41.99 40.54 41.30 39.84 40.52 37.92 36.03 38.05 34.28 35.20 39.10 40.01 40.12 41.20 39.98 31.95 25.46 20.38 25.28 31.08 26.57 30.24 31.63 30.60 26.23 23.93 24.79 27.12 33.03 34.60 35.39 35.28 34.34 33.71 32.16 32.08
39.32 34.50 39.42 34.22 37.42 38.12 38.22 37.10 35.30 35.29 39.77 39.54 37.77 37.54 36.12 32.44 33.41 33.08 35.94 36.13 38.49 39.40 38.31 36.27 26.22 29.56 30.59 31.23 30.40 28.07 27.48 28.80 26.90 27.92 23.56 25.99 26.49 31.21 34.21 33.41 28.62 28.58 30.25 30.94 30.89
35.67 34.15 36.25 36.07 37.71 37.43 37.17 33.95 34.06 34.75 36.08 34.51 34.31 35.31 35.93 32.98 33.14 27.57 31.72 31.98 31.19 33.61 33.62 33.72 20.43 25.37 18.87 26.42 26.67 24.03 26.19 26.34 26.23 26.57 26.86 27.77 27.01 34.06 29.35 28.93 28.42 29.53 29.28 28.47 28.22
38.25 38.39 36.08 34.95 33.94 33.69 34.30 34.26 34.41 36.45 36.77 36.31 34.80 33.52 31.97 32.86 33.10 33.27 33.06 32.80 32.47 29.41 27.64 26.23 21.48 12.82 11.74 22.38 20.07 11.82 21.11 23.38 24.58 26.96 26.37 21.50 24.63 23.59 24.08 26.45 25.37 25.21 27.14 27.49 28.19

GFSSW_sfc_wetblb_027.txt.gz
Wetbulb
59.14 59.36 59.59 59.84 60.02 60.28 60.52 60.56 60.58 60.50 60.33 60.29 60.37 60.46 60.30 60.29 59.59 57.94 53.28 57.33 57.87 64.38 61.45 54.02 52.22 51.11 51.44 49.76 49.88 47.23 38.35 35.88 38.42 39.99 40.16 44.30 43.11 45.78 45.92 43.74 44.41 46.88 45.81 47.68 49.92
58.75 58.98 59.31 59.57 59.79 60.08 60.51 60.63 60.54 60.49 60.53 60.50 60.36 60.26 60.24 59.96 55.90 52.00 60.00 64.99 64.68 64.51 53.66 50.85 49.15 50.20 46.21 47.68 47.87 43.07 37.74 39.87 42.68 40.85 41.45 43.70 42.31 42.14 43.23 42.92 43.36 45.07 46.73 48.01 51.22
58.86 58.94 59.16 59.44 59.63 59.93 60.37 60.72 60.84 60.85 60.61 60.69 60.32 60.39 60.21 58.58 51.41 51.15 62.15 64.50 64.16 62.81 55.22 52.92 51.41 49.93 45.03 45.87 45.68 44.41 40.07 43.80 45.97 46.12 45.23 44.56 44.75 44.72 42.34 40.55 44.12 44.02 45.74 47.23 47.79
59.18 59.04 59.05 59.22 59.39 59.88 60.37 60.86 60.80 60.88 60.44 60.27 60.15 60.25 59.72 54.99 39.59 54.58 62.06 63.13 63.35 56.72 53.57 50.96 48.61 44.98 43.04 42.44 47.20 41.18 46.01 45.95 46.87 46.91 45.30 43.62 45.23 44.79 43.97 46.09 47.05 46.94 47.10 46.19 46.89
58.95 58.72 58.82 59.02 59.20 59.76 60.30 60.75 60.84 60.61 60.17 59.63 59.64 59.90 55.20 47.67 48.46 58.89 62.84 63.23 57.65 54.27 50.61 49.31 46.19 45.37 41.73 42.87 43.73 41.64 43.30 46.35 46.50 45.89 44.98 45.33 43.63 43.89 44.52 47.81 47.65 47.66 47.72 46.04 45.81
58.77 58.46 58.38 58.52 59.17 59.78 60.20 60.42 60.43 60.12 59.21 59.31 59.22 59.07 50.72 43.24 56.23 59.24 59.07 57.14 53.88 51.55 49.37 48.82 47.23 47.58 44.02 43.05 41.45 42.70 43.34 43.60 44.59 45.11 44.64 43.43 42.30 42.95 44.93 45.20 45.76 45.75 45.01 44.76 45.28
58.70 58.27 58.13 58.33 59.08 59.79 60.18 60.27 60.08 58.73 59.59 59.06 59.47 56.71 49.92 47.36 56.06 58.82 58.46 54.61 53.64 52.17 49.85 50.81 49.58 47.00 45.12 42.36 45.07 43.41 40.40 41.77 42.93 43.15 43.10 43.34 39.91 41.60 45.24 44.00 44.71 44.87 42.91 45.22 44.94
58.41 57.94 57.87 58.24 58.93 59.66 60.05 60.11 58.97 58.70 59.09 58.19 59.31 53.56 44.65 51.62 52.64 55.54 54.01 51.94 52.98 52.77 51.37 50.89 50.48 48.14 45.73 46.07 43.95 40.00 37.05 34.41 41.88 42.43 42.58 41.17 35.86 43.00 44.80 43.10 44.16 44.94 42.38 43.92 43.21
57.86 57.55 57.87 58.43 58.95 59.18 59.55 59.68 57.35 58.81 58.65 59.11 53.68 50.03 44.85 53.11 49.32 49.98 50.20 49.66 50.44 50.07 48.93 51.11 48.65 44.32 43.91 38.66 35.46 36.10 32.02 34.56 38.74 43.23 41.51 39.32 35.83 42.54 45.03 43.38 43.24 42.47 42.04 42.19 41.56
57.80 57.68 58.15 58.82 59.11 59.07 59.39 59.46 56.89 57.11 57.15 57.29 55.02 43.73 46.46 46.18 48.75 49.53 48.32 50.65 47.84 47.27 45.98 45.22 42.55 37.99 37.02 35.10 29.36 32.58 32.59 35.89 35.19 40.97 39.69 37.43 37.37 40.77 43.07 43.44 43.81 41.58 39.33 39.91 39.93
57.97 58.20 58.80 59.15 59.35 59.72 57.13 52.42 50.20 48.80 48.95 48.08 47.47 45.18 49.50 48.46 50.17 47.93 49.17 47.73 47.47 44.21 38.59 41.18 35.95 33.37 36.66 37.88 38.21 35.86 34.75 33.59 37.08 41.62 37.92 38.36 37.56 40.10 42.62 41.84 41.61 39.15 39.29 39.02 39.58
58.35 58.88 59.45 59.49 59.48 59.25 54.75 49.26 47.97 48.76 44.82 50.88 51.38 51.54 49.33 49.24 45.45 46.22 48.13 43.04 42.38 38.22 40.36 37.48 34.25 40.21 41.14 40.85 39.48 36.98 34.52 34.02 37.46 40.68 37.91 37.26 36.66 39.90 41.75 40.61 40.55 39.73 38.27 38.30 38.79
58.74 59.11 59.49 59.17 58.61 55.91 51.40 49.72 51.34 49.00 42.90 47.64 49.00 48.30 46.96 48.73 45.89 44.46 46.04 43.46 40.05 38.09 38.30 35.53 39.46 42.98 41.42 39.28 37.46 35.38 34.11 34.26 35.30 36.79 36.96 34.21 33.62 37.61 40.78 40.10 40.17 39.51 39.55 39.14 37.84
59.10 58.96 59.08 58.24 54.26 53.80 50.56 51.29 51.59 48.76 38.39 42.74 43.91 43.92 45.58 46.04 42.19 45.20 45.80 43.70 41.24 38.72 38.77 37.56 41.46 40.90 39.04 37.91 38.54 33.91 38.23 37.54 36.26 32.01 28.00 34.46 25.57 33.82 37.92 37.07 37.29 37.23 36.12 36.15 36.66
58.59 58.65 58.58 57.69 53.59 52.58 51.89 51.72 50.77 47.12 28.40 41.97 41.23 47.71 44.82 42.33 41.65 41.01 44.01 41.95 38.21 38.64 37.83 37.68 37.44 35.92 36.15 38.10 39.40 36.32 37.19 35.36 34.33 30.79 28.21 30.38 26.24 31.86 35.42 33.53 34.43 34.97 35.42 35.36 35.81
57.90 58.15 57.85 56.26 54.42 53.54 52.72 51.59 49.14 38.88 30.80 38.36 40.81 40.37 39.17 39.91 39.65 41.13 41.03 41.59 40.57 37.40 37.34 37.35 38.29 38.11 38.51 39.14 38.55 38.30 34.79 34.33 31.67 29.76 23.83 29.99 29.98 30.22 33.05 34.76 34.42 35.45 35.30 35.24 34.80
57.50 57.18 56.14 56.61 53.03 53.48 52.79 50.51 39.85 34.15 43.19 37.36 37.41 39.19 38.58 37.16 37.62 38.41 37.06 34.41 34.09 31.22 30.77 35.29 36.59 37.20 38.69 34.49 36.79 35.47 31.24 25.07 22.55 21.05 22.70 31.20 28.40 32.41 36.45 36.76 36.78 34.21 33.45 33.47 33.50
56.65 56.30 55.61 55.66 53.70 53.38 51.63 46.26 33.89 39.20 39.46 41.62 39.11 39.01 38.52 38.86 38.46 37.72 36.36 34.29 37.18 35.11 32.37 30.85 29.88 35.76 37.48 36.53 34.43 33.42 33.68 25.24 16.36 19.77 21.67 30.90 25.85 31.60 34.92 35.86 35.71 35.25 34.41 34.57 34.06
54.67 52.36 53.89 55.38 55.00 54.37 49.37 38.41 37.71 38.68 42.50 41.28 40.94 37.07 37.15 40.83 40.12 36.85 35.49 35.28 36.41 38.05 33.20 31.13 31.10 36.18 37.67 37.81 38.70 33.58 30.93 35.00 28.17 19.18 20.01 26.68 31.46 34.71 35.02 33.67 33.54 33.14 33.00 32.93 33.76
49.36 48.55 49.85 54.92 54.72 52.61 44.41 38.96 40.44 43.46 42.45 42.85 37.75 38.51 33.54 36.86 36.46 35.58 35.89 36.66 36.32 38.26 39.29 35.84 29.92 36.65 35.14 37.20 36.15 35.25 35.95 28.33 27.73 15.11 15.20 24.38 25.74 27.67 31.36 30.94 31.86 31.19 30.85 31.77 32.17
47.65 44.53 49.41 54.29 53.26 44.78 35.77 38.85 40.79 43.50 43.92 40.65 37.74 35.92 35.13 35.25 37.11 33.88 34.80 37.55 38.94 36.50 39.94 37.84 34.70 32.27 34.65 33.72 33.08 32.10 30.98 31.68 31.54 28.41 20.17 17.38 23.70 33.69 33.26 31.91 30.11 30.36 31.16 31.13 31.28
45.30 39.21 49.62 53.47 40.20 40.72 37.31 40.19 41.80 40.57 43.03 41.67 39.51 37.66 36.19 36.49 35.04 33.93 34.60 37.49 40.57 39.20 35.35 37.08 34.43 25.22 31.19 35.44 35.84 35.19 32.79 32.67 25.72 23.21 24.86 26.30 26.92 35.62 33.49 32.30 32.20 31.58 32.50 32.05 31.75
41.33 41.17 48.79 50.07 34.61 36.39 39.70 40.52 41.30 39.04 39.55 39.61 37.93 39.29 39.61 36.57 33.16 35.35 36.03 38.65 40.26 38.55 36.63 37.74 29.51 17.72 22.94 28.67 34.76 32.51 33.80 33.18 32.68 31.72 25.88 23.95 24.02 34.09 32.61 31.72 32.33 31.53 31.58 31.58 30.36
40.71 35.59 41.02 45.06 42.87 38.15 37.18 36.70 36.61 40.70 38.92 40.31 39.18 40.00 37.63 35.62 36.90 33.26 34.22 38.10 39.04 39.34 41.31 39.88 32.46 23.87 20.73 23.19 29.56 25.90 28.17 28.70 30.19 22.41 18.83 21.63 23.26 30.34 31.87 31.44 32.79 32.62 33.66 32.22 29.93
39.73 35.16 38.80 34.51 37.64 38.49 38.09 37.26 35.34 34.87 39.26 39.72 36.73 36.93 35.53 32.11 33.17 32.86 35.50 35.92 37.71 40.40 37.26 35.25 24.74 28.60 29.50 29.29 27.69 26.90 26.48 27.25 24.99 26.25 21.54 25.03 24.99 29.08 31.50 29.28 28.32 28.09 29.96 30.90 29.47
35.44 33.63 34.87 35.00 38.48 37.69 36.92 34.56 33.78 35.28 36.58 34.29 34.32 36.71 36.51 33.16 32.35 28.06 31.84 31.81 31.63 34.30 33.43 33.46 20.39 24.93 17.86 26.39 26.37 23.36 25.64 25.77 25.67 25.44 24.72 25.21 24.30 31.53 26.39 25.89 26.41 27.22 27.53 27.15 26.85
36.48 36.43 35.10 33.57 32.74 35.07 34.76 35.06 33.97 35.57 35.59 36.32 36.42 34.37 31.66 30.89 32.58 32.71 32.05 31.74 31.67 29.40 27.82 27.04 22.20 13.42 9.96 22.47 18.76 11.86 20.68 23.38 24.40 25.32 23.14 18.84 23.32 20.72 23.00 25.53 24.06 24.00 24.63 25.62 26.89

GFSSW_sfc_wetblb_030.txt.gz
Wetbulb
58.99 59.24 59.53 59.79 59.96 60.20 60.55 60.67 60.67 60.57 60.60 60.66 60.61 60.47 60.45 60.34 59.30 56.52 50.58 56.10 56.59 63.95 60.22 52.40 50.65 50.10 49.98 48.24 48.37 44.50 37.11 34.31 36.40 37.38 38.78 42.83 42.22 44.22 43.37 41.87 42.71 45.08 43.31 45.45 48.11
58.41 58.78 59.17 59.52 59.66 59.94 60.33 60.64 60.63 60.70 60.76 60.75 60.59 60.45 60.29 60.16 54.31 51.16 58.89 64.76 65.36 64.58 52.25 49.30 47.59 48.66 45.26 46.12 46.53 41.21 35.57 37.61 41.08 40.64 40.02 42.80 41.49 42.00 41.91 41.85 42.45 42.04 44.80 46.67 48.49
58.61 58.72 58.99 59.28 59.49 59.92 60.34 60.76 60.81 60.79 60.80 60.66 60.49 60.40 60.22 58.38 48.70 49.44 61.31 63.64 64.74 61.58 53.11 51.31 49.90 48.29 43.40 44.39 43.82 42.09 38.43 41.57 43.66 44.00 43.48 43.18 42.69 42.99 40.75 40.41 42.79 44.05 43.20 45.24 46.98
59.16 58.86 58.83 59.05 59.26 59.78 60.36 60.83 60.97 60.96 60.61 60.20 60.04 60.27 59.77 53.85 39.21 52.23 62.04 63.28 63.67 55.34 51.97 49.40 47.13 43.86 41.39 40.85 45.10 39.81 44.65 44.46 45.96 45.25 43.63 42.10 44.32 43.54 42.94 45.16 45.76 46.16 45.17 44.30 45.28
58.93 58.68 58.70 58.87 59.03 59.67 60.34 60.84 61.10 60.93 60.35 59.52 59.59 59.76 54.05 45.97 47.29 57.57 62.39 62.10 54.57 52.73 49.13 47.72 44.74 44.12 40.45 41.41 41.98 40.70 42.01 44.29 45.70 44.67 43.42 43.74 42.69 41.86 43.30 45.80 45.99 45.31 45.16 43.47 42.89
58.77 58.45 58.31 58.46 58.97 59.66 60.29 60.79 60.96 60.67 59.19 59.49 59.59 58.97 48.63 42.12 55.50 58.76 56.86 54.27 52.41 50.50 47.98 47.99 45.88 46.39 42.83 41.59 40.27 41.05 42.01 42.73 43.66 43.78 43.11 42.19 40.48 42.26 44.35 42.65 45.21 44.15 43.43 41.98 42.10
58.73 58.31 58.12 58.25 58.90 59.67 60.24 60.64 60.60 59.46 59.47 59.33 59.21 56.34 48.99 46.29 56.04 57.65 56.09 52.93 52.23 51.02 48.62 49.51 48.39 46.00 44.58 41.55 44.20 42.41 39.56 40.95 41.47 41.43 41.53 41.84 39.09 40.24 44.60 43.11 43.07 42.65 40.97 41.23 40.95
58.54 58.06 57.84 58.04 58.64 59.42 60.13 60.39 60.25 58.34 59.02 58.50 59.36 52.67 43.15 50.61 52.15 54.82 52.94 50.38 51.57 51.21 50.20 49.28 48.65 46.82 43.94 44.24 42.32 37.76 36.02 33.67 40.14 40.88 40.93 40.17 36.04 42.55 44.14 41.64 41.87 40.25 38.36 39.46 39.61
58.00 57.58 57.73 58.07 58.50 59.16 59.64 59.84 59.42 58.01 58.64 59.16 52.43 48.01 43.62 52.64 47.98 48.95 49.12 48.79 49.08 48.72 48.01 50.55 47.39 42.96 42.50 37.13 34.12 34.47 30.67 32.82 37.83 42.07 40.21 38.13 35.67 41.73 44.10 41.68 40.63 38.41 37.59 38.47 38.40
57.75 57.49 57.76 58.22 58.81 59.14 59.48 58.68 57.03 56.84 56.72 56.82 54.72 43.85 45.61 44.35 47.50 48.29 47.26 49.59 46.71 45.91 44.86 44.28 40.77 37.00 35.56 33.66 28.77 31.37 30.86 33.41 34.14 38.90 38.07 37.54 36.89 40.12 42.44 41.03 38.98 36.42 36.12 37.05 37.15
57.74 57.73 58.06 58.52 59.20 59.83 57.22 52.12 49.43 48.43 49.44 47.12 45.56 44.11 46.48 47.18 48.87 46.66 47.91 46.85 46.49 43.34 37.00 39.78 35.20 32.44 35.41 37.11 36.02 34.29 33.16 32.75 35.30 40.16 36.19 36.75 36.11 39.68 41.23 40.85 37.25 36.03 36.51 36.63 36.72
57.85 58.04 58.47 58.99 59.68 59.35 54.93 49.15 47.86 47.56 44.78 49.71 49.27 49.55 47.89 47.90 44.20 45.13 47.61 42.64 41.58 37.44 39.01 36.47 33.14 39.10 39.11 38.26 36.86 34.90 33.22 32.87 36.28 38.59 36.35 35.83 36.13 39.14 38.81 37.52 36.57 36.01 35.63 35.80 35.92
57.89 58.03 58.58 59.26 58.90 55.83 51.68 49.66 50.47 48.13 43.00 46.60 48.34 48.18 46.83 48.44 45.19 44.67 45.51 42.22 39.18 36.81 37.37 34.97 38.90 41.29 39.62 37.47 36.00 34.49 33.19 33.07 34.54 35.84 35.25 33.12 32.82 36.12 36.05 37.26 37.84 37.07 36.54 35.98 34.85
58.06 58.12 58.53 58.82 54.69 53.34 50.27 50.94 50.77 48.21 38.20 41.60 43.76 43.72 44.75 46.22 41.87 44.20 44.58 42.63 38.97 37.52 36.84 36.02 40.14 39.24 36.97 36.39 37.51 33.28 37.80 36.68 34.73 31.26 28.15 32.71 24.29 32.35 34.40 33.97 34.69 34.30 33.14 33.14 33.49
57.97 58.23 58.44 58.20 52.95 51.92 51.90 50.83 50.27 46.79 28.66 41.48 40.76 46.68 44.01 42.97 41.11 39.80 42.87 41.11 37.79 38.16 37.58 36.96 36.16 35.27 35.39 37.19 38.66 36.11 36.85 34.79 32.88 29.89 27.37 27.43 25.08 29.47 33.34 31.41 31.66 31.98 32.81 32.76 33.04
57.65 57.99 58.10 57.43 54.31 53.62 51.59 51.55 49.82 39.73 30.49 37.35 39.58 38.94 37.99 38.70 38.71 40.03 39.90 40.73 39.95 36.80 35.96 37.03 37.29 37.48 37.70 37.36 37.34 37.59 34.17 33.16 29.93 28.40 22.85 27.88 27.76 28.74 31.23 33.20 31.85 32.30 32.26 32.77 32.46
57.48 57.63 57.15 57.58 53.60 52.35 52.31 50.74 38.97 34.14 41.07 36.00 35.99 37.85 36.99 35.47 35.92 36.98 35.74 33.77 32.67 29.69 29.95 33.47 35.20 36.13 37.28 34.04 34.87 34.08 31.22 24.96 21.58 20.54 22.64 29.75 26.39 30.35 32.37 34.36 34.37 31.45 30.87 31.21 31.44
57.44 57.52 56.55 56.85 53.62 53.19 52.81 45.84 33.45 37.45 38.07 39.75 37.80 37.11 35.36 36.84 35.98 35.69 33.98 32.21 34.80 33.43 31.28 30.37 29.37 35.10 36.72 35.53 33.80 31.77 32.20 24.71 15.62 18.77 22.22 28.05 24.73 28.84 32.05 33.18 33.38 33.06 32.30 32.31 31.36
57.16 55.18 54.60 53.96 54.51 54.86 49.34 37.84 38.41 39.53 42.13 38.86 38.70 35.07 35.71 37.98 37.04 33.78 32.72 32.68 36.71 35.84 32.97 29.60 30.45 34.54 35.32 36.09 37.46 32.45 29.75 32.87 27.04 15.36 19.04 25.98 27.86 32.09 32.21 31.01 31.43 31.51 31.99 31.58 31.54
51.10 50.08 50.56 54.93 55.67 53.14 45.19 39.57 41.40 44.12 42.41 42.55 36.20 38.80 34.04 37.62 36.66 33.39 33.63 35.65 36.01 37.76 37.94 34.89 29.27 35.08 34.75 36.46 34.73 33.75 35.48 27.48 26.43 14.78 16.16 22.89 24.97 26.34 28.54 28.88 30.47 30.47 30.80 31.40 31.95
49.17 46.18 49.42 54.64 53.13 46.53 39.27 39.15 42.23 44.31 43.31 40.27 38.67 37.13 36.37 35.43 37.07 33.02 34.03 36.23 36.66 36.44 39.23 37.15 33.14 30.47 33.65 32.57 31.97 30.45 29.58 30.07 30.00 25.45 16.47 14.07 22.09 30.75 31.72 31.29 30.20 31.15 31.59 30.49 30.65
46.55 41.35 49.54 52.98 42.10 41.64 38.26 40.74 42.64 40.78 43.15 41.47 40.07 36.89 35.48 36.40 34.56 33.22 33.74 36.64 39.24 38.80 35.33 36.50 33.86 24.18 30.24 32.93 33.79 32.61 30.98 31.04 23.60 21.08 23.11 23.94 24.97 34.70 34.33 32.84 32.06 31.33 31.78 31.07 30.41
43.33 41.36 48.89 50.20 37.72 36.75 40.23 40.73 41.41 39.55 40.06 40.14 38.61 39.47 38.97 37.17 33.73 34.80 34.67 37.70 38.88 37.88 35.75 36.55 28.18 16.31 22.74 28.16 32.87 29.87 31.90 31.35 30.92 28.61 19.58 20.79 23.48 33.27 31.96 30.86 31.51 31.35 30.85 30.98 30.01
41.81 35.66 41.33 44.77 42.94 38.89 37.92 38.28 38.71 41.90 40.08 40.46 38.77 39.92 37.26 34.98 36.17 32.35 33.51 36.58 37.80 38.07 41.31 39.26 29.79 25.03 22.61 22.86 28.90 26.30 28.65 29.44 29.44 21.18 21.21 24.62 25.03 29.57 30.34 30.08 30.05 30.86 31.31 30.70 28.83
40.52 37.51 39.40 34.42 38.08 38.84 39.90 38.59 37.04 35.62 40.09 40.46 37.33 37.52 36.05 32.59 33.12 32.46 33.91 34.71 36.36 39.62 37.46 36.26 29.60 28.88 28.68 29.74 29.20 28.08 27.80 27.45 25.98 25.90 21.35 24.99 23.74 28.55 29.15 27.96 28.06 28.47 29.25 31.90 28.80
36.19 34.88 36.94 36.90 39.94 38.49 38.26 35.88 35.74 36.96 37.19 34.80 34.95 36.77 37.19 34.16 33.43 30.62 34.03 33.37 32.73 34.60 33.30 32.55 22.91 26.03 20.19 27.17 27.56 24.56 26.91 25.75 26.69 26.75 25.64 26.28 24.83 31.30 29.32 25.18 25.10 26.64 27.97 29.17 28.00
37.94 37.93 36.62 34.53 35.46 36.56 35.02 35.32 35.60 36.66 36.50 37.38 37.47 34.61 33.50 35.87 34.44 33.02 33.27 32.99 33.26 31.89 29.88 29.34 23.29 16.64 14.40 21.01 18.29 11.99 19.13 23.72 24.76 24.79 23.90 19.44 23.90 20.45 23.49 26.01 25.36 25.14 24.99 25.40 25.92

GFSSW_sfc_wetblb_033.txt.gz
Wetbulb
58.67 58.94 59.38 59.73 59.86 60.07 60.32 60.64 60.65 60.63 60.72 60.85 60.92 60.68 60.53 60.32 59.02 54.59 46.54 54.72 56.38 63.52 59.85 50.71 49.38 48.89 48.60 47.24 46.87 42.36 35.89 32.74 35.32 35.79 38.08 41.85 41.86 41.98 42.24 41.65 41.77 43.61 45.33 44.24 47.62
58.17 58.56 59.02 59.37 59.64 59.86 60.27 60.55 60.64 60.67 60.90 60.89 60.72 60.59 60.44 60.11 52.66 49.55 58.17 63.91 64.69 63.73 50.54 47.50 46.13 47.42 44.34 44.91 45.13 39.68 33.93 35.77 38.94 39.71 39.35 41.95 40.26 41.39 41.26 42.47 40.19 41.09 44.65 45.56 46.99
58.39 58.46 58.74 59.03 59.29 59.75 60.21 60.57 60.74 60.87 60.93 60.69 60.34 60.18 60.10 58.05 47.30 47.03 61.82 63.16 64.58 60.62 51.29 49.96 48.65 46.77 41.97 43.93 43.30 39.95 36.88 39.95 41.96 42.44 42.06 41.48 40.77 41.47 39.75 38.43 42.12 42.37 43.51 44.18 44.99
59.15 58.76 58.68 58.71 59.01 59.49 60.13 60.72 61.02 61.10 60.81 60.04 59.84 59.91 59.52 52.49 40.18 50.48 61.87 62.65 63.36 53.90 50.58 48.34 45.98 42.57 39.80 39.12 43.27 39.79 42.95 42.14 44.27 44.31 42.12 40.72 42.55 42.34 41.23 44.33 44.01 44.14 43.19 42.68 41.02
58.94 58.68 58.62 58.69 58.79 59.28 60.08 60.65 61.19 61.11 60.47 59.20 59.61 59.66 53.27 44.60 46.80 56.50 61.86 60.76 53.31 51.34 48.07 46.63 43.97 42.94 39.08 40.02 40.60 39.26 40.63 42.66 44.50 43.36 42.19 42.14 41.59 40.74 42.23 44.82 44.19 43.25 42.33 41.10 40.42
58.72 58.46 58.32 58.35 58.75 59.27 59.91 60.63 61.07 60.92 59.45 59.53 59.62 58.83 47.06 41.06 54.16 57.21 55.03 51.77 50.97 48.96 46.75 46.62 45.12 45.37 41.81 40.23 39.70 40.54 40.75 41.72 42.40 42.84 41.36 40.70 38.99 39.82 42.83 42.35 42.88 42.06 40.11 39.04 39.13
58.75 58.39 58.17 58.23 58.70 59.32 59.90 60.53 60.72 60.60 59.04 59.33 58.88 55.64 47.26 45.56 55.20 56.25 53.88 50.80 50.82 49.33 47.18 48.34 47.31 44.65 43.24 40.07 42.51 40.98 39.05 40.08 40.05 40.08 40.05 40.94 37.70 39.31 43.28 42.53 40.83 39.48 37.74 38.31 38.40
58.57 58.19 57.98 57.99 58.37 59.02 59.83 60.34 60.31 60.14 58.71 58.55 59.19 51.70 43.69 49.86 52.34 54.14 51.94 50.03 50.90 50.12 49.55 48.28 47.48 45.64 42.63 42.62 40.70 36.54 35.25 32.63 38.05 39.60 39.68 39.37 36.33 41.94 42.83 40.72 38.94 36.83 35.51 37.10 37.55
58.12 57.77 57.78 57.91 58.03 58.60 59.54 59.78 58.97 58.78 58.47 59.01 51.90 46.62 43.71 52.28 47.83 48.60 48.43 47.91 47.96 47.41 47.17 49.86 46.27 41.42 41.21 35.88 32.92 33.19 29.35 31.11 36.35 40.12 38.68 37.43 35.45 41.35 42.35 41.20 37.30 35.00 35.24 36.19 36.09
57.89 57.64 57.60 57.81 58.11 58.79 59.45 58.94 57.11 56.54 56.05 56.28 54.04 43.92 45.62 43.75 46.50 47.39 46.55 48.48 45.69 44.78 44.06 43.41 39.60 36.03 34.64 32.87 28.85 30.14 29.97 31.73 32.27 36.73 37.43 35.56 36.28 40.03 41.05 39.36 35.46 34.13 34.26 34.73 35.05
57.90 57.71 57.74 57.87 58.42 59.67 56.98 52.03 48.75 48.00 49.20 46.15 44.46 43.91 44.91 45.94 47.64 45.22 47.00 46.34 45.17 41.72 36.27 38.49 34.15 32.03 35.16 36.37 34.66 32.62 31.45 31.16 33.39 38.62 35.19 35.54 35.21 38.54 39.16 35.45 33.70 33.78 33.82 34.16 34.67
57.89 57.77 57.89 58.18 58.98 59.43 54.15 49.25 48.11 48.06 44.44 49.31 48.18 46.39 46.66 46.62 43.15 44.25 46.72 41.98 40.32 36.82 37.61 35.42 31.92 37.83 37.53 36.54 35.48 32.88 30.79 31.51 35.27 37.18 35.51 35.19 35.65 35.99 35.28 34.50 34.19 33.75 33.08 33.25 33.40
57.71 57.45 57.67 58.30 59.05 56.15 52.11 51.04 50.01 47.95 43.14 46.31 47.82 47.58 46.53 46.81 44.54 44.17 45.07 41.49 38.47 35.75 35.98 34.19 37.83 39.79 38.27 35.59 34.46 32.97 31.73 31.98 33.86 34.15 33.46 31.47 31.82 33.20 34.02 34.66 34.86 34.20 33.91 33.46 32.37
57.70 57.32 57.40 58.60 56.06 53.92 50.22 51.25 50.23 48.61 38.12 40.61 43.55 44.20 44.31 46.41 41.93 44.19 44.67 42.08 37.97 36.60 35.89 34.96 38.73 38.36 35.61 35.26 36.44 32.10 36.69 35.89 33.66 30.81 28.28 31.60 24.75 30.21 31.73 31.54 32.24 32.10 30.91 30.87 31.26
57.50 57.40 57.60 58.58 53.24 50.58 52.48 50.71 49.61 46.97 28.64 40.85 40.75 46.04 43.20 43.30 40.65 39.51 42.92 41.42 37.03 37.08 36.53 35.82 35.86 34.26 34.39 36.05 37.85 35.45 35.73 33.96 31.77 28.79 26.83 27.26 25.10 27.61 30.95 29.19 29.62 30.14 30.85 30.57 30.99
57.20 57.25 57.55 57.95 55.45 54.20 51.09 51.02 49.74 38.70 29.31 36.93 39.12 38.11 38.35 38.39 38.02 39.01 39.15 40.75 39.95 36.69 35.21 36.64 36.54 36.37 37.08 35.53 37.21 36.58 33.47 32.11 29.00 27.73 22.59 27.57 27.80 26.52 29.61 31.05 30.08 30.84 30.57 31.17 30.77
57.03 57.01 57.02 58.40 54.43 54.05 52.01 50.24 39.00 34.12 39.89 35.59 34.58 36.39 35.59 34.50 35.16 36.65 35.48 33.84 33.01 30.70 30.59 32.63 34.34 35.00 36.31 33.53 33.94 33.24 30.78 24.68 21.97 20.63 22.76 27.30 25.25 28.72 30.82 31.45 32.99 30.63 29.88 30.21 30.60
56.92 56.91 56.95 58.53 56.38 52.73 51.86 45.32 33.27 38.42 37.73 38.35 36.72 35.69 33.94 35.13 34.30 34.47 32.72 31.47 33.79 32.23 29.64 29.38 28.83 34.67 35.86 35.13 32.70 30.96 31.64 25.17 16.29 17.88 21.77 27.06 24.82 29.30 30.64 31.25 32.74 32.06 30.77 30.23 30.03
56.84 56.66 56.89 58.16 55.47 53.29 48.88 38.45 36.98 39.01 40.91 36.90 36.80 32.93 32.74 35.46 34.62 32.43 31.56 31.44 34.52 34.51 32.90 29.19 30.14 33.50 34.00 34.86 36.43 31.11 28.82 31.62 25.78 13.24 18.28 25.75 27.75 30.57 30.66 29.78 29.77 29.63 29.80 29.58 29.76
55.42 54.69 54.00 55.69 54.41 51.76 45.77 40.84 41.42 44.72 43.60 39.71 34.31 36.98 32.34 35.81 33.82 31.70 31.11 34.79 35.92 36.05 35.70 33.96 28.90 33.31 34.06 34.85 33.63 33.15 34.67 27.49 25.65 15.08 14.48 22.53 24.10 26.10 27.40 27.96 29.53 29.44 29.89 30.59 30.79
50.21 47.38 50.64 54.65 53.72 48.14 40.78 41.91 43.09 45.29 43.41 40.76 37.92 37.24 35.78 36.08 35.75 31.08 33.22 35.32 36.60 35.96 38.44 35.76 32.96 29.96 33.28 31.75 31.05 30.35 28.98 29.30 29.29 24.51 16.33 13.29 21.82 29.74 30.70 30.65 29.58 30.20 31.27 31.11 31.32
48.11 42.56 50.08 53.82 43.84 43.58 42.61 42.54 43.62 41.46 43.26 41.57 39.80 38.52 37.36 36.36 35.87 33.31 33.15 35.96 38.21 38.82 35.60 36.97 32.46 26.14 29.73 31.64 31.53 31.54 30.75 30.72 26.00 22.07 22.35 22.52 25.84 33.03 32.17 32.28 31.45 31.21 32.04 31.33 31.11
43.71 42.13 49.06 49.65 39.38 37.58 40.54 41.22 41.52 39.64 41.06 41.03 39.63 39.69 39.14 36.35 33.83 34.11 33.75 36.70 37.58 37.84 35.77 36.65 28.89 18.31 24.75 27.93 30.55 29.20 29.77 30.12 29.14 25.63 16.86 19.37 22.33 32.63 31.79 31.22 31.59 31.24 31.24 31.07 30.67
42.22 37.26 41.51 44.25 43.01 39.93 38.42 38.58 39.05 42.64 40.98 41.70 40.26 39.86 37.49 35.61 35.86 32.42 33.23 36.09 37.07 37.05 41.04 39.55 29.92 27.53 27.14 25.31 28.57 26.44 27.93 28.71 26.65 22.32 21.23 25.21 26.83 29.69 30.25 30.45 30.51 30.42 31.07 31.49 30.48
42.43 38.35 40.28 34.37 37.52 39.72 40.80 39.69 37.92 36.76 40.86 41.45 38.29 39.32 37.43 33.20 33.54 32.95 33.94 34.41 35.98 38.70 36.01 35.00 24.88 26.97 26.70 27.24 27.96 26.80 26.85 27.07 25.12 26.48 24.81 27.39 27.48 29.07 30.98 30.64 29.96 29.56 28.70 29.82 28.80
36.90 36.34 37.31 38.24 40.30 38.86 39.18 37.67 37.91 39.40 38.52 36.95 37.62 38.97 38.64 35.18 34.84 32.05 33.80 33.20 32.07 32.54 33.00 31.64 25.38 26.07 20.67 28.07 28.65 26.84 27.91 27.55 28.39 28.24 26.64 26.71 26.20 31.33 29.12 28.07 26.06 26.71 27.54 29.39 30.10
38.29 38.35 36.33 36.57 38.43 37.50 37.06 38.20 37.90 40.53 39.16 39.30 39.28 37.14 36.61 37.96 36.94 34.11 35.28 34.78 35.09 32.27 30.28 28.91 26.25 23.99 23.60 21.97 21.18 17.81 21.41 25.93 27.33 26.32 26.51 22.11 27.39 21.39 24.10 25.70 25.80 25.65 25.37 27.04 27.94

GFSSW_sfc_wetblb_036.txt.gz
Wetbulb
58.23 58.39 58.83 59.32 59.53 59.87 60.20 60.49 60.70 60.76 61.10 61.18 61.14 60.73 60.67 60.39 58.87 53.25 44.52 53.34 54.67 63.10 59.52 49.31 48.84 48.17 47.67 46.28 45.03 40.44 34.63 31.73 34.18 35.25 37.07 39.89 40.60 40.68 41.41 40.23 41.84 42.07 44.96 42.97 47.36
57.83 58.16 58.62 59.05 59.32 59.68 60.22 60.61 60.66 60.85 61.17 61.08 60.63 60.38 60.30 60.03 51.61 47.42 57.32 62.58 64.30 62.95 48.98 46.22 45.06 46.20 43.63 44.80 43.76 38.28 32.80 34.45 37.02 40.01 40.13 39.93 39.70 40.66 42.39 40.62 39.10 40.45 43.63 44.71 44.36
58.40 58.35 58.53 58.86 59.06 59.54 60.05 60.55 60.82 61.02 61.15 60.38 59.94 59.94 59.86 57.59 46.44 45.13 61.57 62.93 64.24 59.77 49.84 48.86 47.65 45.52 41.04 43.62 42.76 38.45 35.55 37.58 39.92 41.23 40.81 40.03 39.81 40.75 40.45 38.80 39.43 39.73 42.30 41.97 40.90
59.09 58.79 58.60 58.66 58.91 59.32 59.93 60.49 60.99 61.08 61.05 59.35 59.63 59.90 59.36 50.82 40.04 49.05 61.48 62.88 63.68 52.21 49.45 47.48 45.64 41.73 38.38 39.66 41.81 38.60 41.22 41.00 42.95 42.77 41.04 39.39 41.54 40.54 40.64 41.18 42.62 41.11 40.57 39.65 39.22
58.83 58.68 58.63 58.55 58.61 59.08 59.77 60.40 61.06 61.17 60.79 59.22 59.85 59.70 52.02 43.35 46.38 55.47 61.12 59.38 52.57 49.83 46.99 45.39 42.86 41.65 37.34 38.92 39.54 39.63 39.54 41.24 42.62 42.35 41.13 41.14 40.06 39.47 41.51 41.29 41.19 41.37 39.95 38.05 37.77
58.67 58.36 58.35 58.38 58.58 58.93 59.56 60.32 61.01 60.94 60.44 59.23 59.53 58.93 45.30 40.77 53.01 55.45 52.99 50.36 49.92 48.05 45.67 45.58 44.05 44.36 40.78 38.91 38.17 38.83 39.61 40.66 41.38 40.66 40.30 39.99 37.78 38.36 39.10 39.74 40.21 39.55 37.04 36.75 36.89
58.59 58.40 58.19 58.28 58.59 59.03 59.46 60.20 60.67 60.57 59.79 59.26 58.61 54.91 45.14 45.89 54.41 55.05 52.26 49.18 49.58 48.21 46.06 46.52 46.20 43.56 41.99 39.37 41.70 39.68 37.68 38.46 38.22 38.47 39.13 39.87 36.75 38.44 39.70 39.87 38.02 36.39 35.74 36.42 36.45
58.32 58.11 58.06 58.03 58.21 58.59 59.30 60.10 60.24 59.93 58.73 58.76 58.77 49.98 44.05 48.77 52.69 53.32 50.51 48.99 49.52 48.88 48.36 47.32 46.75 44.81 41.67 41.55 39.26 35.66 34.33 32.32 36.40 38.17 38.28 38.95 35.59 39.86 39.39 39.76 35.62 34.84 33.78 35.07 35.58
57.85 57.68 57.96 57.94 57.81 58.12 59.15 59.78 57.87 58.58 58.47 58.60 50.68 45.98 43.92 51.57 47.93 48.43 47.64 47.72 47.01 46.37 46.85 48.73 45.35 40.79 40.56 35.47 32.69 32.17 30.09 29.65 35.03 38.25 37.45 36.19 34.85 40.32 39.73 37.83 34.24 33.19 33.41 34.37 34.21
57.79 57.61 57.84 57.81 57.73 58.11 59.29 59.57 57.21 55.93 55.37 55.58 52.59 43.77 45.73 43.38 45.91 46.78 46.46 47.69 44.94 44.21 43.55 42.55 38.80 35.74 34.16 33.01 29.61 30.13 28.65 30.41 31.24 35.40 36.38 34.12 36.36 39.49 37.87 36.32 32.93 31.94 32.25 32.81 32.91
57.86 57.76 57.87 57.70 57.84 58.95 56.76 51.68 48.27 47.15 48.24 45.96 44.81 44.05 44.31 45.31 46.51 44.18 46.29 45.72 44.05 40.66 35.89 37.15 34.03 32.08 34.71 35.39 33.83 32.79 30.64 31.06 32.47 36.93 34.44 35.17 34.71 37.00 34.90 33.04 31.95 31.70 31.76 31.83 32.09
57.94 57.92 58.02 57.81 58.27 59.39 54.50 49.07 48.41 47.20 44.12 48.76 47.89 45.32 46.22 45.80 41.85 43.05 46.09 41.46 39.24 35.76 36.49 34.13 31.23 36.79 36.60 35.82 34.44 32.08 30.20 30.23 33.94 35.81 35.21 33.67 34.66 33.08 33.61 32.34 32.71 31.92 31.21 31.04 30.81
57.84 57.61 57.60 57.71 58.30 57.74 53.55 50.97 49.56 47.97 42.82 45.74 47.21 46.78 47.06 46.24 43.92 42.83 44.54 40.48 37.12 35.01 34.71 33.11 36.73 38.17 37.03 33.78 32.89 31.14 30.35 30.49 33.11 33.01 32.50 30.78 31.18 30.87 32.17 32.79 33.08 32.58 32.23 31.72 30.50
57.89 57.39 57.08 57.60 56.07 55.02 51.82 54.72 49.81 48.67 38.10 40.21 43.36 44.87 44.59 45.90 41.85 44.00 44.01 41.66 36.86 35.89 35.21 34.05 37.45 37.69 34.16 33.90 34.66 30.48 35.44 34.89 32.91 31.24 27.57 30.51 25.11 28.77 30.31 30.27 31.08 30.94 29.49 29.64 30.06
57.67 57.24 57.12 58.50 52.91 51.42 52.35 50.16 48.73 47.03 28.05 40.55 41.10 45.46 43.61 43.84 40.70 39.58 42.48 40.61 36.00 36.58 36.31 35.50 34.86 34.19 34.19 35.00 36.83 34.35 35.54 33.63 31.76 28.64 26.11 26.30 24.79 27.48 29.51 28.54 28.97 29.15 29.50 29.20 29.77
57.21 56.93 56.94 57.19 55.35 52.88 50.46 50.50 48.97 37.48 29.11 36.97 38.19 37.58 39.41 38.71 38.08 38.51 39.10 40.80 40.02 36.46 34.72 36.21 36.59 36.81 36.98 35.12 36.74 35.65 33.18 31.27 28.35 26.86 22.08 27.36 27.65 25.93 27.96 30.32 29.46 29.95 29.63 30.11 29.83
56.90 56.68 56.19 58.04 53.23 52.20 51.21 49.58 38.57 33.85 39.49 34.69 34.16 35.88 36.49 34.55 35.62 36.97 35.23 33.88 33.58 30.96 30.96 32.78 33.92 34.48 35.77 32.96 33.17 32.91 30.18 24.32 21.82 20.61 22.36 25.51 24.10 28.46 31.68 31.47 31.90 30.54 29.74 29.67 29.57
56.73 56.53 56.00 57.77 56.70 52.63 51.90 44.73 33.81 37.96 37.39 36.61 35.65 34.44 33.85 34.54 33.93 34.44 33.38 32.32 34.71 32.17 30.20 29.20 28.15 34.41 36.10 34.32 32.15 30.75 31.04 25.25 16.85 17.47 20.66 26.24 24.18 29.50 30.39 30.76 31.46 32.48 31.04 29.89 29.05
56.59 55.93 55.70 56.89 55.34 54.25 47.74 38.67 36.91 38.09 41.16 35.49 35.29 30.61 30.71 33.86 33.22 32.26 31.27 31.68 35.05 33.88 31.91 28.47 29.82 32.84 33.33 34.11 34.93 30.33 28.12 31.19 24.69 12.74 17.57 25.00 27.62 30.60 29.73 28.46 28.38 28.34 28.64 28.39 28.75
54.87 53.93 53.59 57.69 54.99 53.32 44.65 39.74 40.67 43.33 42.04 37.88 35.40 34.80 29.80 32.54 31.68 30.25 29.88 33.39 34.30 35.89 35.93 34.02 28.97 32.56 32.87 34.44 33.71 32.45 34.13 27.88 25.95 16.12 12.77 22.67 23.97 26.45 28.18 27.96 27.86 27.65 28.04 28.69 29.32
53.94 49.32 52.69 58.15 54.87 48.95 40.05 39.92 43.43 45.45 44.07 39.81 38.95 35.82 33.10 34.22 33.29 29.50 31.54 33.98 36.43 34.47 37.74 34.72 32.93 29.93 32.88 31.24 30.61 30.16 29.11 28.70 29.15 25.38 18.13 14.37 21.65 28.88 30.20 29.69 28.31 29.11 30.07 30.13 30.19
48.97 43.23 50.23 57.08 45.75 45.17 41.89 43.67 45.07 44.74 43.67 41.67 40.57 39.37 35.89 36.12 33.10 30.95 31.87 34.99 38.32 38.98 34.46 36.85 32.46 25.57 29.45 30.54 31.07 30.82 30.65 30.60 26.99 22.13 20.78 21.66 25.39 31.28 30.82 31.11 31.27 30.82 31.82 31.16 31.14
45.22 43.18 49.31 49.57 41.40 41.14 43.07 44.07 43.96 40.40 42.24 40.47 39.14 39.63 39.07 37.20 35.13 34.58 34.31 37.01 38.55 38.71 36.91 37.22 29.49 19.65 24.96 28.64 29.98 28.60 29.81 30.09 28.65 25.95 18.58 19.12 23.86 31.70 30.41 30.02 30.49 30.41 30.56 31.07 31.02
43.43 38.58 42.09 44.48 43.36 41.93 40.09 39.59 39.63 42.66 41.58 42.46 40.88 40.05 37.73 36.09 37.06 34.38 33.58 36.41 37.76 37.76 41.15 39.84 30.29 27.36 26.13 26.91 29.55 27.74 28.68 29.17 27.61 19.85 22.24 26.45 28.58 28.09 29.69 30.17 29.42 30.18 30.80 31.10 30.62
43.05 39.61 40.83 36.13 38.35 40.57 40.70 39.48 39.01 37.83 41.40 42.56 39.27 39.74 38.97 35.78 36.69 34.50 34.53 34.78 36.77 39.75 36.42 36.65 26.99 27.48 27.20 27.61 28.32 28.62 28.44 27.59 26.37 29.21 26.39 29.28 28.02 28.64 32.47 31.94 31.71 31.57 30.55 29.31 29.36
38.20 37.78 38.75 37.45 41.24 39.58 39.70 37.27 36.50 38.33 39.08 37.54 38.06 39.08 39.98 36.48 37.29 32.51 34.64 34.09 33.90 34.29 33.92 32.90 26.01 27.37 23.75 28.34 27.89 26.40 27.43 26.89 28.56 27.15 25.38 25.90 26.17 30.52 30.90 29.71 29.13 29.81 28.86 28.16 28.65
38.65 38.86 37.14 37.64 37.54 37.34 37.50 37.65 37.54 40.05 40.52 41.16 39.99 39.22 37.99 39.76 38.91 37.27 36.15 37.17 36.83 34.43 32.23 31.01 27.24 25.06 24.21 21.08 22.94 23.92 26.10 26.72 26.58 27.23 28.43 25.21 30.43 25.37 25.66 27.42 27.46 26.74 26.11 27.08 28.86

GFSSW_sfc_wetblb_039.txt.gz
Wetbulb
58.12 58.39 58.94 59.40 59.61 59.89 60.32 60.70 60.77 61.00 61.35 61.33 60.99 60.62 60.51 60.36 58.85 53.03 44.43 53.03 54.77 62.90 59.24 49.83 50.06 49.04 49.22 47.83 46.55 43.49 36.51 34.25 37.12 37.62 40.35 43.56 43.31 45.17 45.09 45.01 45.38 46.37 45.78 44.39 44.84
57.73 58.08 58.57 58.98 59.24 59.67 60.22 60.65 60.81 61.16 61.32 60.72 60.18 60.19 60.05 59.80 51.01 46.72 57.49 62.08 64.12 62.52 49.29 47.18 46.25 46.99 45.20 46.13 45.27 39.86 35.24 36.79 39.79 40.48 41.24 42.96 42.78 43.85 44.11 43.82 44.35 45.28 44.55 43.86 44.04
58.25 58.17 58.36 58.75 58.96 59.44 59.96 60.53 60.96 61.17 61.29 59.96 59.95 60.11 59.95 57.01 46.12 45.21 61.26 62.49 64.16 59.15 50.08 49.29 48.40 46.52 43.09 44.43 43.55 40.94 37.32 38.93 41.55 43.00 43.66 42.88 42.48 43.98 43.16 42.20 44.47 44.85 42.08 41.99 41.89
58.74 58.42 58.40 58.41 58.68 59.08 59.79 60.46 61.09 61.29 61.12 59.98 60.27 60.32 59.31 50.27 39.42 48.51 61.78 62.69 63.30 52.11 49.89 47.81 46.32 42.88 40.28 39.84 43.77 39.50 41.80 41.50 44.36 43.88 42.92 42.09 43.65 42.99 42.98 44.08 42.41 40.91 40.93 40.20 39.64
58.74 58.46 58.50 58.43 58.42 58.81 59.55 60.30 61.13 61.18 60.93 59.89 60.24 59.81 50.86 43.96 46.28 55.15 60.49 60.42 53.39 49.83 47.43 46.11 43.70 42.83 39.30 40.69 41.48 41.13 41.02 42.33 43.51 42.92 42.26 42.04 41.91 41.97 41.58 39.86 40.85 40.42 39.58 38.44 38.39
58.50 58.29 58.17 58.34 58.48 58.67 59.24 59.96 60.83 60.96 60.71 59.60 59.82 58.93 44.83 41.46 52.80 54.48 52.09 50.28 49.90 48.27 46.15 46.23 44.70 44.83 41.82 40.48 40.21 40.76 40.79 41.25 42.00 41.90 41.66 41.34 40.03 41.21 40.56 40.08 39.33 38.70 37.26 37.34 37.32
58.51 58.20 58.19 58.26 58.50 58.67 59.04 59.71 60.54 60.61 60.24 59.28 58.78 54.42 43.93 46.76 53.93 53.82 51.16 48.48 49.22 48.27 46.44 46.79 46.46 44.65 43.48 40.37 42.05 40.67 38.65 39.55 39.52 39.90 40.30 41.11 38.44 39.22 40.87 39.59 37.49 36.36 36.29 36.48 36.59
58.19 57.94 57.96 58.15 58.25 58.36 58.85 59.83 60.24 59.20 59.11 59.15 58.93 48.56 44.43 48.24 53.49 53.09 50.24 48.88 48.93 48.54 48.17 47.63 47.16 45.18 42.96 42.18 39.43 37.11 36.45 34.79 38.49 39.60 39.67 40.59 37.66 39.79 40.22 39.89 36.28 35.43 35.05 35.42 35.68
57.76 57.50 57.76 58.06 57.89 57.85 58.55 59.63 58.74 58.40 58.65 58.69 50.29 44.89 44.13 51.37 48.37 48.89 48.00 47.79 46.79 46.59 46.87 47.96 45.30 41.38 41.29 36.69 34.37 33.90 32.69 32.18 35.98 39.49 39.03 38.87 37.76 39.00 39.86 37.85 35.06 34.37 34.35 34.97 34.74
57.64 57.54 57.69 58.01 57.79 57.70 58.76 59.77 57.41 55.41 55.06 54.89 51.41 43.68 45.61 43.47 45.38 46.54 46.31 47.48 44.96 44.48 44.11 43.16 38.95 36.12 34.72 34.68 30.86 31.98 30.97 31.58 32.90 37.42 37.63 36.29 37.75 37.49 35.95 36.33 33.91 33.24 33.40 33.57 33.50
57.58 57.74 57.86 57.91 57.78 58.32 57.03 51.97 48.37 46.25 47.40 45.79 44.84 43.97 44.29 44.73 46.26 44.54 46.40 45.45 43.33 41.28 37.14 37.69 35.21 33.92 35.32 35.94 35.32 33.97 32.08 32.91 33.97 37.48 36.61 36.40 36.22 38.43 34.56 33.69 32.74 32.65 32.60 32.60 32.81
57.82 57.91 58.01 57.98 58.04 59.00 56.06 49.63 47.82 47.21 43.64 48.47 47.64 45.39 45.38 45.44 41.57 43.10 46.25 41.69 39.37 35.63 36.58 34.73 32.37 37.32 37.00 36.00 34.80 32.67 31.45 31.73 34.19 36.27 36.07 34.92 35.27 36.30 34.44 33.81 33.77 32.69 32.19 32.32 32.29
57.75 57.66 57.72 57.85 57.83 57.90 54.93 51.92 49.80 47.73 42.25 45.42 46.98 46.35 46.10 45.46 42.74 41.83 44.90 41.05 37.31 34.55 34.34 32.95 36.40 36.96 36.59 33.37 33.04 31.48 31.34 30.60 33.31 34.13 34.22 32.39 32.68 32.31 32.73 33.15 33.36 33.30 32.94 32.38 31.78
57.86 57.42 57.28 57.35 55.41 55.63 53.57 56.17 50.52 48.41 37.58 39.59 43.02 45.69 44.07 45.12 41.32 43.99 44.22 42.00 36.99 35.83 34.46 33.89 37.03 37.01 33.68 33.42 33.99 29.57 34.34 34.10 33.11 32.15 29.10 32.14 26.92 31.41 31.21 30.89 31.58 31.53 30.88 31.21 31.62
57.75 57.36 57.21 57.91 52.75 52.39 53.03 51.60 48.98 47.09 25.75 39.26 40.57 44.76 43.87 43.58 40.80 39.38 42.90 41.49 35.84 36.30 37.20 36.08 34.65 34.35 33.97 35.47 35.92 33.72 34.80 33.62 32.62 30.55 28.64 28.73 26.79 29.96 30.88 29.97 29.98 30.36 30.43 30.59 31.22
57.41 57.17 56.94 56.33 55.34 52.59 49.88 49.74 48.81 37.05 28.69 36.78 37.84 37.40 39.85 38.83 37.94 38.54 39.86 41.45 39.79 36.18 34.96 36.15 36.89 36.91 37.30 35.99 36.73 35.02 33.07 31.58 29.13 28.06 23.34 29.01 29.09 28.20 29.51 31.66 30.18 30.74 30.47 30.76 30.75
57.08 56.85 56.08 56.74 52.32 51.48 50.57 48.69 38.75 32.66 38.37 33.97 34.50 36.17 37.42 34.35 35.17 36.81 35.19 34.06 33.40 30.66 30.21 32.68 34.13 35.27 36.19 33.19 34.12 33.23 31.42 25.17 23.47 23.01 24.02 26.55 25.47 29.76 32.44 32.84 33.12 31.97 30.87 30.65 30.89
57.09 56.66 55.99 56.49 55.25 51.82 51.57 44.89 33.46 36.53 36.28 35.60 34.81 34.40 34.99 34.63 33.54 34.35 33.16 31.68 34.82 32.98 30.72 29.92 28.66 34.16 35.81 35.34 32.90 30.85 32.00 26.61 20.12 19.62 21.96 26.19 24.18 30.51 31.64 31.64 31.89 33.02 32.22 31.24 30.15
56.71 55.97 55.35 56.05 54.67 54.08 47.49 37.87 35.76 37.16 39.99 34.99 34.11 29.91 30.04 32.52 32.76 31.41 31.34 31.72 36.01 34.87 34.43 30.20 31.09 33.78 33.81 34.46 35.78 31.45 29.05 32.02 24.07 14.13 20.28 26.04 28.75 32.15 31.08 29.75 29.41 29.80 30.29 30.27 30.01
54.68 53.85 53.38 56.94 55.24 52.95 44.04 38.98 39.28 42.35 39.43 37.39 35.57 34.44 29.45 30.34 30.54 29.72 29.49 33.18 34.55 37.04 37.16 34.75 29.49 32.54 32.87 34.78 33.59 33.04 34.71 28.26 26.76 19.06 16.90 23.76 25.54 28.14 29.33 29.42 28.10 28.17 30.02 30.42 30.42
53.61 48.79 53.87 57.12 54.75 48.94 38.41 39.06 41.65 44.13 42.40 37.75 37.74 35.60 32.54 31.51 33.36 28.74 30.68 32.56 35.47 35.47 38.74 35.30 33.22 29.99 32.57 31.06 30.95 30.53 29.59 28.96 29.81 26.55 20.31 17.04 23.31 29.96 31.75 30.97 28.59 29.15 30.63 30.55 30.71
51.53 44.38 51.05 56.36 44.70 45.82 41.07 41.32 43.85 43.85 43.65 41.65 39.58 39.04 34.23 35.70 33.48 30.42 30.43 33.64 37.13 36.94 34.52 36.61 32.99 26.61 29.05 31.23 31.25 31.17 31.00 30.54 26.95 22.72 21.87 22.72 25.38 31.70 31.56 31.84 31.24 30.78 31.29 31.65 32.01
45.90 44.52 49.82 52.75 40.67 41.14 43.86 43.32 43.25 42.20 43.62 42.77 40.03 40.07 38.63 37.94 34.24 32.58 31.62 36.35 37.50 37.41 36.02 36.48 31.37 23.46 26.83 29.04 30.04 29.57 30.23 30.45 29.19 27.65 20.52 22.03 24.50 31.68 30.32 29.96 30.25 30.45 30.57 31.28 31.69
44.47 39.23 42.63 44.77 43.87 42.91 40.89 41.47 41.27 43.64 43.27 43.30 41.59 40.56 37.85 36.78 39.27 35.17 33.22 35.57 36.72 37.67 41.52 40.72 31.95 30.82 31.00 29.34 30.47 28.09 28.84 29.97 30.51 22.18 25.45 26.85 27.03 29.73 30.42 30.58 30.14 30.61 31.28 31.10 31.53
44.75 40.77 41.44 36.46 40.45 41.96 42.56 40.95 39.77 38.59 41.87 42.99 39.74 40.34 39.42 36.89 37.67 36.87 35.09 34.64 36.65 39.81 37.99 37.52 33.12 29.61 28.03 29.21 30.10 29.54 28.75 28.27 28.31 30.76 27.68 30.50 29.13 30.07 33.62 33.35 31.88 32.48 30.44 30.36 30.26
39.33 38.62 39.48 38.29 41.48 40.68 41.12 38.60 37.70 40.15 39.49 38.25 39.70 40.53 41.11 39.35 39.96 37.53 37.52 34.23 34.82 35.08 35.17 34.86 31.88 30.23 27.60 28.55 28.55 26.12 28.61 29.25 29.87 30.31 31.28 28.75 28.33 33.18 33.95 31.16 29.98 30.39 30.13 29.98 29.55
38.87 39.19 40.26 38.86 37.93 38.40 38.73 38.67 38.31 40.55 40.82 41.42 40.47 38.55 37.88 39.77 39.86 38.37 37.79 37.71 37.38 35.45 33.24 32.99 29.40 29.13 28.02 25.13 26.26 26.05 27.02 27.27 26.98 26.75 30.87 25.88 31.85 26.66 28.68 29.85 30.19 30.21 30.50 31.62 29.32

GFSSW_sfc_wetblb_045.txt.gz
Wetbulb
58.16 58.32 58.82 59.19 59.47 60.07 60.73 61.09 61.24 61.57 61.79 61.88 60.74 61.12 60.99 60.69 60.40 59.53 54.35 57.72 59.99 63.02 60.11 56.65 56.59 56.31 56.82 54.49 54.30 53.19 46.98 45.06 46.09 46.75 48.16 50.86 49.44 51.44 52.49 51.19 51.47 51.39 51.23 50.70 52.49
57.79 57.86 58.27 58.63 58.95 59.61 60.18 60.78 61.09 61.40 61.63 61.68 60.89 61.03 60.90 60.27 58.48 55.02 59.13 62.77 64.00 63.56 55.72 54.16 52.65 53.81 52.67 52.72 53.80 50.68 47.04 45.66 48.85 49.70 49.10 50.29 50.17 50.71 49.93 50.00 49.45 49.92 51.08 51.66 52.61
58.13 58.15 58.15 58.21 58.40 59.04 59.85 60.41 60.89 61.29 61.46 61.56 61.25 60.96 60.57 59.49 55.41 53.57 61.04 62.75 64.20 60.49 56.20 55.63 54.64 52.34 50.15 52.21 51.20 50.04 46.37 47.13 48.26 49.96 51.07 50.11 49.55 51.09 49.53 48.32 50.36 49.99 50.00 50.39 51.15
58.78 58.63 58.41 58.28 58.31 58.66 59.37 60.07 60.67 61.20 61.28 61.41 61.24 60.62 59.64 58.53 48.06 55.93 61.82 62.71 63.90 58.07 56.17 54.61 52.72 49.90 48.95 48.19 51.05 47.44 48.26 47.99 49.63 50.39 49.80 49.23 50.91 49.33 49.97 49.51 50.17 50.32 49.92 49.89 49.55
59.12 58.76 58.40 58.36 58.38 58.56 59.09 59.72 60.39 61.08 61.23 61.18 60.88 60.13 58.53 54.03 54.28 59.81 61.18 62.13 58.27 56.20 54.79 52.77 50.16 50.01 48.04 48.43 49.34 48.19 48.61 49.45 50.43 49.98 49.97 49.99 49.24 49.13 49.17 49.05 49.13 48.59 48.67 48.35 48.34
58.76 58.46 58.31 58.37 58.37 58.58 58.87 59.35 60.03 60.88 60.97 60.39 60.41 58.82 55.88 50.58 58.30 59.42 56.94 56.76 56.03 55.39 54.01 53.45 50.84 51.60 49.28 48.47 47.94 49.37 48.94 48.88 49.68 49.48 49.37 47.36 48.59 47.98 49.39 49.15 47.75 47.66 47.26 47.27 46.62
58.74 58.28 58.17 58.37 58.50 58.57 58.69 59.03 59.78 60.65 59.59 59.46 59.65 57.89 54.25 54.08 59.61 58.35 55.57 54.84 55.66 55.20 52.88 53.90 53.59 51.04 50.91 48.02 49.69 48.69 46.03 48.61 48.70 48.68 47.54 48.52 45.79 45.37 48.86 47.99 46.90 46.59 46.73 46.03 45.64
58.58 58.17 58.03 58.11 58.47 58.54 58.52 58.85 59.76 60.05 58.99 58.96 59.59 56.33 52.73 54.69 60.59 56.99 56.71 54.65 55.45 55.37 54.66 54.61 54.68 52.16 50.76 50.25 48.13 46.35 46.64 44.71 48.68 47.36 47.25 47.34 44.96 48.04 47.83 47.22 46.88 46.75 46.59 45.28 44.43
57.97 57.64 57.74 57.95 58.03 58.22 58.25 58.62 59.19 58.74 58.45 59.00 56.98 54.84 51.43 56.07 54.36 57.75 56.80 53.40 53.76 54.02 53.77 53.62 53.87 50.66 49.15 46.41 45.52 46.37 43.20 45.05 45.92 47.78 46.64 45.89 46.17 46.80 47.51 47.29 47.21 47.15 46.47 45.25 44.65
57.70 57.46 57.59 57.87 58.01 58.08 57.92 58.74 59.73 57.30 57.25 57.21 55.83 51.26 52.33 49.89 52.73 55.06 55.42 54.80 52.14 52.15 50.83 50.71 49.96 46.93 47.02 45.82 40.45 43.87 43.59 44.97 44.29 45.91 45.61 45.28 45.05 46.32 46.26 46.65 47.16 47.18 46.10 45.12 44.49
57.47 57.51 57.68 57.81 58.06 58.24 57.55 58.38 53.90 52.89 54.22 51.92 52.66 52.15 50.66 50.13 52.84 52.42 53.80 52.18 52.21 50.49 46.03 48.65 45.09 42.76 46.06 47.16 47.33 46.07 44.80 44.22 46.85 46.31 44.14 45.26 45.62 47.76 46.74 45.84 46.81 46.60 45.75 44.65 43.72
57.51 57.58 57.76 57.93 58.35 58.24 58.27 53.94 54.33 53.13 49.28 54.42 53.99 53.04 51.14 51.41 46.76 49.68 52.57 48.79 47.78 44.86 47.80 44.03 41.85 47.62 48.94 47.75 46.26 44.60 43.36 43.42 46.79 44.93 43.29 44.79 44.81 47.83 48.69 46.15 47.13 46.99 45.75 44.57 42.46
57.34 57.25 57.42 57.81 58.11 57.06 55.58 55.32 56.69 55.31 49.37 50.77 53.38 52.02 50.79 49.76 48.78 48.02 50.33 49.41 46.22 44.79 44.16 43.55 45.75 46.99 45.12 43.93 42.62 43.50 42.66 43.45 43.35 43.01 43.50 43.05 41.92 44.52 47.99 47.52 46.16 46.25 46.43 44.82 43.05
57.38 56.98 56.94 57.61 55.11 55.96 52.99 57.51 58.06 55.45 43.77 45.36 47.48 51.73 50.10 50.81 47.02 51.39 51.44 48.57 44.51 43.94 44.84 44.45 47.99 43.58 43.05 42.77 43.87 41.07 46.03 44.07 42.87 40.72 38.36 43.68 36.07 44.44 47.28 43.42 42.57 42.70 43.57 43.08 42.98
57.47 56.94 57.00 57.48 55.28 52.80 55.43 58.39 59.09 54.86 31.72 47.47 47.25 51.64 50.88 48.72 47.48 44.00 49.96 46.88 44.62 43.45 43.84 43.54 41.62 41.32 41.19 42.87 44.74 42.66 44.34 42.97 42.59 40.63 40.45 41.25 36.05 42.06 45.04 42.23 41.76 41.73 42.02 42.31 42.51
57.27 57.10 56.87 56.22 55.93 57.32 58.25 58.45 56.37 41.24 31.71 42.06 44.84 43.86 43.69 46.88 44.01 43.96 44.07 47.31 47.64 44.78 43.47 44.49 45.16 44.74 44.78 42.85 44.12 44.18 41.91 40.39 40.45 39.96 33.81 39.45 38.76 40.12 42.78 41.52 43.54 41.49 40.95 41.56 41.02
56.88 56.72 56.11 57.38 52.45 54.70 55.72 53.91 40.01 34.92 45.64 40.59 41.01 43.28 44.02 41.70 40.55 42.08 40.16 39.31 39.85 36.90 38.68 41.84 42.13 44.55 44.32 41.02 41.30 42.16 40.08 35.10 33.10 31.71 31.61 38.60 38.44 41.08 46.25 43.07 44.80 40.91 40.36 41.28 41.18
56.26 56.60 55.91 57.19 57.54 53.62 53.54 45.82 33.19 39.72 42.06 43.96 42.55 42.87 41.04 40.64 40.15 39.66 38.88 38.54 42.54 43.38 42.42 39.08 37.54 42.85 43.47 44.12 42.69 38.97 40.84 35.98 29.71 31.32 34.10 32.65 32.47 39.88 44.00 43.31 42.00 43.38 42.04 41.32 40.26
55.07 54.91 55.39 56.61 56.80 54.31 48.47 36.42 36.86 40.67 45.18 43.41 41.66 39.56 39.85 40.51 40.35 38.47 38.96 40.18 43.69 44.29 39.22 39.82 40.19 43.61 43.54 45.13 45.89 39.34 36.26 43.00 34.39 29.59 30.03 36.07 38.27 42.88 38.72 37.73 39.20 41.24 40.53 39.38 39.36
52.12 51.86 52.43 57.36 56.19 52.18 44.27 37.77 41.06 46.49 46.95 47.02 39.81 42.03 39.47 39.64 38.42 38.83 39.94 44.44 43.82 45.18 46.56 44.03 38.28 39.87 39.77 41.22 41.79 41.01 43.05 33.50 35.02 29.04 28.82 35.54 36.89 37.94 35.22 36.69 37.47 38.79 38.96 38.81 39.04
50.95 46.06 54.36 57.60 53.99 47.47 38.46 38.88 43.33 48.19 48.68 45.40 43.21 42.02 42.37 41.74 39.94 38.49 42.34 44.62 45.67 43.92 44.54 44.28 41.57 36.24 37.78 36.75 37.43 36.23 36.05 37.82 38.49 36.48 32.98 31.64 35.52 43.11 43.03 40.81 37.50 38.45 39.23 38.69 38.69
49.23 41.23 55.47 56.66 43.36 44.78 40.02 42.55 44.41 45.85 48.46 47.06 46.29 45.19 43.84 43.82 40.23 40.12 40.54 44.05 46.00 44.58 39.17 43.70 41.38 37.88 36.92 41.37 41.71 42.44 39.44 38.86 33.88 31.59 33.46 32.78 36.15 39.71 43.21 44.12 41.33 39.51 39.65 40.40 40.06
45.12 44.06 53.14 53.67 39.64 40.26 42.77 42.16 44.27 43.90 45.20 45.09 44.00 45.85 46.84 43.37 38.38 42.26 43.41 47.47 45.79 43.28 41.74 42.24 37.65 33.66 35.31 35.20 36.57 35.23 37.93 39.51 39.07 35.63 33.06 32.36 35.84 39.71 39.81 40.77 42.07 40.97 40.85 40.73 40.15
45.26 37.66 44.20 45.99 45.96 43.09 40.04 39.80 39.62 45.32 44.15 45.75 45.39 45.22 42.97 42.74 44.14 42.46 42.91 41.26 43.93 43.95 43.71 44.13 38.22 36.55 35.19 38.64 39.79 33.69 35.72 37.08 36.59 32.44 33.93 35.19 38.06 35.91 38.03 38.61 39.67 41.21 41.09 40.93 39.94
44.72 37.79 42.59 38.04 39.23 41.26 43.09 41.30 39.51 39.18 43.51 44.53 42.43 43.01 41.66 38.20 39.90 40.64 43.05 38.02 39.19 41.54 42.09 42.08 35.00 37.90 38.91 41.09 41.12 37.73 36.24 35.94 34.04 36.09 34.11 37.61 38.50 42.18 40.12 40.46 41.42 41.34 41.15 39.95 38.89
39.80 39.82 41.79 41.36 42.11 40.99 40.94 39.63 39.50 40.89 41.54 39.97 40.10 42.53 43.24 39.76 41.14 40.07 42.38 41.92 38.86 38.45 37.85 39.62 34.47 37.16 34.90 39.06 38.78 36.21 38.33 37.72 36.49 36.46 37.39 39.03 39.51 46.43 45.75 43.57 42.27 41.23 40.36 39.14 38.97
43.22 41.32 40.05 39.99 39.36 38.44 36.05 38.50 40.22 42.29 43.14 44.02 42.64 41.91 40.79 42.69 45.92 44.37 42.71 43.89 43.57 39.71 35.49 34.78 33.75 32.56 31.36 36.27 35.55 28.58 33.91 36.33 38.38 39.13 39.12 35.10 39.93 40.08 40.28 39.58 39.74 39.54 40.50 39.46 39.77

GFSSW_sfc_wetblb_048.txt.gz
Wetbulb
58.39 58.49 58.99 59.37 59.58 60.19 60.74 61.15 61.37 61.70 61.90 62.01 62.07 61.44 61.39 61.27 60.51 59.39 55.55 57.74 59.94 62.61 59.96 55.97 55.79 55.60 55.32 53.60 53.51 50.88 42.54 40.52 41.89 42.89 44.67 47.65 45.69 46.77 47.35 46.49 47.18 48.14 46.21 46.98 49.05
58.13 58.39 58.65 59.07 59.17 59.72 60.33 60.85 61.11 61.50 61.72 61.79 61.88 61.52 61.28 60.60 58.26 56.35 58.58 62.46 63.35 63.42 56.13 53.57 52.76 53.51 50.07 51.35 51.28 46.71 42.94 43.36 45.92 45.77 45.30 47.46 46.14 47.18 44.86 46.36 44.93 46.08 47.98 49.54 49.74
58.44 58.45 58.62 58.81 58.90 59.25 59.96 60.51 61.03 61.44 61.70 61.79 61.84 61.28 60.71 58.78 55.56 54.11 61.68 62.88 63.89 60.47 56.13 55.12 53.93 51.99 49.15 49.55 48.24 46.96 43.03 44.90 45.85 48.71 48.73 47.52 45.09 47.03 44.20 43.75 45.53 45.95 46.32 47.78 48.11
58.97 58.90 58.70 58.73 58.77 59.01 59.46 60.18 60.86 61.31 61.50 61.68 61.59 60.76 59.73 58.33 47.69 57.27 61.92 62.87 63.41 56.97 55.67 54.34 51.97 48.60 46.97 46.05 49.50 43.68 46.70 46.01 48.84 48.56 47.81 46.04 47.69 45.15 45.55 43.58 47.50 46.82 47.56 47.30 46.53
59.24 59.04 58.82 58.56 58.57 58.81 59.10 59.72 60.56 61.04 61.31 61.29 60.94 60.16 58.13 53.64 53.91 58.92 60.56 61.38 58.57 56.19 54.19 52.85 49.22 49.02 45.72 46.54 47.61 45.13 46.08 47.19 48.46 47.78 46.70 48.22 45.51 45.24 44.63 45.65 46.56 46.86 47.54 45.57 45.09
58.92 58.58 58.41 58.48 58.54 58.74 58.97 59.21 59.87 60.68 61.02 60.21 60.54 59.22 56.29 49.51 58.29 58.82 57.07 57.33 56.48 54.72 53.36 52.75 49.93 50.20 47.49 46.28 44.94 47.03 47.22 46.72 47.97 47.66 47.26 45.18 44.99 44.85 45.26 45.87 45.22 46.03 44.71 44.05 44.08
58.80 58.42 58.14 58.30 58.66 58.81 58.97 58.94 59.32 60.35 60.10 60.05 60.38 57.67 53.99 53.07 59.31 56.81 55.73 55.02 55.30 54.88 53.27 53.45 52.40 49.68 49.25 46.39 48.27 46.88 42.90 45.40 45.77 46.36 44.92 45.70 42.39 42.44 45.80 45.68 44.58 44.43 42.90 43.53 43.19
58.27 58.22 58.12 58.12 58.32 58.63 58.90 59.00 59.24 59.93 59.50 59.67 60.20 57.03 50.79 56.28 59.14 56.92 55.99 54.24 55.04 54.97 54.40 54.04 53.29 51.46 49.10 48.42 46.33 43.01 42.30 38.90 45.02 45.90 44.28 43.29 38.81 45.82 44.82 43.98 42.99 43.09 41.93 42.92 42.37
57.49 57.72 57.88 57.90 57.89 58.07 58.50 58.57 58.40 59.92 59.11 59.12 56.37 54.77 50.04 56.82 54.26 57.13 55.92 53.12 53.17 53.36 52.98 53.31 52.93 48.44 47.09 41.90 40.06 41.87 36.80 39.88 41.35 45.56 43.54 41.80 40.37 43.37 44.81 43.94 42.88 42.45 42.61 42.40 41.34
57.31 57.33 57.68 57.73 57.82 57.98 58.17 58.34 59.03 59.32 57.75 57.28 56.15 49.74 51.34 49.68 53.05 55.44 54.86 54.13 51.81 50.91 49.87 49.32 46.98 42.84 42.52 40.28 34.61 38.40 37.80 40.98 39.78 42.43 42.87 40.18 39.98 42.42 43.40 43.38 42.81 42.87 42.38 41.57 41.47
57.26 57.21 57.69 57.64 57.92 58.28 57.24 56.17 53.28 51.51 53.56 50.28 50.83 50.88 50.59 50.19 53.66 52.05 53.46 51.61 51.26 48.53 43.04 45.88 40.63 38.42 41.90 43.44 44.02 42.77 40.58 39.33 42.12 43.03 41.33 40.70 41.27 43.72 42.96 42.07 41.63 42.38 41.93 41.08 40.82
57.40 57.35 57.74 57.79 58.21 58.35 56.64 52.90 52.74 52.17 46.93 53.26 52.61 52.85 51.61 50.85 46.31 49.88 52.14 47.09 46.27 42.02 44.95 41.22 38.04 44.37 46.43 45.65 43.37 42.07 39.72 38.94 42.71 42.46 39.84 40.13 40.41 43.60 43.55 42.48 43.34 43.72 42.04 41.08 38.62
57.50 57.16 57.43 57.61 57.93 56.90 54.16 53.72 55.96 54.65 47.23 47.84 53.00 51.91 50.55 49.26 47.32 46.74 48.94 47.44 43.99 42.29 42.93 40.46 43.27 46.09 44.48 42.56 41.32 40.82 39.09 38.63 39.61 40.45 39.40 37.15 36.14 40.01 44.09 45.15 44.15 44.14 43.82 42.08 38.90
57.69 57.08 57.06 57.30 54.64 54.96 52.07 56.29 57.75 54.91 40.69 41.85 47.57 51.08 50.33 49.59 45.31 50.52 50.17 47.75 44.44 42.03 43.10 42.00 45.75 42.70 41.95 41.05 41.88 37.72 42.77 42.22 40.67 36.92 31.83 37.91 29.52 38.23 42.04 42.95 42.67 42.01 40.91 39.58 39.18
57.66 57.34 57.09 57.24 54.49 51.81 54.01 56.94 57.46 53.91 27.44 45.02 46.19 52.80 49.89 47.14 45.90 44.30 48.08 45.61 41.91 41.46 42.94 40.24 40.55 39.93 39.82 41.09 43.01 39.59 41.75 39.57 38.43 35.74 33.98 35.20 32.58 37.22 42.56 41.70 40.59 40.12 39.84 39.08 38.79
57.12 57.06 57.00 56.01 55.41 55.95 57.15 56.93 54.79 39.55 27.72 41.88 43.99 43.55 43.30 45.82 43.13 43.48 43.34 45.79 45.46 42.69 42.09 41.53 42.61 42.03 42.00 41.33 41.95 42.43 39.21 37.59 36.31 35.19 28.10 35.15 34.87 34.61 39.71 40.90 41.23 40.73 39.88 39.29 38.44
55.80 56.67 56.06 56.79 51.44 57.10 56.95 53.05 36.76 30.86 42.55 39.22 39.96 42.90 42.56 41.39 40.40 40.98 39.19 37.84 37.75 34.89 35.32 38.89 39.50 41.44 42.50 38.07 40.06 39.70 36.24 29.28 27.11 26.08 26.70 33.55 33.00 37.27 40.82 39.80 42.16 40.93 40.20 39.24 38.66
55.41 55.44 55.84 56.75 57.36 56.44 54.27 44.65 29.67 37.08 38.55 43.87 43.16 42.47 39.70 41.95 39.92 39.30 37.55 35.76 39.59 39.85 37.68 34.28 32.58 39.86 41.25 41.16 38.31 36.28 37.27 30.50 23.54 25.46 27.10 28.86 27.36 34.75 37.63 38.98 39.74 41.84 40.44 39.20 37.77
54.47 54.25 54.50 56.06 57.42 55.57 48.50 35.25 34.36 38.96 42.80 41.46 41.57 38.37 38.50 39.91 39.16 37.69 36.96 37.79 40.17 40.48 36.46 36.90 36.59 41.23 41.37 42.45 42.60 36.17 33.34 40.23 31.42 22.51 23.48 30.53 33.79 39.13 36.55 35.56 36.34 38.09 38.37 37.86 37.50
51.03 50.94 51.12 56.98 56.90 52.33 44.56 36.80 37.71 43.68 45.01 43.68 37.25 40.65 36.54 37.97 36.58 36.24 36.66 40.85 40.77 42.58 43.76 41.58 35.81 38.77 36.37 40.08 39.47 37.57 39.83 31.03 31.16 20.80 21.50 29.03 30.72 33.47 33.04 34.29 35.15 36.60 37.18 37.82 37.84
49.55 46.22 52.13 56.78 55.43 47.51 38.79 38.67 40.67 46.05 46.10 42.06 40.51 39.81 40.46 39.07 37.49 35.38 38.21 41.31 43.50 42.10 43.73 42.28 38.67 32.49 35.65 33.89 35.36 34.24 32.93 34.77 35.70 31.54 25.07 24.23 30.32 37.91 39.98 38.08 35.35 37.82 38.57 38.07 37.68
47.45 40.67 52.54 56.02 45.10 44.48 40.63 42.22 44.03 44.07 47.16 45.43 45.24 42.85 41.60 42.03 38.91 37.77 37.05 41.75 45.59 44.44 39.19 42.31 39.39 30.17 31.94 37.32 38.35 39.13 36.46 36.33 31.56 28.11 30.47 28.24 33.06 36.54 38.13 39.36 38.25 38.38 38.92 38.48 37.97
42.30 44.19 51.40 53.42 39.61 40.86 42.87 42.78 44.42 42.78 43.60 43.70 43.44 44.74 45.10 42.45 38.52 39.96 41.16 44.52 44.85 43.24 40.24 41.78 35.62 29.48 32.01 32.85 35.76 33.47 36.02 38.45 38.18 32.81 31.64 27.20 31.41 36.55 36.95 36.96 37.46 37.46 37.63 37.68 37.11
42.01 37.51 43.83 46.20 44.67 41.36 40.09 39.31 40.12 45.12 43.53 44.82 44.20 45.10 42.27 40.93 43.80 39.30 40.30 41.01 43.97 43.88 44.35 44.04 37.57 34.63 32.94 34.59 35.48 30.20 33.19 36.05 36.03 30.46 29.99 32.88 34.16 33.02 34.64 34.81 36.40 37.07 37.67 37.46 37.11
41.47 38.34 41.96 37.05 38.72 40.24 40.28 39.92 38.18 38.84 43.13 44.34 41.95 42.72 41.75 38.39 39.79 40.09 41.61 38.02 39.42 41.94 42.09 41.85 35.18 36.06 37.91 39.33 37.87 33.13 33.09 34.17 33.12 35.18 31.80 35.01 35.69 39.60 40.19 36.53 38.00 39.31 38.03 37.44 36.70
38.37 37.85 41.38 39.43 40.93 39.78 39.35 37.72 36.19 39.49 41.01 39.80 40.06 42.26 42.79 39.83 40.46 38.33 41.62 41.20 38.07 37.63 37.84 39.57 34.61 36.46 34.61 36.22 37.69 35.79 36.63 33.86 34.44 35.42 36.22 36.86 36.10 41.42 43.13 40.17 37.03 37.92 37.77 36.94 36.76
43.41 41.94 39.17 37.30 37.73 37.42 37.62 38.49 37.96 40.24 41.93 43.50 42.48 41.51 40.87 42.58 45.46 45.43 43.92 43.93 41.85 36.94 35.39 36.22 34.54 32.11 31.24 34.21 34.91 31.58 35.50 36.95 37.00 36.53 36.17 32.12 37.68 38.48 38.83 37.07 36.28 36.21 37.59 37.33 37.50

GFSSW_sfc_wetblb_051.txt.gz
Wetbulb
58.71 58.81 59.17 59.51 59.69 60.10 60.71 61.13 61.31 61.61 61.83 62.01 62.08 62.06 61.47 61.29 60.64 57.87 52.42 56.06 57.96 61.87 59.68 52.88 51.75 50.55 50.45 48.65 48.26 45.06 37.54 35.10 38.02 39.48 41.13 43.71 42.85 44.64 45.41 45.06 44.59 45.33 43.83 45.53 48.49
58.28 58.47 58.73 59.06 59.26 59.60 60.13 60.66 60.88 61.20 61.66 61.84 61.81 62.02 61.43 60.64 56.35 53.61 59.22 62.36 63.35 61.85 53.22 49.72 48.24 48.43 45.31 46.28 46.78 42.21 37.03 38.16 41.19 41.46 41.67 44.44 43.42 44.67 43.18 42.78 42.36 43.11 45.52 47.51 47.67
58.20 58.42 58.64 58.79 58.96 59.26 59.62 60.16 60.74 61.03 61.49 61.68 61.69 61.49 60.77 58.72 52.52 51.62 61.71 62.74 63.07 59.93 54.13 51.73 50.33 47.81 43.85 44.43 43.18 42.12 38.73 41.22 43.11 45.24 45.68 44.71 43.53 44.93 43.36 40.10 42.70 43.27 44.31 45.69 45.33
58.98 58.64 58.54 58.44 58.67 58.95 59.28 59.88 60.44 60.74 61.04 61.48 60.82 60.75 59.50 55.14 42.53 54.74 61.39 62.21 62.60 55.14 52.95 50.35 48.18 43.51 41.70 41.58 45.57 38.74 43.37 43.45 46.47 46.29 45.42 43.41 44.93 42.95 42.80 42.10 44.52 44.65 45.46 44.66 44.04
58.97 58.77 58.58 58.31 58.20 58.65 59.13 59.33 60.07 60.36 60.90 60.86 60.61 60.14 54.93 49.03 50.42 56.92 60.39 60.05 56.12 52.94 50.94 49.25 45.31 44.35 41.08 42.40 44.00 41.23 42.68 44.59 46.18 45.38 44.05 45.90 43.13 42.72 41.91 42.96 44.60 45.31 45.13 43.27 42.89
58.67 58.33 58.17 58.18 58.37 58.52 58.88 59.10 59.35 59.95 60.64 60.39 60.44 59.74 52.12 44.59 55.98 55.82 56.01 55.07 54.47 51.51 49.81 49.16 46.35 46.51 43.51 42.61 41.73 43.38 43.87 43.98 45.39 45.51 44.82 43.39 42.03 42.73 42.09 42.52 43.20 44.21 42.43 41.80 42.55
57.71 58.24 58.01 58.00 58.39 58.57 58.80 58.91 58.95 59.50 60.20 60.07 60.44 57.06 49.51 49.32 55.05 53.57 53.99 51.92 52.30 52.08 50.13 50.22 49.15 46.07 45.26 42.79 45.10 43.98 39.77 42.21 43.19 44.38 43.29 43.80 40.37 41.33 42.76 42.61 42.31 42.20 41.08 41.43 41.85
57.66 57.15 57.89 57.95 58.05 58.25 58.54 58.87 58.91 59.01 59.93 59.92 59.95 53.54 46.26 53.98 54.31 53.75 52.73 51.12 51.69 51.67 51.53 50.97 50.04 47.94 45.69 45.19 43.22 39.42 38.36 35.60 42.19 43.44 42.70 41.90 36.61 42.94 42.28 41.91 40.60 40.36 39.14 40.54 41.07
57.38 57.07 57.55 57.81 57.65 57.77 58.27 58.58 58.24 58.89 60.18 59.99 53.02 50.64 46.13 55.29 52.69 54.61 51.98 50.14 50.38 50.44 49.65 52.07 49.47 44.70 43.44 38.81 36.19 36.51 32.86 35.56 39.97 42.68 41.50 39.73 37.55 40.68 41.67 41.58 39.93 39.16 38.68 39.60 39.06
57.38 57.02 57.28 57.61 57.50 57.60 58.06 58.61 57.96 57.80 58.05 56.86 54.93 44.74 48.19 47.34 51.30 52.57 51.16 51.44 48.70 47.68 46.59 45.77 43.36 38.89 38.83 36.00 31.16 34.07 33.88 37.21 36.69 40.94 39.77 37.65 37.83 40.35 41.45 40.94 40.03 39.01 38.66 38.83 38.53
57.59 57.32 57.35 57.44 57.55 57.99 56.38 53.89 50.03 48.15 50.37 44.83 46.65 46.53 47.34 48.45 51.43 49.90 51.24 49.64 48.53 45.08 39.58 42.24 37.22 34.92 37.71 38.78 39.53 38.03 36.05 35.44 38.69 41.45 39.02 37.90 38.21 40.13 40.94 39.62 38.73 38.39 38.81 39.16 39.01
57.91 57.75 57.64 57.64 57.88 58.04 54.31 50.19 49.84 49.27 43.99 51.06 50.49 49.95 48.95 48.98 44.56 48.10 50.11 44.92 43.70 39.29 41.33 38.73 35.50 41.25 42.35 41.46 40.03 38.62 36.44 35.92 39.14 40.52 38.70 37.61 37.55 40.43 40.28 40.95 41.43 41.58 40.21 39.80 36.39
57.98 57.57 57.69 57.71 57.72 56.10 52.03 51.83 53.26 51.44 43.67 46.76 50.46 49.55 47.30 47.93 45.06 45.27 47.51 44.54 41.18 39.03 39.41 36.83 40.65 44.09 42.29 40.56 39.28 37.84 36.38 35.37 37.46 37.85 37.44 35.16 34.56 37.44 41.02 41.37 41.29 42.62 42.37 41.03 37.44
58.16 57.50 57.39 57.46 54.32 53.99 50.86 54.35 55.05 52.87 34.30 38.46 43.44 48.64 46.68 47.43 43.07 48.92 48.93 45.57 41.39 39.38 39.88 39.32 43.41 42.10 40.14 39.55 40.57 35.39 40.31 39.90 38.55 34.99 30.59 35.57 29.79 35.43 38.31 39.69 39.86 41.95 39.73 39.66 37.23
56.33 57.52 57.27 57.23 53.06 50.85 53.21 55.62 54.86 50.61 21.04 38.97 43.64 50.23 46.88 45.42 43.88 43.05 46.25 43.64 39.62 40.09 41.09 38.05 39.23 38.70 38.88 39.27 41.18 37.68 39.57 37.89 36.83 33.30 31.25 31.70 28.97 33.69 39.27 39.61 42.43 41.71 40.93 39.18 37.54
55.74 56.90 56.99 56.15 55.12 54.10 55.94 56.39 53.99 38.16 24.65 37.87 43.09 41.94 41.89 43.62 41.43 42.48 42.98 44.54 44.05 40.70 39.68 38.98 40.73 41.04 40.67 39.67 41.48 40.37 37.80 36.75 34.72 32.86 26.50 33.19 31.83 32.87 37.60 40.56 42.38 39.90 37.76 36.93 36.62
55.13 55.63 55.85 56.83 51.25 56.26 56.74 52.34 34.12 28.97 40.12 36.89 38.35 41.22 40.63 39.77 38.33 39.39 37.45 37.44 37.40 33.94 34.02 37.11 38.03 39.76 41.06 37.38 38.91 38.51 34.72 27.27 25.97 24.53 26.69 32.66 30.36 37.01 38.92 40.62 41.37 40.05 37.48 36.41 36.73
54.02 54.99 54.78 56.58 56.80 56.44 54.24 40.28 28.97 34.91 36.88 41.20 40.53 39.60 37.09 39.34 37.25 37.27 35.31 34.04 37.90 36.98 35.00 33.40 29.99 37.87 40.38 39.47 37.01 35.39 35.09 28.54 21.76 23.55 25.84 29.11 27.04 34.31 39.64 39.71 38.31 40.22 40.04 37.57 36.35
53.15 52.55 53.18 55.82 57.14 55.88 48.73 31.77 34.28 36.34 39.46 39.10 39.39 36.01 35.59 38.31 36.49 35.17 33.21 33.83 37.65 38.63 35.41 33.18 33.64 38.69 38.57 41.06 41.89 34.09 32.79 38.82 31.04 18.94 22.10 29.17 32.38 37.39 36.31 36.65 35.73 36.77 37.32 35.88 35.68
46.72 50.08 49.46 56.30 57.03 52.87 44.81 35.39 37.30 42.15 43.09 42.42 37.46 38.30 34.17 35.82 34.51 33.94 33.53 37.57 38.16 41.24 40.92 39.32 33.39 35.59 35.29 39.79 37.95 36.65 38.07 30.36 29.65 19.85 18.83 27.05 28.34 33.00 33.81 36.04 34.86 34.72 34.76 34.85 35.12
46.46 43.19 49.45 56.10 55.44 47.63 38.97 39.92 40.27 43.59 44.32 41.54 39.21 38.56 37.69 35.79 35.52 33.08 34.69 38.01 40.92 39.67 42.29 40.10 38.84 31.19 34.15 33.20 34.31 34.17 32.43 33.66 34.03 29.28 22.82 21.54 30.34 36.25 38.81 38.93 34.94 36.16 36.52 35.50 35.37
44.80 37.96 48.84 55.32 43.41 44.54 40.58 42.74 44.26 42.88 44.35 43.86 43.91 41.76 39.54 38.71 36.75 33.64 34.15 38.33 42.26 41.90 37.13 41.04 38.38 28.09 31.44 34.64 35.43 35.77 35.26 33.85 29.53 26.91 27.83 26.93 33.14 36.32 36.22 38.07 37.16 36.81 37.53 37.80 37.46
40.64 39.00 48.51 51.37 37.11 37.98 42.88 41.98 44.37 42.40 42.40 42.51 42.15 43.31 43.17 40.72 36.76 37.26 36.83 41.76 42.59 41.49 38.23 41.08 35.58 28.69 29.15 31.73 33.58 33.37 35.65 38.71 36.67 30.64 30.84 25.52 32.55 35.05 35.75 35.74 35.93 35.13 35.87 36.95 36.39
40.59 34.51 40.12 43.67 43.29 40.76 39.61 40.00 40.32 45.20 43.70 43.99 43.52 43.86 41.90 40.53 42.67 38.96 38.13 40.87 41.42 42.65 43.48 43.96 36.34 34.87 32.41 33.69 34.73 30.32 32.47 35.38 36.54 30.90 30.76 33.00 36.11 32.82 34.19 35.49 34.91 35.01 35.69 35.36 36.07
39.78 35.42 36.92 35.41 36.88 39.82 39.69 38.25 36.73 38.42 43.73 44.62 41.77 41.49 41.11 38.10 39.67 38.93 40.89 38.19 39.81 42.00 42.04 41.88 34.55 34.19 37.53 36.80 35.23 32.78 32.85 34.47 33.63 35.42 32.76 36.51 36.06 39.70 38.75 36.65 37.32 35.98 34.82 34.86 35.20
35.61 33.42 36.26 35.08 38.44 37.46 37.90 36.23 36.31 36.89 40.26 40.06 40.28 42.08 41.92 39.43 40.45 38.01 40.57 40.72 37.95 37.05 39.70 39.62 34.01 35.63 34.30 35.11 35.54 34.31 33.90 33.64 35.03 35.92 36.36 37.13 36.58 40.44 41.89 40.80 36.07 36.67 36.36 35.69 35.53
41.71 38.24 38.16 35.28 33.49 32.82 34.78 37.02 36.42 39.22 40.23 40.90 40.16 40.05 40.14 42.07 44.87 45.62 45.30 43.90 42.06 37.30 35.76 36.62 34.95 33.10 32.08 33.93 34.12 31.42 35.31 36.84 37.16 36.63 36.09 32.15 37.95 37.14 38.65 38.89 35.94 35.30 36.79 36.86 37.04

GFSSW_sfc_wetblb_054.txt.gz
Wetbulb
58.84 58.81 59.17 59.35 59.46 59.80 60.32 60.68 60.78 61.04 61.46 61.75 61.94 62.08 61.87 61.34 60.26 56.43 50.26 54.81 56.24 61.74 59.84 51.41 50.15 49.07 48.83 47.16 46.65 42.26 36.03 33.73 35.36 37.58 39.60 41.91 41.50 43.15 43.39 43.79 42.41 43.55 42.70 44.15 48.37
58.31 58.55 58.78 59.02 59.09 59.41 59.75 60.08 60.28 60.57 61.14 61.48 61.65 61.62 61.52 60.61 55.14 52.15 59.03 61.98 62.02 61.07 51.06 48.06 46.60 46.75 44.32 44.71 44.99 40.92 34.87 37.26 39.83 39.85 39.97 42.50 42.42 43.76 42.01 41.32 40.67 41.55 44.02 45.98 47.07
58.09 58.34 58.54 58.64 58.80 59.09 59.35 59.59 60.03 60.28 60.66 61.36 61.21 61.05 60.62 58.43 50.74 49.87 61.55 61.65 62.29 59.39 52.74 50.16 48.69 46.09 42.87 42.48 42.05 39.62 37.67 40.05 41.23 43.31 43.44 42.92 41.35 43.05 41.53 39.04 41.86 42.02 43.71 44.61 44.53
58.40 58.23 58.21 58.20 58.37 58.71 59.09 59.34 59.81 60.02 60.21 61.12 60.75 60.56 59.86 54.00 40.96 52.92 61.18 61.39 61.44 54.70 51.37 48.67 46.08 41.74 40.50 40.05 43.67 36.86 41.48 41.62 44.64 44.36 43.88 42.78 43.07 41.80 41.73 42.02 43.92 44.28 44.35 43.37 43.26
58.73 58.45 58.17 57.93 58.02 58.47 58.88 59.12 59.37 59.76 60.06 60.83 60.49 60.16 53.86 46.95 48.89 55.27 60.07 58.82 54.50 51.38 49.14 47.29 43.45 42.68 39.86 40.78 42.19 39.38 40.73 42.71 44.49 44.43 42.82 44.26 41.84 41.62 41.15 40.81 42.85 44.00 44.32 42.76 42.17
58.48 58.15 57.91 57.86 57.91 58.23 58.67 58.95 59.04 59.50 59.78 60.46 60.50 59.67 50.72 42.52 54.43 54.74 54.58 53.33 52.55 49.82 47.98 47.07 44.88 45.00 42.57 41.07 40.00 42.07 42.29 42.34 43.69 43.60 43.70 42.78 40.92 41.74 40.68 41.40 42.12 42.96 41.85 41.29 41.69
57.50 57.60 57.94 57.88 57.93 58.11 58.36 58.60 58.85 59.16 59.36 60.13 60.40 56.27 47.78 46.99 54.12 52.20 52.54 50.38 50.75 50.26 47.99 48.43 48.26 45.56 44.00 41.60 43.54 42.32 38.49 40.49 41.63 43.14 42.32 42.64 39.14 40.62 41.30 40.97 41.13 41.00 40.04 40.49 41.02
57.81 56.90 56.85 57.81 57.93 57.89 58.02 58.42 58.88 58.92 59.13 60.38 60.61 52.09 44.99 52.76 52.75 51.30 51.02 49.69 50.38 50.64 49.96 49.43 48.88 46.97 44.47 43.77 42.18 37.91 37.14 34.39 40.10 41.88 41.41 40.90 35.52 41.55 40.97 40.40 39.56 39.40 37.94 39.44 40.02
57.44 57.02 57.08 57.05 57.64 57.59 57.91 58.35 58.26 58.56 59.41 60.19 51.91 48.68 44.02 54.71 52.07 53.45 49.97 48.68 48.96 49.00 48.68 51.37 47.83 43.01 42.07 37.64 34.94 35.25 31.93 33.37 38.27 41.39 40.11 38.85 36.95 40.53 39.50 39.82 38.90 37.74 37.55 38.60 38.42
57.54 57.13 57.08 57.27 57.38 57.37 57.82 58.53 58.09 57.60 56.99 56.77 53.99 43.37 46.39 46.15 50.28 51.66 50.09 50.03 47.14 46.04 45.14 44.75 41.36 37.98 36.41 35.46 30.67 32.23 32.03 34.35 34.93 39.24 37.87 36.10 37.30 39.18 39.47 39.39 39.62 37.72 37.39 37.56 37.98
57.92 57.51 57.44 57.35 57.38 57.65 55.89 52.39 47.67 45.54 49.18 42.22 44.35 41.97 46.12 47.78 50.27 48.81 50.15 48.43 47.11 43.75 38.61 40.02 36.49 34.29 37.11 37.29 37.73 36.11 34.16 33.95 36.51 40.76 38.27 36.83 37.37 39.81 39.76 37.94 37.54 37.28 37.50 38.10 38.88
58.42 57.98 57.85 57.64 57.90 57.88 53.43 48.43 48.06 48.35 42.45 49.21 49.27 48.54 47.80 48.48 44.10 47.08 49.25 44.32 42.44 38.57 39.88 37.51 34.40 40.23 40.72 39.77 38.08 36.40 34.23 33.93 37.20 39.76 37.93 37.09 36.16 39.09 38.80 39.09 40.59 40.55 39.45 39.55 36.81
58.31 58.03 57.71 57.71 57.73 56.28 51.66 50.99 52.41 50.41 42.08 44.18 48.56 47.97 47.76 47.30 44.72 44.67 47.07 43.65 40.40 38.30 38.46 36.07 39.81 42.14 40.92 38.40 36.87 35.98 34.31 33.44 36.05 36.44 35.97 33.94 32.75 36.20 39.70 40.07 40.35 42.31 42.90 41.87 39.58
56.54 57.70 57.63 57.49 54.22 54.10 51.37 54.85 54.23 51.82 31.82 35.36 43.25 46.83 45.64 46.95 42.77 48.10 47.83 44.51 39.82 38.43 38.66 37.72 41.63 40.53 38.40 37.44 38.71 34.08 39.13 38.42 37.08 34.17 30.01 34.55 28.36 33.79 36.81 38.55 39.00 41.72 40.00 41.25 39.29
55.62 56.17 57.40 57.07 53.52 50.76 53.19 55.24 54.83 49.10 22.79 38.46 42.01 48.64 45.69 43.96 42.26 42.55 45.68 42.90 38.63 39.14 39.47 37.27 38.13 38.51 37.48 38.50 40.48 36.85 39.02 37.08 35.33 32.03 29.78 31.46 28.32 32.28 35.37 36.35 39.48 42.48 40.86 39.94 38.21
55.20 55.60 56.99 55.80 55.15 53.85 55.50 56.03 53.46 36.81 23.95 36.31 42.27 40.80 40.67 42.09 40.05 41.21 42.42 43.35 42.48 39.49 38.53 37.61 39.77 40.51 40.31 39.68 40.95 39.41 36.74 35.28 32.95 31.20 25.94 32.89 30.71 31.58 35.16 38.88 40.66 43.09 42.11 39.23 37.42
54.00 54.73 55.34 56.95 51.79 56.65 56.53 49.49 33.10 29.23 38.70 35.55 37.58 40.23 39.63 38.37 37.24 38.42 37.40 37.15 36.72 33.06 33.55 35.93 37.24 38.60 39.93 37.25 38.18 37.87 35.38 26.64 25.23 23.67 26.19 30.92 28.96 36.52 38.19 40.41 40.75 42.99 40.53 36.68 36.78
53.31 53.40 54.01 56.04 56.75 56.80 52.66 40.48 28.03 33.67 35.28 39.68 39.18 38.43 36.96 39.18 37.27 36.62 35.27 35.34 38.60 36.27 33.76 32.98 30.39 37.49 39.42 39.25 36.91 35.63 34.54 27.50 20.34 22.05 24.50 28.75 26.81 33.45 38.66 41.76 40.29 38.83 37.96 35.25 34.67
52.64 49.83 51.55 53.65 56.95 56.02 47.36 33.67 34.38 35.58 38.12 38.24 39.33 36.44 34.40 37.27 36.67 35.08 33.98 34.25 37.73 38.39 35.04 32.17 31.85 36.16 37.18 38.71 40.95 33.56 31.65 36.56 30.47 16.65 21.48 28.73 31.80 36.94 37.41 37.34 37.69 37.86 35.02 32.91 33.97
44.92 44.94 48.38 54.11 56.24 52.49 44.19 38.20 37.81 41.43 41.50 42.15 37.30 37.83 33.27 36.11 34.83 33.26 32.58 36.00 36.62 40.06 39.32 37.47 30.73 33.78 34.48 38.36 36.40 35.41 37.91 30.05 28.52 19.44 18.22 26.57 27.63 32.74 33.94 36.12 38.13 37.02 34.35 33.21 33.23
44.97 41.31 46.81 54.71 54.92 47.45 38.41 39.67 40.61 42.31 43.51 41.16 39.63 39.09 37.59 35.59 35.59 32.89 34.02 36.76 39.23 37.97 41.33 38.09 35.78 30.54 33.56 33.16 33.56 32.86 31.89 32.41 32.56 28.40 21.93 19.71 29.03 34.87 38.33 38.25 37.81 37.79 35.87 33.64 33.21
44.36 36.78 46.47 54.50 42.65 43.41 40.24 42.42 43.53 41.29 43.65 43.05 42.88 41.81 38.54 38.48 36.81 34.91 33.64 37.02 40.70 40.09 36.21 39.28 37.57 27.50 30.68 33.54 34.13 34.35 33.28 33.05 27.49 25.06 27.05 26.24 32.57 35.85 37.26 38.60 38.09 38.10 36.61 34.92 35.23
38.36 39.39 45.39 50.51 35.33 36.13 41.09 41.92 43.81 42.70 42.08 41.51 41.04 42.47 41.76 38.84 36.04 36.69 36.01 39.82 41.78 40.61 37.14 39.91 34.10 25.20 28.80 31.71 32.49 31.91 34.60 37.54 34.72 30.87 28.61 26.12 32.91 34.51 34.93 36.54 36.92 37.42 34.86 34.26 33.83
38.96 33.13 37.79 41.66 42.61 38.25 36.33 37.14 38.59 44.27 43.62 43.41 42.23 43.33 41.36 39.42 41.77 37.76 37.65 40.78 41.55 41.69 43.06 43.29 36.45 32.20 30.50 31.82 33.41 30.06 32.33 34.99 36.38 31.44 30.84 32.83 35.84 35.32 35.81 36.28 37.18 36.13 34.54 33.68 33.91
37.93 34.28 35.15 33.34 33.85 36.10 38.20 38.30 36.64 36.98 42.75 43.82 41.34 41.54 40.38 37.84 39.17 38.44 40.60 38.73 38.59 41.55 42.06 41.32 34.54 34.72 37.02 37.10 34.72 33.13 32.64 34.65 33.62 35.77 33.39 36.90 36.26 41.08 39.46 38.21 39.13 37.23 34.39 33.31 33.17
32.83 33.41 36.21 33.83 35.79 35.50 35.77 34.64 34.88 37.47 38.53 38.14 40.12 41.13 40.90 39.05 39.96 38.34 40.84 40.51 39.40 38.23 38.44 39.81 35.32 36.77 34.34 36.78 34.06 32.32 32.41 34.39 35.51 36.48 37.00 37.69 37.38 41.21 41.55 38.30 36.52 37.34 35.20 34.14 34.48
36.59 40.86 35.89 32.35 30.94 30.65 33.74 35.21 34.62 37.00 38.73 40.15 39.14 39.34 38.11 40.82 43.45 44.36 44.44 43.50 42.88 41.13 38.41 37.40 36.36 33.22 31.94 35.47 32.63 30.41 35.12 33.27 34.17 37.04 36.63 33.36 38.63 40.03 40.18 39.29 38.29 37.01 36.05 36.36 36.22

GFSSW_sfc_wetblb_057.txt.gz
Wetbulb
58.63 58.88 58.95 58.99 59.26 59.48 59.94 60.04 60.25 60.58 61.00 61.51 61.80 61.77 61.62 61.35 60.07 55.30 48.80 53.78 54.80 62.01 59.50 50.31 48.50 47.37 47.41 45.54 44.90 39.94 35.12 32.74 35.48 36.34 38.68 41.51 40.45 42.02 41.22 42.40 40.56 42.10 42.14 43.68 49.80
58.01 58.34 58.62 58.64 58.90 59.07 59.32 59.45 59.63 60.02 60.52 61.04 61.33 61.22 61.18 60.82 53.79 50.60 58.57 62.10 61.72 60.59 49.47 46.87 45.02 45.79 43.47 43.13 42.89 38.64 33.32 36.50 39.32 38.65 38.93 40.98 40.45 42.75 41.39 40.17 38.86 40.20 42.60 45.10 48.77
57.91 58.19 58.36 58.42 58.65 58.96 59.14 59.21 59.39 59.66 59.98 60.69 61.09 60.83 60.58 57.98 48.88 48.37 61.38 61.97 61.73 57.96 51.06 48.82 47.14 44.50 41.39 41.85 40.86 37.34 36.14 38.72 40.07 41.86 42.34 41.80 39.98 41.21 40.61 38.08 41.20 42.02 43.09 44.23 45.72
57.99 57.92 57.99 58.01 58.21 58.69 58.99 59.18 59.27 59.35 59.55 60.20 61.11 60.48 59.92 52.45 38.27 51.24 60.98 61.31 61.06 53.45 49.91 47.07 44.18 40.68 39.57 38.66 41.87 37.91 39.79 39.66 42.80 42.96 41.96 41.33 42.49 40.43 40.81 42.18 42.13 43.28 43.91 43.08 44.27
58.41 58.09 57.69 57.73 57.85 58.40 58.80 59.03 59.15 59.24 59.51 59.91 60.99 59.97 53.00 45.18 46.77 53.83 59.71 58.15 52.71 50.09 47.59 45.51 42.03 41.28 38.85 39.98 40.50 37.72 39.02 40.99 42.67 42.16 41.22 42.75 40.96 40.41 41.18 40.33 40.85 42.77 43.59 43.00 42.77
57.65 58.01 57.79 57.64 57.67 58.09 58.41 58.67 58.93 59.03 59.18 59.54 60.88 59.47 49.53 40.19 53.13 53.17 52.93 51.71 50.62 48.37 46.40 45.56 43.62 43.85 41.53 39.65 38.71 40.51 41.01 40.74 41.72 41.88 41.65 41.20 39.40 40.31 40.25 40.21 40.71 42.18 41.89 41.56 41.93
57.47 57.20 57.71 57.74 57.66 57.79 58.00 58.29 58.59 58.77 58.86 59.26 60.75 55.53 46.29 45.28 52.73 51.16 51.13 49.09 49.47 48.98 46.54 46.99 46.34 43.72 42.26 40.61 42.65 41.17 38.00 39.45 39.86 41.48 40.82 41.51 38.53 39.92 40.19 40.07 40.57 40.68 40.10 40.49 40.83
57.68 57.18 56.71 57.34 57.66 57.66 57.59 57.94 58.38 58.58 58.98 59.66 60.56 50.89 42.48 51.41 51.49 49.90 49.89 48.49 49.43 49.57 48.58 48.08 47.41 45.93 43.14 42.48 41.13 37.36 36.37 33.91 38.37 40.62 40.12 40.19 34.77 40.68 40.29 39.59 39.48 39.02 37.87 39.20 40.15
57.49 57.05 56.98 56.93 57.04 57.48 57.58 57.90 58.05 58.42 58.97 59.21 50.88 47.27 41.98 53.89 50.55 52.10 48.55 47.47 47.75 47.52 47.92 50.37 46.62 41.45 40.85 36.93 34.13 34.23 30.92 32.12 37.01 40.39 38.77 37.57 35.59 38.93 38.15 38.74 38.77 37.81 37.59 38.28 38.39
57.68 57.18 57.14 57.20 57.12 57.28 57.55 58.34 57.86 57.03 56.41 55.73 53.04 41.26 44.75 44.85 48.88 50.58 48.62 48.94 45.96 44.67 44.03 43.86 40.02 37.21 34.95 34.61 29.76 31.13 30.66 32.49 33.33 37.55 36.55 35.00 36.22 39.37 38.20 37.88 39.23 37.00 36.99 37.32 38.25
58.11 57.75 57.54 57.46 57.42 57.60 55.14 50.75 44.59 43.35 47.62 41.36 42.18 39.54 44.75 47.03 49.48 47.63 48.56 47.26 45.74 43.00 37.87 38.95 35.90 33.96 37.07 36.16 35.80 34.80 32.44 32.46 35.74 38.93 36.58 36.20 36.73 39.89 39.24 36.83 36.62 37.14 37.69 38.34 39.09
58.53 58.41 58.33 57.96 57.86 57.66 53.09 47.15 46.05 47.07 41.04 47.46 47.35 46.99 47.66 47.57 43.75 46.31 48.29 43.60 41.29 37.67 38.64 36.39 33.61 39.03 39.41 38.02 36.01 34.15 32.59 32.63 35.77 37.78 37.11 36.07 35.52 37.98 37.51 38.24 39.56 39.99 39.72 39.17 39.59
56.87 58.22 58.07 57.81 57.60 56.21 51.93 49.99 52.77 49.79 39.97 42.40 47.05 46.58 46.59 46.52 43.73 44.42 46.40 42.73 39.14 36.94 37.18 35.22 38.37 40.51 39.57 36.54 35.60 34.17 32.68 32.13 34.52 35.25 34.76 32.62 32.57 35.12 39.26 39.10 38.91 40.66 42.24 42.12 41.32
55.94 56.38 57.71 57.59 54.34 53.99 51.47 55.83 54.54 50.16 31.93 35.05 40.78 45.57 45.13 46.19 41.77 47.05 46.73 43.75 38.66 37.92 37.18 36.73 40.00 39.30 36.80 35.88 37.37 32.62 37.39 36.55 34.89 33.19 29.05 33.15 28.57 32.92 35.86 37.74 38.21 40.75 40.88 41.65 41.39
55.61 55.65 56.82 57.13 53.68 50.58 53.06 54.76 54.77 49.40 28.78 38.98 40.25 47.67 44.38 43.00 41.43 41.95 44.66 42.53 38.02 38.13 38.56 36.24 37.03 36.93 36.09 36.92 38.84 35.39 37.85 35.63 33.76 30.60 29.22 29.99 27.86 31.17 33.68 35.33 38.73 41.82 41.76 42.36 41.87
54.01 54.81 55.62 55.89 55.09 54.10 54.87 55.89 51.97 34.92 25.60 35.09 41.19 39.98 39.54 40.00 38.93 40.66 41.94 42.93 41.48 38.57 37.34 36.29 38.75 39.66 39.46 38.48 39.61 38.73 35.70 34.06 31.52 30.10 24.93 33.31 29.91 33.30 33.37 38.16 39.01 42.00 42.57 40.47 38.49
53.34 53.82 54.14 56.88 52.00 56.18 55.90 49.16 34.56 29.36 38.31 34.49 36.76 39.04 37.95 36.52 36.21 37.22 36.98 36.80 35.79 32.06 32.47 34.34 36.32 37.53 39.33 36.83 37.01 36.86 34.35 26.64 24.04 22.67 25.54 28.11 27.63 36.18 36.38 38.87 40.08 42.03 41.74 38.79 36.33
52.86 52.86 51.47 54.00 56.76 56.32 51.67 41.72 28.47 35.20 34.11 38.82 37.78 37.58 36.28 38.03 36.10 35.58 34.65 34.33 37.16 34.48 31.57 31.45 29.21 36.66 38.79 40.21 36.29 35.14 34.57 27.11 19.22 20.43 23.63 28.29 26.14 32.30 37.66 40.45 39.20 39.64 39.14 36.36 34.40
52.16 46.87 48.65 51.81 55.12 54.92 46.13 34.11 34.50 34.68 37.53 37.55 38.77 36.03 34.27 35.99 35.95 34.07 33.01 33.06 36.76 37.91 33.87 30.81 30.83 35.63 36.71 37.98 40.77 33.02 30.89 36.18 29.87 16.22 21.26 28.37 30.66 35.79 37.65 37.07 37.81 38.31 36.35 34.02 35.28
46.00 42.87 44.57 51.68 54.34 51.48 43.07 37.42 38.65 40.62 40.59 41.25 36.56 38.27 34.32 34.77 35.06 32.20 31.67 35.28 35.58 39.28 37.88 35.33 29.06 33.00 34.37 37.85 36.05 34.93 37.13 29.57 27.51 18.90 16.28 25.47 26.96 31.12 35.23 36.91 38.13 38.48 37.05 34.82 33.51
46.44 40.91 44.36 51.06 53.26 45.10 36.22 38.21 40.53 41.69 43.13 40.42 38.77 37.53 36.62 34.97 36.36 32.02 33.18 35.82 37.22 36.64 40.92 36.65 33.99 29.55 32.89 32.35 32.35 32.58 31.28 30.83 31.60 27.54 20.82 18.69 28.28 34.28 38.34 38.28 38.95 38.53 38.19 36.44 34.18
43.49 35.37 44.82 52.71 39.41 40.83 37.27 40.25 42.51 42.41 44.35 42.70 42.53 41.00 38.02 37.33 35.91 34.55 33.24 36.21 39.40 39.16 35.77 38.07 36.09 27.08 29.97 32.82 33.80 33.62 32.82 33.33 27.17 23.56 26.08 25.30 31.49 36.63 37.00 38.09 37.99 39.30 38.63 34.95 33.94
37.25 37.82 46.31 47.78 33.46 34.65 37.54 39.41 42.31 42.03 42.03 41.42 41.01 42.34 41.41 39.76 36.45 37.19 35.70 39.12 40.62 39.92 36.72 38.95 33.37 23.50 28.21 30.16 31.49 30.70 33.23 36.25 33.27 29.56 26.57 24.86 31.54 33.98 34.17 35.20 36.69 37.71 36.41 34.78 33.22
33.64 29.63 35.42 40.27 39.70 36.91 34.54 35.27 36.70 44.24 43.00 43.21 41.79 42.43 40.50 39.46 41.27 36.42 36.45 38.51 40.95 41.09 42.60 42.66 35.92 30.70 29.31 29.86 32.47 29.28 31.66 33.96 35.49 30.59 30.39 31.87 35.16 35.82 36.04 35.67 37.39 37.75 35.85 34.39 32.88
36.69 31.67 32.58 30.98 31.51 33.48 37.13 36.81 34.20 34.48 42.14 43.38 40.81 40.98 39.86 37.30 38.53 37.33 37.51 37.93 38.18 41.20 40.75 40.68 32.48 34.74 36.15 34.47 32.78 31.38 31.34 33.39 33.19 35.05 31.51 35.58 35.14 40.15 41.14 37.83 40.19 38.82 36.52 33.93 32.85
31.88 28.84 33.26 31.48 33.15 33.06 32.81 33.20 34.15 36.95 37.61 37.33 37.32 38.03 39.82 37.46 39.24 37.63 39.95 40.22 39.67 38.60 38.50 40.72 33.38 34.31 32.98 35.51 34.28 32.30 32.15 33.57 34.80 36.13 36.18 36.95 36.60 41.44 39.73 38.41 36.99 39.24 37.59 34.99 34.21
38.16 37.09 33.10 31.33 30.16 28.78 32.04 32.22 32.07 36.07 38.24 40.00 39.41 38.63 37.35 38.19 41.11 42.97 43.44 43.09 42.40 40.65 36.00 36.88 35.14 33.64 31.46 35.00 34.21 30.44 33.92 35.74 35.22 37.28 37.19 33.27 38.86 39.47 41.22 39.48 40.10 39.93 37.18 36.60 36.78

GFSSW_sfc_wetblb_060.txt.gz
Wetbulb
58.37 58.71 58.79 58.90 59.20 59.51 59.77 59.72 59.79 60.14 60.55 61.10 61.51 61.47 61.25 61.03 59.86 54.02 47.81 52.87 54.37 61.99 59.10 49.01 46.91 45.89 45.95 44.27 43.21 38.54 35.08 32.48 34.36 35.40 37.35 39.65 39.37 38.85 39.94 41.08 39.67 41.74 41.46 43.73 50.97
58.04 58.16 58.41 58.51 58.77 58.96 59.13 59.25 59.34 59.58 60.02 60.55 61.17 61.16 61.06 60.52 52.91 49.32 58.08 62.31 61.69 60.91 48.17 45.75 43.54 44.63 42.64 41.76 41.38 36.74 32.98 35.19 37.64 36.76 37.29 39.47 39.07 41.24 39.77 38.86 39.17 39.63 41.48 45.20 49.73
57.78 58.22 58.10 58.03 58.28 58.67 58.85 58.98 59.14 59.16 59.43 59.95 60.69 61.11 60.37 56.84 47.74 47.19 60.49 61.19 61.33 56.82 49.53 47.54 45.56 43.31 39.97 42.54 41.05 36.09 34.26 37.36 39.23 40.33 40.93 40.39 38.31 40.86 39.74 37.48 40.95 41.82 42.26 45.67 47.75
57.85 57.82 57.87 57.84 57.94 58.33 58.69 58.95 59.09 59.13 59.13 59.59 60.55 60.75 59.84 51.48 35.97 50.07 60.38 61.09 61.19 51.99 48.55 45.86 43.06 39.91 37.90 39.33 40.24 37.38 38.30 38.46 41.33 41.69 40.04 39.49 40.74 39.47 39.73 41.05 40.80 42.20 43.29 44.29 46.35
58.17 57.75 57.54 57.49 57.64 57.96 58.35 58.63 58.88 58.97 59.01 59.29 60.64 60.54 53.32 43.25 45.02 52.67 59.33 57.45 50.82 48.79 46.32 44.01 40.76 40.00 37.95 39.78 39.04 37.93 38.64 39.54 41.17 40.86 39.82 41.50 39.60 40.19 39.94 41.36 40.51 41.08 43.41 43.55 44.70
57.45 57.83 57.67 57.48 57.51 57.91 58.06 58.06 58.50 58.73 58.76 59.04 60.75 59.51 48.07 38.30 51.82 52.00 51.18 50.21 49.04 47.17 45.06 44.27 42.42 42.68 40.35 38.39 37.38 38.95 39.74 39.30 40.11 40.40 40.24 39.64 40.09 40.95 41.34 39.37 39.31 40.94 41.62 42.27 43.09
57.54 57.19 57.32 57.56 57.65 57.75 57.82 58.00 58.15 58.37 58.57 59.08 60.09 54.68 46.00 42.85 51.78 50.01 50.03 47.99 48.13 47.66 45.35 45.72 44.85 42.43 40.94 39.31 40.78 39.46 37.44 38.36 38.05 39.66 39.43 41.12 37.76 39.63 40.98 39.04 40.20 39.98 39.85 40.50 41.11
57.59 57.17 56.81 56.78 57.33 57.61 57.73 57.74 57.93 58.23 58.62 59.10 59.70 48.98 40.52 49.86 50.81 48.98 48.63 47.26 48.24 48.22 47.67 46.97 46.31 44.92 41.94 41.14 39.84 35.90 35.27 33.22 36.59 39.24 38.95 39.21 33.69 40.01 39.08 39.59 40.16 39.13 38.36 39.24 40.42
57.53 57.12 57.07 56.84 56.71 57.07 57.57 57.82 57.80 58.21 58.87 59.25 49.53 45.07 39.77 52.97 48.94 50.57 47.28 46.26 46.64 46.54 46.81 48.91 45.43 40.21 40.10 36.25 33.67 33.44 29.96 30.35 35.95 39.27 37.19 36.42 34.35 38.28 36.87 37.74 38.77 38.12 38.02 38.31 38.60
57.76 57.35 57.15 57.14 56.95 57.10 57.73 57.93 57.61 56.67 55.22 54.22 51.86 39.65 42.57 42.77 47.50 49.17 47.02 47.85 44.83 43.41 43.09 43.02 39.36 36.33 33.97 34.08 28.85 30.64 29.69 30.73 31.91 35.86 35.03 34.41 35.38 38.49 38.29 37.32 38.18 37.61 37.33 37.38 38.30
58.40 57.93 57.62 57.31 57.22 57.60 54.50 48.98 42.07 40.94 46.21 39.98 40.21 38.22 43.20 46.09 48.31 46.36 47.04 46.11 44.03 41.92 36.61 37.73 34.99 33.20 36.35 34.85 34.03 33.36 31.17 31.65 33.64 37.54 35.36 35.30 35.29 38.10 39.27 36.00 36.92 36.99 37.06 38.39 39.35
58.60 58.58 58.20 57.80 57.84 57.67 53.03 45.68 44.94 46.34 41.23 45.99 45.77 45.37 47.16 47.20 43.20 45.17 47.07 42.57 40.03 36.33 36.68 35.09 32.37 37.97 38.49 36.61 35.25 33.20 31.57 31.50 34.52 36.10 35.68 35.29 35.17 38.61 37.90 38.05 38.56 40.09 39.71 39.44 39.87
56.35 57.14 58.36 58.05 57.49 55.80 51.53 49.93 53.12 48.99 39.98 41.31 45.68 45.10 44.80 46.17 43.09 44.08 45.62 41.65 37.68 35.38 35.85 33.79 36.55 38.83 38.45 35.06 34.49 32.73 31.38 31.05 33.64 34.25 33.88 31.57 31.53 33.58 37.85 38.17 38.94 39.23 41.73 41.00 41.66
56.15 55.95 56.58 57.63 54.36 53.72 51.72 54.97 54.20 52.32 35.68 36.34 39.50 44.35 44.60 45.26 40.95 46.28 45.99 43.09 37.54 37.18 35.45 34.96 38.42 37.93 35.08 34.41 36.51 31.41 35.95 34.79 33.16 31.67 27.66 31.54 26.19 32.19 36.15 37.53 37.57 40.39 39.09 40.73 41.57
54.26 55.29 55.96 57.32 53.58 51.17 52.99 54.84 54.84 49.98 30.51 38.94 39.09 46.43 43.50 40.79 40.28 40.89 43.46 41.72 37.17 37.23 37.62 34.94 35.89 35.87 35.10 35.96 37.32 34.53 36.54 34.58 33.19 29.86 28.09 27.02 27.70 30.36 32.61 35.45 39.07 40.91 41.18 41.10 41.54
53.46 54.05 55.24 56.05 54.88 54.64 55.49 54.76 50.68 36.47 27.71 34.58 40.14 39.38 38.89 39.50 38.40 40.16 40.92 42.29 40.47 37.61 36.34 35.03 37.32 38.36 38.19 37.24 38.07 37.73 34.98 33.21 30.62 29.20 25.18 29.26 29.52 31.46 31.79 36.80 37.86 42.04 40.70 40.52 39.36
52.97 52.98 52.00 54.62 52.05 55.87 55.96 50.26 35.66 30.30 38.22 35.68 35.94 37.94 37.34 35.54 35.45 36.96 36.89 35.68 35.08 31.55 31.35 33.38 35.14 36.48 38.50 35.75 36.16 35.21 33.58 26.32 23.10 21.48 24.67 26.68 26.89 34.58 35.25 36.94 38.81 41.06 41.11 37.72 37.62
52.90 52.29 49.91 52.20 55.17 55.83 51.45 42.18 30.09 35.72 34.15 37.85 37.15 36.90 34.61 36.49 34.73 34.72 34.27 33.28 37.08 33.43 29.75 30.43 28.97 35.54 38.05 38.47 35.29 34.13 34.39 26.61 17.89 18.68 22.81 27.58 25.60 31.13 37.16 39.39 39.10 38.82 39.31 36.96 36.49
51.85 44.95 46.62 49.22 51.82 54.26 46.18 33.82 34.23 34.62 37.18 37.11 37.30 33.96 33.21 36.01 35.00 33.14 32.56 32.48 35.85 35.91 32.08 28.30 28.82 34.37 35.47 36.72 40.01 32.70 31.06 34.85 29.25 14.50 20.27 27.67 29.25 34.86 36.33 37.13 36.93 38.23 36.21 36.15 36.15
46.94 43.64 41.89 49.76 51.62 49.69 41.87 35.49 38.62 40.26 38.91 39.95 35.09 36.80 31.60 33.97 34.22 32.06 31.45 34.45 34.78 38.55 36.93 34.03 28.52 31.89 33.30 36.60 35.30 34.40 35.96 28.58 26.75 18.35 15.13 25.02 26.04 29.42 34.38 37.37 37.81 38.22 37.64 36.64 35.71
46.42 39.88 43.32 50.06 50.25 43.40 33.15 37.23 39.13 41.91 42.35 39.94 37.08 37.66 37.05 34.59 35.87 31.56 33.24 34.95 36.19 36.14 39.99 35.98 32.97 29.05 32.03 31.52 31.22 32.19 30.83 29.73 30.45 26.81 19.69 17.46 29.26 32.86 36.45 37.59 38.10 38.64 38.21 37.25 36.45
42.95 32.80 42.94 50.17 37.73 39.04 34.12 36.60 41.10 41.26 43.68 41.73 41.42 40.65 38.84 36.89 35.25 33.59 32.78 35.73 38.65 38.61 35.25 36.98 34.33 27.19 29.53 31.59 32.16 31.86 32.04 32.05 26.70 22.78 24.03 24.17 31.23 35.46 36.28 36.45 36.96 38.55 37.80 35.94 35.28
37.05 35.99 42.91 45.64 31.26 32.54 34.99 36.23 38.27 39.08 41.46 40.96 40.32 41.04 40.93 37.96 35.55 36.98 34.90 38.46 39.81 39.83 36.46 37.69 33.19 21.77 28.10 29.56 30.46 29.95 32.31 34.96 31.58 28.77 25.22 23.87 31.21 33.86 34.18 35.96 36.33 37.10 36.61 36.49 34.44
33.70 25.42 32.11 36.47 35.71 35.80 32.84 32.72 33.40 39.97 39.43 40.51 40.96 42.34 40.24 38.63 40.73 35.95 36.16 38.01 40.18 40.79 43.18 42.47 35.78 32.04 29.52 29.39 31.29 28.66 30.49 33.02 34.90 29.31 30.19 29.27 34.56 36.73 34.96 36.65 37.03 37.35 36.33 35.98 34.51
36.80 28.79 30.71 25.79 28.77 31.42 34.08 34.98 32.83 32.32 39.01 41.18 39.46 39.52 38.90 36.59 38.25 38.09 38.22 37.32 37.67 40.77 41.14 41.10 32.48 34.52 34.97 34.75 31.89 31.51 30.85 32.81 32.85 34.56 30.06 34.63 34.07 38.65 40.34 38.30 40.05 39.65 36.91 36.38 35.01
33.13 31.82 32.51 28.60 31.90 29.38 30.14 29.90 31.97 34.05 36.01 34.44 36.24 39.18 40.42 37.80 38.65 37.17 39.71 38.72 38.19 37.53 38.56 40.25 33.10 34.26 32.30 34.76 34.89 32.90 32.79 33.13 33.85 35.24 35.57 36.10 35.63 41.44 40.16 39.00 36.22 39.43 41.16 38.19 35.64
38.52 37.99 35.03 30.68 28.81 27.17 29.13 30.30 29.79 32.35 35.28 37.14 37.30 36.94 36.64 38.37 41.55 41.47 41.31 41.40 39.84 38.76 36.20 37.12 34.93 32.55 30.94 33.32 32.37 29.24 32.88 34.40 33.85 36.04 36.10 32.22 37.75 41.40 40.40 38.28 41.44 40.18 38.44 37.94 38.10

GFSSW_sfc_wetblb_063.txt.gz
Wetbulb
58.38 58.70 58.76 58.75 58.98 59.10 59.21 59.26 59.47 59.75 60.29 60.76 61.35 61.56 61.37 61.02 60.07 54.70 47.86 52.91 54.33 61.76 59.56 48.84 48.07 47.21 47.57 46.26 45.08 42.62 38.31 35.75 37.80 37.49 40.62 41.07 42.17 42.41 44.21 44.17 44.61 45.61 46.36 48.40 53.56
57.93 58.30 58.58 58.72 58.86 58.92 58.94 58.89 59.00 59.24 59.65 60.17 60.62 61.15 61.12 60.60 52.47 49.18 57.97 62.20 62.03 60.77 48.40 46.40 44.88 46.03 43.78 44.05 43.28 39.55 36.62 37.97 39.66 39.41 40.45 41.58 42.26 42.23 43.23 43.16 43.78 44.38 45.68 48.68 52.37
57.57 57.83 57.87 58.05 58.37 58.81 58.94 59.04 59.08 59.14 59.39 59.77 60.28 61.18 60.75 57.04 47.15 47.22 61.14 62.06 62.13 56.85 49.59 48.24 46.23 45.20 42.29 42.57 41.25 38.88 36.32 37.91 40.55 41.92 42.58 41.98 41.05 42.61 42.07 41.16 43.89 44.66 45.07 47.62 51.37
57.67 57.49 57.44 57.53 57.73 58.36 58.77 58.90 58.99 59.06 59.13 59.45 60.34 61.00 59.95 50.93 36.60 49.69 60.69 61.34 61.38 51.69 48.62 46.45 44.31 41.88 39.73 39.18 41.89 37.86 39.36 39.47 42.86 42.83 41.77 41.03 41.90 41.54 41.42 44.13 44.74 44.71 45.80 47.88 50.90
58.04 57.55 57.23 57.16 57.24 57.80 58.23 58.47 58.67 58.84 58.89 59.23 60.38 60.55 51.41 42.38 44.56 52.51 59.09 57.59 50.36 48.77 46.07 44.63 42.23 41.67 39.02 40.64 40.74 38.54 39.78 40.50 42.15 41.68 41.11 42.41 41.20 41.78 41.19 43.35 44.09 43.50 44.52 46.96 50.92
57.61 57.79 57.61 57.36 57.48 57.67 57.88 58.02 58.26 58.54 58.69 59.10 60.23 59.43 47.58 37.64 51.38 51.96 50.70 49.55 48.76 47.27 45.08 44.83 43.23 43.42 41.21 39.57 38.94 40.38 40.75 40.35 41.22 41.73 41.57 41.01 40.57 41.42 42.84 42.43 43.05 42.83 43.52 44.99 47.88
57.77 57.20 57.25 57.39 57.46 57.67 57.71 57.74 57.89 58.13 58.44 58.98 59.79 53.85 43.07 42.33 51.61 49.79 49.60 47.92 47.99 47.49 45.80 46.01 45.40 44.06 42.49 40.35 41.63 40.15 37.91 39.65 39.23 40.81 41.04 41.46 39.41 40.07 42.53 41.92 42.60 42.46 42.22 42.59 44.55
57.69 57.18 57.02 56.88 57.03 57.28 57.61 57.89 57.81 57.85 58.49 59.03 59.88 48.32 39.73 49.29 50.44 48.76 48.43 47.32 47.83 47.87 47.73 46.94 46.95 44.96 42.72 41.91 40.24 37.23 36.77 34.67 38.18 40.02 40.21 40.88 35.68 41.19 40.81 41.32 42.57 42.02 41.23 40.97 42.56
57.81 57.20 57.23 56.99 56.84 56.93 57.47 57.83 57.83 57.97 58.56 58.87 48.26 43.95 38.65 52.73 48.10 49.75 47.07 46.84 46.43 46.46 46.58 47.92 44.96 40.74 41.06 37.15 34.66 34.49 31.47 32.41 36.57 39.67 38.79 38.49 36.56 40.18 39.91 39.30 40.20 40.42 40.78 40.62 41.15
57.92 57.41 57.27 57.30 57.09 57.20 57.85 58.03 56.93 56.18 54.49 52.87 50.51 37.96 40.86 42.26 47.58 48.09 46.36 47.12 44.65 43.59 43.54 43.15 39.51 36.67 34.90 34.94 29.82 31.79 31.47 31.79 33.13 36.86 36.53 35.88 36.67 39.35 40.04 39.33 40.41 40.38 40.04 40.25 41.10
58.38 58.17 57.89 57.63 57.43 57.99 54.84 47.00 41.12 39.04 44.63 39.40 39.02 37.20 41.91 46.00 47.76 45.83 46.42 45.41 43.59 41.84 37.17 37.88 35.64 33.80 36.42 35.38 34.19 33.79 31.75 31.70 34.25 37.59 36.89 36.28 36.16 39.03 40.40 38.70 38.47 39.81 40.52 40.92 41.11
57.49 58.66 58.42 58.11 57.90 57.69 53.22 45.18 45.60 46.96 40.24 45.49 44.79 44.23 45.98 45.94 42.47 44.85 46.51 42.35 39.90 36.14 36.42 35.17 32.59 37.74 37.94 36.39 35.62 33.72 31.96 32.66 34.85 36.06 36.54 35.82 35.95 39.68 39.09 41.35 42.57 43.20 42.67 42.24 43.22
56.43 56.50 58.05 58.46 57.71 55.49 51.79 48.72 51.90 49.04 40.32 41.91 44.49 44.05 43.93 46.17 42.25 43.55 44.94 41.19 37.37 34.97 35.37 33.47 36.14 37.83 37.69 34.35 33.85 32.37 32.00 31.73 34.05 34.56 34.35 33.07 32.21 34.33 38.39 39.84 41.71 41.18 43.12 42.85 43.37
54.51 55.96 56.24 57.96 54.60 54.01 51.72 54.22 53.77 49.19 38.69 38.66 39.61 43.49 43.92 44.74 40.01 45.25 45.25 41.99 36.95 36.60 34.63 34.47 37.61 37.14 35.00 33.79 35.74 31.09 35.37 34.66 33.45 32.63 28.52 32.64 26.30 32.97 36.02 38.34 38.18 40.72 41.04 42.23 43.38
53.39 54.28 55.86 57.30 53.73 51.48 51.80 54.29 53.38 50.45 28.63 39.58 38.73 45.94 43.22 39.51 39.58 40.67 43.07 41.15 36.63 36.59 36.76 34.56 35.11 35.02 34.17 35.42 36.61 33.95 35.20 34.07 32.83 30.75 29.63 28.95 28.72 32.41 33.33 35.51 38.27 41.89 41.87 42.46 42.03
52.89 53.04 54.10 55.08 54.78 54.41 54.77 54.22 50.94 37.14 27.27 37.01 39.75 39.10 37.89 38.98 38.17 39.70 40.39 41.89 39.81 37.16 35.88 34.16 36.78 37.54 37.40 36.43 37.11 36.59 34.46 33.01 30.59 29.66 25.05 29.64 30.28 33.41 32.30 36.42 38.41 40.53 41.88 41.88 40.53
52.93 52.53 50.53 52.16 51.82 55.51 55.19 50.09 36.37 30.69 37.62 34.93 35.11 37.54 36.72 35.21 35.02 36.78 36.27 35.13 33.85 31.01 30.75 32.91 34.55 36.11 37.84 34.99 35.81 34.77 33.16 25.86 23.13 22.40 25.28 27.15 28.13 35.83 35.53 37.34 39.04 41.07 42.90 39.68 40.05
51.43 51.68 48.67 50.35 53.00 55.64 51.25 42.75 28.89 35.54 33.99 37.22 36.88 36.00 34.00 35.49 33.63 34.40 34.09 33.20 36.37 32.07 29.19 29.66 27.89 35.24 37.82 37.23 34.54 33.06 33.32 26.60 18.37 18.85 23.04 27.33 25.59 32.04 37.20 38.98 38.77 39.38 39.55 38.16 39.09
50.72 44.28 45.28 47.39 49.16 53.41 46.57 34.16 31.22 34.12 37.01 36.44 36.50 32.87 32.20 34.95 33.62 32.59 32.20 31.83 35.71 35.39 31.71 28.08 28.67 33.96 34.89 36.00 38.90 32.81 30.72 34.67 28.60 14.73 20.86 26.67 29.51 34.47 35.62 36.83 37.54 38.81 37.51 37.36 38.63
43.62 41.80 41.82 47.95 49.71 47.70 41.42 36.01 37.56 39.83 38.71 38.88 35.01 36.21 30.97 32.96 32.40 31.51 30.93 33.67 34.78 37.36 35.59 32.89 28.05 31.75 33.40 35.76 34.75 34.17 36.05 29.16 26.86 18.77 15.22 24.83 26.51 31.23 34.46 37.42 38.76 37.94 38.85 38.59 38.42
42.49 35.53 41.53 48.03 47.54 41.25 32.38 35.07 38.47 41.64 41.92 39.83 36.95 37.09 35.60 33.72 33.52 30.04 32.14 34.07 35.84 35.40 39.82 35.27 32.24 28.50 31.84 31.16 31.23 31.97 30.88 29.91 30.13 26.88 20.04 17.78 28.22 33.02 36.45 37.43 37.06 38.21 39.10 38.97 38.26
38.01 29.45 41.66 48.29 36.22 37.80 32.34 35.24 39.10 38.69 41.97 41.51 41.61 39.43 37.53 36.59 35.40 32.50 31.93 35.96 38.09 38.09 34.90 36.72 33.60 27.16 29.32 31.62 31.90 31.11 31.28 31.56 26.32 22.50 23.95 23.69 31.21 35.06 36.57 38.02 36.84 37.67 38.45 37.96 37.82
32.86 35.32 42.14 43.40 28.36 30.32 32.32 34.05 36.13 35.84 38.19 40.51 39.82 40.14 39.85 38.22 35.48 35.27 34.38 37.32 38.69 38.57 36.11 37.27 32.58 21.12 27.66 29.12 29.73 29.48 31.35 33.71 30.97 28.80 25.23 24.49 31.76 34.14 34.85 35.95 36.62 37.62 37.17 37.88 37.47
34.84 25.48 31.22 36.49 36.96 31.70 29.51 30.37 31.21 36.69 36.59 37.73 38.13 41.03 39.09 36.51 40.06 36.02 35.01 37.27 38.77 39.58 42.37 41.66 34.68 30.83 28.98 29.00 30.82 28.37 29.74 31.87 33.92 26.30 29.99 28.39 34.25 37.44 35.36 37.36 37.81 38.43 37.94 37.61 37.48
36.40 28.27 29.86 24.35 28.58 30.39 33.93 33.47 31.07 30.23 36.34 36.94 35.47 35.80 34.85 32.56 34.44 34.16 36.31 37.99 38.60 39.78 40.58 40.64 34.28 34.24 35.13 34.78 32.53 32.33 30.88 32.84 32.54 34.20 30.20 34.41 33.85 38.19 39.30 38.50 40.85 41.77 38.45 38.11 38.00
33.59 31.98 32.74 27.44 29.65 28.11 29.47 28.86 29.03 31.69 34.13 34.17 32.54 34.49 35.44 35.15 35.47 33.59 38.13 38.24 38.27 37.85 37.77 40.18 34.41 35.40 33.35 35.66 36.05 33.41 32.57 31.70 33.32 34.71 35.27 35.45 34.98 42.49 42.80 39.31 37.60 39.78 42.13 42.04 39.36
38.43 38.16 35.12 30.03 27.50 26.46 26.42 27.30 27.58 30.04 31.94 35.00 35.64 33.17 32.67 35.67 39.10 39.86 40.50 40.42 39.36 36.61 33.54 35.30 35.31 32.45 30.26 34.22 33.92 29.52 34.05 35.00 35.11 35.48 35.80 31.35 37.04 41.35 40.23 39.02 40.40 39.57 39.11 39.58 39.74

GFSSW_sfc_wetblb_066.txt.gz
Wetbulb
58.75 58.92 58.99 59.01 59.14 59.25 59.33 59.31 59.45 59.71 60.00 60.46 60.85 61.38 61.58 61.17 60.54 58.78 53.17 56.37 58.27 62.67 60.54 54.35 53.53 53.53 53.70 51.65 50.23 49.46 48.36 45.61 45.88 44.97 47.02 47.81 47.89 47.63 49.40 49.82 51.07 52.69 51.29 54.04 61.40
58.33 58.46 58.52 58.66 58.79 58.98 59.15 59.27 59.32 59.37 59.78 60.04 60.43 61.11 61.46 60.78 56.88 54.04 59.56 62.44 62.40 61.91 53.46 52.53 51.14 51.96 51.08 49.93 50.48 49.96 47.69 46.56 47.69 48.12 47.47 48.02 48.45 48.71 48.44 48.77 49.57 50.08 51.35 52.58 59.54
58.04 58.10 57.87 57.85 58.09 58.51 58.78 58.99 59.15 59.17 59.41 59.81 60.31 61.09 60.99 59.47 52.95 52.26 61.47 62.14 62.25 59.35 54.71 53.54 52.14 51.08 49.03 49.81 48.46 46.35 46.76 44.80 46.34 47.20 47.72 47.79 47.08 48.75 48.40 47.41 50.76 50.91 52.21 52.25 58.81
57.81 57.69 57.44 57.31 57.49 57.95 58.25 58.47 58.74 59.01 59.16 59.56 60.44 60.75 60.06 56.41 42.91 54.23 60.77 61.43 61.56 56.18 53.64 51.50 50.60 49.09 47.82 46.57 47.84 45.07 45.45 46.02 47.50 48.34 47.55 46.77 48.08 47.21 48.45 51.06 50.59 52.46 52.82 53.04 56.88
57.83 57.39 57.10 56.98 57.18 57.76 58.10 58.21 58.32 58.52 58.84 59.23 60.25 60.31 56.50 49.38 49.71 56.33 59.23 58.78 54.95 53.96 51.90 50.36 49.04 48.73 45.92 47.42 46.89 45.40 45.98 45.88 47.51 47.29 47.49 46.69 47.28 47.69 47.37 51.35 50.09 49.54 49.67 52.14 54.93
57.92 57.65 57.57 57.18 57.39 57.78 57.97 58.12 58.27 58.38 58.50 59.14 60.14 59.57 52.32 44.47 55.57 55.60 54.41 53.87 53.54 53.11 51.21 50.72 49.66 49.87 47.90 46.77 46.34 46.92 46.51 46.57 47.20 47.54 47.32 46.47 47.27 47.12 49.71 50.71 49.26 49.13 50.47 51.51 53.49
57.77 57.24 57.23 57.24 57.14 57.59 57.89 58.12 58.19 58.21 58.39 59.03 59.94 55.86 49.08 47.07 56.15 55.07 53.50 52.97 53.20 52.82 51.13 51.74 51.14 50.07 49.35 46.65 47.47 46.31 45.08 46.32 46.77 46.93 46.90 47.24 45.17 45.13 50.20 48.26 48.92 49.35 50.43 50.72 51.92
57.83 57.22 57.09 56.98 57.00 57.15 57.46 57.93 58.26 58.20 58.58 59.14 59.65 53.45 46.41 53.39 56.26 52.90 53.32 52.45 53.11 53.19 52.84 52.30 52.92 50.52 48.78 48.38 46.99 45.03 45.43 42.70 45.23 45.23 46.43 46.51 43.61 48.07 47.49 47.72 48.63 50.41 51.10 50.59 50.90
57.94 57.31 57.32 57.31 57.07 57.27 57.71 58.18 58.15 57.99 58.42 58.79 53.74 50.80 44.79 56.06 52.73 54.37 52.93 51.41 51.59 51.66 51.82 50.98 51.31 48.17 47.85 46.20 44.29 44.01 41.22 41.14 43.26 45.41 44.84 45.11 44.62 47.98 46.80 46.55 48.13 49.73 50.13 50.37 50.83
57.99 57.59 57.42 57.41 57.29 57.40 58.11 57.77 57.81 57.14 56.01 54.37 52.72 45.50 47.04 46.26 51.92 52.26 52.39 51.50 50.11 49.86 49.75 49.52 48.55 46.69 45.91 44.75 38.43 40.64 40.41 40.46 41.57 43.66 43.31 44.02 43.78 47.63 49.10 46.41 48.14 49.86 50.75 50.53 50.02
58.56 58.13 57.89 57.88 57.63 58.06 57.11 50.76 47.41 45.67 49.83 44.73 44.50 43.18 46.04 50.64 52.43 51.13 51.25 50.11 49.64 48.64 45.45 44.97 44.46 42.40 44.82 45.51 42.79 42.16 41.05 40.53 42.91 43.23 42.91 44.01 44.36 46.35 48.67 48.54 48.30 49.10 49.79 50.74 51.05
56.74 58.42 58.52 58.06 58.02 57.79 55.81 49.72 49.24 50.44 45.78 48.63 47.69 47.28 48.30 51.14 47.44 49.64 51.25 48.19 47.00 44.10 44.22 43.47 41.18 45.90 44.03 43.14 42.15 41.65 41.09 41.23 43.47 41.84 42.12 43.55 42.81 46.18 47.59 47.78 49.13 49.66 50.23 50.82 51.69
55.82 56.33 58.30 58.30 57.80 57.19 54.63 51.57 55.04 52.50 46.88 47.00 47.36 46.77 47.57 49.67 46.59 47.97 49.44 47.02 44.99 42.04 42.97 41.92 43.10 44.08 42.72 40.54 40.38 41.34 40.64 40.83 40.30 41.14 41.79 40.83 41.03 44.06 46.82 47.05 48.15 49.02 50.21 50.74 51.15
53.96 55.13 56.16 58.04 55.10 55.53 53.17 54.98 55.63 52.48 42.92 44.03 43.56 46.48 46.69 48.53 43.76 48.67 50.21 48.03 43.77 42.49 42.37 42.70 43.70 41.58 40.76 40.36 41.95 38.76 42.35 41.47 39.78 39.45 36.99 40.38 34.95 42.04 44.71 45.04 45.64 47.94 49.81 50.35 50.77
52.97 53.43 55.22 57.46 54.38 52.62 53.34 55.18 55.13 52.37 31.00 43.55 42.26 49.33 46.01 44.13 44.41 44.75 48.10 46.25 43.19 41.79 42.33 40.89 39.95 40.03 39.66 40.94 42.49 40.55 41.39 40.65 39.51 39.30 37.55 39.25 35.30 40.36 40.81 42.04 44.81 47.57 49.25 50.69 51.51
53.09 52.64 52.83 55.48 55.12 55.09 55.63 55.73 52.57 39.25 30.21 40.05 42.49 42.12 41.40 42.77 42.24 43.85 44.93 47.03 45.67 41.90 41.34 40.54 42.14 42.72 42.46 40.29 42.54 41.23 40.66 39.60 39.06 38.61 33.07 38.75 36.90 38.59 41.90 43.00 45.08 47.03 48.52 49.81 50.14
51.65 52.63 50.84 51.23 51.49 56.47 55.56 51.37 37.83 32.50 40.88 38.26 38.64 40.39 40.49 39.01 39.91 42.17 40.96 40.28 39.21 35.80 36.43 38.82 39.84 41.47 42.01 39.44 40.65 41.43 40.04 33.50 32.06 30.94 31.73 35.70 35.00 39.13 43.48 43.98 44.94 46.57 48.56 48.61 48.42
49.44 51.06 50.18 50.42 53.34 55.95 52.29 43.36 31.37 37.91 38.77 40.52 39.92 39.11 37.48 39.00 38.44 38.83 39.19 38.21 41.55 38.84 36.45 34.99 32.99 39.65 42.29 42.38 39.86 38.87 40.03 34.77 29.37 29.10 33.79 31.99 31.66 39.45 44.52 45.56 45.79 46.45 47.20 47.81 46.37
49.43 48.96 48.81 50.41 51.22 54.36 46.91 34.04 35.24 38.12 41.05 39.39 39.42 36.87 36.95 38.24 38.28 38.03 38.62 38.84 41.20 40.96 36.07 34.75 34.48 39.49 39.64 42.21 43.19 37.71 34.80 41.38 35.13 27.01 30.21 35.94 39.70 43.32 43.37 42.97 43.92 44.54 46.93 47.90 48.19
46.59 46.41 45.15 50.74 52.69 51.30 41.29 35.66 38.49 42.50 41.52 41.96 36.49 39.34 35.79 37.12 36.16 35.84 36.37 40.45 39.74 41.98 44.13 39.48 33.63 37.31 38.39 41.27 40.52 39.76 42.18 34.38 34.74 29.09 27.47 33.65 34.92 37.29 41.95 44.19 45.02 45.09 46.11 47.01 47.70
45.91 39.09 45.10 50.21 51.82 44.63 34.73 35.61 39.26 43.16 43.70 39.62 38.90 38.21 39.02 37.39 37.95 35.47 37.27 39.05 40.72 39.80 42.80 41.41 36.92 34.83 37.96 37.29 37.82 37.60 36.57 36.31 36.86 34.70 30.95 29.80 35.20 43.70 43.74 45.04 44.62 45.88 45.31 46.43 46.88
43.13 32.96 45.59 51.45 38.57 39.08 35.31 37.62 40.61 41.52 44.17 42.63 41.78 40.46 39.24 39.73 38.48 36.87 36.44 39.69 41.60 41.46 37.27 40.60 37.11 33.33 35.69 38.89 39.32 38.99 39.18 38.85 33.41 30.31 32.60 32.09 34.79 42.05 44.02 44.47 43.82 44.92 44.60 45.68 45.26
37.91 37.87 45.22 46.64 31.61 33.37 36.30 36.49 39.19 38.43 40.08 40.70 39.96 41.78 41.81 38.07 35.70 39.89 40.65 42.44 42.34 41.64 39.24 40.43 35.83 31.31 33.33 35.26 35.96 35.54 38.08 38.50 39.23 34.95 33.51 31.18 35.36 41.91 42.09 43.76 43.79 44.61 45.86 46.04 44.87
37.85 30.55 36.65 38.96 40.70 34.24 32.74 32.93 33.37 39.28 38.88 39.81 38.95 41.34 39.76 37.39 39.34 36.52 37.48 40.74 42.34 41.19 41.80 42.27 36.57 34.66 32.53 36.40 37.98 32.89 36.06 37.45 37.34 32.03 33.17 34.55 37.65 42.33 43.06 43.69 44.70 45.91 46.67 46.18 46.49
37.15 32.86 35.36 30.04 32.09 34.26 34.48 33.40 31.38 31.48 38.39 39.28 36.09 36.31 35.95 32.89 34.85 34.72 36.48 36.84 39.19 40.96 40.64 40.08 32.83 35.91 37.46 39.01 38.56 37.57 37.21 36.59 34.70 36.88 33.80 37.05 38.04 41.64 44.02 44.73 45.97 47.38 47.75 47.24 47.51
33.18 34.17 33.83 32.22 33.70 32.69 32.58 32.20 32.00 33.27 34.60 33.24 33.15 35.15 36.58 33.84 34.86 32.98 36.71 37.68 37.30 40.18 39.35 41.08 33.36 36.84 33.86 38.31 38.09 35.27 37.44 37.14 36.35 37.53 37.17 38.41 38.21 44.88 45.91 46.80 46.04 45.93 46.72 46.68 47.79
39.78 38.52 35.79 32.50 32.08 30.85 31.33 32.01 31.70 34.25 35.12 36.45 36.25 35.50 33.86 35.56 37.30 39.35 39.11 37.97 37.15 35.75 34.27 33.35 32.77 32.55 29.98 35.77 35.25 30.97 35.24 37.56 38.41 39.92 39.85 35.54 40.85 45.25 44.64 44.67 44.91 46.00 46.11 45.92 46.67

GFSSW_sfc_wetblb_069.txt.gz
Wetbulb
59.17 59.09 58.97 59.06 59.06 59.18 59.22 59.24 59.28 59.47 59.90 60.23 60.56 61.06 61.49 61.22 59.96 60.00 54.69 56.74 58.54 62.30 59.62 55.64 55.45 55.43 55.61 54.44 53.90 53.37 48.30 46.31 47.59 47.46 47.93 50.76 49.85 51.19 52.88 51.59 52.30 54.44 53.61 57.11 60.95
58.67 58.68 58.70 58.52 58.60 58.80 58.94 58.99 59.07 59.21 59.51 59.86 60.22 60.62 61.13 60.85 58.61 55.36 58.14 61.44 62.37 62.19 55.16 53.35 51.94 53.66 52.22 52.87 53.12 51.11 48.08 47.89 50.27 50.36 48.91 50.24 50.29 50.96 49.77 50.34 50.83 52.26 54.08 57.30 62.26
58.23 58.16 57.80 57.79 58.04 58.39 58.52 58.65 58.79 58.93 59.15 59.54 59.97 60.68 60.79 60.29 54.37 53.59 60.17 62.01 62.26 59.04 55.80 54.63 53.39 52.55 50.20 51.62 51.47 51.02 48.01 49.70 48.73 49.44 49.98 49.82 49.51 50.96 49.43 48.95 51.32 51.31 53.34 54.76 60.24
57.95 57.76 57.32 57.07 57.30 57.73 58.13 58.33 58.55 58.68 58.80 59.19 59.95 60.38 59.99 58.72 44.23 55.55 60.61 61.36 61.65 57.29 55.16 53.12 51.76 49.58 48.39 47.36 50.15 46.64 48.32 47.97 49.22 49.77 49.15 48.64 50.45 49.11 49.83 51.36 52.95 53.99 54.51 54.38 58.29
57.68 57.31 56.94 56.74 57.08 57.61 58.04 58.20 58.40 58.54 58.69 59.10 60.09 60.25 58.22 51.12 50.86 57.08 59.63 56.70 56.17 55.13 53.01 51.72 49.76 49.59 47.01 47.87 48.16 46.46 47.18 47.39 49.03 48.93 49.10 48.84 48.70 49.44 50.14 52.68 53.25 52.29 52.48 54.04 55.93
57.80 57.43 57.02 56.89 57.19 57.68 58.01 58.10 58.28 58.33 58.34 58.67 60.06 59.54 53.98 45.81 57.17 57.15 55.49 54.72 54.93 54.32 52.56 52.20 50.20 51.06 48.59 48.02 47.45 48.63 47.98 47.91 48.76 48.93 48.81 47.30 48.53 48.25 50.51 52.85 52.47 52.05 51.70 52.96 54.19
57.60 57.04 57.02 56.60 56.60 57.12 57.48 57.76 58.15 58.37 58.18 58.54 59.73 57.10 50.49 49.04 57.73 57.13 54.60 54.54 54.94 54.37 51.93 53.12 52.80 51.07 50.74 47.76 49.64 48.60 46.04 47.54 48.03 48.51 47.80 48.69 46.04 46.26 50.38 50.99 50.79 51.31 51.69 52.65 53.39
57.69 57.10 57.06 56.91 56.69 56.95 57.39 57.80 58.05 58.17 58.12 58.72 59.90 55.58 47.94 54.95 58.06 54.24 54.97 53.92 54.78 55.01 54.44 54.11 54.27 52.26 50.96 50.72 48.54 46.23 46.43 43.09 47.60 47.68 48.01 48.05 42.90 49.43 50.72 50.70 49.89 50.86 52.00 52.46 52.99
57.84 57.26 57.28 57.28 57.05 57.26 57.74 58.41 58.21 57.93 58.01 58.87 54.93 52.33 46.45 56.82 53.57 55.50 54.51 52.45 53.36 53.72 53.20 53.31 53.51 50.69 49.72 46.68 44.80 45.91 41.12 43.05 45.07 47.96 47.36 46.74 45.32 49.59 50.01 49.50 49.42 50.79 51.64 52.10 52.82
57.95 57.61 57.55 57.50 57.35 57.44 58.10 57.75 57.07 57.13 56.79 55.80 53.75 47.38 48.65 47.81 53.45 53.98 54.09 53.51 51.86 52.07 50.77 50.58 49.80 47.00 47.08 45.03 38.71 41.63 41.90 43.06 43.16 45.71 45.51 45.41 45.20 48.33 50.25 50.03 49.83 50.65 51.46 52.21 52.66
58.46 58.11 57.86 57.86 57.74 58.06 58.37 54.24 50.14 49.01 50.81 46.89 46.26 44.89 47.01 52.23 54.01 52.48 52.72 51.46 51.63 50.53 45.91 48.36 44.10 41.81 44.49 45.69 45.59 44.11 43.09 42.36 44.40 45.61 44.16 44.54 44.87 46.71 49.00 49.42 49.37 50.09 50.69 51.16 51.78
56.39 57.67 58.47 58.24 57.99 58.04 57.99 52.83 50.87 52.62 47.99 50.50 49.25 48.18 49.63 52.60 48.22 51.14 52.76 49.01 48.35 44.88 47.36 44.50 41.88 46.32 47.01 46.49 44.68 43.89 42.19 42.08 44.86 45.38 43.22 44.17 43.75 46.84 48.26 48.82 49.72 50.01 50.43 51.09 52.00
54.70 55.94 57.84 58.34 57.90 57.96 56.68 53.66 56.48 54.42 48.32 50.01 49.71 47.81 48.61 50.05 46.65 49.07 51.18 49.50 46.43 44.56 44.40 42.59 44.00 46.49 44.79 43.47 42.39 42.94 41.79 42.05 42.06 43.68 44.63 43.09 42.34 44.92 48.09 49.35 49.96 50.46 51.40 51.49 51.91
53.16 53.88 55.52 57.30 55.57 57.42 54.64 57.49 57.41 54.53 44.54 45.27 45.80 48.97 48.15 49.38 44.58 51.28 52.33 49.26 45.90 43.28 44.45 43.70 46.23 43.82 43.05 41.98 43.38 39.54 44.82 43.50 42.28 40.55 37.34 43.23 36.11 42.75 45.19 46.12 48.45 49.81 50.29 51.01 52.33
53.21 52.75 52.92 57.22 55.21 53.20 54.52 55.87 55.71 54.42 33.52 46.70 43.84 50.56 47.72 45.64 45.63 45.81 50.38 48.57 44.40 43.97 44.51 42.21 42.68 42.28 41.38 42.36 44.44 41.69 43.89 42.84 42.36 40.71 40.20 40.38 36.96 40.99 45.02 43.87 46.16 48.43 50.91 51.74 53.16
51.54 52.84 52.50 54.96 55.10 55.42 56.26 55.09 52.48 39.10 31.50 40.78 44.51 43.55 42.65 43.79 43.35 45.18 46.20 48.78 47.55 44.76 44.06 43.70 44.68 44.98 44.32 43.08 44.51 44.47 42.78 42.17 41.98 40.58 33.73 39.14 38.84 39.48 42.60 44.27 46.28 48.53 49.93 51.35 51.93
49.73 51.56 51.51 51.12 52.22 56.87 55.73 52.49 36.91 32.23 42.92 39.50 39.68 42.40 42.80 41.36 41.75 43.06 41.53 40.82 39.78 36.14 37.08 41.33 41.45 43.97 44.13 40.98 42.85 43.22 40.47 33.99 32.93 32.82 32.16 39.79 37.77 40.57 44.73 46.04 46.88 47.60 48.84 50.50 50.77
48.46 49.92 51.46 50.80 53.19 56.76 53.05 42.86 31.32 38.81 39.99 42.65 41.93 41.45 39.30 41.61 40.98 41.05 41.13 39.41 42.82 41.77 38.88 36.20 34.48 41.04 43.61 42.75 40.70 40.03 40.63 35.16 29.08 31.14 34.61 35.23 33.56 40.04 46.52 48.13 48.30 48.36 49.12 50.11 50.21
48.35 49.30 49.35 52.22 52.28 54.32 47.51 34.17 36.03 39.94 43.08 41.08 41.04 38.85 38.61 39.88 40.74 39.94 39.90 40.12 42.91 43.21 37.23 37.15 36.76 42.86 43.21 44.49 44.19 39.72 36.49 42.83 36.52 34.40 31.44 36.37 40.60 44.79 46.62 45.39 46.69 47.46 48.14 48.79 50.02
45.71 45.54 46.14 51.89 52.82 51.35 42.09 36.27 39.52 43.20 43.40 43.57 37.84 40.85 38.23 38.76 37.79 38.35 39.48 42.72 41.70 44.19 44.76 41.16 35.53 40.31 40.42 42.62 42.98 40.94 43.30 35.23 35.82 29.65 27.79 33.92 36.51 38.01 43.47 44.79 46.55 46.75 47.29 49.12 50.21
45.25 38.93 46.02 51.75 52.52 45.32 35.69 37.35 40.17 43.97 44.45 41.25 40.22 39.00 39.99 38.54 39.68 37.97 38.78 41.22 43.34 42.07 44.57 42.13 38.71 36.35 39.10 38.09 38.34 38.07 36.67 38.03 38.61 36.31 30.92 29.89 35.38 44.44 44.77 46.00 45.95 47.84 48.69 48.33 48.65
42.60 33.69 47.76 50.70 39.90 40.38 36.84 39.07 41.62 41.59 44.92 43.22 43.39 42.16 40.60 40.46 38.92 39.03 38.87 41.13 43.80 43.29 38.91 42.40 39.25 34.43 37.12 42.51 43.28 42.26 39.52 39.32 33.98 31.99 35.11 33.82 34.83 46.36 45.85 46.63 46.79 47.21 48.56 48.51 47.86
38.07 37.91 48.28 48.22 32.35 35.18 38.02 38.06 40.40 39.54 40.94 41.10 40.30 42.16 43.24 39.50 35.94 39.78 41.60 44.51 43.96 42.80 38.58 40.32 36.41 31.27 33.29 38.58 38.79 36.86 39.94 39.91 40.32 37.55 34.18 31.05 34.28 44.96 46.27 45.93 47.10 46.35 48.30 49.26 48.66
38.76 31.16 37.95 40.86 41.57 36.03 34.18 34.20 34.77 40.57 40.06 42.03 40.80 42.52 40.34 38.41 40.90 37.69 39.03 42.04 43.18 42.38 41.49 41.71 36.59 34.66 32.40 36.81 40.11 35.22 37.16 39.53 37.61 32.33 33.49 34.57 37.42 42.18 44.43 45.65 46.86 47.25 48.69 49.59 49.33
38.63 33.88 37.82 31.62 32.95 34.85 36.19 34.93 32.78 32.63 38.90 40.17 37.78 38.63 38.15 34.28 36.79 36.06 38.12 39.03 40.99 41.90 40.66 38.37 32.95 35.05 37.06 38.79 39.31 38.96 38.55 38.76 36.31 37.16 33.20 36.65 37.90 41.85 44.45 45.76 47.17 48.58 48.73 48.45 48.64
34.17 34.31 37.09 35.43 36.51 33.91 34.49 32.53 32.23 34.37 35.57 34.01 34.37 36.53 37.80 35.09 36.09 33.92 36.29 36.69 36.56 40.01 39.40 39.09 32.72 34.84 32.82 36.83 36.93 34.96 38.29 38.88 39.14 39.05 38.52 39.38 39.09 45.91 46.89 47.70 47.20 47.59 48.03 47.77 48.34
40.47 39.37 37.53 33.87 32.82 33.18 32.05 33.03 33.75 35.74 37.27 37.67 37.15 35.71 34.68 36.57 39.54 40.59 39.85 39.10 38.00 35.83 35.19 33.57 32.90 32.10 29.12 34.89 32.47 29.16 34.86 37.63 39.11 41.08 40.52 36.06 41.22 45.45 44.96 45.52 46.47 47.81 48.72 48.02 48.29

GFSSW_sfc_wetblb_072.txt.gz
Wetbulb
59.35 59.23 59.21 59.15 59.12 59.21 59.22 59.24 59.24 59.35 59.67 59.95 60.27 60.95 61.34 61.29 59.93 59.72 55.05 56.79 58.71 61.80 59.01 55.29 54.69 54.62 55.32 53.71 53.77 51.64 43.83 41.38 43.97 44.20 44.61 47.59 45.96 46.77 47.73 47.49 46.92 50.51 48.68 52.81 58.04
59.10 58.95 58.93 58.81 58.67 58.77 58.78 58.82 58.87 59.02 59.30 59.56 59.92 60.71 60.95 60.82 58.98 55.32 58.55 61.73 61.21 61.08 55.36 52.30 50.93 52.49 49.38 51.44 51.12 46.79 43.29 44.21 46.74 46.26 45.37 46.83 45.92 46.61 44.28 45.53 45.74 47.95 50.29 54.76 59.32
58.52 58.37 58.20 58.20 58.30 58.30 58.36 58.48 58.63 58.83 59.08 59.51 60.02 60.50 60.57 59.62 55.17 53.53 60.92 61.37 61.73 59.03 55.21 54.10 52.39 51.48 48.26 49.60 48.84 47.72 44.21 45.64 46.27 47.51 47.39 47.00 45.05 46.62 44.82 43.28 46.77 47.25 48.89 54.17 57.24
58.06 57.82 57.32 57.11 57.32 57.74 58.08 58.26 58.55 58.69 58.84 59.14 60.12 60.33 59.97 58.72 45.10 55.20 60.67 61.15 61.42 56.56 54.60 52.38 50.16 47.83 46.38 45.36 48.84 43.28 47.37 46.26 48.64 48.36 46.95 45.23 47.54 45.18 45.97 45.14 48.59 48.08 51.09 53.60 56.08
57.82 57.43 56.97 56.68 56.87 57.42 57.81 58.07 58.33 58.48 58.70 58.72 59.75 60.19 57.92 51.40 51.74 55.75 59.68 58.79 55.78 55.02 52.34 50.72 47.99 47.53 44.73 45.56 46.41 43.21 44.63 45.49 47.59 46.74 45.60 47.21 44.90 45.14 45.35 48.14 49.14 49.24 50.51 50.83 54.43
57.82 57.51 57.26 56.81 57.02 57.27 57.60 58.01 58.21 58.51 58.53 58.56 59.69 59.73 54.14 45.62 57.28 56.92 55.00 54.71 54.70 53.32 51.30 50.91 48.87 49.09 46.43 45.39 44.39 46.07 45.83 44.77 46.41 46.42 46.25 44.46 44.33 44.08 45.86 48.47 48.13 48.30 47.81 48.57 50.90
57.80 57.09 57.05 56.86 56.55 56.84 57.19 57.64 58.06 58.27 58.28 58.47 59.59 57.24 50.23 48.83 57.06 56.27 54.51 54.19 54.44 53.73 51.42 52.24 51.28 48.95 48.26 45.46 47.77 46.39 42.20 43.75 44.49 45.51 44.51 44.91 42.08 42.94 45.95 47.18 47.13 47.00 47.05 48.24 49.05
57.62 57.09 56.94 56.96 56.77 56.92 57.48 58.10 58.52 58.65 58.46 58.52 59.65 55.34 47.26 55.58 56.22 54.10 54.62 53.41 54.00 54.09 53.52 53.27 52.25 50.91 48.79 48.18 45.87 42.21 40.86 36.93 43.50 45.15 44.59 43.01 36.66 44.69 44.95 44.92 45.20 46.17 45.68 47.21 48.64
57.57 57.03 57.10 57.29 57.04 57.37 57.88 58.51 58.25 58.32 57.96 58.66 54.75 51.50 46.27 56.34 53.23 54.38 53.49 52.14 52.56 52.75 52.02 52.49 52.61 48.34 47.03 41.78 38.95 40.43 34.46 37.10 40.58 45.48 43.80 42.31 39.20 44.85 45.27 43.81 43.83 44.24 45.59 46.48 47.54
57.92 57.42 57.34 57.55 57.40 57.62 58.17 58.89 57.66 56.91 56.39 55.81 52.89 46.12 47.56 47.64 53.33 53.77 52.72 53.34 51.23 50.51 49.42 49.23 47.09 42.96 42.10 39.27 32.81 36.05 35.84 38.57 37.25 42.08 41.04 40.08 40.03 44.53 45.85 45.50 44.69 45.04 45.85 46.28 47.32
57.61 58.04 57.77 57.86 57.94 58.31 57.91 55.52 49.29 48.52 50.06 46.45 45.72 44.93 47.22 51.78 54.01 52.13 52.55 50.41 50.59 48.14 41.95 45.22 39.66 36.83 40.46 41.80 42.13 39.75 38.40 37.22 39.61 42.57 39.87 39.96 40.55 42.47 44.42 43.98 43.28 43.96 44.51 45.60 46.75
55.99 56.92 58.44 58.35 58.27 58.38 57.42 52.31 51.24 51.67 46.94 48.99 48.55 48.05 49.70 52.01 47.80 50.23 51.63 46.46 46.06 41.73 44.44 41.06 37.05 42.95 44.34 43.99 41.92 39.39 37.68 36.86 40.51 42.27 39.23 39.35 39.15 42.24 43.42 44.15 44.78 44.75 44.73 45.44 46.17
53.82 54.78 56.71 58.27 58.15 57.56 56.58 53.91 56.35 54.49 47.23 49.16 49.49 47.08 47.91 49.82 46.15 47.61 49.15 47.13 43.86 42.07 42.29 39.48 41.87 45.23 43.84 41.02 40.34 38.66 37.15 37.03 37.62 39.57 39.67 36.47 35.65 39.35 43.64 45.37 45.53 45.91 46.62 46.32 46.46
53.44 53.11 53.49 57.09 55.07 56.84 54.58 57.25 57.49 55.72 42.25 44.57 45.53 48.14 48.16 47.95 43.30 51.21 50.66 47.02 43.40 40.90 42.06 41.05 44.39 42.27 40.44 39.75 40.76 36.07 40.85 40.59 39.04 35.85 30.26 37.91 27.82 36.56 40.38 40.93 43.44 44.96 44.72 45.08 45.80
51.48 52.94 52.98 55.58 55.06 53.74 54.31 55.75 55.83 53.46 30.71 44.95 44.12 50.36 48.10 44.10 44.45 45.20 48.67 46.45 41.68 41.25 41.51 38.76 39.77 39.49 38.99 40.24 41.80 38.39 41.25 39.06 37.84 34.21 33.59 33.39 29.74 34.32 38.77 38.18 41.08 43.16 44.36 45.24 46.20
50.10 50.77 52.23 53.95 55.26 55.18 56.04 54.83 52.30 38.55 30.35 40.59 43.78 42.35 41.51 43.14 42.94 44.69 44.60 46.80 45.30 41.92 41.08 39.71 42.08 41.63 41.22 41.48 41.59 42.62 39.23 38.12 36.29 34.65 26.38 33.64 32.75 31.79 36.36 38.18 39.50 41.65 43.39 45.81 46.42
48.71 49.82 51.00 51.11 51.16 56.38 55.83 51.12 36.84 31.59 43.32 38.33 39.77 42.50 41.63 39.86 40.72 41.78 40.04 38.58 36.87 33.49 34.02 38.41 38.77 40.59 41.95 38.29 40.39 38.75 35.46 26.36 25.56 24.37 24.96 32.73 30.41 35.01 39.69 41.50 40.65 41.56 42.88 43.08 46.43
49.09 48.51 50.91 51.07 52.80 54.59 53.05 42.32 30.12 37.63 39.74 43.25 41.93 41.59 39.08 41.21 40.20 39.94 38.44 36.10 39.99 37.91 34.64 32.41 30.36 38.36 40.93 39.51 36.78 36.45 35.86 27.95 20.32 23.08 25.49 29.89 27.83 33.31 40.61 41.05 41.30 42.55 43.43 43.02 44.21
48.98 47.85 48.78 51.81 51.70 54.17 47.31 32.08 34.98 38.90 43.25 40.51 40.65 37.39 37.36 39.60 38.67 38.10 36.65 37.31 39.75 39.81 34.05 33.57 34.02 39.63 40.51 40.02 40.94 35.93 32.41 38.14 30.16 22.53 23.29 29.70 34.62 39.71 40.95 40.49 41.11 42.46 42.78 42.40 43.52
44.97 44.69 45.61 52.20 52.60 50.85 41.51 35.38 38.22 43.23 43.46 43.44 37.19 39.95 35.67 37.03 36.04 36.37 36.68 39.61 39.48 42.41 42.32 37.33 31.29 37.35 37.51 39.73 39.23 36.88 39.11 30.35 30.03 19.63 18.25 26.79 27.94 32.53 37.78 40.88 41.72 41.07 42.03 43.08 44.17
44.45 37.64 46.49 52.30 51.83 45.03 35.48 36.81 40.58 43.96 44.19 41.13 39.95 39.31 39.53 37.82 37.48 35.85 36.66 38.68 40.75 39.98 42.09 38.97 35.88 31.98 36.17 34.52 34.65 34.12 32.99 34.26 34.55 30.62 22.64 22.47 28.76 38.22 39.27 40.91 41.60 42.60 43.45 42.42 42.66
42.77 32.74 46.93 49.57 39.21 39.21 35.37 38.69 41.25 41.33 44.33 42.55 42.45 41.35 39.93 39.93 37.51 37.45 36.24 38.40 41.82 40.83 36.98 39.35 36.77 28.77 32.77 36.85 37.49 36.62 35.42 36.18 28.20 26.08 27.36 27.94 31.12 39.85 40.80 41.32 41.37 41.45 43.15 42.01 43.00
37.90 36.64 46.98 47.48 31.61 33.20 37.42 37.94 40.01 39.12 39.96 40.80 39.64 41.59 41.58 39.54 36.08 39.18 39.50 42.76 43.32 40.79 37.28 39.08 33.96 24.35 29.07 33.49 35.09 33.52 36.14 37.76 36.90 31.74 29.00 25.68 30.26 40.41 40.81 40.07 40.82 39.83 41.61 43.85 43.81
38.34 30.69 38.55 40.51 39.15 34.56 33.73 34.00 34.23 40.11 39.07 40.78 40.03 41.53 39.30 37.00 39.67 35.96 38.32 41.73 42.70 40.65 41.33 42.41 36.41 31.25 27.37 32.97 37.06 32.66 35.07 36.70 35.76 29.94 30.46 31.00 33.87 38.97 40.80 40.13 42.49 42.42 42.48 43.30 43.55
37.32 32.23 35.83 29.69 30.75 33.73 35.42 34.45 32.41 32.53 38.06 38.89 37.30 38.02 37.29 33.95 35.42 35.23 37.90 38.52 41.16 42.17 40.14 37.76 32.57 34.54 35.19 35.96 36.14 35.69 36.04 37.37 36.22 35.39 31.24 33.50 34.10 38.41 41.08 41.07 43.19 44.85 43.55 43.75 44.01
34.04 33.70 35.94 33.21 34.38 31.22 33.47 31.48 31.55 33.59 35.12 33.74 33.70 36.29 37.17 34.13 35.53 33.72 37.46 37.43 35.75 37.55 36.89 38.35 30.64 32.70 27.86 33.43 34.34 31.93 34.61 35.46 36.21 37.40 37.66 37.43 35.91 42.31 43.64 44.19 43.81 44.35 44.44 44.06 44.79
39.83 39.33 36.02 32.76 31.89 31.62 29.94 31.15 32.34 34.43 35.93 36.92 36.04 34.61 33.31 36.14 38.00 38.08 38.85 38.33 37.49 34.88 33.45 33.62 32.69 30.99 23.73 30.02 29.24 27.20 31.16 33.75 35.10 37.25 37.22 33.38 38.39 42.39 41.75 42.76 43.15 43.52 44.40 45.15 46.15

GFSSW_sfc_wetblb_075.txt.gz
Wetbulb
59.53 59.59 59.55 59.46 59.38 59.37 59.18 59.13 59.05 59.13 59.30 59.64 59.90 60.70 60.86 61.20 60.64 58.45 53.59 55.41 57.38 61.32 59.23 52.32 51.67 50.44 50.30 48.90 49.13 46.12 39.53 37.07 38.73 40.24 41.26 44.33 43.04 45.06 45.34 46.30 45.27 47.81 48.96 51.25 57.70
59.35 59.17 59.20 59.04 58.89 58.85 58.81 58.66 58.75 58.91 59.25 59.45 59.68 60.53 60.71 60.46 57.78 54.00 58.41 62.32 62.09 60.98 52.81 49.10 47.79 49.20 45.30 47.37 46.78 42.57 37.62 39.23 41.93 40.92 41.24 44.39 43.89 44.43 42.28 43.37 43.17 45.59 48.53 54.68 58.13
58.90 58.70 58.48 58.42 58.34 58.32 58.28 58.18 58.66 58.70 58.94 59.33 59.82 60.40 60.38 58.79 53.26 51.79 60.99 62.10 61.79 58.74 52.80 51.36 49.18 47.95 44.68 45.57 44.32 43.19 40.27 42.75 42.58 44.46 44.47 44.17 42.63 45.26 43.26 40.23 44.07 45.59 48.41 55.52 55.95
58.36 58.06 57.53 57.51 57.50 57.64 57.80 58.07 58.41 58.58 58.54 58.91 59.46 60.16 59.85 56.60 40.61 52.97 60.37 61.22 61.14 54.19 52.11 49.72 46.38 43.35 42.08 41.76 45.18 39.66 44.23 43.48 45.89 45.98 44.59 42.78 44.69 42.26 43.32 43.46 45.92 46.37 50.36 54.43 54.82
58.26 57.85 57.21 56.72 57.07 57.44 57.92 58.10 58.25 58.56 58.64 58.77 59.65 59.94 55.84 48.41 49.43 54.05 58.80 58.12 53.42 52.27 49.62 47.95 44.72 44.16 40.99 42.06 43.69 40.33 41.36 43.29 45.31 44.60 43.12 44.80 41.74 42.19 42.87 45.43 45.38 48.26 50.35 54.40 54.93
57.92 57.38 57.12 57.15 56.87 57.13 57.37 57.70 58.09 58.28 58.43 58.60 59.59 59.69 50.40 41.73 54.80 54.46 52.84 52.52 52.05 50.56 48.56 47.70 45.55 46.02 42.92 42.45 41.01 42.62 42.62 42.02 43.85 43.97 43.58 41.93 40.91 41.52 43.89 44.90 44.77 46.41 47.30 50.66 53.41
57.87 57.31 56.97 56.82 56.46 56.81 57.16 57.83 58.25 58.52 58.53 58.46 59.21 56.79 46.95 45.91 54.54 52.75 52.81 51.76 52.02 51.40 48.29 49.17 47.84 45.65 44.99 42.33 44.65 43.37 39.01 40.74 41.64 43.08 42.09 42.71 37.97 40.82 43.18 44.29 44.97 44.62 44.09 46.87 49.86
57.69 56.91 56.68 56.68 56.89 56.84 57.51 58.15 58.63 58.87 58.73 58.51 59.25 52.17 43.52 53.45 52.10 52.08 52.25 50.87 51.25 51.37 51.14 50.28 49.20 47.97 46.00 44.96 42.71 38.84 37.80 33.96 40.10 42.56 42.54 40.28 33.69 41.52 43.03 42.89 43.64 43.24 42.24 44.32 45.58
57.24 56.69 56.78 56.87 57.03 57.32 57.84 58.45 58.25 58.23 57.99 58.38 51.26 46.59 42.30 55.06 50.87 51.71 50.39 49.77 50.04 49.73 49.01 51.28 49.33 44.87 43.22 38.50 34.97 35.57 30.47 33.33 37.58 42.29 41.61 39.41 35.23 42.63 44.09 42.49 41.30 41.61 42.64 43.39 43.96
57.62 57.09 57.04 57.13 57.33 57.57 58.19 58.83 57.56 56.36 55.85 55.45 51.51 40.51 44.38 45.47 51.08 51.19 49.50 50.81 48.51 47.08 46.49 45.60 43.48 39.20 37.66 34.69 29.17 32.17 31.96 35.20 34.01 39.95 39.58 37.37 37.59 41.22 43.31 42.42 42.87 42.66 43.19 43.54 43.80
57.87 57.71 57.61 57.59 57.91 58.39 56.69 52.86 44.98 44.24 45.98 42.10 42.47 41.93 46.42 49.44 51.84 49.61 49.92 48.10 47.87 44.70 38.31 41.69 36.65 33.82 37.12 37.82 37.87 36.49 35.52 33.25 36.03 40.98 38.64 37.33 37.36 39.84 42.13 40.86 39.56 40.21 41.39 42.53 43.92
55.67 56.67 58.36 58.31 58.20 58.28 55.58 49.55 48.11 48.33 43.90 46.47 45.49 45.35 48.21 49.68 45.50 47.98 49.11 43.81 42.98 38.11 40.33 38.03 33.86 39.74 40.72 40.51 39.45 37.09 34.67 33.63 36.58 39.70 37.64 36.89 37.35 39.51 40.25 41.84 43.57 42.87 40.79 41.55 41.90
53.70 53.88 55.00 57.43 58.15 56.27 53.83 51.04 53.88 51.54 43.93 47.19 46.44 44.87 45.21 48.28 44.27 45.48 47.12 44.19 40.69 38.35 38.27 36.02 39.30 42.38 41.61 38.41 38.28 35.91 34.39 33.89 35.21 36.36 36.44 34.20 32.80 36.06 40.00 40.96 42.63 42.37 42.72 42.95 43.64
52.55 53.22 53.45 55.61 54.85 54.94 52.33 54.20 54.78 51.90 39.25 42.68 44.42 45.73 46.08 45.57 39.97 48.55 47.92 44.60 40.38 38.88 38.76 38.13 42.00 40.25 38.90 37.73 38.85 33.90 37.96 38.12 36.44 33.13 28.85 34.82 25.46 33.10 38.50 40.23 39.51 42.33 41.72 42.62 42.88
50.25 50.90 52.11 54.38 54.36 52.82 53.10 54.95 53.51 50.54 22.99 42.59 43.53 48.80 45.74 40.84 42.46 43.68 46.33 44.09 39.11 39.07 38.86 36.79 37.63 37.53 36.90 38.32 39.63 36.17 39.20 37.37 35.88 32.05 30.09 30.21 27.07 31.79 34.94 35.63 38.45 40.20 40.44 41.52 42.44
49.22 49.65 51.80 53.36 54.99 54.84 55.58 54.84 51.51 38.17 26.04 38.35 41.63 40.64 39.90 40.74 41.00 42.60 42.72 44.75 43.02 39.23 38.48 37.21 40.06 39.42 39.23 39.38 39.60 40.89 38.17 37.21 34.19 31.28 24.40 30.22 30.26 28.00 33.33 36.48 37.07 39.02 40.68 42.54 43.42
49.64 49.48 50.33 51.34 51.15 55.01 55.67 50.98 37.31 31.26 41.96 36.73 37.61 39.62 38.94 37.50 38.77 39.27 37.84 36.86 34.36 31.95 31.85 35.54 36.49 38.45 40.41 36.84 39.50 37.89 33.32 24.77 23.62 22.48 22.84 29.46 27.02 32.00 36.56 37.80 39.01 39.55 39.64 39.55 44.39
48.83 49.40 48.14 50.69 53.15 55.05 52.69 41.19 30.14 36.46 37.70 40.36 40.05 39.24 36.36 38.09 37.11 38.15 36.50 33.79 36.92 34.01 31.57 30.45 28.52 36.84 39.58 37.71 35.36 34.93 33.47 25.11 18.45 21.56 23.84 28.51 26.34 33.61 38.57 40.06 40.52 40.36 40.69 39.23 40.24
48.36 44.56 45.42 49.32 51.44 54.14 45.54 32.17 33.59 37.41 41.85 38.72 38.38 34.73 34.85 37.07 36.35 35.42 34.08 33.84 37.00 37.30 32.22 29.89 30.76 37.10 37.99 38.66 39.51 34.14 31.29 35.41 28.54 17.85 21.69 27.14 31.04 37.12 39.22 39.09 40.47 40.21 40.66 41.42 41.75
41.47 41.07 42.17 50.08 51.02 50.69 41.50 34.22 37.68 42.68 42.93 41.75 35.68 37.02 31.95 34.65 33.88 34.05 34.43 37.27 37.59 39.79 39.10 35.50 29.79 35.13 35.92 38.56 37.63 36.03 37.64 29.58 28.00 17.78 16.30 24.02 25.88 30.73 35.93 38.04 39.43 39.98 40.30 40.58 40.74
40.65 33.49 43.33 49.99 49.00 44.46 35.35 36.59 39.76 43.71 44.09 41.09 39.02 37.48 37.56 34.58 34.36 33.49 35.15 37.19 38.88 38.55 40.03 36.90 34.20 30.84 34.17 33.00 32.87 33.28 31.97 32.84 32.56 28.20 20.58 19.52 26.48 34.52 36.78 39.50 39.52 39.26 40.33 41.64 41.84
39.22 29.38 43.67 46.97 38.11 38.14 35.37 38.68 40.79 41.58 44.12 42.10 41.84 40.55 39.69 38.88 35.45 34.37 34.56 36.14 40.84 39.47 36.08 37.28 34.56 26.61 30.90 34.72 35.44 34.30 33.38 34.02 26.90 24.46 26.50 25.88 30.34 37.33 39.27 38.94 40.47 40.68 42.71 42.62 42.80
33.77 34.32 43.81 46.42 29.55 30.73 34.69 36.75 38.57 37.62 39.85 40.29 39.35 41.13 41.74 39.72 36.27 38.51 37.95 40.73 40.90 38.39 37.15 38.58 31.63 20.21 27.27 31.73 34.13 31.59 33.76 35.45 34.68 29.75 27.23 21.94 29.97 39.06 38.75 38.47 38.75 39.39 40.15 41.74 41.98
34.70 26.84 35.04 39.28 35.97 31.68 31.51 33.15 34.47 39.26 37.72 39.15 39.35 40.98 39.04 36.40 40.07 36.06 38.03 40.54 40.66 39.91 42.36 41.83 34.83 28.77 24.28 30.62 34.96 30.61 33.52 36.89 34.44 24.17 27.46 29.44 32.33 37.72 37.66 37.97 39.45 39.81 42.39 43.27 41.90
36.85 28.99 32.41 27.97 28.81 32.91 32.76 32.96 31.73 31.63 36.75 37.80 35.08 36.86 37.00 33.68 34.68 34.53 37.35 38.62 39.25 41.18 38.50 39.59 32.36 33.24 33.70 34.93 35.76 35.73 34.73 35.12 34.37 34.36 31.81 32.57 32.26 36.86 39.61 40.06 40.72 41.38 41.36 42.02 41.90
33.37 31.18 32.13 29.90 30.89 29.61 30.82 30.02 30.15 32.40 34.40 32.86 32.93 35.57 36.19 33.73 34.87 32.60 36.64 36.27 35.54 36.74 37.43 37.43 27.03 32.75 29.54 33.45 33.76 30.56 31.97 33.13 35.20 35.34 35.43 35.77 35.08 41.91 43.29 43.31 40.22 41.71 41.84 42.29 43.70
34.86 38.70 34.73 29.80 30.65 27.93 26.91 29.58 30.64 32.74 34.36 36.13 35.06 33.57 31.61 34.32 36.94 37.39 37.18 37.28 36.58 33.61 34.57 34.42 31.60 28.06 16.23 28.10 28.89 21.34 29.13 31.71 32.65 34.99 35.24 32.13 36.76 40.59 39.34 39.58 38.86 39.84 40.48 39.73 39.96

GFSSW_sfc_wetblb_078.txt.gz
Wetbulb
59.05 59.70 59.82 59.87 59.77 59.58 59.32 59.11 59.02 59.00 59.11 59.18 59.41 60.17 60.40 60.69 60.64 57.09 52.44 55.20 56.10 61.71 59.38 50.50 50.45 48.92 48.62 47.39 47.41 44.51 38.92 35.88 36.91 38.24 39.85 42.25 42.13 43.03 44.08 44.78 44.50 45.87 48.39 50.42 57.39
59.49 59.45 59.36 59.31 59.22 59.03 58.78 58.47 58.39 58.59 58.82 59.16 59.48 59.95 60.28 60.15 56.34 53.16 58.88 62.25 61.80 61.15 51.17 47.99 46.25 47.45 44.57 46.04 45.71 41.51 37.20 38.87 40.57 39.65 40.27 42.28 41.78 44.06 42.37 42.13 42.18 43.90 49.18 54.02 58.09
59.50 59.10 58.88 58.81 58.69 58.47 58.38 58.12 58.19 58.27 58.53 59.02 59.47 59.92 59.86 58.32 51.24 51.04 60.61 61.41 61.39 58.34 51.99 50.27 47.83 46.57 42.64 43.35 43.12 41.06 38.36 41.67 41.29 42.36 43.03 42.86 40.69 42.59 41.94 39.18 43.40 44.99 48.89 54.10 56.85
58.79 58.49 58.10 57.74 57.72 57.99 57.77 57.78 58.12 58.13 58.36 58.73 59.38 59.71 59.61 55.70 38.62 52.34 59.58 60.85 60.92 52.91 51.20 48.40 45.75 42.41 40.71 40.51 43.83 38.98 42.27 42.65 44.32 44.12 43.06 42.08 42.65 40.74 41.68 43.04 45.25 45.75 51.57 54.66 56.84
58.43 58.15 57.69 57.07 56.99 57.25 57.66 57.82 58.12 58.34 58.45 58.75 59.55 59.75 55.39 46.14 47.64 53.06 58.46 57.84 52.47 51.48 48.76 46.14 44.14 42.88 39.70 40.73 41.89 39.59 39.95 42.39 43.91 43.72 42.44 43.13 40.33 40.59 41.68 44.29 43.69 45.48 52.21 54.30 56.58
57.92 57.50 57.17 57.07 56.99 57.15 57.48 57.37 57.68 58.23 58.47 58.59 59.53 59.35 49.30 41.09 53.66 52.98 51.75 51.50 51.23 49.34 47.45 46.64 45.09 44.96 41.83 40.58 39.77 41.34 41.24 41.25 42.37 42.11 41.93 40.11 38.48 40.13 41.90 43.01 43.04 45.76 49.75 53.23 54.26
57.72 57.25 57.12 57.20 56.74 56.81 57.02 57.80 58.14 58.69 58.90 58.80 59.10 55.45 45.39 44.32 53.04 51.61 51.89 50.51 50.79 49.76 46.48 47.65 46.88 43.89 42.90 41.31 43.32 42.16 38.42 38.74 40.04 40.92 40.23 40.90 36.66 39.35 40.94 41.95 42.23 43.36 44.70 48.52 52.25
57.62 57.09 56.78 56.84 57.10 57.09 57.41 57.94 58.54 58.77 58.75 58.52 58.94 51.07 41.91 51.94 51.75 51.09 50.89 49.50 50.08 50.10 49.55 48.85 48.39 46.64 43.95 43.59 42.03 37.59 36.52 32.43 37.46 40.87 40.81 38.10 33.76 38.06 42.10 39.17 41.59 41.19 40.07 42.90 46.43
57.18 56.68 56.71 56.86 56.82 57.10 57.76 58.28 58.21 58.16 57.65 58.33 50.69 44.96 41.58 54.54 49.36 50.43 49.40 48.79 48.86 48.48 48.08 50.76 48.02 42.84 42.21 37.01 34.73 35.24 29.51 31.32 35.36 40.78 40.15 37.60 34.49 39.84 41.67 41.34 41.19 40.17 40.75 41.34 42.33
56.99 56.63 56.81 57.14 57.10 57.39 58.19 58.65 57.72 56.10 55.01 54.44 50.46 40.60 44.00 44.08 50.35 50.15 48.33 49.87 47.14 45.99 45.50 45.06 41.48 37.98 36.04 33.48 28.49 31.34 30.84 32.72 31.94 38.40 37.40 35.49 36.64 40.03 41.65 39.40 41.01 40.83 41.01 41.34 41.79
57.67 57.45 57.34 57.36 57.69 58.35 56.21 50.17 44.14 42.49 45.44 40.59 40.87 41.21 45.44 48.83 51.33 48.70 49.33 47.42 46.86 43.51 37.45 40.07 35.99 33.37 36.52 36.13 34.70 34.40 32.88 31.99 34.24 39.21 37.47 36.57 36.17 38.85 40.98 39.84 38.86 39.23 39.39 40.23 41.59
55.67 57.08 58.18 58.25 58.45 58.35 54.91 48.08 45.99 46.34 40.39 46.00 44.26 44.65 47.48 49.05 44.76 46.74 48.46 43.38 41.46 36.75 39.03 36.39 32.50 38.32 38.50 37.89 36.39 34.03 32.40 31.93 34.75 37.82 36.46 35.02 36.21 38.56 39.37 40.23 40.55 40.14 39.43 39.66 40.17
53.81 54.08 55.03 57.26 58.19 55.83 53.14 50.68 53.00 50.54 42.45 45.16 44.83 43.65 44.35 47.66 43.04 44.56 46.14 42.81 39.10 36.68 37.05 34.04 36.82 40.26 39.23 36.94 36.66 34.59 33.10 31.99 33.46 34.49 34.17 32.85 31.73 34.11 37.97 38.99 40.97 40.99 41.05 40.42 40.73
51.44 52.04 53.09 56.01 53.93 54.00 51.81 53.46 54.18 51.00 38.47 41.08 43.70 44.63 45.16 45.53 39.67 47.35 46.51 43.92 38.85 37.19 37.71 36.79 39.96 38.50 37.10 36.02 37.06 32.70 37.41 36.28 34.43 31.75 27.73 32.57 24.72 31.46 36.70 38.29 38.58 39.87 37.17 39.15 40.56
49.66 50.05 51.33 54.17 53.59 51.96 52.63 54.27 52.76 49.22 22.46 41.15 42.06 47.66 44.13 40.01 41.86 42.78 45.42 42.92 38.46 38.11 38.33 35.86 37.04 36.75 35.59 37.02 38.18 35.32 37.76 34.96 33.85 30.81 28.53 28.16 26.58 30.56 33.09 35.65 37.56 38.51 38.56 41.13 41.81
49.57 49.72 50.69 54.26 55.07 54.71 54.92 54.01 50.99 35.15 23.60 37.60 41.27 39.83 39.21 39.63 40.19 41.88 42.37 43.47 41.77 37.70 36.45 36.78 38.64 38.59 38.34 37.98 37.82 39.32 36.50 34.60 31.43 28.89 23.65 28.57 28.37 27.48 32.01 34.45 36.43 38.62 40.29 40.09 41.78
48.47 49.61 49.69 52.11 51.46 55.40 55.26 51.42 37.30 29.16 39.65 35.92 37.05 38.46 37.11 36.39 37.85 38.38 37.55 36.62 34.58 31.44 30.43 34.15 34.68 37.14 39.03 36.12 37.82 35.90 32.00 24.15 23.01 21.49 22.04 26.58 26.01 29.81 35.64 37.25 36.47 38.49 38.22 39.05 39.03
47.99 49.16 47.24 50.64 53.30 55.19 52.18 42.49 29.62 36.27 37.12 39.52 39.03 37.78 34.95 37.01 35.86 36.74 35.08 33.71 36.02 32.79 30.77 29.51 28.15 35.82 38.40 36.98 35.12 33.21 31.87 24.77 17.79 19.67 23.05 27.64 25.50 32.60 36.11 37.68 37.93 39.17 38.26 39.72 40.79
47.49 43.60 44.24 50.00 52.16 54.10 45.56 31.79 33.43 36.98 41.58 37.62 37.92 34.42 34.20 36.30 35.72 34.78 33.61 33.09 36.15 35.59 31.56 29.34 29.91 35.48 36.61 37.22 38.64 33.52 30.04 33.47 26.75 15.67 20.63 26.09 29.93 36.58 37.71 36.94 39.55 39.88 40.28 39.77 40.87
40.94 40.53 41.70 50.23 51.50 50.65 41.12 34.20 37.85 42.74 43.03 41.07 34.85 36.15 31.92 33.77 33.15 33.04 32.13 35.75 35.63 37.89 36.20 33.94 28.69 33.66 34.86 36.93 36.11 34.42 36.71 29.18 27.05 17.63 15.10 23.34 24.98 29.64 34.13 35.47 39.04 39.68 39.93 40.73 41.34
40.30 32.92 41.81 48.61 50.54 44.15 35.75 36.41 39.29 43.97 44.43 40.29 38.87 35.70 34.10 33.50 33.23 32.19 33.76 35.27 36.92 37.24 38.54 35.82 32.65 30.05 33.71 32.44 32.23 32.87 31.33 31.46 31.32 26.78 19.17 16.95 24.93 33.14 35.16 38.46 37.92 38.61 40.71 40.59 40.62
37.38 27.76 42.95 46.43 39.88 38.71 35.46 39.16 41.91 42.31 44.61 42.36 41.41 40.60 38.61 35.88 33.98 34.20 33.29 35.24 40.20 38.54 34.25 36.57 33.27 26.59 30.19 32.81 34.57 34.37 33.21 33.12 27.02 23.61 24.46 25.01 27.64 36.62 37.82 37.49 38.44 38.86 39.31 39.26 40.27
33.22 33.00 42.44 46.18 31.29 32.59 34.37 36.59 38.72 39.58 40.73 40.64 39.44 41.23 41.60 38.83 35.19 37.18 36.47 40.12 39.90 39.02 37.63 38.52 32.49 24.49 28.38 31.80 33.68 31.88 33.13 33.90 32.48 28.72 23.56 21.84 27.24 35.79 36.53 36.12 36.82 36.86 37.25 39.17 39.44
34.65 26.55 33.61 39.39 36.95 31.64 31.91 33.58 34.56 39.00 38.63 40.38 40.19 41.03 38.71 36.36 39.45 36.97 38.20 39.95 40.95 40.93 42.47 40.84 33.10 28.65 25.55 28.95 33.00 30.94 32.20 34.97 32.29 23.43 25.49 29.30 31.53 36.26 36.48 37.13 39.71 39.59 40.26 40.02 40.05
35.94 28.95 30.63 24.56 31.92 33.15 31.98 33.07 33.14 32.30 37.27 37.98 35.57 37.74 37.18 33.69 35.90 34.84 37.59 37.49 39.74 41.01 38.73 37.92 28.22 31.12 31.96 34.13 34.95 34.84 33.55 33.71 32.20 32.28 28.45 29.93 32.22 35.50 38.14 38.96 39.75 39.08 39.67 40.04 40.22
32.54 30.86 31.32 28.94 29.50 31.36 32.05 29.55 30.66 32.71 34.55 32.64 32.91 35.75 36.80 34.48 35.56 33.35 36.43 36.02 35.42 36.39 36.64 36.36 29.19 31.52 27.98 33.23 33.45 30.89 33.05 33.94 33.90 33.63 34.23 33.15 33.31 39.79 40.32 38.67 38.15 38.97 39.26 38.60 38.57
34.14 37.49 33.35 29.19 28.06 27.60 28.47 29.67 30.52 33.14 33.72 35.81 35.02 33.65 33.28 35.08 36.49 36.91 37.29 37.34 37.40 34.88 33.50 31.23 31.26 27.44 20.25 27.33 28.99 22.27 28.55 30.76 31.77 34.59 35.12 30.77 35.45 36.72 35.70 36.14 35.98 36.85 37.29 37.27 38.15

GFSSW_sfc_wetblb_081.txt.gz
Wetbulb
59.22 59.11 59.75 60.14 60.06 59.87 59.66 59.42 59.05 58.99 58.94 59.18 59.33 59.79 59.92 60.35 60.38 56.10 50.00 53.67 54.73 60.33 58.53 49.67 49.09 48.13 47.86 46.33 45.85 43.23 38.41 35.53 37.04 37.16 39.46 41.13 40.64 41.10 42.62 43.80 45.44 45.41 48.21 49.49 58.89
58.63 59.07 59.64 59.74 59.59 59.44 59.09 58.73 58.76 58.64 58.70 58.93 59.23 59.66 59.93 59.88 55.29 51.83 59.05 61.85 61.61 60.76 50.68 47.86 45.82 46.40 44.19 44.27 43.78 40.94 36.84 38.43 39.70 39.10 39.65 41.97 40.42 42.45 42.75 41.60 43.38 44.31 49.51 53.60 58.41
58.49 59.03 58.98 59.14 59.03 58.83 58.71 58.43 58.35 58.05 58.26 58.65 59.06 59.47 59.55 57.98 49.98 49.42 60.46 61.84 61.66 57.65 50.42 49.20 47.69 45.76 41.91 42.03 42.07 39.49 38.31 40.88 40.63 40.99 42.01 42.56 39.65 41.71 41.14 40.12 42.64 44.45 47.35 53.90 56.34
58.88 58.71 58.61 58.55 58.40 58.34 58.10 57.95 57.87 58.03 58.14 58.66 59.22 59.40 59.41 54.70 37.61 51.03 59.82 61.07 60.87 52.05 49.61 47.63 45.37 41.41 40.49 40.39 42.52 38.69 41.12 41.01 42.94 42.68 41.89 41.72 42.03 39.55 40.44 42.54 42.79 45.38 49.28 54.15 56.49
58.33 58.38 58.40 57.69 57.39 57.59 57.80 57.87 57.90 58.18 58.14 58.71 59.32 59.54 54.73 45.68 47.38 52.18 58.84 57.54 51.03 50.15 47.97 45.44 43.17 41.70 40.68 40.82 41.21 38.02 39.23 41.09 42.53 41.54 40.47 42.18 39.73 40.63 40.72 43.25 42.31 43.69 51.15 54.19 57.12
57.88 57.77 57.57 57.29 56.84 57.29 57.37 57.44 57.77 57.98 58.34 58.78 59.39 59.21 48.81 39.83 52.76 51.89 50.65 50.23 50.41 48.59 46.83 45.82 44.19 43.83 40.57 40.84 40.20 40.61 40.08 39.45 40.81 40.72 40.53 39.18 37.89 38.60 38.95 40.74 41.32 43.92 49.03 52.46 54.54
57.75 57.40 57.07 57.11 57.00 56.90 57.10 57.43 58.14 58.52 58.94 58.91 58.87 54.95 44.91 43.36 51.85 50.77 51.11 49.55 49.99 48.96 46.13 46.52 45.93 43.29 42.09 40.36 41.68 40.39 37.06 37.48 38.42 40.14 39.20 40.44 36.00 38.58 38.85 38.80 40.03 41.65 42.94 49.10 52.05
57.48 57.02 56.97 57.04 56.82 56.98 57.24 57.78 58.33 58.69 58.84 58.63 58.88 50.49 40.82 51.29 51.21 49.95 49.94 48.75 49.54 49.35 48.19 48.10 48.21 45.86 42.64 42.39 40.64 36.42 34.95 31.30 35.52 39.01 38.86 37.24 33.25 37.07 39.02 38.11 39.60 39.16 38.99 41.55 47.03
57.10 56.77 56.65 56.67 56.65 56.89 57.51 58.26 58.22 58.33 57.54 58.02 50.34 44.78 40.81 54.11 48.42 49.52 49.12 47.97 48.18 47.72 47.55 50.19 47.32 41.93 40.32 36.76 32.68 33.16 28.14 30.18 34.88 39.08 38.45 36.35 33.87 38.07 39.56 39.65 39.30 39.33 39.32 40.09 40.98
56.91 56.57 56.66 56.84 56.90 57.11 57.82 58.65 57.29 56.04 54.04 53.30 49.18 40.74 43.74 43.59 49.78 49.26 47.97 49.01 46.13 45.79 45.30 44.47 40.42 37.04 34.52 31.98 28.08 30.00 28.88 30.58 31.01 36.57 36.48 34.68 36.27 39.21 40.19 38.90 39.68 39.09 39.59 39.75 40.09
56.89 56.79 57.00 57.03 57.25 58.04 55.81 47.95 43.27 41.54 45.02 39.98 40.77 41.55 43.68 48.12 50.31 47.47 48.36 47.09 45.60 42.49 36.88 38.88 36.13 32.73 35.30 34.93 32.50 32.53 31.55 30.93 33.06 37.64 35.66 35.38 34.98 37.89 39.98 38.30 38.38 38.74 38.77 39.21 40.34
57.03 57.56 57.50 57.64 58.27 58.34 54.48 46.32 43.32 44.62 38.42 44.50 42.75 44.61 47.49 48.57 43.95 45.64 47.65 42.40 40.76 35.90 37.74 35.99 32.62 37.72 38.04 37.01 35.47 33.09 31.53 30.98 33.53 36.60 35.84 33.43 35.18 37.23 38.18 39.43 39.40 39.64 39.22 38.63 38.60
53.78 54.33 55.62 57.48 58.11 55.71 52.63 49.69 52.28 49.79 41.47 43.86 43.75 42.95 44.62 47.44 42.01 43.88 45.82 42.45 37.68 36.08 34.93 33.10 35.01 38.51 37.70 34.51 34.33 31.34 31.02 30.51 32.36 33.02 33.05 31.25 30.87 32.20 35.87 36.71 39.19 38.86 38.74 39.22 39.55
51.21 51.68 53.20 54.65 54.27 54.02 51.14 53.00 53.36 49.90 37.22 39.86 41.84 43.31 44.61 44.99 39.89 46.49 45.77 43.18 38.47 35.83 36.47 34.70 37.58 36.84 34.91 34.44 35.39 31.09 36.36 35.24 33.29 30.75 26.75 30.61 24.40 30.40 33.84 36.02 36.72 37.89 36.44 37.87 38.91
50.22 50.50 51.15 53.95 52.07 51.42 52.33 54.23 52.46 47.68 21.19 39.38 41.82 46.94 43.09 39.48 41.01 41.95 44.52 42.61 37.86 37.10 37.57 34.54 36.45 35.52 33.97 35.72 37.07 34.12 36.31 33.96 32.16 28.60 27.91 27.05 26.08 29.84 30.93 33.43 35.69 37.04 38.36 38.61 39.54
48.59 49.47 50.44 54.10 54.83 54.00 54.58 53.37 50.26 35.93 22.23 37.53 40.49 39.04 38.11 38.52 39.28 41.21 41.48 43.24 41.19 37.67 35.51 35.32 37.69 37.36 37.65 36.66 36.78 37.80 34.63 32.52 29.44 27.40 22.92 26.25 26.57 27.06 30.10 32.58 33.92 35.98 37.09 38.24 39.10
47.59 48.43 48.35 51.96 50.85 55.55 55.01 50.83 36.40 28.46 37.75 35.04 36.46 37.13 36.02 35.57 37.18 37.49 37.21 35.90 33.84 30.21 30.11 33.20 33.74 36.21 37.82 35.30 36.63 34.01 31.16 23.94 22.25 20.58 21.33 25.17 24.77 28.87 33.41 34.23 34.72 35.81 37.58 38.57 39.63
47.02 47.94 47.81 49.94 53.23 55.45 52.57 42.84 30.25 34.02 35.30 38.45 37.74 36.04 33.28 36.17 35.01 35.92 34.70 33.69 35.35 32.09 29.71 29.05 27.79 35.45 37.74 36.20 34.09 32.12 31.54 24.54 16.88 17.93 21.78 26.95 24.49 30.71 34.32 36.16 37.61 37.69 37.64 38.57 39.24
46.60 44.39 44.52 50.02 51.77 53.28 46.85 32.68 32.79 37.31 39.00 36.85 37.09 33.15 33.52 34.93 34.34 34.07 32.96 33.05 35.55 34.73 31.21 28.84 29.26 34.64 35.68 36.08 37.88 32.77 28.78 31.78 25.07 14.48 20.17 24.74 28.59 35.17 35.30 37.47 37.57 38.64 39.07 39.11 39.98
40.99 41.03 41.86 49.39 51.84 50.55 39.96 33.77 37.17 42.30 42.42 39.22 33.96 35.59 31.39 33.02 32.74 31.89 31.84 34.98 34.92 36.88 34.60 33.47 27.81 32.73 34.29 36.12 35.31 33.46 35.65 28.43 25.53 16.08 14.46 22.48 23.94 28.39 32.68 35.76 36.58 37.84 38.28 39.16 39.72
39.70 34.74 41.14 46.92 50.62 44.55 33.31 34.79 38.82 43.92 44.63 39.74 37.25 33.99 33.70 32.88 33.05 31.76 32.68 34.57 36.23 35.88 37.26 33.63 31.92 29.19 33.12 31.80 31.40 31.72 30.58 29.94 30.49 26.18 18.83 15.93 24.28 32.09 34.14 36.51 36.28 37.31 38.15 39.05 40.12
37.27 28.09 42.33 46.73 40.86 39.88 35.82 39.46 42.13 42.66 44.73 42.23 41.71 40.13 35.07 34.39 32.41 32.93 33.29 34.83 39.24 37.42 33.48 35.49 32.42 26.74 29.52 32.30 33.58 32.60 32.05 31.58 25.79 22.86 23.25 24.35 25.61 34.08 36.45 36.93 38.01 37.95 38.07 38.48 38.39
32.83 32.43 41.50 45.85 34.15 33.94 34.77 37.90 40.84 40.65 40.73 40.15 39.69 40.96 40.69 38.59 34.55 36.56 35.58 39.34 39.01 37.98 35.73 37.11 31.67 22.94 27.57 30.61 32.53 30.56 31.90 32.77 31.32 28.51 22.94 22.30 26.07 35.50 35.23 35.30 35.97 35.61 36.21 37.61 38.12
33.02 26.84 32.64 39.31 37.16 34.06 32.80 33.77 34.78 39.30 40.33 41.16 39.98 39.91 37.73 35.27 38.00 36.85 37.20 39.01 40.05 40.81 42.03 40.36 33.22 29.89 26.54 28.61 32.30 30.75 32.86 34.14 32.16 26.75 26.81 26.92 28.89 33.09 34.24 36.49 37.24 37.02 37.50 38.16 38.30
34.38 28.39 30.30 26.56 32.63 31.28 32.54 33.56 33.48 32.50 37.20 39.29 37.01 37.47 36.45 33.79 33.81 34.04 36.35 38.22 39.13 40.18 38.89 37.55 31.49 33.02 33.81 34.94 34.93 33.18 32.82 33.87 31.98 30.79 27.83 30.11 30.34 33.58 36.93 37.47 36.42 37.00 37.85 37.90 37.83
31.99 28.11 31.47 27.96 29.89 32.53 31.96 30.64 31.96 33.49 34.92 33.41 33.71 36.54 37.70 34.03 34.52 33.49 36.05 36.90 36.37 36.75 37.16 36.42 31.38 32.89 30.27 32.72 33.18 30.98 32.91 33.11 32.91 32.69 33.22 32.87 32.95 38.96 37.65 37.67 36.37 37.15 36.93 36.72 37.38
33.29 35.20 31.97 29.70 27.42 29.03 29.33 29.83 30.75 33.65 34.21 35.59 35.72 34.83 34.45 36.56 37.37 37.49 39.36 39.05 38.13 35.61 34.21 31.95 29.15 25.80 25.90 28.29 30.31 25.11 28.05 30.97 30.92 32.54 32.52 29.05 33.98 36.20 34.91 35.73 35.64 36.31 35.89 35.30 36.26

GFSSW_sfc_wetblb_084.txt.gz
Wetbulb
58.88 59.21 59.26 60.03 60.37 60.29 60.13 59.83 59.35 59.10 58.91 59.83 59.28 59.75 59.59 60.20 60.03 55.76 50.03 52.64 54.41 60.13 57.84 48.97 48.47 46.82 47.50 45.72 45.08 43.13 38.32 34.91 37.17 36.65 38.24 38.59 40.06 39.60 41.84 42.11 43.66 45.02 46.51 48.90 58.68
58.75 59.19 58.83 59.82 59.91 59.82 59.56 59.27 58.91 58.72 58.69 58.97 59.08 59.39 59.71 59.82 54.45 51.24 58.24 61.29 60.80 59.86 49.34 47.51 45.41 46.04 44.12 43.57 43.25 41.02 36.66 38.25 39.57 38.77 38.68 40.39 40.04 41.43 42.21 41.67 43.13 44.10 47.40 52.75 58.96
58.85 58.85 58.47 59.46 59.38 59.24 58.93 58.67 58.41 58.07 58.19 58.52 58.69 59.31 59.23 57.59 49.32 48.07 60.52 60.83 60.39 57.49 49.29 47.56 47.10 45.27 41.84 41.65 40.76 38.82 37.60 39.64 38.98 40.01 41.74 42.01 38.83 41.53 40.59 39.82 42.53 43.48 45.71 53.81 56.61
58.93 58.79 58.54 59.06 58.84 58.73 58.39 57.99 57.80 57.64 58.03 58.27 58.93 59.28 59.15 54.36 36.75 50.58 59.82 59.92 59.56 51.48 48.79 46.11 44.75 41.32 39.91 40.10 41.66 39.44 39.23 39.87 42.14 41.74 41.56 41.03 41.22 39.52 40.13 42.35 41.63 43.40 46.99 53.48 56.51
58.38 58.39 58.45 58.41 58.23 58.09 57.84 57.73 57.67 57.79 58.16 58.18 58.98 59.26 54.73 46.45 46.34 51.12 57.82 57.02 50.81 49.44 47.14 44.52 42.50 41.66 39.65 40.69 40.93 37.54 37.71 39.81 41.09 40.65 39.95 41.84 39.93 39.08 39.81 42.14 41.18 42.77 49.60 53.08 57.38
57.94 57.82 58.02 57.86 57.30 57.37 57.54 57.49 57.43 57.89 58.27 58.45 59.06 59.07 48.44 39.15 51.90 51.09 50.48 50.29 49.26 47.27 45.74 44.18 43.67 42.88 40.16 39.13 39.64 40.54 38.95 39.06 40.06 39.45 39.49 37.80 37.31 39.86 39.08 39.14 39.60 42.12 45.67 51.33 54.85
57.57 57.44 57.39 57.34 56.88 57.14 57.14 56.90 57.50 58.34 58.81 58.69 58.87 54.87 44.76 43.69 51.47 49.82 49.94 48.59 49.17 47.95 45.60 46.11 44.44 41.79 41.36 39.24 40.42 39.44 36.83 37.01 36.73 38.77 37.85 38.61 35.32 38.02 39.33 38.13 38.80 40.37 40.87 46.45 51.37
57.26 57.12 56.94 56.97 57.07 56.83 57.11 57.37 57.92 58.57 58.91 58.51 58.57 50.57 39.92 50.54 50.47 49.42 48.95 48.28 48.67 48.87 47.59 47.17 47.24 45.14 41.73 40.81 39.09 35.88 33.89 31.61 34.42 38.20 37.39 35.82 32.24 35.86 38.01 38.63 38.64 37.95 38.30 40.42 43.79
56.91 56.59 56.80 56.83 56.62 56.80 57.17 57.77 58.12 58.49 57.95 58.09 50.45 43.79 39.62 53.66 48.12 48.43 48.29 47.40 47.39 46.60 47.29 48.93 46.07 41.11 39.67 35.70 32.90 33.01 28.03 29.63 33.13 38.04 36.95 34.60 32.69 36.62 38.25 38.83 37.99 37.98 38.53 38.93 40.03
56.72 56.61 56.67 56.71 56.62 56.77 57.30 58.19 57.42 55.83 53.69 52.58 48.89 40.33 43.54 43.78 48.90 48.62 48.03 48.14 45.27 45.73 44.80 43.84 39.40 36.00 33.33 33.06 28.15 29.13 28.80 28.96 29.30 33.93 36.00 33.72 35.45 37.78 38.71 38.43 39.49 38.77 38.15 38.52 39.04
56.84 56.70 56.78 56.90 57.12 57.67 54.72 48.94 43.05 41.68 44.28 41.05 40.52 40.87 43.50 47.93 49.44 46.28 47.70 46.27 44.15 41.90 36.58 37.95 35.10 32.05 35.22 33.94 31.81 32.07 31.41 30.18 31.90 35.84 34.41 32.98 33.75 37.04 38.98 37.62 38.32 38.41 38.25 38.39 39.12
56.85 56.85 57.11 57.28 58.02 58.16 53.26 43.20 42.57 44.07 38.29 43.64 42.69 44.43 46.94 48.21 43.51 44.80 47.10 41.93 39.95 35.13 36.83 35.50 31.93 36.35 37.08 35.23 35.01 31.68 30.11 30.14 32.54 35.77 34.79 32.50 34.23 36.69 37.29 38.21 38.18 38.80 38.03 37.91 37.72
53.49 55.60 57.10 57.86 58.09 55.46 51.86 49.40 51.75 49.45 38.71 42.57 43.14 43.23 44.42 45.97 41.71 43.25 45.45 41.46 36.85 35.21 34.24 33.07 34.95 37.88 36.62 33.56 33.36 30.57 30.27 30.08 30.44 31.35 31.88 30.13 30.82 31.51 34.43 34.61 36.83 37.22 36.78 36.41 36.79
51.66 52.22 53.49 55.13 54.39 52.73 50.86 52.35 52.94 49.43 35.26 38.08 39.17 42.79 44.77 44.85 39.71 45.79 45.08 42.57 36.90 34.99 35.12 33.69 35.95 35.91 34.39 31.94 33.24 29.43 35.08 33.83 32.84 29.85 26.99 29.77 24.17 29.64 32.50 34.64 35.11 35.36 35.80 37.07 37.79
49.87 50.50 51.72 53.08 52.27 50.70 51.79 53.56 51.90 46.28 21.59 38.57 40.91 45.57 43.05 39.69 40.48 41.53 44.01 41.80 36.77 36.06 35.79 33.24 35.53 34.00 33.11 34.88 36.17 32.78 35.66 33.32 30.74 27.93 27.27 25.61 25.20 29.65 29.87 31.27 34.44 35.58 35.77 36.67 38.20
48.31 49.07 50.05 53.95 54.16 53.53 54.31 53.11 49.43 34.68 21.48 36.99 39.81 37.92 37.63 37.93 38.49 40.83 41.31 42.40 40.15 36.80 35.08 33.60 36.57 36.21 35.79 35.58 35.52 36.10 32.87 31.13 28.17 26.24 22.23 24.80 25.32 26.63 28.87 31.72 33.21 34.17 36.81 37.94 38.63
47.23 47.76 47.70 48.90 50.59 55.30 54.64 49.65 35.60 26.82 36.52 34.60 35.98 36.29 35.27 35.05 36.58 37.10 36.58 35.13 33.77 29.74 29.00 32.31 32.69 35.18 36.94 34.45 35.52 32.59 30.38 23.34 21.58 19.96 20.82 23.54 23.86 28.21 31.13 32.53 32.72 35.41 36.55 37.17 37.73
46.20 47.10 46.93 47.76 49.64 55.25 52.09 42.32 29.73 33.08 33.42 37.84 36.71 35.04 32.94 35.70 34.70 35.49 34.35 32.77 34.63 32.49 29.94 28.62 27.18 34.83 36.72 35.40 33.26 31.21 31.04 24.39 17.03 16.96 20.95 25.95 23.61 28.85 31.94 35.64 36.15 37.28 36.96 37.28 38.41
45.86 45.11 44.93 48.10 50.90 52.35 46.49 31.81 30.46 34.86 38.23 36.27 36.11 31.87 31.84 34.32 34.12 33.90 32.53 33.51 34.98 34.23 31.20 28.60 28.70 34.13 34.82 35.62 37.63 31.67 28.18 30.74 23.95 12.60 18.43 23.70 27.47 32.18 34.19 35.07 36.12 36.67 37.23 37.90 38.57
41.16 41.99 42.59 48.45 51.69 49.28 41.25 33.73 36.59 40.93 40.60 38.25 33.33 34.36 29.55 31.80 32.19 31.78 31.81 34.53 34.15 36.07 34.17 33.54 27.61 32.31 33.59 35.68 34.78 33.02 34.33 27.75 24.56 14.81 13.87 21.88 23.84 26.42 31.57 33.91 34.58 35.29 36.79 38.26 38.55
40.35 35.85 42.34 47.96 49.42 42.14 32.50 34.09 38.53 43.12 43.70 37.96 35.62 33.39 32.96 31.94 32.72 31.34 32.10 33.55 35.45 35.15 35.71 33.29 31.77 29.20 32.64 31.36 30.59 30.88 29.73 28.90 29.49 25.46 18.14 15.55 23.45 30.43 34.38 34.81 34.73 35.97 37.53 37.18 37.87
37.43 30.61 42.16 47.47 39.80 36.99 32.96 37.88 41.89 42.68 44.67 41.59 40.39 38.33 33.91 33.51 32.01 32.25 32.05 33.27 37.93 36.01 32.99 34.52 31.69 26.42 29.06 31.65 32.77 31.23 31.14 30.89 25.54 21.82 21.79 23.12 24.61 33.72 36.45 35.77 36.74 36.91 37.13 36.36 36.87
33.47 32.93 41.53 45.93 32.97 33.30 36.28 38.65 41.16 40.58 40.45 40.50 39.98 40.52 39.39 35.62 32.06 33.91 33.90 38.50 38.14 36.48 34.59 35.40 29.39 20.70 26.88 29.99 31.21 29.62 30.45 31.39 29.93 28.15 22.51 21.76 24.81 33.97 34.22 35.14 35.63 35.57 35.76 37.20 37.84
33.41 27.59 33.04 39.41 37.49 34.71 33.74 35.04 35.59 41.59 40.24 40.41 38.82 40.30 37.70 36.11 37.61 35.50 35.98 38.21 39.37 39.71 41.93 40.09 31.79 28.54 26.32 27.86 30.93 29.39 31.89 31.33 31.37 25.55 26.91 25.97 27.76 31.26 32.32 34.85 35.39 36.22 37.18 37.26 37.16
33.23 29.27 30.59 28.04 32.72 33.37 33.82 33.77 33.45 33.49 39.37 40.94 38.21 37.17 35.98 33.27 33.90 34.12 36.49 36.98 38.52 39.57 39.03 37.78 31.27 32.48 31.87 32.89 32.66 31.53 31.79 32.00 30.37 32.28 29.39 30.26 29.56 34.15 34.84 36.15 36.25 37.51 37.07 36.86 36.90
31.89 28.80 31.00 28.89 29.39 32.02 32.81 31.06 32.06 33.44 35.14 35.45 34.88 37.23 37.44 33.78 34.80 33.24 34.74 35.30 35.58 38.29 37.12 36.76 32.04 31.98 29.86 34.02 32.26 30.50 32.35 32.50 31.76 31.86 31.82 32.11 31.96 37.89 38.31 38.28 36.58 36.86 36.01 35.38 35.93
33.35 35.34 31.55 29.57 28.56 29.53 29.89 29.86 30.66 33.72 34.81 35.70 36.51 36.13 35.64 36.38 38.72 39.04 39.32 39.31 37.86 36.13 35.69 34.63 32.30 30.65 27.34 29.55 31.42 28.34 30.62 31.17 31.24 32.26 33.06 30.50 33.87 35.85 35.81 36.65 36.34 36.65 35.54 35.14 35.47

GFSSW_sfc_wetblb_087.txt.gz
Wetbulb
58.95 59.47 59.22 59.18 59.94 60.59 60.56 60.62 60.38 60.20 59.64 60.55 59.17 59.67 59.68 60.02 59.85 55.58 49.26 53.04 55.09 60.85 57.64 49.63 49.74 49.05 49.32 47.30 47.63 45.95 40.24 37.49 39.00 38.40 40.77 41.62 43.31 43.76 45.56 45.74 46.06 50.41 49.70 53.05 60.09
59.35 59.19 59.55 59.04 60.14 60.21 60.01 59.84 59.57 59.22 59.04 59.15 59.01 59.50 59.61 59.71 54.02 50.64 57.60 61.27 60.78 60.49 49.04 47.93 46.64 47.74 45.85 45.92 45.40 43.33 39.09 40.22 41.79 41.24 41.17 41.90 43.16 44.13 44.27 44.15 45.08 46.67 49.80 56.37 60.50
59.03 59.18 59.25 59.29 59.93 59.80 59.64 59.39 59.13 58.81 58.64 58.81 58.57 59.14 59.02 57.39 48.91 48.74 61.82 61.54 60.15 57.23 49.72 48.50 47.63 46.97 44.13 44.46 43.37 41.80 40.01 41.39 41.54 42.06 42.68 42.41 41.69 43.59 43.51 42.19 44.99 45.67 47.81 56.20 58.96
58.59 59.03 59.20 58.84 59.55 59.36 59.15 58.77 58.29 58.14 58.02 58.42 58.65 59.09 59.11 53.79 36.30 50.18 60.42 60.81 59.51 51.78 48.78 46.91 45.79 43.22 41.94 41.19 43.25 40.55 40.85 40.99 43.38 43.00 42.37 42.16 42.58 41.67 42.46 44.95 44.79 45.71 49.65 56.38 58.04
57.98 58.35 58.64 59.05 58.99 58.85 58.67 58.24 57.99 57.98 58.13 58.29 58.73 59.16 54.71 46.70 47.58 51.20 58.88 57.87 50.93 49.95 47.02 45.11 43.70 42.93 40.75 41.53 42.23 39.95 40.40 41.11 42.49 41.90 41.14 42.33 40.66 41.44 42.04 43.79 43.41 44.80 50.82 55.62 58.51
57.51 57.87 57.65 58.19 58.38 58.30 58.12 57.91 57.92 57.80 58.02 58.43 58.85 58.63 49.11 39.76 50.69 51.11 50.26 50.10 49.43 47.98 45.84 45.09 44.29 43.94 41.02 40.55 40.15 40.88 40.03 40.63 40.80 40.71 41.20 39.86 38.72 39.81 40.82 41.72 41.79 44.60 46.81 51.86 56.81
57.33 57.47 57.49 57.90 57.61 57.57 57.55 57.50 57.89 58.18 58.46 58.61 58.72 54.04 45.52 43.75 50.70 49.68 49.76 48.54 49.01 47.76 45.88 46.32 45.16 43.53 41.87 40.50 41.00 39.98 38.15 38.30 39.18 40.27 39.54 40.23 37.81 39.26 40.13 39.95 40.94 42.15 43.07 46.93 52.11
57.26 57.09 57.24 57.33 57.32 57.31 57.15 57.39 57.87 58.42 58.73 58.59 58.39 49.48 41.24 50.50 50.16 49.02 49.60 48.07 48.82 48.68 47.66 47.61 46.85 44.64 42.00 41.13 39.37 36.47 35.52 33.78 36.81 39.13 39.24 38.76 35.04 37.38 39.96 39.59 40.71 40.78 40.95 41.63 44.08
56.66 56.59 56.97 56.96 57.09 57.09 57.44 57.81 57.97 58.18 58.15 58.01 50.01 43.48 38.68 53.36 47.73 48.39 48.43 47.43 47.02 47.18 47.38 48.21 45.44 41.30 40.42 36.61 33.96 33.07 30.74 31.24 33.54 38.10 38.12 37.08 35.16 37.84 40.22 40.19 40.18 40.49 40.96 40.88 41.19
56.47 56.53 56.72 56.94 56.70 56.73 57.29 57.94 57.63 54.90 53.61 52.75 48.21 40.65 42.87 43.93 48.12 47.81 47.25 47.91 45.66 45.50 44.76 43.48 39.55 37.03 34.18 33.63 29.63 31.04 30.12 30.07 30.66 35.17 36.26 35.00 36.69 38.47 39.98 39.22 40.41 40.06 40.38 40.53 40.89
56.48 56.54 56.80 56.75 56.89 57.33 56.55 50.24 43.79 41.74 43.82 40.60 40.73 40.34 42.68 47.54 48.88 45.63 47.33 45.97 43.73 41.68 37.04 38.85 34.96 32.52 35.05 34.36 33.58 33.30 30.96 30.70 32.53 36.96 36.11 34.68 34.91 37.78 39.37 38.87 39.10 39.74 39.63 39.91 40.43
56.67 56.76 56.87 57.06 57.58 58.19 49.24 42.26 41.93 43.97 38.35 43.15 42.22 44.24 46.83 47.63 42.91 44.45 46.55 41.54 40.11 35.04 36.51 35.77 31.78 35.99 36.78 34.89 34.30 32.49 31.08 30.15 33.05 36.07 35.70 34.15 35.61 37.72 38.11 38.44 38.78 38.78 38.78 39.02 38.80
55.67 56.56 56.83 57.34 58.07 55.54 49.44 48.56 51.22 48.93 38.22 40.91 42.71 43.18 44.82 45.92 41.29 42.78 45.00 40.57 37.19 35.44 34.64 33.50 34.67 37.01 36.34 33.78 33.96 30.80 31.38 30.64 31.27 32.16 32.47 30.65 32.17 33.16 35.49 36.26 37.09 36.52 37.64 38.79 38.93
52.16 52.98 55.21 57.67 54.45 52.42 49.65 51.83 52.17 48.77 34.39 37.51 38.91 42.49 44.84 44.66 39.18 45.14 44.41 41.60 36.45 34.36 35.03 33.86 35.08 34.94 33.62 32.19 33.27 29.97 34.48 33.71 32.62 30.65 27.62 30.56 26.24 31.47 32.45 35.38 35.49 35.93 36.40 37.96 39.28
50.18 51.00 51.93 54.23 51.82 50.66 51.30 52.39 51.33 44.18 21.21 37.72 38.62 44.68 43.39 40.33 40.36 41.05 43.86 41.37 35.99 35.48 35.64 33.08 33.92 33.70 32.89 34.05 35.05 32.48 34.54 33.19 31.38 28.88 28.28 28.09 27.24 30.82 30.74 32.95 34.74 36.11 37.88 38.91 39.63
48.89 49.72 51.59 53.65 54.06 52.50 53.32 51.98 47.62 32.45 19.89 36.02 38.49 37.36 37.34 37.78 39.03 41.05 41.16 41.64 39.88 37.04 35.00 34.28 36.61 35.78 35.16 34.82 34.92 35.19 32.86 31.13 28.65 26.89 23.27 25.43 26.52 27.79 30.05 32.75 34.02 36.78 38.11 38.90 39.65
47.15 48.32 48.83 49.58 50.32 54.10 53.38 48.34 34.05 24.56 35.39 34.26 34.86 35.44 34.13 34.14 35.74 37.36 36.99 34.12 33.06 29.51 28.39 31.30 32.50 35.07 36.67 34.08 35.47 32.89 30.75 24.03 22.79 21.06 21.74 24.00 24.67 29.08 31.64 33.90 35.94 37.28 38.07 38.47 38.87
46.34 47.60 47.08 48.68 49.74 51.21 50.50 41.49 22.94 30.69 31.94 37.12 35.87 34.88 32.58 35.34 33.66 34.70 34.58 33.57 34.35 31.84 29.26 28.02 26.67 34.07 35.88 34.66 32.99 31.04 31.09 25.75 18.86 18.14 21.86 25.54 24.26 29.28 32.82 34.63 37.18 37.63 37.71 37.97 38.54
45.96 45.28 45.35 48.20 51.52 51.55 45.75 33.85 30.64 33.48 37.27 35.09 35.01 31.04 30.97 33.94 34.07 33.56 32.63 34.41 35.40 34.12 30.73 28.08 28.00 33.80 34.62 35.01 37.09 31.90 28.77 30.90 23.75 12.77 18.92 24.53 28.00 32.29 34.36 35.04 36.02 37.41 37.97 37.78 38.00
41.15 42.17 43.26 48.41 51.36 48.40 41.68 34.46 35.28 39.73 39.27 38.29 33.26 33.93 29.05 31.20 32.02 31.60 31.78 34.67 34.27 35.91 34.81 33.90 27.95 32.27 33.47 35.54 34.43 32.13 33.70 27.86 24.54 14.98 14.45 22.01 24.21 26.93 31.35 33.75 35.31 36.42 37.09 37.39 37.80
40.00 36.71 43.08 48.07 49.16 41.23 32.63 34.00 38.43 41.59 41.78 37.98 35.77 33.44 32.16 31.64 32.28 31.39 32.01 33.21 35.81 34.97 35.35 33.52 32.23 29.59 32.95 31.75 30.86 31.07 29.90 28.73 29.33 25.60 17.39 15.37 23.72 29.91 34.94 35.21 34.68 36.20 36.98 37.03 37.17
37.12 31.37 42.23 47.70 36.22 33.55 32.31 37.73 41.79 42.26 43.03 40.57 39.78 36.81 34.04 33.33 31.67 31.68 31.63 32.56 36.06 36.34 32.87 34.31 31.81 27.23 29.88 32.34 32.64 31.60 31.08 30.69 25.82 21.41 20.96 22.41 24.66 32.66 36.37 35.61 36.44 36.57 36.82 36.90 38.33
33.17 33.40 41.92 45.39 32.06 32.21 34.40 38.41 41.49 41.60 41.93 40.10 39.63 39.40 39.02 33.99 31.34 33.21 33.06 37.98 38.36 35.88 34.36 34.96 29.17 19.65 26.43 29.74 30.34 29.01 30.03 30.53 29.34 28.10 21.64 22.36 24.70 33.05 34.82 34.63 36.02 36.02 36.54 37.96 37.51
32.64 27.89 33.48 39.59 37.91 35.19 33.10 32.95 35.30 41.73 40.45 40.22 39.48 40.06 37.28 35.32 37.22 34.10 35.31 37.49 38.91 38.37 41.81 39.03 30.46 28.23 26.38 27.33 30.46 28.98 29.95 30.50 31.21 26.23 25.54 26.59 27.58 31.00 32.00 34.02 34.91 36.53 37.42 37.71 37.57
32.17 28.42 31.15 29.37 33.38 34.22 36.40 34.01 33.87 34.55 39.78 40.22 35.95 37.42 37.04 33.72 34.85 34.39 37.23 36.09 37.46 39.28 38.31 36.50 27.95 30.12 30.35 30.99 30.41 30.44 30.69 29.79 29.99 32.75 28.86 31.58 29.47 34.19 34.00 35.51 36.17 37.55 36.91 36.83 37.12
29.06 27.66 31.11 29.19 30.30 32.70 34.44 32.43 33.36 34.10 37.32 36.54 35.49 37.01 36.39 34.18 35.55 32.82 35.82 36.39 36.16 37.40 36.51 36.61 29.56 31.12 29.30 32.90 31.36 30.14 31.36 31.83 33.50 30.77 30.00 28.27 29.67 35.58 36.86 36.60 36.38 37.04 36.53 35.92 36.68
32.23 34.43 31.35 30.09 29.41 30.65 30.77 31.24 31.62 34.99 36.30 36.82 37.62 37.13 35.59 36.73 38.91 38.93 39.31 38.79 37.57 35.19 34.43 34.20 32.14 28.50 26.09 30.16 29.65 28.30 31.07 31.43 31.56 32.52 33.79 29.99 33.53 35.75 35.49 37.01 37.23 36.58 36.20 35.72 35.85

GFSSW_sfc_wetblb_090.txt.gz
Wetbulb
60.03 59.56 59.48 59.78 60.22 60.58 61.13 61.24 61.32 61.64 61.18 61.59 60.24 59.78 59.59 60.18 60.17 57.44 51.14 55.70 57.42 61.22 58.08 52.87 52.99 53.22 53.68 51.79 51.90 51.28 48.01 45.18 45.80 45.03 46.20 48.45 48.91 48.83 50.64 51.02 52.59 55.65 54.04 58.56 65.21
60.02 60.03 60.10 59.68 59.91 60.37 60.78 60.87 60.94 60.49 60.02 60.83 60.19 59.85 59.96 59.64 54.93 51.88 58.77 61.41 61.58 61.31 52.59 51.83 51.24 52.30 51.66 50.55 50.72 51.09 47.61 47.38 49.32 49.01 48.18 48.56 50.06 49.72 49.42 49.60 50.07 52.12 54.49 61.13 64.59
59.51 59.53 60.00 60.14 60.00 60.60 60.40 60.58 60.16 59.88 59.78 59.83 59.78 59.65 59.25 58.54 50.79 50.20 61.91 62.69 62.28 59.91 53.58 53.11 52.50 51.75 49.49 51.00 48.92 48.60 47.35 48.03 47.07 47.28 48.59 48.96 48.02 49.91 49.54 48.11 50.89 51.12 53.25 60.17 63.39
59.02 58.96 59.86 59.72 60.10 60.15 60.04 59.83 59.37 59.19 58.96 59.34 59.45 59.25 58.84 56.01 39.86 53.35 62.44 62.74 61.35 55.79 52.45 51.34 50.30 48.84 48.20 47.47 47.92 46.31 45.70 46.91 46.41 47.30 46.92 47.67 48.69 47.90 49.26 49.86 50.50 51.92 54.22 60.13 62.23
58.35 58.27 58.98 58.99 60.02 59.74 59.50 59.02 58.63 58.86 58.90 59.01 59.29 59.10 56.24 49.48 49.23 54.78 59.80 59.80 55.33 53.27 50.98 50.24 48.87 48.53 46.36 47.40 47.30 46.21 45.90 46.40 46.78 46.37 47.05 46.96 46.79 47.60 48.15 50.33 49.47 49.76 53.76 58.09 61.24
57.96 57.60 58.14 58.25 59.38 59.32 59.04 58.58 58.44 58.67 58.65 58.78 59.28 58.98 52.62 42.94 53.04 54.75 54.15 52.97 52.67 52.72 49.26 50.24 49.66 49.47 46.95 46.94 46.70 46.13 46.65 46.17 46.36 46.00 46.33 46.32 45.66 46.12 47.08 47.48 47.63 48.97 52.14 56.30 60.12
57.61 57.37 57.61 57.84 58.80 59.03 58.84 58.57 58.59 58.74 58.92 58.97 59.25 55.44 49.31 46.74 53.85 53.42 52.88 52.65 52.89 52.02 49.74 50.67 49.75 48.79 48.17 45.33 45.76 45.62 43.92 44.75 45.08 45.46 45.21 46.17 44.47 44.61 46.91 45.91 46.21 48.13 50.28 52.50 57.39
57.25 57.09 57.10 57.58 58.21 58.39 58.40 58.33 58.55 58.77 58.89 58.97 59.20 53.29 45.14 53.46 54.35 51.66 53.06 51.54 52.51 52.13 51.33 51.28 51.25 48.55 47.27 47.12 44.28 42.84 44.33 41.17 42.51 44.48 44.69 44.49 42.92 43.06 46.63 46.01 46.61 47.03 48.65 49.20 51.41
56.78 56.72 57.02 57.37 57.46 57.76 57.94 58.11 58.13 58.84 58.78 59.05 52.78 49.30 43.39 54.95 50.36 51.86 52.23 50.82 50.69 50.99 51.25 50.40 50.45 46.53 45.67 44.40 42.05 41.37 39.37 39.15 39.07 43.22 43.65 43.14 43.15 43.44 45.86 46.75 46.77 47.82 48.33 48.18 48.84
56.60 56.53 56.90 57.04 57.11 57.25 57.81 58.26 58.07 57.32 55.48 54.09 49.70 45.84 47.20 46.79 50.34 50.79 51.33 51.19 49.68 49.84 49.16 48.18 47.22 44.23 44.24 42.60 36.82 38.43 37.75 38.29 39.31 41.41 42.47 41.77 42.88 44.93 45.87 45.43 47.67 48.42 48.75 49.02 48.73
56.44 56.56 56.77 56.81 57.02 57.30 57.54 53.65 48.17 46.04 48.21 44.52 44.90 43.97 45.24 50.18 51.39 49.11 50.70 48.99 47.90 47.63 43.42 43.47 42.36 40.14 42.49 42.62 41.28 41.62 38.51 38.97 39.16 41.84 41.46 41.58 42.42 44.59 46.55 46.02 47.18 48.13 47.86 47.42 47.96
56.48 56.63 56.76 56.92 57.08 57.76 55.42 48.56 48.08 48.99 41.53 45.32 44.34 46.49 48.95 50.22 45.28 47.20 50.21 46.57 45.76 40.83 42.77 42.24 39.38 42.63 41.84 40.59 40.18 38.86 39.45 38.13 39.55 40.58 41.29 39.91 41.75 44.75 44.89 43.91 43.95 44.24 45.29 45.15 46.87
56.27 56.45 56.62 56.83 57.43 55.87 52.80 49.66 54.08 51.45 42.53 42.02 44.69 45.31 47.15 48.32 44.44 45.22 48.05 44.92 42.94 39.94 40.26 39.78 40.02 40.93 40.17 38.53 38.82 38.38 38.77 37.50 38.43 38.71 39.27 38.24 39.69 40.80 41.23 42.17 42.95 42.86 43.92 45.11 45.91
54.78 56.11 56.36 56.75 54.20 53.89 51.50 55.21 54.79 52.89 38.01 38.18 40.75 44.12 46.83 47.18 42.37 47.54 47.95 45.32 41.07 40.21 40.26 40.01 39.31 39.57 39.56 38.14 40.12 36.31 40.05 39.57 37.92 38.87 35.84 37.81 35.12 39.70 39.67 41.14 42.23 44.12 45.79 46.49 47.11
50.82 51.96 55.12 56.98 54.05 51.43 53.50 54.72 54.84 48.96 26.49 40.56 39.58 47.06 45.93 43.21 44.09 44.11 47.85 45.44 39.95 39.40 41.02 38.78 37.38 37.51 38.12 39.24 40.47 38.09 40.16 39.04 38.38 38.18 37.55 37.20 35.96 39.34 38.26 39.35 41.67 44.00 45.16 46.12 46.78
49.66 50.40 52.14 54.61 55.60 54.40 54.46 53.57 51.72 36.90 26.13 37.35 40.08 39.61 40.04 41.49 41.73 43.69 44.70 45.80 43.96 40.92 40.20 39.42 41.18 40.72 40.36 38.19 40.23 39.45 38.97 37.88 37.03 36.94 31.68 36.39 36.10 37.39 38.24 40.04 41.51 43.35 44.60 45.47 46.07
47.43 49.62 50.25 51.79 51.76 55.13 54.61 51.78 37.98 29.91 39.09 35.84 35.50 37.97 39.44 37.25 39.27 40.99 40.59 39.57 38.43 34.93 35.12 37.49 38.17 40.38 40.97 37.88 38.99 39.20 38.86 31.54 30.41 30.43 30.21 31.46 31.97 39.09 38.42 40.36 44.27 43.79 44.34 45.18 46.27
46.22 48.14 48.38 50.01 51.08 53.61 53.08 43.59 29.63 34.84 35.27 39.53 37.96 37.83 35.54 38.19 37.42 37.70 38.48 37.03 39.11 37.94 34.97 33.47 30.85 37.69 40.48 39.77 37.46 38.10 38.51 33.41 26.49 25.97 29.95 29.97 30.39 37.22 39.59 41.00 44.52 44.86 44.81 44.64 45.40
46.12 45.98 46.26 48.96 52.27 52.33 47.18 33.68 32.71 35.54 39.39 36.66 36.69 33.99 34.00 36.64 37.46 37.48 38.19 38.11 40.15 39.24 35.85 33.61 32.59 38.16 38.62 39.16 41.17 36.63 34.36 37.23 29.03 22.79 30.16 33.63 35.71 37.86 39.18 40.23 42.21 42.66 43.77 44.30 45.11
43.56 43.72 44.16 48.70 50.84 49.66 42.68 35.36 37.93 41.63 40.99 39.93 34.15 35.79 31.80 33.77 34.80 35.81 35.57 40.00 38.63 39.40 39.70 37.37 31.91 35.82 37.14 40.19 39.18 38.42 39.39 33.27 34.10 26.54 26.23 29.57 31.40 36.57 36.09 39.12 41.60 41.85 43.22 43.27 44.23
41.92 39.50 43.83 47.72 49.35 41.56 34.87 36.82 39.73 43.25 42.57 39.44 36.94 34.39 34.84 33.16 35.13 33.88 35.18 37.34 41.27 38.55 39.78 38.53 37.16 33.17 36.76 36.01 36.49 35.08 34.94 34.65 36.53 33.80 31.05 27.56 32.67 40.34 39.71 42.00 41.48 43.14 43.91 43.87 44.40
39.16 33.57 43.83 48.56 34.95 32.63 32.74 38.38 41.77 42.26 44.69 42.12 40.86 38.44 35.34 35.47 34.33 34.27 33.94 37.20 39.75 39.01 36.30 38.30 36.20 31.67 34.05 36.57 37.20 36.79 36.94 37.27 33.58 28.45 30.03 30.59 34.74 37.67 42.33 43.57 43.53 42.65 42.29 43.55 44.22
35.61 35.66 42.94 46.45 31.87 32.39 32.68 37.85 41.31 41.87 42.21 41.16 40.27 40.79 39.06 35.98 33.01 36.32 36.64 39.70 39.13 38.89 37.52 38.28 34.45 28.79 30.11 34.69 35.04 34.10 35.40 38.02 35.68 34.14 29.62 30.25 34.43 37.70 41.82 41.34 43.01 42.13 41.75 42.70 42.95
35.66 30.91 35.68 40.56 39.07 33.26 32.32 33.54 36.86 42.27 42.19 41.70 40.89 41.10 38.34 36.27 38.55 34.70 35.62 39.48 40.39 38.98 41.65 40.65 35.01 34.37 30.81 33.98 36.71 32.58 34.06 34.60 36.29 32.32 32.75 32.81 36.43 35.73 39.08 40.66 41.39 41.71 43.14 43.48 43.31
35.66 30.36 32.65 31.73 33.23 34.09 34.55 33.84 32.66 34.02 39.56 40.01 37.56 39.44 38.07 34.27 36.09 35.70 37.71 38.13 39.34 40.44 40.07 38.59 33.30 34.53 36.81 35.55 36.16 36.14 34.98 34.41 34.29 36.69 33.57 36.32 35.01 37.11 39.85 41.36 42.06 43.19 43.36 41.59 41.30
33.35 31.94 33.27 30.97 32.19 33.28 34.08 33.49 32.24 33.38 34.97 34.30 34.97 37.91 38.32 36.00 37.31 34.93 37.48 37.89 37.53 39.23 38.28 38.46 33.42 33.96 31.47 34.13 34.99 33.58 36.28 36.13 36.61 37.26 37.54 36.93 36.01 41.63 43.06 43.59 41.12 41.64 41.39 41.15 41.44
36.42 37.77 34.39 31.03 30.78 32.25 32.76 32.61 32.94 34.58 36.02 37.04 37.48 35.47 34.10 36.20 39.55 40.38 40.74 39.76 38.81 37.64 36.49 36.33 33.86 32.64 30.07 32.15 34.08 30.24 34.02 35.11 36.57 38.80 38.16 34.46 38.55 40.07 39.77 39.82 40.83 41.73 41.50 41.30 41.42

GFSSW_sfc_wetblb_093.txt.gz
Wetbulb
60.33 60.28 59.89 60.45 60.50 61.17 61.74 61.89 61.87 62.27 62.28 62.25 62.22 61.51 61.08 60.95 60.86 57.95 51.48 55.86 58.02 61.29 58.62 54.10 54.72 54.66 55.47 53.80 54.71 54.50 48.86 46.69 47.68 47.39 47.82 51.93 50.29 51.49 52.70 51.81 54.19 56.07 55.68 60.72 65.05
60.26 60.11 60.11 60.25 60.34 60.71 61.55 61.58 61.79 61.89 61.81 61.91 61.02 60.73 60.47 60.59 56.32 52.17 58.42 60.89 61.25 62.10 54.59 52.73 51.65 52.90 51.49 52.05 53.02 51.19 48.34 48.49 51.22 50.72 49.12 50.92 50.93 50.70 49.96 50.51 51.10 53.94 57.88 63.63 64.67
59.91 59.74 59.92 60.07 60.26 60.35 61.01 61.29 61.19 60.93 60.54 60.76 60.80 60.40 60.35 59.03 50.58 49.19 62.47 62.35 62.31 61.15 55.69 55.10 54.32 52.08 50.16 51.68 51.34 51.35 48.32 51.00 50.09 50.34 51.22 50.81 50.71 52.02 50.13 48.96 51.34 51.68 55.10 62.02 63.41
59.46 59.37 59.65 59.56 60.17 60.35 60.76 60.86 60.43 60.10 60.17 60.25 60.07 59.89 59.07 56.16 40.46 53.91 62.51 63.18 63.07 58.22 54.61 52.35 52.01 49.81 48.74 47.73 50.72 47.55 48.17 49.74 49.12 49.00 49.60 49.88 51.42 49.71 50.80 50.65 52.86 53.95 56.44 60.95 61.71
58.97 58.65 58.86 59.30 59.54 60.25 60.47 60.09 59.50 59.59 59.75 59.65 59.72 59.43 56.23 49.06 48.76 56.24 61.92 61.92 58.19 55.22 52.69 51.71 49.29 49.38 47.01 48.70 48.79 48.51 47.76 48.68 49.01 48.15 49.60 49.65 49.17 49.05 49.60 52.17 51.86 52.12 55.32 58.80 60.90
58.45 58.15 58.26 58.54 59.28 60.06 60.03 59.47 58.81 59.13 59.32 59.40 59.61 59.26 53.81 44.07 54.01 56.99 57.17 55.96 54.92 53.42 52.77 52.46 50.10 51.41 48.42 48.55 48.27 49.21 48.91 48.24 48.67 48.14 48.23 47.89 47.89 47.82 49.63 50.80 50.61 50.57 53.31 56.70 59.29
57.95 57.68 57.90 58.04 58.91 59.53 59.57 59.22 58.76 59.09 59.19 58.98 59.19 56.62 50.50 47.66 54.89 55.73 54.90 53.89 54.35 54.17 51.61 53.12 52.39 49.96 50.05 47.48 48.25 48.71 45.90 47.34 47.27 47.50 47.13 48.06 45.46 46.07 49.09 48.35 48.56 49.42 52.04 54.31 57.71
57.65 57.15 57.40 57.71 58.32 58.99 59.08 59.10 59.01 58.93 59.24 59.79 59.64 55.05 45.77 54.90 55.44 52.72 54.04 52.60 53.88 53.85 53.41 53.63 52.15 50.49 49.18 48.99 47.02 45.52 46.79 42.88 45.37 46.72 46.48 46.57 44.17 48.95 48.47 47.90 47.92 49.04 50.46 52.08 54.61
56.99 56.73 57.10 57.28 57.70 58.26 58.62 58.55 58.48 58.76 58.65 59.13 54.04 52.18 44.31 54.80 50.47 52.82 54.33 51.01 51.73 52.58 52.81 52.24 52.58 48.97 47.29 44.37 42.68 43.74 40.84 42.28 41.41 45.67 45.63 45.32 44.43 46.00 47.32 48.14 47.42 48.53 49.10 49.89 51.16
56.66 56.66 56.89 57.07 57.43 57.75 58.01 58.00 58.50 58.08 56.91 55.62 52.11 47.33 48.01 47.12 51.64 51.99 52.94 52.94 50.28 50.60 49.19 49.33 48.66 45.25 45.47 43.49 38.08 40.00 40.84 41.29 41.69 42.77 43.90 43.65 43.98 46.10 47.26 47.34 48.44 49.25 49.96 50.60 50.25
56.54 56.62 56.82 56.97 57.26 57.77 57.37 55.80 49.69 48.10 49.76 45.31 45.79 45.22 46.89 50.39 52.31 50.65 51.79 50.57 50.65 48.79 43.56 47.20 43.04 40.35 43.13 44.71 45.02 44.42 41.92 40.76 42.66 43.37 42.96 43.04 43.56 45.35 47.46 47.36 47.75 49.17 49.83 49.89 50.11
56.50 56.62 56.77 56.85 57.23 57.54 56.55 49.26 48.87 50.44 43.11 47.46 46.36 47.55 50.12 50.72 45.22 48.42 51.48 46.82 45.98 42.23 45.85 42.85 39.93 44.64 45.65 44.27 42.88 43.05 40.94 40.71 41.40 42.64 42.71 42.90 42.57 45.39 46.76 47.03 47.26 47.46 47.65 48.17 48.74
56.26 56.22 56.41 56.59 56.86 56.06 53.97 51.16 54.88 53.17 43.73 43.85 46.06 46.44 47.75 49.32 45.37 45.61 48.92 48.03 44.17 42.33 42.52 40.79 42.48 43.94 41.91 40.81 40.53 41.49 40.93 40.74 40.40 41.31 42.10 40.93 40.57 43.40 43.95 44.54 45.22 45.55 46.19 47.29 48.38
56.09 55.86 56.02 56.40 53.24 53.61 51.53 54.16 56.18 55.06 39.66 39.83 41.93 44.78 48.21 48.18 43.48 48.61 50.28 47.20 44.49 40.84 42.27 41.92 41.49 40.95 41.08 40.20 42.01 37.76 41.91 41.85 40.21 39.98 36.55 41.07 35.75 41.63 42.99 43.10 44.18 45.83 47.56 48.52 48.86
55.58 55.49 55.87 55.95 52.76 50.22 52.38 56.23 56.36 52.38 27.69 42.09 41.85 48.21 47.96 43.89 44.43 44.56 48.69 46.30 42.09 42.23 41.88 38.91 38.98 39.44 39.56 40.73 42.66 39.90 42.52 41.69 41.55 39.75 38.70 38.28 36.01 40.28 41.21 40.99 43.64 46.12 47.46 48.42 49.41
51.54 52.99 55.31 55.19 55.86 54.44 56.60 55.75 53.21 37.07 27.22 37.76 41.36 40.79 41.20 42.91 42.72 44.38 45.15 47.06 46.21 41.91 42.70 40.27 42.13 42.68 42.33 41.43 42.59 42.10 41.03 40.69 40.84 38.90 32.59 37.71 37.01 38.57 39.53 41.51 43.88 45.69 46.85 47.45 48.05
49.48 51.07 53.07 55.03 51.04 55.82 56.04 52.12 37.61 30.49 40.72 36.57 36.74 40.57 40.50 38.88 40.14 42.02 40.48 39.60 38.45 35.41 36.13 38.87 38.69 41.36 42.23 38.71 41.50 41.76 38.74 32.16 30.53 30.87 30.36 34.60 34.66 38.50 40.41 43.07 45.42 45.06 46.14 47.29 48.41
48.04 49.63 50.09 51.02 52.48 55.18 53.88 43.12 29.71 35.96 37.20 41.60 39.45 39.40 37.31 39.39 39.11 40.29 39.21 37.37 41.90 40.61 37.45 34.08 31.89 38.99 42.02 41.16 38.23 38.98 39.07 33.97 27.27 28.00 31.71 31.25 31.01 37.83 41.87 43.73 47.05 46.90 46.66 47.38 47.80
47.64 47.16 47.90 49.36 51.67 53.26 47.04 33.20 33.58 37.86 41.18 38.65 38.56 35.22 36.39 38.28 38.32 38.53 38.92 38.54 40.98 41.74 36.51 35.11 34.55 39.64 41.26 41.84 42.08 38.13 35.48 40.02 31.54 27.17 31.69 34.59 37.70 39.92 41.02 42.36 44.69 44.90 45.21 46.16 47.29
45.77 44.63 44.48 48.74 50.13 50.42 42.09 35.78 38.45 42.64 43.11 40.68 34.72 37.27 33.59 35.83 35.87 37.07 37.44 41.41 40.46 42.25 42.84 39.46 31.85 37.38 37.97 41.20 40.60 39.86 41.52 33.56 35.30 27.59 27.08 32.20 34.49 36.88 36.63 39.32 42.25 42.96 44.42 45.95 47.23
44.25 37.58 44.12 48.11 48.95 44.52 35.38 37.77 40.79 44.73 44.07 40.04 38.23 35.93 37.05 35.45 36.82 35.64 37.33 40.74 43.07 41.08 41.45 40.81 38.63 33.20 37.59 36.44 36.82 36.17 36.04 37.04 37.54 36.00 32.99 29.90 33.51 41.25 40.67 41.54 42.36 43.92 45.72 45.87 46.03
40.93 34.17 43.98 47.91 35.40 33.89 35.99 40.68 42.68 43.10 45.02 42.65 42.42 39.59 37.63 37.60 35.28 36.32 36.50 39.15 43.43 41.71 37.09 40.00 38.23 31.89 34.28 37.64 38.98 40.12 38.72 38.02 33.04 30.02 33.06 32.23 35.47 40.58 43.61 44.04 45.26 45.15 45.78 46.42 46.82
36.93 37.41 43.54 44.46 31.45 31.90 34.32 38.34 41.68 42.00 42.87 41.72 40.68 41.58 40.33 37.07 33.46 37.10 38.01 40.21 41.00 39.78 38.69 39.16 35.64 29.77 30.44 35.71 36.88 35.93 38.50 40.06 39.82 37.61 32.59 31.61 34.84 39.96 42.30 44.38 45.61 45.29 45.31 45.48 45.47
37.02 32.08 36.94 40.25 36.33 32.87 32.29 34.35 36.93 43.70 42.94 43.71 42.33 42.33 38.94 36.98 39.46 36.05 37.31 39.82 41.08 40.73 40.91 41.54 37.11 33.94 30.85 34.50 37.60 33.69 36.51 37.35 38.00 32.71 33.52 34.25 37.23 37.41 41.39 42.97 44.49 44.88 44.54 44.74 44.93
37.78 32.09 34.27 31.97 33.75 34.61 34.26 33.29 33.33 35.90 41.98 43.47 40.46 40.70 39.00 35.76 36.52 36.12 38.96 38.67 40.05 40.70 40.32 39.53 33.14 35.96 37.64 39.15 38.62 37.83 36.67 37.00 35.50 37.08 34.02 36.96 36.91 40.56 41.26 43.00 44.56 45.48 44.58 44.26 44.03
34.91 32.70 34.68 32.48 33.77 33.40 33.49 33.81 32.41 32.97 34.78 37.47 38.51 40.36 41.16 38.42 38.53 36.14 38.46 38.54 37.89 39.60 38.43 39.14 34.75 36.33 33.45 37.10 35.52 34.34 36.86 37.19 36.39 37.10 37.47 38.15 38.04 43.99 44.39 45.19 44.52 44.05 44.17 43.29 43.42
39.36 39.66 36.01 31.71 32.37 32.25 32.28 33.43 33.58 35.10 35.43 35.15 38.11 38.39 37.65 39.64 42.07 42.64 43.33 42.67 42.02 38.86 37.17 37.09 35.22 33.46 31.74 33.78 34.20 30.40 33.61 36.88 37.32 39.00 39.11 35.27 39.89 42.59 42.15 42.98 43.71 43.46 44.04 43.32 43.93

GFSSW_sfc_wetblb_096.txt.gz
Wetbulb
60.52 60.74 60.54 59.81 60.14 61.22 61.86 62.22 62.57 63.13 63.01 62.51 62.48 61.82 61.25 60.18 60.08 56.20 50.97 55.99 57.98 62.40 59.17 53.11 53.06 53.10 54.33 52.99 54.15 53.51 45.23 43.24 44.86 44.86 45.20 49.35 46.80 47.70 47.50 48.88 49.84 51.83 54.76 59.27 62.94
60.16 60.37 60.24 60.31 60.69 60.58 61.52 61.79 62.24 62.43 62.40 62.49 62.40 61.55 61.08 60.23 54.78 51.46 58.43 63.83 63.39 62.81 53.71 50.86 49.83 51.92 49.47 50.53 50.56 47.37 44.26 46.18 47.89 46.70 46.58 48.24 47.55 46.85 45.05 47.56 47.72 50.74 57.17 61.31 62.19
59.88 59.92 60.06 60.43 60.50 60.44 60.91 61.39 61.50 61.89 62.05 62.02 61.43 61.11 60.46 59.02 50.04 49.40 61.08 62.42 62.83 62.29 55.03 53.77 52.83 51.31 47.68 49.40 48.91 47.26 45.15 48.78 47.42 47.53 49.64 48.14 46.23 48.27 45.77 44.48 47.76 48.76 55.36 59.34 60.23
59.61 59.54 59.84 60.15 60.30 60.38 60.51 60.81 61.13 61.26 61.15 61.20 60.92 60.36 59.89 55.39 40.59 53.91 62.63 62.98 63.40 58.28 54.21 52.31 50.58 48.00 46.33 45.26 48.44 45.12 47.55 48.13 47.90 47.17 47.82 47.34 48.02 46.53 45.54 44.83 49.44 50.63 56.72 59.02 59.19
58.89 59.07 59.31 59.46 59.76 60.14 60.11 60.46 60.70 60.42 60.32 60.57 60.49 59.90 55.14 47.28 48.64 57.20 61.99 62.99 59.85 54.86 51.77 50.66 48.58 48.15 45.34 46.75 47.25 45.63 45.65 47.11 47.14 46.22 46.74 48.27 46.40 44.88 45.16 47.33 48.44 50.60 56.03 57.60 58.30
58.43 58.67 58.67 58.78 59.27 59.84 60.00 60.40 60.06 59.89 60.05 60.02 60.01 59.27 53.10 42.25 54.57 57.67 58.19 57.75 55.16 53.17 51.07 51.28 49.28 50.20 47.02 46.59 45.95 47.12 46.93 45.75 46.27 46.07 45.85 46.38 44.51 44.01 44.82 47.76 47.37 49.08 50.55 55.10 57.14
58.18 58.28 58.06 58.45 58.85 59.52 59.82 60.06 59.50 59.36 59.57 59.66 59.84 55.33 48.83 47.59 53.98 55.96 56.18 54.08 54.43 53.16 50.73 52.41 51.73 48.86 47.90 45.87 46.89 46.87 43.21 44.32 44.60 45.67 44.29 45.03 41.74 42.71 44.53 46.38 46.07 46.09 47.39 51.33 54.81
57.84 57.67 57.61 58.00 58.49 59.08 59.40 59.33 59.22 59.14 59.33 59.81 59.90 53.90 45.17 55.31 53.82 53.47 54.20 52.48 53.44 54.13 52.87 53.16 51.63 50.11 47.43 46.83 45.03 42.93 42.26 38.18 42.00 44.23 43.85 42.84 39.51 44.33 45.25 44.24 43.86 45.01 45.19 48.16 51.04
57.45 57.09 57.43 57.56 57.89 58.39 58.91 59.01 58.71 59.06 59.15 59.78 53.95 51.23 43.96 54.29 49.94 52.25 52.87 50.20 51.20 51.93 51.86 51.29 51.08 46.88 45.61 40.47 38.26 40.67 35.84 37.97 38.79 44.29 42.99 40.73 38.67 42.17 43.53 43.55 42.77 43.13 44.33 46.77 48.14
57.25 56.78 57.19 57.35 57.66 57.87 58.38 58.28 58.73 58.47 57.12 55.73 53.12 45.96 47.46 46.26 50.57 51.18 51.74 51.77 49.59 49.48 47.85 48.02 46.19 42.17 41.09 38.49 32.77 35.37 34.84 39.18 36.57 40.19 39.86 38.63 38.70 42.37 43.32 43.67 42.75 42.20 43.04 44.59 45.28
57.15 56.71 56.90 57.12 57.57 58.12 57.11 55.15 49.96 47.42 49.26 44.23 44.83 45.15 46.81 49.88 51.86 49.64 51.14 49.67 49.41 47.01 41.23 44.49 39.71 37.13 39.47 40.67 41.56 41.38 38.61 36.51 38.53 41.29 38.97 38.80 38.67 41.67 43.06 42.36 41.83 42.84 44.10 45.20 45.93
56.83 56.75 56.87 57.10 57.55 57.64 55.49 47.75 48.03 49.62 41.71 48.16 46.34 47.63 49.68 49.92 44.87 47.56 50.48 45.05 44.78 40.01 43.53 40.43 36.67 42.09 43.64 42.75 40.99 38.18 37.84 36.40 38.33 40.71 38.09 38.85 38.52 40.99 42.28 42.35 43.33 41.96 43.00 44.67 43.88
56.58 56.48 56.58 56.80 57.01 55.74 52.56 50.12 53.34 51.11 41.76 44.13 46.24 46.32 47.19 48.77 44.65 44.71 47.44 45.70 42.44 40.14 40.86 37.90 40.35 43.54 41.44 38.48 38.88 37.53 37.30 36.00 36.90 38.42 37.79 34.52 34.90 38.81 40.55 41.54 41.57 40.85 41.52 42.39 42.71
56.48 56.21 56.16 56.27 52.61 52.28 50.53 54.63 55.11 53.52 37.13 37.68 40.81 44.70 47.81 47.92 43.08 48.02 48.27 45.71 42.34 39.79 40.88 39.81 41.26 40.58 38.88 38.01 39.87 35.66 39.52 39.89 37.65 35.49 30.19 35.67 26.83 34.41 36.52 38.06 40.50 42.00 40.60 41.69 43.53
56.21 55.97 55.94 55.45 50.63 49.04 52.03 55.27 54.94 51.06 26.03 40.25 40.83 48.91 47.61 43.51 43.26 43.36 47.13 44.68 40.30 40.36 40.13 36.74 37.15 37.69 37.19 38.86 40.86 37.40 40.45 38.91 38.32 35.54 31.39 31.09 28.91 32.32 37.48 36.39 38.58 41.38 42.79 43.78 44.37
55.82 55.62 55.44 53.02 53.66 52.52 54.25 54.43 51.84 36.25 26.11 36.39 40.16 40.49 40.61 42.18 42.14 43.28 43.35 45.13 44.43 40.46 40.04 37.82 39.89 39.64 39.40 39.93 40.61 40.68 38.61 38.09 36.18 33.87 25.88 31.58 30.30 30.21 32.87 36.61 38.80 41.75 42.66 44.23 43.86
52.33 55.08 53.79 53.64 49.63 54.83 54.85 50.28 34.30 27.34 39.76 34.84 35.25 39.57 38.74 37.73 39.18 40.08 38.81 37.03 35.70 32.40 32.89 36.16 36.15 38.65 40.16 36.39 38.04 37.52 34.51 25.41 24.10 23.12 23.27 28.78 29.11 33.28 35.61 38.34 41.11 41.05 41.71 42.76 43.72
50.07 53.74 51.35 51.69 53.37 54.93 51.44 40.31 26.76 33.33 35.76 40.05 38.66 38.60 35.51 38.16 37.49 38.66 36.97 34.63 38.38 37.00 34.48 31.25 28.78 36.02 38.79 37.72 34.88 35.20 34.63 27.52 20.43 22.14 24.39 27.51 25.93 32.53 36.36 39.31 42.48 42.85 42.34 43.09 43.47
49.41 48.39 48.37 48.80 52.18 53.27 45.02 30.73 29.74 35.58 39.49 37.46 37.63 34.07 34.69 37.07 36.93 36.94 35.95 35.86 38.12 38.83 33.16 32.09 31.67 37.61 38.76 39.14 38.86 34.52 31.78 35.60 27.39 20.34 23.86 27.15 31.63 36.13 37.43 37.98 41.28 41.22 41.61 41.71 43.04
44.80 44.60 44.11 48.28 50.33 49.82 40.00 33.05 36.13 41.98 41.79 39.55 32.71 35.85 32.10 34.26 34.04 34.98 35.12 38.84 38.00 40.46 39.32 36.19 29.13 35.80 36.15 38.13 37.74 36.17 37.99 29.61 29.85 17.67 17.65 25.46 26.31 30.27 32.89 36.31 39.84 40.07 40.33 41.78 42.90
42.91 36.89 43.25 47.88 49.37 43.53 33.54 34.64 38.73 43.88 43.35 38.66 36.15 34.44 35.75 34.27 35.37 34.16 35.26 38.29 40.79 39.85 39.79 36.99 35.11 31.10 34.83 33.55 33.79 33.52 32.87 33.84 33.47 30.83 22.72 20.27 25.29 34.12 36.42 38.32 39.69 40.22 41.82 42.54 42.09
41.24 32.89 44.03 46.95 36.84 37.28 34.05 38.40 41.96 42.13 44.30 41.67 40.85 37.77 36.16 36.45 34.33 34.58 34.91 37.72 41.99 40.82 36.22 37.74 35.27 28.07 30.83 34.61 35.95 35.25 35.29 35.08 29.10 25.88 26.69 27.39 27.32 36.69 37.59 39.75 41.00 41.11 42.63 42.37 42.81
37.36 36.48 44.03 42.83 31.40 32.11 35.97 38.24 41.08 41.51 41.63 40.94 39.69 39.83 38.67 36.76 32.52 35.88 36.40 38.74 40.20 39.57 37.34 37.78 33.10 25.35 27.96 32.48 34.32 33.63 35.48 36.53 35.48 31.88 25.91 23.10 26.86 37.18 37.28 38.91 41.65 41.29 41.96 43.06 42.84
37.58 32.06 36.22 37.63 33.03 32.52 33.84 35.56 36.08 42.88 41.22 42.76 41.68 41.15 37.41 35.76 37.59 34.62 36.10 39.07 39.62 39.75 41.57 41.29 35.41 31.52 27.85 30.25 34.14 30.40 33.72 35.25 34.73 26.85 27.19 28.10 31.48 34.09 36.28 38.63 40.71 41.84 42.47 43.04 42.61
37.39 32.35 34.70 30.72 32.48 33.69 33.68 34.15 34.53 35.07 41.19 42.88 40.44 40.03 37.48 33.37 34.04 34.53 37.16 37.46 39.04 39.96 38.60 38.29 30.55 33.13 34.38 35.66 35.48 34.26 33.99 34.54 32.67 34.90 30.64 33.90 33.59 35.53 37.20 39.58 41.82 43.06 42.34 42.16 41.83
34.54 31.75 34.04 32.67 34.34 33.85 32.75 32.86 33.67 36.09 36.86 38.45 38.14 40.04 39.38 35.60 35.51 33.59 36.77 36.63 35.55 37.80 36.50 37.41 29.80 32.70 28.01 34.43 33.37 30.69 34.05 35.17 35.45 35.50 35.38 35.56 33.52 38.75 40.71 42.06 40.93 42.21 41.81 41.69 42.03
38.72 39.30 36.01 33.11 33.19 30.98 31.05 33.22 33.23 35.22 34.62 35.48 37.70 38.96 38.51 39.27 40.69 41.06 41.29 40.76 39.81 36.16 35.15 33.99 31.98 29.74 25.95 31.29 30.44 26.33 31.09 33.40 35.09 36.71 36.07 32.88 37.61 38.04 37.78 40.40 41.01 41.39 41.79 41.86 42.02

GFSSW_sfc_wetblb_099.txt.gz
Wetbulb
60.51 60.80 61.12 60.92 60.79 61.48 61.75 62.13 62.76 62.56 62.77 61.85 61.33 61.37 60.64 59.42 59.54 56.00 50.43 56.30 56.76 62.86 59.45 54.94 56.79 56.57 54.41 48.64 50.33 48.90 42.16 39.92 42.38 41.60 42.05 45.34 44.23 45.79 46.93 48.09 48.59 51.33 53.70 57.04 61.75
60.26 60.26 60.82 60.64 60.70 61.19 61.66 61.82 62.36 62.39 62.60 62.16 62.58 61.77 60.35 59.12 53.57 51.44 58.49 63.26 63.53 63.20 52.91 54.63 54.23 55.23 48.73 47.46 47.53 44.09 41.43 43.59 45.06 44.16 43.68 45.27 45.38 45.09 45.16 45.34 46.38 54.06 58.74 60.85 61.12
59.98 60.02 60.03 60.26 60.52 60.91 61.36 61.28 61.61 62.04 62.29 62.16 62.25 61.29 60.16 57.54 50.62 50.74 60.59 62.09 63.19 62.88 54.07 54.36 54.38 52.38 46.12 46.68 45.08 43.79 42.01 45.47 44.67 45.95 47.42 45.62 43.63 45.43 44.10 41.86 46.88 53.92 57.01 58.61 58.70
59.56 59.77 59.57 60.16 60.42 60.62 61.02 61.33 61.22 61.47 62.05 61.89 61.61 60.56 59.44 54.70 45.16 53.88 61.90 63.24 63.00 59.93 53.16 51.60 50.96 49.42 44.36 43.33 46.76 41.52 45.38 45.27 46.32 45.65 46.34 45.39 45.54 43.95 43.40 44.03 48.17 56.57 58.61 58.16 57.79
58.98 59.21 59.11 59.83 60.14 60.38 60.69 60.79 60.80 61.11 61.30 61.60 60.79 60.04 54.55 47.04 48.74 56.30 61.20 63.26 60.31 55.81 51.00 49.53 48.36 50.19 43.74 44.95 45.34 42.78 42.39 45.03 45.48 45.23 45.67 46.27 43.33 43.39 42.94 44.05 49.06 55.74 58.03 57.41 57.60
58.56 58.53 58.69 59.04 59.58 59.94 60.23 60.59 60.63 60.61 60.62 61.23 60.49 59.37 50.23 40.38 53.42 58.79 59.29 58.62 56.09 52.77 50.64 49.96 49.55 51.22 45.97 44.83 43.58 44.81 44.23 43.38 43.67 43.44 44.67 44.09 41.50 42.99 43.09 44.66 48.21 54.34 55.14 56.28 57.45
58.32 58.18 58.26 58.70 59.02 59.44 59.67 60.32 60.27 60.00 60.21 60.72 60.41 54.90 46.60 45.87 52.52 55.80 57.96 55.67 54.67 52.76 49.32 50.82 50.24 47.95 46.59 43.74 46.46 44.04 40.71 41.18 41.47 43.29 43.84 43.77 40.28 40.71 43.43 44.97 45.56 46.78 50.34 54.79 55.77
58.06 57.84 57.90 58.10 58.46 58.97 59.45 59.88 59.51 59.56 59.76 60.12 59.92 51.18 43.46 53.45 51.52 52.93 53.88 51.71 53.24 53.70 51.47 51.96 50.50 48.40 46.11 44.35 42.74 41.17 39.23 35.52 40.39 42.56 42.25 42.38 37.25 42.70 42.73 43.55 42.88 43.61 43.44 48.14 52.62
57.56 57.41 57.63 57.75 57.83 58.51 59.06 59.13 58.84 59.40 59.59 59.99 52.31 48.52 41.83 53.24 48.24 51.06 51.15 49.04 50.32 50.84 50.25 50.78 49.57 45.49 43.71 38.39 35.22 36.36 32.07 34.28 36.96 41.74 41.36 39.99 36.90 41.26 42.92 42.48 41.48 41.12 42.80 45.70 47.56
57.30 57.29 57.30 57.56 57.70 58.19 58.37 58.48 58.82 58.54 57.66 56.07 52.54 42.73 46.11 44.54 48.86 49.93 50.17 50.26 47.74 47.06 46.27 46.16 43.96 40.23 37.35 34.29 29.67 31.44 31.37 34.43 34.35 39.31 38.98 36.80 36.67 39.43 42.12 42.19 41.94 41.15 41.07 43.88 45.32
57.16 57.13 57.19 57.37 57.53 58.21 56.91 54.69 48.78 45.98 48.66 42.78 43.28 42.55 45.32 48.18 50.04 47.78 49.87 47.95 47.37 44.14 38.32 42.35 37.65 35.40 36.74 37.61 38.19 37.61 35.24 34.91 35.66 39.34 37.94 36.83 36.60 39.10 40.73 40.31 41.39 39.50 40.84 41.63 42.91
57.12 57.06 56.97 57.15 57.61 57.58 54.52 45.76 45.80 47.40 40.92 47.03 45.72 45.69 47.68 48.06 43.16 45.62 49.16 43.43 42.27 37.47 40.30 38.57 35.45 40.05 41.49 40.63 39.40 36.53 34.58 32.44 36.00 38.81 37.02 36.47 37.50 38.97 39.84 39.99 41.11 41.60 41.13 42.48 41.43
56.98 56.74 56.64 56.96 57.06 54.89 50.63 47.46 51.82 48.77 39.25 42.80 45.21 44.61 45.50 47.37 42.72 42.82 46.38 43.63 40.32 37.65 37.76 35.95 38.86 42.25 40.64 38.08 37.25 36.62 34.54 33.00 34.65 36.48 36.08 34.09 33.05 37.00 39.99 39.79 40.08 40.27 41.12 41.54 41.40
56.78 56.45 56.33 56.44 53.01 52.13 49.21 53.53 52.36 50.58 33.22 36.83 39.64 44.00 46.49 46.43 41.05 46.58 46.87 43.54 40.20 37.80 38.48 37.43 40.77 40.20 38.25 36.63 38.08 34.18 38.68 37.56 36.05 33.71 29.05 33.17 25.98 32.27 35.91 37.15 38.53 40.10 39.33 40.55 43.37
56.48 56.14 56.10 55.89 51.55 49.15 50.39 54.01 52.59 48.74 22.33 37.96 39.05 47.90 46.42 41.88 41.71 41.67 45.16 42.37 38.16 38.25 38.53 35.79 37.14 37.43 36.24 37.74 39.08 35.83 39.18 37.55 35.96 33.54 30.06 28.98 26.86 30.07 34.40 35.00 37.47 38.65 40.12 39.88 42.19
55.98 55.88 55.88 53.35 52.10 51.98 52.77 53.02 49.53 34.33 23.12 34.09 39.08 39.56 39.57 39.71 40.35 41.65 41.80 42.69 42.13 38.85 37.90 36.62 39.32 39.20 39.10 38.25 39.50 39.94 37.27 35.92 33.65 31.32 24.63 28.10 27.63 27.93 31.82 35.30 36.32 38.00 39.76 41.47 41.43
52.72 55.63 54.69 53.06 47.62 53.05 52.71 48.42 31.91 26.32 36.92 32.14 33.39 38.53 37.00 35.70 37.01 37.48 37.26 35.01 33.80 30.98 30.62 33.99 34.48 37.40 39.32 36.61 38.04 37.30 32.31 24.33 23.26 23.04 22.97 25.32 25.75 30.74 34.92 37.02 38.51 39.36 39.77 40.52 40.98
51.11 55.34 53.49 52.13 52.49 52.78 50.21 38.22 25.03 31.16 32.37 37.38 36.18 37.03 33.10 36.13 34.70 35.91 34.37 32.31 35.44 34.92 31.82 29.09 27.77 34.96 37.90 36.71 33.97 32.91 32.45 24.20 18.24 19.79 22.93 26.20 25.18 31.46 35.54 39.29 40.36 41.97 40.92 40.57 40.48
51.86 50.29 49.11 48.26 52.62 52.92 43.60 29.65 27.48 32.19 36.58 34.97 35.90 32.46 30.26 34.54 34.48 33.33 33.46 34.94 35.73 35.76 31.57 29.68 30.25 36.50 37.17 37.88 38.59 32.79 30.18 34.56 26.36 16.20 21.79 24.87 28.31 34.85 35.60 36.91 38.77 39.31 40.16 39.70 40.67
44.21 44.69 43.57 48.40 50.67 48.99 38.61 31.50 32.97 38.83 39.08 37.14 30.62 32.75 27.37 32.11 31.15 30.71 32.02 36.32 35.06 37.62 36.94 34.72 28.63 34.63 35.50 37.36 36.81 34.79 36.85 29.61 28.26 19.25 17.00 22.97 23.78 28.14 31.82 34.14 37.45 38.17 38.98 39.58 40.76
40.94 37.41 42.83 47.52 50.17 42.83 33.00 33.01 36.45 41.99 41.00 36.25 33.14 31.65 31.62 30.90 31.41 30.67 31.92 35.18 38.44 37.98 38.88 35.41 33.60 30.67 34.11 32.84 32.29 32.48 31.39 31.95 32.62 27.34 19.85 17.59 24.41 32.60 35.11 36.61 37.92 39.01 40.29 40.83 40.76
38.42 31.73 42.29 46.31 38.35 37.29 33.94 35.69 39.87 40.16 42.66 39.68 37.44 36.03 34.19 33.04 30.56 31.44 31.33 34.72 40.57 39.95 35.22 36.08 33.01 27.58 30.04 34.02 34.98 34.11 33.64 33.15 27.61 25.48 25.92 25.42 26.76 35.63 36.18 36.63 39.78 39.11 40.55 40.80 41.56
33.19 33.93 43.02 42.81 30.92 31.90 36.04 37.07 38.98 40.00 40.41 39.79 37.77 37.70 36.61 33.90 30.27 32.58 33.66 36.93 38.59 39.14 36.36 37.36 31.22 24.22 28.07 31.82 33.64 32.55 33.98 34.92 33.29 28.80 24.06 21.34 26.34 35.72 35.15 35.58 39.03 39.16 39.41 41.55 40.87
36.62 31.26 34.57 35.42 33.67 34.18 33.33 34.14 34.59 41.33 40.65 41.36 39.39 38.92 35.99 33.99 34.89 32.53 33.75 36.85 38.73 39.11 41.39 41.29 34.37 30.32 26.89 29.20 32.66 29.67 32.37 33.36 33.02 25.89 26.12 26.60 30.94 33.40 34.52 35.90 37.63 38.83 40.67 41.49 40.85
35.28 31.73 34.58 29.13 31.47 33.10 35.85 34.81 33.16 34.23 39.16 40.45 38.04 37.38 35.40 31.28 33.30 32.72 36.11 35.81 37.30 39.48 38.54 38.25 28.87 31.14 31.51 33.22 33.30 32.79 33.49 32.96 32.05 34.71 29.73 33.64 32.45 34.15 35.54 37.06 39.48 40.80 41.23 41.26 40.67
32.29 30.17 33.77 32.49 33.38 33.02 33.23 32.39 33.62 33.70 36.16 36.77 35.98 38.34 37.43 33.29 34.02 32.01 35.30 34.89 33.77 35.98 34.86 36.28 28.29 31.75 28.00 32.42 33.21 30.88 33.01 34.69 35.12 34.98 34.33 35.16 33.62 37.72 38.32 38.98 39.16 40.51 41.26 41.18 41.24
35.86 36.99 34.62 33.93 31.80 29.98 30.68 32.91 34.50 36.97 35.04 36.58 36.64 37.69 37.46 38.47 39.77 39.30 39.66 39.14 38.08 35.31 33.81 33.91 31.26 27.78 27.83 29.03 29.69 26.93 31.38 32.46 34.03 36.48 35.72 31.98 36.95 36.30 36.85 38.92 40.15 40.59 41.72 41.90 42.06

GFSSW_sfc_wetblb_102.txt.gz
Wetbulb
61.05 61.07 61.35 61.44 61.83 62.52 62.95 63.10 62.68 62.90 62.39 62.83 62.17 60.94 60.16 59.90 59.31 55.76 50.09 55.39 57.19 63.83 60.81 55.56 57.45 57.94 55.72 48.33 49.19 46.73 40.69 38.23 41.22 39.53 41.39 44.17 43.78 43.86 45.90 47.62 49.27 51.49 54.35 57.57 60.52
60.25 60.40 60.92 61.11 61.33 61.61 62.32 63.01 62.02 62.26 62.25 62.33 61.99 61.51 59.63 58.91 53.93 51.77 58.01 61.60 63.78 63.33 57.32 55.98 54.51 54.19 48.66 47.22 47.08 42.67 39.79 42.06 44.78 43.08 43.55 44.32 44.50 44.34 45.32 44.88 50.80 53.36 56.44 60.52 59.70
59.85 59.96 60.48 60.59 60.83 61.33 61.72 62.11 62.02 62.15 62.18 61.76 61.83 61.08 58.96 57.39 53.47 53.55 61.69 62.47 64.14 62.58 57.91 57.91 56.45 52.27 48.21 47.79 44.89 43.17 40.62 45.26 45.04 44.26 46.00 45.01 42.99 43.12 44.42 40.80 49.68 53.35 56.66 58.89 58.41
59.62 59.49 59.85 60.01 60.48 60.92 61.34 61.59 61.85 61.80 62.22 61.80 61.58 60.28 58.73 54.49 43.64 54.99 62.72 63.05 62.77 58.49 57.70 56.94 55.28 50.49 46.77 43.68 46.42 41.41 44.75 44.61 46.24 46.11 45.38 44.43 44.32 41.73 42.32 43.40 50.37 57.40 58.65 58.47 58.05
58.98 58.91 59.38 59.45 60.26 60.38 60.37 60.88 61.62 61.73 61.87 61.80 61.12 59.88 54.32 47.26 50.94 55.66 62.24 62.59 59.76 55.64 53.13 54.02 53.16 50.23 46.38 45.44 45.34 42.91 42.52 43.50 44.31 44.93 44.11 44.55 42.25 42.82 42.51 42.42 53.84 57.05 58.00 57.87 58.26
58.63 58.34 58.65 58.69 59.80 60.29 60.55 60.95 61.08 61.46 61.49 61.42 60.80 59.04 49.20 44.85 53.54 56.36 57.80 59.37 57.47 53.32 50.16 55.75 54.06 53.74 49.64 46.90 44.36 44.86 43.50 42.27 43.28 42.74 42.94 42.92 40.98 42.85 42.87 44.67 54.23 56.28 56.15 57.13 57.64
58.43 58.02 58.21 58.64 59.32 59.87 60.00 60.39 60.84 60.68 60.97 60.90 60.46 52.95 46.51 47.37 50.72 57.27 58.80 57.53 55.74 52.72 49.27 52.09 56.27 53.30 50.50 44.70 49.55 45.14 39.27 40.21 40.25 41.80 41.64 42.72 39.08 39.72 42.66 46.72 52.83 54.18 55.15 56.52 57.15
58.19 57.71 57.76 58.26 58.76 59.12 59.25 59.84 60.04 60.04 60.64 60.79 59.82 49.99 41.21 50.95 51.38 54.20 54.81 53.27 54.27 53.46 51.44 51.85 54.18 52.74 46.38 46.37 43.32 41.31 38.05 34.54 38.68 41.53 40.35 40.23 36.01 41.55 41.93 45.20 48.68 49.83 51.06 54.50 55.66
55.93 57.31 57.59 57.77 58.06 58.18 58.84 59.28 59.14 59.84 60.31 59.85 51.19 45.51 40.57 52.96 48.66 50.97 51.19 49.80 51.51 52.11 51.15 50.93 51.16 45.11 45.23 39.28 36.87 34.81 32.07 33.30 35.76 40.97 39.18 38.50 36.57 41.03 41.50 42.28 42.03 42.20 44.61 49.10 52.81
54.68 57.38 57.35 57.50 57.70 57.86 58.12 58.54 58.68 58.58 57.51 54.10 51.90 42.39 44.02 43.08 47.56 49.31 48.95 49.91 48.58 47.84 46.24 45.10 43.49 40.20 38.91 36.06 32.34 32.10 32.82 32.56 32.43 38.01 37.16 36.14 37.32 38.55 39.98 40.22 40.59 39.79 40.35 42.70 46.28
54.49 57.24 57.23 57.15 57.58 58.17 56.91 53.72 48.36 46.47 48.58 42.55 43.19 42.81 43.20 46.62 48.93 47.32 48.85 47.06 48.08 44.91 39.51 41.70 37.59 36.29 39.15 36.82 38.15 37.23 35.34 34.88 33.99 37.58 36.57 36.31 36.11 38.33 39.56 38.98 38.75 38.95 39.46 41.30 43.73
55.63 57.34 57.21 57.27 57.79 57.55 53.98 46.47 46.28 47.01 41.11 46.59 45.53 44.71 46.33 46.63 42.05 44.79 47.74 42.75 41.81 37.99 40.20 38.80 35.92 40.63 41.48 39.91 38.75 36.71 34.48 32.06 34.41 36.60 35.51 34.65 36.42 37.36 38.12 38.53 39.39 40.07 39.22 42.01 41.55
55.67 57.00 56.71 57.04 57.31 54.86 50.27 46.88 50.80 48.68 37.55 40.82 44.48 43.62 44.50 45.43 40.70 42.05 45.30 42.87 39.81 37.20 37.56 35.52 38.16 41.22 39.64 37.50 36.40 33.42 33.38 32.12 33.98 34.97 34.21 32.88 32.71 35.12 39.22 38.05 38.86 39.80 39.35 40.40 41.22
53.43 56.72 56.46 56.74 53.36 52.52 47.64 51.64 50.52 48.08 32.58 34.92 39.28 42.68 45.29 45.31 39.39 45.61 46.07 43.27 38.67 37.67 37.08 36.84 40.19 39.39 37.68 37.33 38.41 32.70 37.27 36.48 34.55 31.93 28.29 32.04 25.97 30.40 36.16 37.22 37.94 39.39 38.90 40.47 40.25
52.45 56.63 56.29 56.38 52.09 48.85 49.99 53.00 50.84 46.75 21.62 36.24 37.91 47.08 45.03 40.90 41.22 41.46 44.70 41.51 36.51 36.61 37.59 35.80 36.30 36.11 36.49 38.14 38.66 35.85 38.51 37.10 34.62 30.61 29.74 27.94 26.46 29.69 32.06 34.08 36.40 38.36 38.16 39.32 40.81
51.37 56.11 56.05 54.39 52.64 52.58 51.79 52.34 47.93 33.35 23.13 32.41 38.29 39.21 38.55 39.23 40.07 41.08 41.47 41.85 40.81 37.44 37.22 36.96 38.33 38.85 38.76 38.43 39.10 38.95 36.42 34.45 31.78 29.71 24.75 27.80 27.94 27.46 30.13 34.63 37.85 36.54 38.57 39.04 40.52
50.75 55.73 54.94 54.13 48.63 52.94 51.79 47.06 31.64 24.33 35.48 30.64 32.76 37.93 36.96 34.62 35.78 36.23 36.95 34.73 33.38 29.95 31.76 32.91 34.26 36.30 38.56 36.41 37.89 36.56 33.83 25.17 23.29 22.56 22.97 24.51 24.38 31.14 32.86 35.52 36.53 38.13 38.67 39.60 40.86
50.32 54.21 54.44 52.20 53.32 52.50 48.95 37.38 24.36 30.91 31.03 35.11 35.30 36.56 32.96 35.42 34.47 34.71 34.05 33.38 34.78 33.85 30.51 29.88 27.23 34.59 37.41 36.61 34.22 32.43 33.70 24.44 17.69 18.67 22.18 26.06 24.38 31.70 35.12 35.87 37.66 38.35 39.36 39.50 40.09
49.66 53.34 49.67 49.20 52.95 52.13 42.33 29.81 27.98 31.87 35.46 33.46 35.28 32.16 30.14 35.14 34.23 32.28 32.52 34.88 35.62 34.33 30.60 28.77 29.44 35.68 36.16 37.00 38.29 33.87 30.68 33.60 25.90 17.08 22.00 25.07 27.49 33.74 34.83 36.34 36.65 37.60 39.23 38.97 39.01
43.84 47.46 43.73 48.42 52.97 49.01 37.98 31.49 31.26 37.63 37.29 36.84 30.14 32.70 28.77 32.56 31.38 30.04 30.98 37.20 34.69 36.55 36.08 33.48 28.40 33.94 34.92 36.74 36.26 35.40 36.72 30.06 27.10 17.97 17.20 23.47 23.44 27.48 30.94 34.42 36.36 36.20 38.09 37.89 39.10
41.06 38.60 42.84 47.10 51.05 43.73 33.07 32.91 35.30 39.40 39.14 35.27 32.66 31.04 31.56 31.78 31.68 29.42 30.74 33.22 37.54 35.71 36.00 34.74 32.99 30.02 33.89 32.86 32.33 32.44 30.76 30.45 31.08 27.31 22.08 17.57 24.84 31.65 34.66 36.71 36.49 37.06 37.85 39.04 39.18
36.54 31.81 42.16 47.82 38.66 38.46 34.67 35.06 38.95 39.43 40.03 38.93 36.90 35.11 33.05 33.62 30.86 31.13 29.82 33.74 39.27 37.35 33.45 35.18 32.42 26.84 29.70 33.64 34.83 33.52 33.14 32.42 29.64 25.33 25.06 25.01 26.83 34.24 35.00 36.15 37.39 38.06 39.15 39.01 40.00
32.20 32.58 41.83 44.00 31.68 33.17 36.67 36.95 38.35 38.96 38.97 38.01 35.76 36.69 35.85 34.45 30.87 32.28 32.31 36.32 38.24 37.71 35.33 36.19 30.63 23.89 27.99 31.47 32.88 31.62 32.55 33.83 31.68 28.68 25.89 22.35 26.61 33.82 33.97 35.21 36.19 38.34 38.76 39.88 39.38
35.22 30.50 32.72 35.26 34.15 35.19 34.23 34.69 34.69 40.99 40.31 40.31 37.81 37.63 35.22 33.08 35.08 31.94 32.29 35.87 37.91 39.64 41.39 40.47 32.64 29.96 26.76 29.20 32.66 29.78 32.14 32.68 32.24 25.57 24.80 26.70 30.42 32.54 33.84 34.87 36.33 37.95 39.33 39.97 39.61
35.92 31.22 31.84 28.99 31.79 35.94 36.44 34.78 33.38 34.85 39.10 39.21 36.73 36.03 34.79 30.80 32.52 31.63 34.37 34.07 35.67 39.36 38.80 38.24 27.61 30.33 30.21 32.56 33.06 31.88 32.61 33.18 31.86 34.61 30.26 33.37 29.53 34.55 34.74 35.72 37.06 38.55 39.22 39.57 39.59
31.65 31.84 33.94 32.19 32.58 35.98 36.26 33.69 33.59 33.53 35.62 33.86 34.95 36.66 36.56 32.90 34.46 30.40 34.32 33.28 32.64 34.51 35.12 35.17 25.66 30.29 27.37 31.72 32.29 29.58 32.41 33.89 34.30 33.95 33.24 33.59 31.58 36.35 36.29 37.12 37.57 38.81 39.88 40.18 40.62
36.38 36.87 35.03 32.90 31.42 30.95 32.55 33.63 34.66 36.27 35.51 36.49 36.85 37.22 35.97 37.63 38.88 38.34 39.47 38.10 37.16 34.93 33.15 33.46 29.84 26.26 27.38 29.72 30.48 26.69 30.99 31.78 33.44 36.07 35.19 31.43 36.53 35.39 35.54 36.71 38.26 38.80 40.41 41.19 41.61

GFSSW_sfc_wetblb_105.txt.gz
Wetbulb
61.03 60.99 61.31 61.25 61.51 62.16 62.81 63.09 63.50 63.16 62.12 62.74 61.42 60.88 60.67 60.15 59.49 54.92 49.94 55.44 58.73 64.15 60.85 55.74 56.61 55.81 53.41 48.98 47.38 45.38 39.38 37.48 39.66 38.36 40.09 43.97 42.45 43.53 45.50 47.35 48.08 51.26 54.68 57.32 60.89
60.97 60.75 60.99 61.18 61.44 62.11 62.41 62.89 62.98 62.68 62.33 62.53 61.11 61.11 59.98 59.46 53.64 50.69 57.78 59.34 61.55 64.39 55.31 53.75 53.74 52.80 49.14 47.50 46.48 41.58 38.47 41.31 44.15 41.67 42.42 43.84 43.00 44.39 46.12 47.58 49.62 51.73 55.14 59.52 61.51
60.09 59.91 60.36 60.86 61.20 61.29 61.97 62.49 62.44 62.29 62.17 62.20 61.34 60.85 59.20 57.12 52.42 51.80 62.09 60.81 60.90 61.24 59.10 58.11 55.50 53.04 48.44 48.85 45.36 41.45 39.30 42.89 44.86 43.40 44.69 44.07 42.27 42.84 44.72 42.04 49.92 51.28 55.75 57.84 60.25
59.67 59.50 59.82 60.14 60.70 61.25 61.64 62.23 61.63 62.02 62.07 61.66 61.38 60.16 58.41 53.06 39.53 56.15 62.16 64.08 63.11 59.35 59.15 56.94 54.39 49.69 47.69 45.44 47.35 39.45 43.87 42.91 45.30 44.54 44.16 42.95 43.59 42.77 43.73 44.45 50.26 55.36 58.48 57.66 59.71
59.37 58.99 59.19 59.69 60.06 60.74 61.14 61.57 61.72 61.70 61.44 61.57 61.16 59.47 53.35 49.37 51.30 54.55 62.32 62.55 58.69 56.56 55.84 55.35 52.23 50.11 46.89 46.85 47.43 41.92 43.35 43.23 44.04 43.80 43.56 44.00 41.04 42.26 42.59 42.29 54.34 56.56 58.31 57.07 58.76
58.24 58.65 58.41 58.94 59.56 60.34 60.80 61.06 61.69 61.60 61.41 61.28 60.31 58.71 49.88 46.10 55.21 55.70 57.98 57.46 55.88 52.52 54.09 56.11 53.99 53.15 49.08 47.70 46.34 45.87 45.55 42.95 43.41 42.19 41.74 42.66 39.99 41.50 42.69 46.54 54.36 56.02 56.21 57.22 56.89
57.31 58.20 57.93 58.68 59.08 59.75 60.14 60.52 61.13 60.86 61.06 61.07 59.77 53.77 48.04 50.75 51.01 55.62 57.77 56.94 55.70 52.43 53.62 55.93 55.31 53.47 49.99 46.66 50.00 47.44 43.31 43.56 41.18 41.16 40.33 41.98 38.19 39.81 40.71 50.27 53.39 54.59 55.50 55.97 56.80
54.53 57.80 57.53 58.37 58.57 59.15 59.67 60.35 60.38 60.53 60.55 60.80 59.06 50.77 46.25 51.03 51.71 55.84 55.95 53.80 55.12 52.93 52.50 55.14 57.09 53.30 49.10 48.94 44.65 42.45 39.76 33.77 40.24 40.69 39.43 39.88 36.42 41.26 41.27 50.50 51.76 52.36 52.30 54.02 55.33
55.12 57.24 57.42 57.77 58.01 58.52 59.38 59.77 59.90 60.44 60.71 59.88 52.15 46.65 41.13 52.86 48.47 51.17 53.15 53.15 52.37 51.50 50.79 51.55 54.45 47.66 47.52 40.13 38.43 38.37 34.09 31.88 36.52 39.72 38.17 37.86 36.09 39.88 40.04 46.86 50.21 50.10 51.20 52.84 54.57
55.36 55.71 57.26 57.33 57.58 58.03 58.71 59.18 59.30 59.21 56.68 53.81 51.77 40.10 43.57 42.46 46.88 49.63 47.77 53.68 50.66 48.78 47.10 45.10 45.93 42.47 42.20 38.17 31.50 33.98 32.58 33.57 34.03 37.34 35.90 35.42 37.10 37.24 38.76 41.65 45.80 46.43 47.11 49.26 52.58
55.46 54.70 57.11 57.10 57.38 58.37 57.62 54.80 49.73 48.59 48.91 42.15 43.00 41.15 42.02 45.26 48.11 46.24 47.42 47.30 49.29 47.60 39.52 41.71 37.62 35.68 40.30 42.69 38.92 37.37 36.18 34.96 36.07 38.10 36.26 35.82 36.62 38.90 37.68 35.15 37.68 39.14 39.86 42.07 47.69
54.98 54.59 57.35 57.10 57.56 57.80 54.88 48.69 46.34 47.68 42.06 45.56 45.46 43.59 44.91 45.69 41.37 43.59 47.41 42.12 41.99 39.18 41.12 38.27 34.50 40.05 41.87 40.00 39.17 36.19 35.72 34.25 35.47 37.37 35.54 33.47 35.84 35.40 36.87 37.32 38.44 39.21 38.46 38.85 40.15
52.55 54.72 56.83 56.87 57.33 55.31 51.07 46.04 50.68 49.65 38.44 40.76 44.28 42.89 43.33 44.44 39.91 41.25 44.30 40.87 39.36 36.90 37.90 34.80 37.16 41.26 40.31 38.03 36.80 35.50 35.49 33.60 34.21 35.52 34.40 31.86 33.33 33.86 37.72 36.65 37.54 39.02 38.70 38.49 40.98
51.36 53.85 56.14 56.68 53.41 52.87 48.54 50.14 51.73 46.48 31.50 34.62 39.27 42.05 44.08 43.63 38.13 44.62 44.39 41.85 37.68 36.65 37.28 37.22 40.95 39.33 37.93 37.42 38.66 33.90 36.74 36.55 34.50 32.55 28.58 32.68 25.38 30.47 34.87 37.05 36.93 38.38 38.08 39.33 39.45
50.94 52.58 54.53 56.49 52.41 49.42 50.02 50.44 49.10 45.07 19.33 35.83 37.50 46.00 44.23 39.60 40.11 40.58 43.53 39.75 35.14 35.71 35.56 33.88 36.88 37.44 36.49 37.87 39.44 36.37 37.71 36.62 35.15 31.55 28.75 27.66 26.02 29.16 30.34 33.89 36.34 37.42 39.23 39.34 39.28
50.40 51.87 52.60 54.81 53.39 52.84 52.60 51.18 46.94 31.75 19.67 32.05 37.82 37.45 37.59 38.46 38.09 39.69 40.37 40.19 39.66 35.84 35.83 36.25 38.34 40.55 39.82 39.76 40.12 38.73 36.13 34.48 32.34 30.57 25.16 29.23 28.41 27.66 29.63 33.58 36.70 40.68 39.04 38.97 39.25
49.68 50.75 52.28 55.10 49.92 53.11 52.11 46.40 30.59 21.43 33.29 29.78 32.58 36.92 35.71 33.20 34.78 36.30 36.33 33.42 31.23 28.16 30.74 31.47 33.35 35.07 38.24 36.34 36.98 37.18 33.66 26.15 24.78 23.62 24.30 24.06 24.68 34.01 31.75 34.15 35.82 36.77 38.96 38.96 38.32
49.74 50.26 53.19 54.13 54.55 51.92 49.53 37.53 16.75 29.85 29.93 33.87 34.89 35.47 32.31 34.43 32.96 33.99 34.26 32.20 33.27 31.72 29.33 29.13 27.71 33.47 36.96 36.35 34.38 32.84 34.62 25.36 18.02 18.28 22.25 25.30 23.76 29.82 34.88 33.90 36.03 36.59 36.42 37.08 38.50
49.31 49.83 51.85 52.92 53.63 51.49 42.63 29.71 27.56 30.32 33.47 32.65 34.00 30.94 28.51 33.31 32.91 31.29 32.77 34.02 34.71 32.44 28.66 28.82 29.15 34.04 35.12 36.16 38.52 32.37 29.83 34.67 25.95 16.96 21.23 24.27 27.31 32.97 33.44 34.64 35.79 36.81 35.91 37.16 38.49
43.47 45.21 46.74 52.83 52.83 48.49 38.18 32.15 30.78 36.31 35.75 36.19 28.68 32.15 27.74 31.42 29.62 29.87 30.69 36.45 35.84 35.04 33.88 31.95 27.72 32.59 33.80 35.69 35.86 35.57 37.07 29.98 27.29 17.25 15.86 22.83 23.48 27.22 30.12 35.60 36.27 35.83 36.59 37.29 38.37
40.14 39.95 43.65 46.07 51.57 43.29 33.18 32.82 33.65 37.86 38.75 33.73 30.40 29.94 30.22 30.57 31.79 31.06 30.80 32.79 38.43 34.88 35.02 32.97 31.34 28.91 33.46 31.92 31.67 31.28 30.88 30.80 32.49 27.34 21.16 17.31 24.63 31.32 34.80 37.29 37.26 37.07 36.42 37.64 38.38
36.45 31.82 43.18 43.16 38.99 38.56 34.43 34.46 38.96 36.58 37.92 36.27 34.93 32.53 31.90 32.58 28.87 31.05 29.12 34.03 38.81 36.41 32.49 34.12 31.19 25.65 28.39 32.02 33.17 33.05 33.18 34.80 29.99 25.31 23.32 24.34 25.33 33.25 34.21 35.11 36.10 37.08 38.16 37.96 38.55
32.73 32.19 41.53 41.35 32.07 33.42 37.57 36.45 37.68 37.28 37.05 34.98 33.92 34.98 34.14 33.39 30.14 31.88 31.92 36.55 38.83 38.28 34.96 35.69 29.62 22.26 27.06 30.65 31.62 30.72 31.72 33.24 31.92 29.32 25.49 21.69 28.88 33.20 34.12 35.56 36.13 36.77 38.01 39.05 38.66
35.04 30.63 33.06 35.58 34.65 36.36 34.95 34.88 34.04 38.61 38.01 38.03 35.27 35.43 34.34 33.13 34.61 31.65 32.34 35.75 37.69 39.36 41.16 39.66 32.04 29.39 26.47 28.37 31.59 28.96 31.10 31.82 32.55 27.24 26.91 26.35 30.89 33.52 34.04 35.38 35.77 37.14 38.39 38.98 38.96
35.50 30.34 31.08 29.37 31.22 36.74 37.37 35.72 32.07 33.75 38.28 38.41 33.95 34.17 34.00 29.48 31.15 30.78 33.54 34.53 36.34 39.26 38.40 37.39 28.73 29.22 28.86 31.52 33.00 32.15 32.47 32.55 31.40 34.03 29.99 33.74 30.53 34.95 36.15 35.76 36.21 37.92 38.01 38.61 38.67
30.67 32.05 33.24 31.75 33.09 35.14 36.05 34.09 33.79 33.08 35.26 34.15 32.74 33.82 34.91 31.53 33.04 29.74 33.86 33.30 33.29 34.31 36.83 35.04 25.73 29.68 27.05 30.74 31.22 30.22 32.69 33.68 33.69 34.38 33.90 33.81 32.27 35.96 35.43 36.30 36.59 37.72 38.36 38.92 39.51
35.40 38.21 33.73 31.96 31.58 33.51 33.50 34.26 34.77 34.64 35.92 36.24 36.05 34.99 34.00 36.37 37.73 37.85 38.92 37.63 36.84 34.78 34.49 33.53 27.46 23.37 21.42 28.30 29.04 25.84 29.97 31.72 33.26 35.73 35.70 30.68 36.22 34.65 34.09 35.56 37.18 37.50 38.93 39.86 40.66

GFSSW_sfc_wetblb_108.txt.gz
Wetbulb
58.74 61.28 61.45 61.41 60.85 61.15 61.96 62.65 62.78 62.99 61.72 62.57 62.27 61.31 61.23 60.77 60.91 56.48 50.13 55.38 56.91 63.74 60.07 55.42 56.05 55.47 54.19 49.40 48.84 47.44 41.83 36.96 38.84 37.23 39.12 42.00 41.94 42.10 44.76 48.66 47.78 52.02 53.32 56.28 60.72
58.49 60.93 60.99 61.02 60.88 60.91 61.60 62.04 62.28 62.73 61.79 62.14 61.49 60.79 60.77 59.78 52.28 49.35 57.24 61.75 63.20 64.23 54.16 52.66 51.65 53.97 50.65 49.23 47.27 44.35 39.62 40.39 42.93 40.02 40.35 42.08 42.56 43.29 44.66 47.42 48.33 51.09 55.51 60.07 60.88
57.35 60.49 60.55 60.65 60.71 60.89 61.48 61.71 62.07 62.49 61.94 61.49 61.02 60.71 59.96 57.35 48.07 47.82 61.70 63.02 62.66 60.39 57.91 56.22 54.58 52.24 49.36 48.90 45.84 42.96 41.45 41.84 43.67 41.84 42.33 42.25 40.59 42.71 44.49 43.68 48.94 50.66 55.31 59.43 59.80
57.50 59.91 60.13 60.24 60.46 61.11 61.75 61.49 62.07 62.18 62.10 61.13 60.93 60.35 59.01 51.69 40.50 53.02 63.05 63.13 62.58 58.70 58.80 54.74 52.67 49.25 47.05 45.34 47.52 41.86 43.64 42.42 43.72 43.17 41.98 41.70 42.24 41.26 44.08 44.85 47.86 53.58 57.87 59.23 59.08
55.78 59.41 59.21 59.58 59.97 60.58 61.17 61.04 61.91 61.98 61.78 61.20 60.97 59.48 53.42 47.39 48.36 57.60 62.04 62.06 58.59 57.50 56.57 54.91 50.24 49.86 45.88 46.64 47.57 43.14 42.16 44.34 44.11 42.62 42.25 42.46 39.64 40.41 41.90 43.00 51.69 56.16 57.96 58.47 58.86
56.38 58.76 58.46 58.91 59.38 60.23 60.83 61.42 62.05 61.63 61.48 61.47 60.57 58.75 51.04 43.08 53.83 58.23 59.53 56.75 56.45 56.46 55.38 55.84 52.73 52.99 48.94 47.67 46.52 46.32 46.50 45.34 44.85 42.32 40.95 40.31 38.35 39.58 40.64 48.72 53.69 56.22 56.09 57.80 58.65
54.13 58.36 58.30 58.39 59.12 59.86 60.22 61.27 61.70 61.36 61.09 61.28 59.91 53.88 49.72 47.73 50.42 56.84 56.80 53.85 54.86 56.31 54.80 54.62 54.55 52.86 49.87 47.19 49.67 47.20 44.27 46.27 44.90 42.10 41.04 40.00 36.86 39.40 39.23 50.32 52.53 54.18 54.82 55.14 57.48
53.85 53.95 58.01 57.95 58.62 59.42 60.02 60.81 61.00 61.03 60.94 60.82 58.56 50.44 48.47 51.70 55.15 55.17 54.93 53.03 52.55 54.03 55.24 54.38 56.58 52.56 49.95 47.98 46.77 45.26 41.75 39.23 44.97 40.35 41.21 39.29 36.01 40.60 41.82 49.64 51.01 52.29 52.12 53.66 54.59
54.10 54.04 55.86 57.68 58.13 58.78 59.63 60.09 60.51 60.94 60.84 58.98 52.07 48.61 45.13 53.21 49.91 53.38 52.94 51.31 49.80 49.92 53.12 54.52 54.88 50.29 46.38 43.20 41.14 41.56 38.61 37.97 40.93 39.82 38.48 38.99 36.78 39.01 41.06 48.05 48.90 50.25 50.66 52.24 53.26
53.34 53.62 53.56 57.49 57.70 58.27 58.99 59.86 59.97 60.12 56.90 54.79 52.14 45.46 45.45 43.44 48.41 51.37 50.00 53.09 48.69 47.42 45.69 46.16 45.38 44.49 42.69 42.10 36.61 36.50 37.56 35.63 39.12 37.70 36.33 35.75 37.35 37.84 37.45 45.35 47.85 49.04 49.62 50.33 51.95
53.57 53.66 53.57 57.20 57.67 58.44 58.35 56.95 52.13 48.93 49.25 44.35 44.34 41.71 42.19 45.23 49.98 46.64 49.80 51.52 50.69 45.32 38.19 40.68 38.17 38.17 40.79 40.38 39.70 39.52 37.88 37.33 36.00 38.85 35.01 35.31 36.78 39.96 36.98 34.75 40.12 44.92 46.60 48.02 50.46
52.64 53.72 54.19 57.14 57.52 58.36 57.02 51.55 50.51 50.00 41.57 44.97 46.25 44.18 44.36 46.35 42.37 44.82 48.99 45.46 46.17 38.98 40.48 38.04 34.36 40.26 43.08 42.18 40.34 36.44 34.15 35.56 37.20 37.51 34.54 32.72 35.49 36.87 35.66 36.60 37.86 41.15 41.22 44.21 44.80
51.69 53.32 54.12 56.55 57.02 56.45 53.79 49.93 52.86 50.57 40.69 41.47 45.17 43.31 42.94 43.80 40.38 40.95 44.67 42.96 44.34 40.12 38.33 35.74 37.58 41.48 40.38 38.11 37.09 36.99 33.64 33.46 34.81 35.54 35.10 32.53 33.05 33.76 36.48 35.48 36.86 37.78 38.56 38.92 42.04
51.11 52.08 53.69 54.04 53.92 54.27 50.61 51.40 52.89 46.52 34.05 35.13 40.22 42.37 43.69 42.95 38.41 43.54 44.70 42.14 37.53 38.76 39.14 37.06 40.49 38.35 36.53 35.43 36.87 33.23 37.87 36.21 34.94 35.39 30.25 33.86 26.58 31.49 34.20 36.63 35.77 37.92 36.95 38.71 38.22
50.35 51.26 52.87 53.33 53.19 50.55 49.67 52.53 50.09 45.54 23.63 36.58 38.52 45.88 43.83 39.59 40.40 40.11 41.69 40.02 34.26 34.87 35.43 33.33 36.77 35.31 35.13 36.37 38.97 35.53 37.79 36.31 35.26 32.18 29.56 29.95 25.49 30.49 29.51 32.48 35.03 36.73 37.92 39.64 40.54
49.35 50.68 52.54 52.35 53.83 52.72 52.03 51.09 46.56 31.45 20.72 32.13 37.88 37.40 37.97 37.78 37.48 39.24 39.70 39.47 39.07 35.64 34.45 34.79 36.21 37.28 36.76 38.96 39.28 39.12 37.09 35.00 32.11 31.02 24.35 31.06 28.55 27.78 30.09 33.21 35.33 39.78 38.50 40.25 39.24
48.96 49.95 50.92 52.72 50.04 52.06 51.19 46.02 31.34 25.80 32.96 29.28 31.82 36.43 35.96 32.64 33.96 38.05 35.79 32.18 31.98 27.48 28.18 30.38 30.79 33.55 38.95 35.08 38.20 36.61 34.15 26.45 24.22 22.47 23.62 24.63 25.16 33.27 33.56 33.93 36.44 38.89 40.39 40.18 38.05
48.82 49.58 50.28 51.11 53.55 51.97 48.20 37.14 18.94 29.05 28.88 32.71 33.96 35.62 31.44 34.08 31.75 33.06 34.23 30.81 32.35 30.86 29.66 28.18 25.86 31.87 34.43 35.15 32.93 34.01 34.38 27.38 19.97 19.83 23.82 25.36 24.79 29.95 35.94 36.20 35.91 35.91 36.34 36.03 36.97
48.48 47.10 48.80 50.48 53.11 51.14 41.61 29.17 27.51 30.65 31.92 32.02 33.27 31.19 28.66 33.25 32.38 32.32 33.66 33.82 33.82 32.26 28.54 27.54 27.21 31.91 33.15 34.68 37.03 30.23 30.74 35.07 26.83 18.58 21.06 25.44 28.47 33.19 34.20 36.18 35.52 35.60 35.98 36.76 36.97
41.27 44.10 46.90 51.41 53.12 47.63 36.86 31.73 30.03 34.61 35.23 35.92 28.38 31.84 28.08 31.11 29.07 30.77 32.29 36.19 35.35 34.33 32.45 31.18 26.36 30.86 32.72 34.38 32.83 33.88 36.78 28.91 27.96 20.46 17.09 23.30 24.15 28.38 31.02 35.47 38.10 36.72 37.10 39.66 36.72
38.46 40.39 44.21 47.33 51.74 41.99 32.40 32.75 32.99 36.41 38.43 33.08 29.51 28.57 30.51 30.63 29.49 29.72 31.50 32.38 37.58 33.28 33.43 31.79 30.27 27.43 31.50 29.93 29.28 29.21 30.54 30.34 32.13 27.68 21.82 17.53 26.31 31.55 35.23 37.22 37.44 38.36 36.59 37.17 37.31
37.95 32.72 42.67 44.97 38.67 37.21 34.06 33.68 37.99 34.74 36.10 34.25 33.52 31.06 31.96 32.67 27.13 31.05 28.83 33.95 39.69 36.83 31.36 33.03 29.53 24.30 26.44 31.01 31.57 31.29 31.44 33.56 28.99 24.89 23.22 24.70 29.72 33.23 34.47 34.92 35.16 36.10 37.10 37.92 38.19
33.76 32.83 41.24 41.97 30.39 31.98 37.60 36.15 36.30 34.37 34.67 33.83 32.16 33.22 32.94 32.45 28.42 29.84 30.55 34.71 37.75 37.29 33.91 34.00 28.69 18.18 25.04 28.50 30.00 29.09 29.56 32.25 30.95 28.89 26.23 23.22 30.13 34.11 33.36 34.68 35.52 36.22 36.65 37.82 37.39
34.71 27.99 33.62 34.46 32.40 33.60 34.85 34.58 33.37 37.24 35.90 35.81 33.70 34.35 32.95 31.03 32.25 29.90 29.99 33.77 37.24 38.69 40.61 39.74 31.57 28.21 24.91 26.16 29.93 27.98 29.06 29.35 30.96 25.72 27.41 27.08 28.47 33.79 34.39 35.05 34.87 36.11 37.14 37.55 37.93
35.42 30.30 31.36 29.68 31.19 33.58 37.29 35.08 30.94 32.98 35.56 36.03 31.67 34.28 32.64 28.03 30.00 28.75 31.25 32.22 34.05 39.47 37.87 36.97 30.26 29.17 27.92 30.30 32.14 31.98 31.73 31.79 31.60 33.83 29.31 33.75 32.22 34.72 36.47 35.51 35.58 36.81 37.27 38.00 38.11
29.80 30.54 33.25 31.75 31.94 33.18 36.91 34.15 32.88 33.16 34.71 33.20 31.14 32.58 33.08 29.72 32.39 28.28 32.10 31.43 31.35 33.47 34.74 34.12 24.69 28.48 25.78 28.71 30.38 29.68 32.48 33.13 33.80 34.17 33.74 34.58 33.19 34.50 35.45 36.32 35.61 36.93 37.16 37.95 38.80
35.17 38.07 34.50 31.66 31.19 31.48 33.70 35.03 34.93 35.79 36.03 36.32 34.34 33.44 31.98 33.05 35.90 36.75 38.29 38.02 36.66 34.94 34.04 32.42 26.91 22.94 20.34 26.82 27.35 24.17 29.65 31.32 32.00 34.80 35.31 30.32 36.17 35.08 33.31 35.14 36.34 36.82 37.81 38.75 39.55

GFSSW_sfc_wetblb_111.txt.gz
Wetbulb
55.30 56.23 58.06 61.34 61.80 61.97 62.50 62.84 62.58 62.94 62.57 62.47 62.48 61.89 61.85 61.97 61.56 55.79 50.55 54.91 56.47 63.15 62.05 55.64 57.39 55.85 54.46 50.16 49.90 49.10 41.59 39.12 41.25 39.61 42.98 44.15 44.75 46.05 48.57 52.17 51.79 54.28 55.22 58.17 62.41
55.60 56.48 57.91 57.84 61.33 61.27 61.41 61.74 62.30 62.54 62.33 62.36 62.25 61.67 61.52 61.10 54.38 51.45 56.92 62.38 63.57 63.50 53.86 53.51 53.34 54.66 50.96 49.57 47.65 45.15 41.68 42.27 45.00 42.12 42.44 43.71 44.64 45.19 47.86 49.41 50.59 53.43 57.87 60.71 61.91
55.76 56.60 57.76 57.13 61.16 60.85 61.10 61.13 61.80 62.07 62.04 62.05 61.67 61.24 60.64 56.52 47.67 48.30 60.93 64.41 65.12 60.59 56.54 55.64 55.63 53.71 49.47 49.43 46.91 44.11 42.68 43.65 43.06 44.22 43.90 43.78 42.96 45.72 46.64 46.45 49.47 51.44 55.73 59.60 60.28
56.73 56.70 57.16 57.73 60.73 60.79 60.98 60.99 61.34 61.80 61.92 61.59 60.98 60.68 59.57 52.33 40.56 50.76 62.31 64.67 62.98 60.05 56.98 53.09 52.12 49.86 47.68 46.10 47.76 42.95 43.82 43.81 45.06 43.74 43.40 42.65 43.40 43.73 46.62 47.56 48.40 53.45 58.04 58.79 59.36
56.03 56.69 55.98 56.89 60.41 60.52 60.73 60.80 61.17 61.42 61.60 61.09 60.60 59.84 54.24 47.16 46.43 57.93 62.79 62.79 59.90 58.79 55.47 52.72 50.23 49.58 46.45 46.58 46.97 44.30 43.68 45.84 46.08 43.80 43.77 42.91 41.90 43.24 44.57 45.39 51.71 56.47 58.66 58.68 59.39
55.01 54.84 55.70 56.60 59.84 60.15 60.52 60.78 61.12 61.12 61.48 60.82 60.49 58.68 51.37 40.86 53.46 59.54 59.04 58.18 58.00 57.80 56.23 54.88 52.24 52.78 48.50 46.79 46.30 46.91 46.03 46.30 46.30 45.05 43.22 41.72 40.29 42.25 43.74 51.22 53.38 56.19 57.70 58.83 59.56
54.90 54.30 54.31 57.98 59.54 59.62 60.08 60.66 60.83 61.15 61.13 60.89 60.12 53.57 49.65 44.98 53.14 58.02 56.00 54.62 58.56 57.73 55.10 55.15 56.03 53.39 50.96 47.53 49.53 47.18 44.48 46.24 46.15 43.08 42.40 42.42 39.11 40.86 42.61 51.76 52.71 54.01 55.94 58.05 58.58
53.76 53.77 54.13 58.56 59.06 59.22 59.73 60.11 60.53 61.05 60.62 60.78 59.07 52.97 48.43 51.12 53.32 56.20 54.18 52.04 55.63 58.35 55.69 57.17 56.23 52.63 50.26 49.32 47.83 45.49 44.28 40.49 45.21 42.59 41.44 42.42 38.16 42.76 43.42 50.52 51.20 52.61 53.59 55.43 57.75
53.70 53.16 53.51 56.58 58.32 58.60 59.36 59.80 60.13 61.20 61.18 59.53 53.09 51.95 46.38 53.92 51.60 53.04 53.27 50.34 50.20 53.66 55.83 55.68 54.25 49.37 47.70 44.89 42.69 43.04 39.26 38.34 42.29 42.71 40.90 39.63 39.06 41.50 43.09 47.88 49.04 50.89 52.10 53.80 55.22
53.15 52.13 52.99 53.61 57.88 58.35 58.99 59.76 60.29 60.59 58.02 56.24 52.98 47.87 46.25 43.16 49.12 51.24 51.80 51.13 47.39 50.35 47.80 46.76 48.66 44.64 43.60 43.50 38.15 37.42 38.98 38.59 40.22 39.91 37.51 36.91 38.49 41.02 40.32 45.68 46.13 49.54 50.84 52.31 54.01
52.77 52.55 52.37 53.74 57.53 58.20 58.16 57.51 53.64 49.91 51.27 46.23 47.32 42.44 45.57 46.29 51.36 48.55 52.04 50.12 47.99 44.69 39.10 41.90 40.02 40.77 41.83 44.21 43.10 42.27 41.18 40.33 37.02 43.31 37.95 36.26 37.34 41.16 40.95 39.55 42.12 47.02 49.92 51.02 52.75
52.05 52.59 51.89 53.08 57.58 57.79 56.74 52.42 51.73 49.62 41.03 46.60 48.24 43.02 44.24 48.98 43.81 44.77 51.26 46.08 42.93 38.36 38.90 38.19 34.52 42.94 44.66 43.08 40.01 39.13 37.40 37.46 40.39 38.04 36.70 35.46 36.12 39.22 38.22 39.04 39.41 42.57 46.38 50.10 50.51
51.30 52.32 52.15 53.14 57.02 56.05 54.05 53.17 54.43 51.47 41.08 41.42 45.90 42.54 42.67 46.22 43.70 43.28 49.40 46.16 41.73 38.39 38.58 34.95 37.96 41.63 42.29 40.23 39.26 37.41 34.65 34.54 35.11 36.56 36.30 34.08 34.63 36.41 37.53 37.56 38.00 38.59 41.98 44.86 48.90
50.89 51.73 51.65 51.53 53.18 53.95 52.35 53.24 53.94 50.48 35.88 35.84 41.52 42.79 43.06 44.47 39.99 44.58 47.99 45.71 43.43 38.25 38.89 36.82 40.85 38.88 38.53 38.79 41.12 36.12 38.62 37.46 35.28 34.41 31.45 35.53 27.34 33.95 36.79 37.17 36.70 39.27 37.71 40.42 42.53
49.75 50.91 51.48 51.12 50.34 51.52 52.59 53.79 50.79 47.72 25.23 36.75 39.92 46.67 43.57 42.23 40.42 40.95 43.71 42.02 38.57 38.68 38.47 36.40 37.38 36.06 35.43 36.88 39.81 35.43 37.01 34.80 35.05 32.78 30.15 29.87 28.25 30.35 33.54 33.69 35.60 38.25 38.55 40.02 41.78
48.95 49.89 51.45 49.69 49.13 53.10 53.31 50.78 47.67 34.60 25.71 33.02 39.08 37.85 36.60 37.07 38.16 39.64 41.02 40.96 41.07 37.24 37.87 36.95 38.26 38.85 37.87 38.72 40.11 38.80 37.01 36.80 32.08 30.84 24.95 30.69 29.80 28.23 33.89 33.75 37.48 39.15 40.10 41.36 41.96
48.65 49.72 50.09 50.77 47.05 53.62 51.47 46.26 32.68 29.75 34.22 30.62 33.12 36.97 34.95 32.18 34.47 38.62 35.74 33.03 33.07 29.16 29.55 31.99 31.53 34.76 39.06 36.25 38.10 36.70 34.49 27.97 26.07 25.41 23.84 25.98 27.87 34.34 35.91 35.34 37.44 40.20 41.11 42.27 41.88
48.22 48.91 49.46 50.22 51.41 51.85 48.41 39.21 29.06 30.54 30.20 32.97 35.22 35.96 31.45 33.84 32.70 34.36 34.76 32.21 33.09 32.67 30.25 28.73 26.42 32.36 36.23 36.33 33.42 35.67 35.22 25.79 19.14 19.63 23.12 25.35 25.84 31.39 36.68 40.55 37.85 37.50 38.40 37.85 38.39
47.83 46.27 46.78 49.48 51.06 50.77 42.26 32.10 30.87 31.52 31.60 31.80 34.47 31.35 28.49 32.43 32.51 32.52 32.88 33.65 33.24 32.72 29.14 27.58 27.49 31.82 34.60 35.88 39.06 33.40 32.60 33.60 25.84 16.05 20.85 25.56 29.35 33.94 34.37 36.01 36.60 36.48 37.58 38.85 39.04
41.80 44.48 45.44 50.53 50.67 46.38 38.95 33.46 29.82 33.57 34.87 36.02 30.28 31.89 27.23 30.58 28.59 30.34 31.73 35.73 33.72 33.44 32.61 31.11 26.29 30.19 31.85 35.60 33.67 35.24 37.41 30.35 27.77 16.53 15.76 23.58 24.95 29.94 31.75 35.23 37.54 37.95 38.16 38.80 38.44
39.61 40.16 43.25 47.57 48.54 40.95 32.87 35.28 33.04 35.12 37.86 32.54 28.71 28.76 30.54 30.10 29.19 30.26 31.35 32.24 36.56 32.47 33.04 32.10 29.81 27.37 31.42 30.40 29.84 29.62 31.37 30.98 31.88 26.27 19.88 17.36 25.27 32.25 35.89 37.00 37.40 37.21 37.40 38.51 39.04
37.41 32.44 42.19 45.73 33.83 32.56 33.09 33.62 37.18 34.93 35.41 33.28 32.61 30.25 32.19 32.82 28.58 31.36 29.88 34.05 38.89 36.58 31.04 32.76 29.57 24.64 26.88 30.88 31.85 32.68 31.37 32.92 27.27 22.98 22.89 23.93 26.06 33.48 34.87 36.53 36.54 37.34 37.62 37.38 38.77
34.25 33.15 41.48 43.94 30.15 31.22 36.82 35.73 35.11 33.99 33.36 32.98 31.17 32.42 33.62 33.18 29.47 31.68 31.03 36.73 39.62 37.23 33.89 33.19 28.60 20.54 26.13 28.82 29.67 29.00 29.10 34.65 31.63 27.68 24.50 21.52 28.76 35.77 32.89 34.46 35.39 36.85 37.65 37.80 38.58
35.12 30.21 33.88 36.32 32.18 33.19 33.69 34.39 31.88 36.79 34.31 34.54 32.66 34.31 33.21 30.99 32.71 29.48 29.81 33.22 37.60 38.58 40.36 39.54 30.70 28.80 25.37 27.51 30.07 28.02 28.94 30.18 32.70 24.46 28.56 26.45 31.22 33.30 36.15 35.76 35.64 36.93 38.50 38.50 38.62
35.82 28.78 31.83 28.32 30.05 32.58 36.67 35.27 30.73 31.48 34.34 34.62 30.92 33.89 32.69 29.20 29.62 28.13 30.22 30.97 33.18 38.80 36.10 35.09 27.97 27.83 26.94 29.51 30.85 29.89 29.40 29.94 30.25 33.05 28.73 32.96 32.86 34.23 36.04 36.66 37.98 36.79 37.32 38.61 38.97
31.57 31.74 33.12 30.54 32.38 33.21 32.96 33.41 33.07 30.88 32.85 31.70 31.24 33.22 32.04 29.09 32.64 26.81 31.07 30.31 30.34 32.36 33.49 33.08 24.84 28.92 25.26 28.35 28.77 28.27 30.65 32.00 33.12 33.98 32.65 34.89 33.12 34.08 36.57 35.24 35.85 37.59 37.99 37.79 38.60
35.93 37.72 32.58 30.89 31.26 32.06 32.78 33.17 34.26 35.34 35.40 35.00 33.44 33.00 30.85 32.23 35.14 36.23 37.23 37.09 35.92 34.88 33.33 32.83 27.50 21.65 25.47 26.17 26.22 22.34 28.69 30.43 31.91 34.80 34.97 30.88 36.07 34.39 34.91 34.97 35.95 37.02 36.77 37.57 38.14

GFSSW_sfc_wetblb_114.txt.gz
Wetbulb
57.21 57.28 57.19 57.10 57.62 57.18 61.62 62.92 62.88 63.23 63.58 63.31 63.10 62.28 62.22 62.30 61.95 59.09 53.10 58.06 58.56 62.90 63.51 59.36 58.85 57.10 55.10 53.19 52.76 52.52 49.09 46.02 47.37 45.72 48.11 52.18 51.02 52.32 54.42 56.14 57.18 58.13 58.49 61.65 63.48
57.03 57.00 56.65 56.67 57.24 58.14 60.54 62.18 62.30 62.64 63.05 62.98 62.67 61.98 62.04 61.78 57.61 54.04 59.82 62.02 62.54 64.66 59.31 58.94 57.41 56.67 51.72 50.08 50.21 50.46 47.86 48.27 49.31 48.36 48.27 51.30 52.65 51.46 53.39 54.54 54.57 56.67 60.07 63.20 62.89
57.58 57.10 56.62 56.60 56.93 58.01 58.10 61.42 61.64 62.05 62.59 62.22 62.03 61.62 61.61 59.92 52.10 51.87 61.36 62.96 64.05 63.11 60.57 59.88 59.07 56.26 51.41 50.08 47.84 46.55 49.64 49.49 46.56 48.65 48.27 49.03 49.20 52.84 52.63 52.04 54.73 55.25 58.53 59.95 61.31
57.14 57.53 56.72 56.34 57.45 58.25 57.62 60.97 61.17 61.42 62.29 62.02 61.57 61.27 60.28 55.81 43.80 53.83 61.31 63.56 64.91 59.82 58.47 57.00 54.61 51.76 49.82 47.23 48.70 45.24 44.87 46.01 48.03 47.00 47.37 47.48 49.85 49.64 52.51 52.92 54.78 58.03 60.89 60.17 59.80
56.92 56.95 56.90 56.63 56.96 57.39 58.30 60.85 61.01 61.23 61.70 61.79 61.24 60.60 57.16 48.86 50.45 58.76 61.92 64.38 60.83 58.28 55.12 54.87 53.38 52.29 48.65 48.85 48.99 48.10 47.19 46.93 47.94 47.93 47.44 47.25 47.54 50.03 50.69 51.36 54.08 58.59 60.54 60.11 60.15
56.42 56.40 56.60 56.95 56.28 57.76 59.06 60.68 60.83 60.94 61.57 61.53 60.96 59.62 52.63 45.58 57.32 59.99 60.59 60.04 58.47 57.87 56.00 54.95 53.70 55.57 51.19 49.86 48.61 49.63 47.41 47.69 47.32 48.17 46.45 46.49 46.27 47.45 51.23 53.94 55.46 58.33 59.57 60.62 61.00
55.65 55.45 55.88 56.41 55.38 56.37 56.90 60.29 60.74 60.68 61.10 61.29 60.73 56.19 49.85 50.11 59.37 60.72 60.02 58.79 59.51 58.22 55.17 57.17 56.92 55.25 53.19 47.77 51.68 49.67 45.93 47.14 46.40 44.12 44.68 46.58 44.19 45.24 49.67 53.56 54.85 57.16 59.13 60.35 61.75
54.52 54.87 54.87 55.61 54.41 56.96 57.69 59.84 60.16 60.55 60.93 60.89 59.77 54.08 46.60 53.64 60.99 58.49 58.63 57.78 59.27 58.00 57.29 57.86 57.71 53.07 51.86 52.75 50.29 48.30 48.28 42.99 44.91 44.35 43.32 45.90 44.91 47.44 49.47 52.74 53.28 55.94 58.37 59.17 60.21
53.46 54.20 53.51 53.78 53.26 54.71 59.10 59.40 59.62 60.59 61.21 60.48 54.15 52.30 45.86 56.84 54.76 56.85 57.90 54.93 56.14 56.56 56.88 57.38 55.20 50.64 50.73 47.80 45.77 45.47 41.38 44.32 46.62 45.37 43.45 44.07 43.97 45.50 47.65 51.42 51.97 55.09 56.85 58.46 59.43
53.08 53.21 52.98 52.43 53.96 57.74 58.88 59.40 59.23 59.78 59.57 57.35 54.51 47.24 45.78 48.55 54.14 55.08 57.22 57.23 54.07 52.85 49.28 49.27 50.19 47.73 48.52 47.39 39.76 39.55 42.57 43.08 45.21 45.19 43.16 44.51 44.55 48.08 46.53 48.68 50.44 53.16 55.83 57.13 58.39
52.31 52.40 52.15 52.04 53.28 56.09 58.35 56.26 51.80 50.70 53.57 47.76 48.07 48.76 47.45 52.84 55.20 53.00 53.98 54.07 53.10 48.66 42.05 44.27 44.45 44.07 46.43 48.76 46.57 44.50 45.21 44.43 44.05 47.96 43.71 43.72 46.05 48.87 51.17 45.91 48.49 50.52 53.57 55.69 57.24
51.61 52.88 52.43 52.06 54.05 56.23 56.98 51.01 51.53 53.39 46.00 48.82 50.61 45.53 50.55 53.49 47.31 50.21 53.10 47.70 47.28 41.81 42.68 41.70 40.68 46.68 49.22 47.50 45.79 45.70 43.98 44.57 46.15 42.50 42.37 44.02 43.88 47.32 48.56 46.72 47.61 49.06 51.36 54.28 56.39
50.99 52.04 52.42 52.35 53.09 53.43 53.78 53.01 53.78 52.92 43.55 42.72 47.51 45.67 48.58 51.57 46.88 46.95 49.77 47.27 44.49 40.77 41.54 41.07 41.48 46.03 45.45 41.95 41.11 42.16 43.63 41.83 41.29 40.34 41.20 41.19 42.64 44.11 46.04 47.19 46.99 46.83 49.28 52.01 55.26
50.63 51.40 51.31 51.66 47.99 51.71 51.68 53.91 53.97 54.05 37.25 35.56 40.81 42.54 45.77 48.89 44.13 50.30 51.67 48.18 43.20 40.94 41.91 40.92 41.88 42.46 42.46 39.61 41.59 35.80 40.58 40.09 38.85 38.35 37.69 43.27 38.39 45.17 46.25 46.56 43.88 46.23 47.16 48.09 51.32
49.99 50.98 51.71 51.33 47.96 50.92 53.62 54.34 53.05 50.82 26.93 35.43 39.13 47.58 47.59 45.54 43.74 43.21 45.91 46.55 42.37 40.92 41.92 39.23 39.48 41.01 39.78 41.04 44.06 38.09 42.46 40.42 38.78 37.33 36.24 36.82 35.51 42.31 42.63 42.64 45.78 44.85 46.69 47.61 48.84
49.63 50.24 51.41 49.72 48.75 48.28 54.80 53.90 50.27 36.65 26.67 30.68 38.41 37.73 40.30 40.84 42.64 41.52 41.38 44.67 45.57 42.17 42.86 40.87 43.48 43.45 43.61 42.62 40.41 41.18 39.08 38.47 36.87 35.69 32.05 37.93 35.90 39.49 41.96 42.10 44.87 47.31 47.06 47.33 48.02
49.23 50.21 49.52 50.61 44.61 50.92 52.41 49.29 33.87 30.79 34.04 30.06 31.69 37.26 37.85 37.65 39.01 41.56 38.72 37.67 36.09 33.25 34.53 37.07 38.39 40.36 42.72 39.24 40.84 39.76 37.33 29.93 28.46 28.25 30.75 32.78 34.13 39.54 43.80 44.19 45.88 46.92 48.16 48.24 48.83
49.23 49.39 49.75 48.86 51.35 50.37 49.52 40.38 30.42 31.19 32.32 36.39 35.52 36.33 34.21 37.46 38.66 40.05 37.00 36.49 39.59 39.45 34.32 31.64 28.62 35.91 40.70 41.14 38.07 37.92 39.14 30.97 25.95 26.87 31.92 29.52 30.46 38.41 43.03 46.88 45.69 45.15 46.95 47.11 46.62
48.62 47.60 47.12 48.89 50.67 49.62 35.15 31.54 32.34 33.77 35.16 34.56 34.93 32.12 31.95 34.08 37.17 36.57 36.92 37.60 39.62 39.70 36.85 33.96 31.53 37.72 40.17 41.42 41.43 36.88 34.40 37.30 30.52 24.94 28.03 33.49 36.48 40.27 42.63 41.12 42.27 42.76 42.36 44.67 46.01
45.03 44.91 44.62 49.13 50.37 44.42 33.01 33.68 32.10 38.53 39.36 37.74 31.88 34.20 30.29 32.93 34.84 36.99 36.05 40.87 38.15 39.60 41.58 37.88 29.32 35.21 36.80 42.03 40.83 39.84 41.96 32.58 34.13 26.01 24.83 31.80 31.22 35.58 39.70 41.09 42.42 41.87 42.92 44.37 44.38
44.30 39.03 42.56 49.21 45.83 34.32 30.90 34.02 33.82 39.62 41.28 38.35 34.59 33.81 34.33 33.29 36.70 36.49 36.17 38.38 40.37 37.84 39.69 38.61 35.23 30.98 36.48 36.70 35.37 36.58 35.59 36.67 37.55 33.51 28.97 27.67 34.71 40.62 40.13 42.26 42.94 43.61 43.23 44.29 44.48
41.14 33.02 42.25 46.37 32.84 32.54 32.92 35.17 38.44 39.27 41.53 36.94 40.37 37.64 35.77 36.17 34.75 35.21 35.11 37.33 41.77 40.07 36.91 38.49 34.26 29.59 33.06 36.39 39.22 40.16 37.73 37.72 33.07 29.52 32.37 29.73 33.60 40.75 40.97 41.32 41.62 42.97 43.01 43.77 43.71
35.20 35.10 42.55 43.90 30.32 31.75 34.90 35.67 38.63 37.89 37.89 37.90 36.88 38.48 40.04 35.99 32.17 36.37 36.77 41.18 42.19 40.36 38.62 37.40 33.13 27.64 28.88 33.96 35.19 35.72 37.02 39.38 37.54 34.66 31.37 30.55 35.47 43.05 39.41 40.34 41.86 41.85 44.36 44.33 43.90
36.03 31.18 34.66 38.04 34.10 33.01 32.36 33.66 34.07 39.81 36.64 37.43 37.45 39.86 38.13 35.51 36.64 34.32 34.45 36.48 41.29 41.72 40.54 40.62 33.57 33.22 28.32 32.11 35.64 31.58 35.32 37.41 37.32 31.93 33.43 33.60 37.40 40.66 42.10 42.79 42.08 41.82 42.59 44.22 45.14
36.33 31.54 32.85 30.05 31.84 34.28 35.27 33.94 33.31 33.13 37.28 38.80 36.32 38.23 37.61 33.75 34.63 33.76 35.07 34.58 39.00 40.48 39.66 39.28 32.73 33.65 34.89 35.34 36.17 35.24 34.46 35.35 34.76 36.65 32.92 36.20 36.32 39.78 42.33 43.34 45.13 44.94 43.78 43.87 44.64
33.12 32.59 34.06 32.75 34.06 34.83 32.78 32.47 33.56 34.96 36.12 35.72 35.94 38.19 38.64 34.74 36.44 32.65 36.15 36.54 35.24 37.72 38.89 37.54 33.67 33.96 29.96 33.37 34.95 32.96 35.46 35.93 35.83 36.88 37.21 37.61 37.15 43.28 44.11 44.86 44.45 44.53 43.55 43.44 44.20
38.20 38.23 35.75 32.39 32.27 32.52 32.80 32.90 35.82 37.05 37.64 39.21 38.84 37.82 35.51 38.28 41.36 40.31 40.87 39.12 38.33 37.03 36.55 35.36 33.70 31.35 29.34 31.46 32.75 29.68 32.72 35.06 36.01 38.28 38.15 34.29 39.12 43.18 42.02 42.16 42.61 43.40 43.41 42.72 43.80

GFSSW_sfc_wetblb_117.txt.gz
Wetbulb
56.71 57.23 57.75 57.83 58.04 58.51 58.38 58.30 58.80 59.02 62.55 63.18 63.54 62.67 62.52 62.67 62.06 58.88 54.89 60.75 60.20 63.07 63.39 61.59 57.23 56.75 55.93 54.49 55.70 55.77 50.35 48.46 49.69 50.42 51.24 54.44 53.27 55.58 56.96 56.51 58.00 59.69 58.95 63.08 64.54
56.37 56.61 57.29 57.79 57.79 57.81 58.12 58.23 58.23 59.56 62.21 62.77 63.06 62.41 62.42 62.01 59.06 56.11 61.66 62.56 63.17 63.97 60.52 58.98 57.25 55.39 51.81 50.88 52.39 54.32 50.26 50.19 53.31 53.24 51.37 53.33 53.72 53.83 53.96 55.63 55.78 57.64 61.49 64.22 63.38
56.25 56.37 57.02 57.41 57.41 57.55 57.70 58.14 57.89 56.81 61.95 62.16 62.59 61.94 61.79 60.89 55.60 55.45 63.06 62.90 63.45 63.47 61.65 62.05 61.58 56.19 52.94 49.78 49.09 50.71 51.04 53.29 49.82 50.99 50.68 52.23 53.22 54.77 53.50 53.05 55.21 55.94 59.95 60.90 61.99
56.41 56.97 56.46 57.77 57.37 57.22 57.43 57.41 58.79 57.70 61.23 61.91 62.15 61.51 60.80 58.16 45.99 57.99 63.41 62.61 63.49 62.07 60.37 60.07 58.95 52.85 52.61 51.07 51.03 46.60 48.66 49.82 49.45 48.57 48.92 49.65 53.73 51.94 53.69 53.73 56.14 57.76 61.77 60.93 60.61
55.72 56.56 56.91 57.31 57.85 56.84 57.06 57.48 58.12 56.50 61.00 61.65 61.59 60.94 57.72 51.41 53.85 59.13 61.99 61.80 60.17 59.24 57.60 57.68 55.72 52.79 51.18 52.97 51.52 49.11 48.21 47.02 49.42 49.81 49.10 49.43 49.54 51.91 52.82 55.43 55.06 58.93 61.26 61.03 61.23
55.80 56.33 56.41 56.82 57.48 56.83 57.07 57.72 58.31 57.17 60.84 61.60 61.24 60.31 53.59 46.70 59.53 59.66 59.07 58.85 58.55 57.33 57.11 58.50 57.21 56.20 53.72 50.79 50.99 51.16 49.66 50.03 48.68 48.05 47.40 47.82 49.56 49.12 52.35 55.48 54.75 58.55 60.03 61.51 61.74
56.05 56.31 56.01 56.49 56.79 57.14 57.27 57.03 57.66 57.91 60.46 61.57 61.14 57.32 51.56 51.67 58.99 59.90 58.62 58.58 58.68 57.59 55.53 58.94 57.95 55.01 53.62 48.13 52.01 51.02 46.44 48.73 48.46 45.58 45.19 47.40 46.21 46.20 52.27 54.26 54.48 57.05 59.28 60.87 62.08
55.50 55.52 55.56 56.08 56.34 56.97 56.78 56.96 57.27 59.46 60.37 61.20 60.56 55.10 48.32 57.84 60.39 57.92 59.70 58.30 59.57 59.36 57.77 58.89 57.86 53.58 52.30 53.52 51.47 48.09 47.46 42.27 48.22 47.88 46.01 46.06 45.01 50.65 52.47 52.58 53.24 55.70 57.82 59.56 61.15
53.40 53.99 54.27 54.55 55.72 55.51 54.81 57.00 56.56 59.40 60.59 60.86 55.94 51.62 45.76 56.50 55.82 58.04 59.10 56.77 57.43 57.39 57.49 57.21 54.91 51.32 50.31 48.17 46.74 47.07 41.92 43.25 45.95 47.52 45.12 46.29 45.60 50.20 49.39 51.28 52.41 54.47 56.35 58.59 59.86
52.76 52.08 53.77 54.54 54.54 55.11 54.28 56.67 56.58 59.73 59.19 58.62 55.61 46.47 47.20 49.03 55.71 56.21 58.91 58.48 55.27 54.38 52.04 51.99 50.32 47.20 48.25 47.12 41.37 41.38 44.23 47.36 46.73 47.72 47.06 46.37 47.31 50.92 49.76 48.81 50.88 52.86 55.35 56.93 58.68
53.08 53.25 53.05 53.45 53.72 53.89 55.13 53.89 48.92 51.05 53.27 48.73 47.48 46.90 48.73 54.27 56.67 53.98 56.44 55.39 53.47 50.83 45.67 46.08 44.90 42.95 47.03 50.33 50.94 49.27 47.77 46.93 49.00 48.10 47.12 47.48 47.86 50.23 52.97 49.91 50.13 50.44 52.51 55.36 56.94
52.32 52.97 52.99 52.94 53.19 53.81 52.96 49.75 50.77 54.12 46.41 50.80 50.11 50.06 51.37 54.97 48.58 52.36 56.92 50.03 48.36 43.37 43.56 42.37 41.17 48.40 50.60 51.22 49.79 49.03 46.85 46.75 49.03 45.83 46.54 48.57 48.09 50.58 52.25 52.89 52.39 51.20 51.01 52.51 55.62
51.68 52.12 53.14 52.89 52.48 51.33 48.41 50.10 56.99 56.66 45.79 46.61 48.96 47.82 49.67 52.80 48.14 49.57 54.30 51.92 47.78 40.20 42.55 42.92 46.51 48.55 49.46 48.90 46.87 47.51 46.14 46.19 44.90 46.24 45.07 44.65 44.28 46.78 50.79 52.26 53.16 52.81 51.97 51.54 53.10
51.34 51.56 52.08 52.29 47.77 49.04 45.92 55.90 56.69 56.73 39.35 38.67 43.37 45.80 48.31 50.60 45.55 53.64 54.30 50.60 47.32 41.92 42.44 43.41 45.52 46.49 46.35 45.90 48.29 41.15 43.69 45.38 40.76 40.71 39.75 45.10 39.07 48.38 50.98 50.90 51.46 52.39 52.78 52.05 51.50
50.78 51.63 51.88 52.15 48.27 45.14 48.47 56.28 55.67 52.46 27.47 38.34 39.99 47.61 48.39 46.04 46.88 47.36 53.34 48.41 43.94 44.49 43.71 39.60 42.15 44.67 42.73 43.77 48.28 41.34 43.33 41.14 39.96 37.69 36.45 40.18 37.27 44.12 48.49 47.09 49.71 52.34 51.83 53.28 51.70
50.30 51.16 51.82 50.28 49.30 49.19 52.01 54.68 51.04 36.60 28.46 31.67 39.35 39.57 41.96 44.18 45.92 45.92 43.01 47.05 48.34 44.25 43.72 42.87 48.27 48.19 46.44 45.78 44.02 43.91 41.46 39.17 37.52 35.95 30.34 38.89 38.24 41.16 45.28 45.99 48.07 51.04 52.60 52.89 52.07
49.95 50.43 50.34 50.66 45.04 50.56 50.03 49.75 34.68 30.42 33.07 28.51 31.86 38.51 40.44 39.24 40.98 42.24 39.44 38.72 37.42 34.74 35.37 38.84 41.16 43.64 46.86 39.47 40.62 40.25 39.40 32.12 30.30 29.40 31.86 36.58 39.55 41.31 47.30 49.48 48.82 49.64 51.41 53.09 53.68
49.59 49.92 49.75 49.63 51.11 50.13 42.40 39.95 29.64 32.30 33.19 35.75 35.71 37.14 34.36 40.21 39.48 40.55 38.77 37.23 43.05 43.34 38.51 34.38 30.79 39.55 45.73 43.74 37.65 38.09 41.01 35.80 29.14 30.25 34.53 32.92 32.72 39.95 45.69 45.11 47.89 49.14 48.72 50.56 51.92
49.20 48.07 46.99 48.77 49.64 45.95 34.05 29.65 32.75 33.58 35.64 34.87 35.60 33.18 31.87 38.69 38.94 38.78 38.88 38.69 41.67 44.63 38.13 35.88 34.60 41.57 43.50 44.62 43.48 37.42 35.82 42.23 33.21 28.79 30.06 35.76 39.02 43.55 44.92 44.99 44.34 46.50 46.75 46.73 48.11
45.76 44.36 44.10 49.20 48.61 39.00 32.09 32.07 34.47 41.01 38.83 37.75 33.08 35.88 30.96 32.75 36.59 37.38 37.28 42.41 41.75 44.96 46.76 41.85 30.27 39.18 39.93 43.55 43.82 42.33 43.19 33.98 36.13 29.30 27.62 35.15 35.13 36.92 42.17 43.47 45.03 44.66 46.48 47.56 48.35
44.64 38.31 43.20 47.29 43.69 33.41 30.74 32.81 34.50 41.98 41.58 39.49 37.31 35.01 34.95 34.99 38.13 36.16 37.23 42.15 44.80 42.44 43.97 44.11 36.57 33.29 37.51 36.88 36.49 36.66 37.16 38.63 39.98 36.88 31.48 30.90 36.72 43.04 41.29 42.39 43.84 45.61 45.81 46.45 46.81
42.32 33.01 43.05 46.37 33.80 32.70 32.77 33.68 37.97 40.24 42.94 43.20 42.21 40.65 37.67 38.75 37.27 37.83 37.10 42.45 46.46 43.41 38.41 40.88 36.93 30.13 33.69 37.82 42.34 41.72 38.88 39.24 34.77 31.89 36.24 33.79 35.23 43.12 43.38 43.51 43.66 44.15 45.27 46.43 46.47
37.12 35.77 43.14 43.92 29.26 31.51 33.68 34.39 37.76 39.81 41.12 41.43 40.00 41.80 42.62 39.56 36.56 40.96 40.51 45.12 45.36 42.09 40.74 39.78 34.67 29.10 29.57 35.62 38.14 37.34 39.49 40.67 40.51 37.12 34.24 31.54 36.05 45.33 44.51 44.00 44.38 44.18 46.02 46.55 46.63
38.00 32.37 34.11 37.98 36.16 33.03 32.10 32.88 33.88 41.61 41.58 42.78 41.52 42.20 40.18 38.27 40.29 38.30 39.13 41.47 43.65 43.60 42.21 41.64 36.32 33.67 29.55 33.22 36.43 32.49 36.60 38.66 38.84 33.11 34.58 35.31 39.15 42.55 43.05 43.68 44.53 44.59 45.41 46.11 46.52
38.30 33.79 33.75 30.67 32.31 34.79 32.96 34.32 34.23 34.56 38.01 42.02 39.14 38.84 38.20 34.35 35.65 35.02 36.13 36.32 41.83 42.98 41.71 40.68 33.21 36.11 37.89 38.43 37.46 35.58 35.31 36.96 36.64 38.15 34.83 38.04 38.51 42.25 45.09 45.83 46.34 46.78 46.86 46.48 45.54
35.15 33.35 35.24 33.08 34.16 33.69 32.72 32.67 33.63 34.59 36.52 37.68 37.89 39.31 39.69 35.79 37.28 34.59 36.72 37.44 37.10 40.64 39.28 41.26 34.24 36.23 31.92 35.90 37.23 34.80 36.84 37.85 37.61 38.57 38.83 39.23 38.59 44.53 45.69 46.16 45.30 45.82 46.02 45.87 46.44
39.12 39.29 37.63 33.64 32.88 32.98 32.90 32.85 34.71 37.91 38.34 41.29 41.74 40.24 39.41 40.08 41.53 42.23 42.29 40.52 40.61 38.55 38.10 37.49 35.74 33.94 31.43 33.89 33.43 30.34 34.25 36.62 38.15 39.81 39.85 36.01 40.70 44.02 43.38 43.83 44.53 45.31 46.01 45.75 45.80

GFSSW_sfc_wetblb_120.txt.gz
Wetbulb
56.95 57.26 57.88 58.51 58.60 58.15 58.45 59.56 59.49 59.71 58.92 59.27 61.99 63.15 62.90 63.05 62.50 59.62 55.42 60.94 61.91 63.55 63.65 60.96 57.43 55.98 54.31 52.69 53.41 55.16 47.81 45.30 47.86 48.72 49.84 52.02 50.43 52.10 53.34 53.48 53.25 56.18 57.52 60.61 63.50
56.57 56.89 57.22 57.78 58.60 58.40 58.30 58.64 59.23 59.54 59.14 58.51 59.51 62.75 62.72 62.18 58.47 56.33 62.10 65.07 64.34 63.56 61.01 57.62 53.71 54.12 51.03 50.30 51.28 48.67 47.61 48.46 52.46 51.67 48.57 51.45 50.98 51.46 49.87 52.50 52.91 55.38 61.35 62.66 63.37
56.41 56.67 56.70 57.22 58.56 58.49 58.75 58.39 58.65 59.24 58.75 58.62 59.89 62.36 62.20 61.12 55.15 55.26 64.34 64.63 63.88 63.09 60.61 61.12 58.77 53.69 49.95 50.02 49.32 49.09 48.98 52.67 49.67 48.97 48.72 50.30 49.46 52.40 49.68 49.48 52.99 53.64 59.10 60.46 61.66
56.04 56.49 56.75 56.69 58.00 57.95 58.63 58.60 58.23 59.07 58.10 58.10 59.57 62.17 61.37 58.55 46.07 58.76 63.42 63.81 63.73 59.96 58.01 58.90 57.95 52.67 51.17 48.37 50.55 48.44 50.26 48.07 50.35 48.89 48.80 47.78 51.00 48.96 50.16 47.56 51.89 57.37 60.24 59.80 60.02
55.59 55.90 56.22 56.83 57.53 57.80 58.43 58.31 57.88 58.27 58.96 59.32 58.10 61.48 58.70 52.64 52.82 58.29 62.53 62.27 59.70 58.64 55.78 56.41 56.53 53.51 50.19 50.79 50.95 49.57 48.36 46.68 48.75 49.38 47.94 48.97 46.74 48.70 49.11 51.15 52.48 60.10 59.65 59.13 59.43
55.26 55.58 55.83 56.27 57.08 57.44 58.29 58.30 58.21 58.04 58.71 57.66 58.12 59.62 55.83 48.02 59.70 59.27 61.33 58.99 57.16 56.97 56.06 57.41 57.08 55.62 52.55 51.73 49.87 52.23 50.33 46.58 47.84 46.70 46.54 46.91 46.73 46.46 48.34 50.87 51.83 58.48 58.18 59.12 59.88
54.92 55.09 55.61 56.21 56.94 57.44 57.94 58.11 58.05 58.24 58.29 57.57 57.09 59.21 54.16 51.27 59.94 58.54 60.16 57.56 57.63 56.54 54.54 58.15 59.16 55.81 54.15 49.64 52.07 52.63 46.84 47.88 47.70 47.13 44.94 45.72 44.54 43.83 48.55 50.35 50.99 56.42 57.29 59.16 60.03
54.57 55.03 55.55 56.43 56.88 56.98 57.29 57.43 57.55 57.81 58.11 58.07 56.71 58.10 50.30 59.09 60.63 58.08 58.03 56.68 57.67 57.82 57.57 58.66 57.77 54.67 52.55 52.42 50.12 46.90 46.22 41.08 46.27 45.34 44.57 43.94 43.54 48.77 49.84 49.24 49.56 52.17 54.48 57.68 59.51
54.40 54.95 55.63 56.10 55.90 56.40 56.96 56.87 57.00 57.25 57.50 57.21 52.68 53.63 48.24 58.75 53.59 56.67 57.57 54.68 57.20 57.34 57.32 57.53 55.46 51.53 50.46 46.21 44.27 44.43 39.42 40.46 43.31 47.13 43.00 41.79 43.09 48.69 46.82 47.83 48.30 49.65 52.30 55.64 57.17
54.27 54.81 54.81 54.59 55.00 55.99 56.29 56.24 56.50 56.49 55.83 56.00 53.69 48.49 48.65 49.00 54.05 55.55 58.28 57.81 54.67 53.93 52.66 52.79 50.65 47.26 47.57 44.92 39.61 40.43 42.03 41.87 42.31 43.91 43.84 41.06 42.78 44.40 45.59 46.31 46.97 47.65 50.53 53.30 55.08
53.98 52.76 53.36 54.28 54.50 54.72 54.50 52.59 49.05 47.71 49.66 46.16 49.34 48.67 47.78 53.47 56.49 54.42 57.38 55.20 54.06 51.11 45.83 48.65 45.38 42.50 45.21 46.50 48.67 46.15 45.35 43.85 46.59 46.72 43.44 42.51 44.04 46.58 49.03 46.41 45.19 45.66 46.75 50.65 54.56
53.81 53.53 52.75 52.80 52.61 54.19 52.96 47.59 47.12 50.35 41.57 47.24 50.84 50.73 51.23 54.06 48.63 52.08 56.96 50.41 49.39 44.30 44.85 43.20 41.53 47.28 49.02 48.18 47.71 47.32 44.78 45.56 46.04 46.24 44.66 44.88 44.31 47.47 49.24 49.75 48.43 46.98 46.53 47.35 50.99
52.98 53.39 53.59 53.35 52.98 50.35 48.81 49.00 53.39 52.62 44.22 47.33 49.44 48.69 48.69 52.45 47.47 48.51 53.21 50.21 47.21 43.90 44.03 42.83 45.26 49.18 48.46 47.44 46.26 46.64 45.25 45.46 43.95 41.85 41.85 39.95 40.48 43.25 47.79 50.24 51.12 51.40 49.55 48.69 48.39
52.29 52.28 53.16 52.78 47.35 48.26 45.58 51.08 52.72 52.68 36.00 39.90 44.33 47.46 49.59 50.59 45.50 52.51 53.71 49.88 45.57 42.22 44.24 44.01 48.06 47.53 46.87 46.46 47.46 42.99 45.19 44.84 41.11 40.03 37.28 41.74 34.88 42.97 46.69 47.12 49.23 50.92 50.18 48.93 47.49
51.72 52.00 52.57 51.49 48.45 45.83 48.66 51.59 53.31 49.39 25.26 40.87 43.78 50.74 50.63 46.34 47.03 47.94 53.52 47.60 44.05 42.76 42.99 40.63 42.65 45.91 45.41 46.61 48.55 42.23 43.37 39.72 38.69 36.37 36.25 35.18 32.21 38.07 42.44 44.90 47.10 49.35 50.43 50.44 49.28
51.17 51.63 52.20 50.16 49.18 49.44 50.49 47.73 50.93 34.67 26.32 33.22 40.73 41.99 44.32 45.30 46.25 48.53 48.03 47.38 48.62 44.12 42.92 41.64 47.75 48.07 46.75 43.95 44.02 42.31 39.68 38.69 36.23 36.51 31.11 36.53 34.23 35.07 40.32 42.81 44.49 48.25 50.57 51.41 50.66
50.38 50.93 50.35 50.36 44.09 47.32 48.80 39.63 33.81 28.46 32.71 28.65 35.15 41.57 42.02 40.54 42.93 44.55 40.65 39.61 38.46 34.33 35.58 39.83 43.53 42.96 45.24 39.96 42.09 40.49 39.17 31.16 30.42 29.36 30.10 33.86 34.00 38.65 43.46 45.40 43.61 45.01 45.93 48.05 50.40
49.89 50.17 49.56 49.18 49.92 47.23 39.75 31.93 25.57 32.44 31.96 35.67 39.13 40.19 38.04 40.02 39.20 41.13 39.30 37.72 41.62 40.63 35.93 32.64 30.80 40.40 44.69 41.48 37.50 38.14 39.04 31.27 25.62 25.94 28.11 28.33 29.23 35.85 43.00 43.36 42.16 43.18 45.53 42.72 43.58
49.63 47.24 46.60 48.07 48.67 43.65 33.08 26.20 28.55 32.62 34.33 35.12 38.46 35.93 32.96 38.78 36.95 39.00 39.07 38.12 40.42 42.82 36.75 34.93 33.27 40.67 44.53 43.53 42.46 37.59 36.90 37.90 28.64 22.43 25.07 29.60 33.83 39.66 42.03 41.49 41.49 41.04 41.31 39.98 41.20
44.87 43.32 43.08 45.97 45.35 40.07 31.40 29.10 31.69 37.30 38.08 39.01 34.38 37.36 32.03 34.34 35.86 36.85 37.79 41.41 40.52 43.71 43.78 39.34 30.64 38.09 41.98 43.34 41.43 40.49 41.57 33.82 32.63 21.91 20.68 28.28 28.87 32.35 36.04 38.66 41.17 40.16 41.68 42.65 43.12
43.56 37.80 44.12 45.61 44.40 33.89 27.75 30.96 33.06 37.48 40.64 38.90 37.04 36.32 36.20 33.16 37.15 36.25 36.96 40.90 43.34 42.78 43.62 41.14 35.02 32.71 38.02 37.43 35.81 35.65 35.61 36.73 37.11 33.65 25.91 24.52 30.15 36.85 39.06 38.89 38.66 40.66 41.31 40.97 40.81
40.88 31.72 44.13 45.78 31.62 32.09 30.46 34.76 36.48 36.96 41.28 41.55 41.09 40.15 36.32 36.26 36.52 37.03 36.62 40.00 45.27 44.63 39.57 39.95 35.07 28.88 32.34 36.58 40.38 38.98 37.94 38.12 33.01 29.62 31.53 29.46 29.30 38.66 39.13 39.44 39.51 39.87 40.71 40.54 41.62
36.40 34.67 43.43 43.55 26.88 28.12 33.89 34.36 36.00 35.64 38.61 40.84 38.99 40.51 40.82 38.28 35.23 38.73 39.72 44.57 45.44 43.44 39.13 38.75 32.53 27.22 29.80 33.83 34.91 35.88 38.43 40.02 37.83 32.88 28.46 26.51 30.27 39.61 40.36 39.18 39.56 39.67 40.07 41.33 41.33
36.95 30.23 33.52 36.65 35.54 31.84 31.12 31.71 33.00 37.67 39.61 42.85 40.94 41.44 40.10 38.88 40.33 38.00 38.36 42.96 45.00 44.32 42.30 41.12 34.83 30.70 27.71 31.02 33.72 31.83 36.01 37.99 37.42 28.36 29.21 30.76 33.95 38.10 38.59 39.01 39.06 39.25 39.75 40.66 40.95
37.65 32.61 33.39 28.92 30.53 32.45 32.65 32.87 32.96 32.84 38.04 42.35 40.02 40.17 39.21 36.45 37.69 37.36 39.91 40.59 42.51 42.43 40.45 38.70 29.44 33.58 35.03 36.01 35.70 35.03 35.86 36.65 35.94 36.81 32.81 36.01 35.64 39.07 39.22 39.83 40.22 40.93 40.28 40.96 41.50
34.10 33.45 34.43 32.63 33.20 32.13 32.60 31.37 32.29 31.96 35.69 37.40 38.28 40.71 41.65 37.03 37.52 36.34 39.21 39.32 37.79 38.90 37.84 38.19 28.22 33.08 28.25 34.22 35.04 32.68 35.81 36.74 36.69 37.50 37.23 36.94 35.84 39.92 42.39 41.41 38.89 39.73 40.14 40.52 41.48
39.04 38.96 37.03 33.86 31.96 30.72 30.82 31.59 33.56 36.37 37.78 39.80 40.52 40.87 40.21 40.32 41.32 42.22 43.76 41.95 41.59 38.68 36.96 35.90 32.83 29.48 25.31 29.89 30.10 24.17 32.32 35.08 36.26 37.91 38.01 33.57 38.45 39.73 39.26 39.75 39.68 39.96 40.95 41.37 41.18